<?xml version="1.0" encoding="UTF-8" standalone="no" ?>
<gpx xmlns="http://www.topografix.com/GPX/1/1" xmlns:xsi="http://www.w3.org/2001/XMLSchema-instance" xsi:schemaLocation="http://www.topografix.com/GPX/1/1 http://www.topografix.com/GPX/1/1/gpx.xsd" version="1.1" creator="VisuGPX - https://www.visugpx.com">
  <metadata>
    <name>CLERMONT VICHY - vendredi 16 février 2018</name>
    <desc><![CDATA[sortie vélo de l' ECC, ce vendredi 16 février 2018. Départ 9 h de La Mourette à Aubière]]></desc>
  </metadata>
  <wpt lat="45.7483" lon="3.10256">
    <ele>392</ele>
    <name><![CDATA[CLERMONT VICHY]]></name>
    <type><![CDATA[Generic]]></type>
  </wpt>
  <trk>
    <name><![CDATA[CLERMONT VICHY]]></name>
    <trkseg>
      <trkpt lat="45.7483" lon="3.10256">
        <ele>392</ele>
        <time>2018-02-13T15:33:12Z</time>
      </trkpt>
      <trkpt lat="45.74842" lon="3.10287">
        <ele>392</ele>
        <time>2018-02-13T15:33:16Z</time>
      </trkpt>
      <trkpt lat="45.74846" lon="3.10298">
        <ele>391</ele>
        <time>2018-02-13T15:33:18Z</time>
      </trkpt>
      <trkpt lat="45.74852" lon="3.10305">
        <ele>391</ele>
        <time>2018-02-13T15:33:37Z</time>
      </trkpt>
      <trkpt lat="45.74916" lon="3.10465">
        <ele>390</ele>
        <time>2018-02-13T15:33:45Z</time>
      </trkpt>
      <trkpt lat="45.74938" lon="3.10516">
        <ele>389</ele>
        <time>2018-02-13T15:33:47Z</time>
      </trkpt>
      <trkpt lat="45.74972" lon="3.10573">
        <ele>389</ele>
        <time>2018-02-13T15:33:51Z</time>
      </trkpt>
      <trkpt lat="45.75004" lon="3.10611">
        <ele>388</ele>
        <time>2018-02-13T15:34:07Z</time>
      </trkpt>
      <trkpt lat="45.75012" lon="3.10618">
        <ele>388</ele>
        <time>2018-02-13T15:34:13Z</time>
      </trkpt>
      <trkpt lat="45.75029" lon="3.10642">
        <ele>387</ele>
        <time>2018-02-13T15:34:21Z</time>
      </trkpt>
      <trkpt lat="45.75031" lon="3.10647">
        <ele>387</ele>
        <time>2018-02-13T15:34:39Z</time>
      </trkpt>
      <trkpt lat="45.75031" lon="3.10651">
        <ele>387</ele>
        <time>2018-02-13T15:34:55Z</time>
      </trkpt>
      <trkpt lat="45.75033" lon="3.10659">
        <ele>387</ele>
        <time>2018-02-13T15:34:59Z</time>
      </trkpt>
      <trkpt lat="45.75037" lon="3.10665">
        <ele>386</ele>
        <time>2018-02-13T15:35:06Z</time>
      </trkpt>
      <trkpt lat="45.75043" lon="3.10667">
        <ele>386</ele>
        <time>2018-02-13T15:35:24Z</time>
      </trkpt>
      <trkpt lat="45.75045" lon="3.10667">
        <ele>386</ele>
        <time>2018-02-13T15:35:30Z</time>
      </trkpt>
      <trkpt lat="45.75047" lon="3.10666">
        <ele>386</ele>
        <time>2018-02-13T15:35:39Z</time>
      </trkpt>
      <trkpt lat="45.75069" lon="3.10684">
        <ele>386</ele>
        <time>2018-02-13T15:35:50Z</time>
      </trkpt>
      <trkpt lat="45.75084" lon="3.10736">
        <ele>385</ele>
        <time>2018-02-13T15:35:58Z</time>
      </trkpt>
      <trkpt lat="45.75092" lon="3.10759">
        <ele>385</ele>
        <time>2018-02-13T15:36:06Z</time>
      </trkpt>
      <trkpt lat="45.75107" lon="3.10797">
        <ele>384</ele>
        <time>2018-02-13T15:36:16Z</time>
      </trkpt>
      <trkpt lat="45.75127" lon="3.10833">
        <ele>384</ele>
        <time>2018-02-13T15:36:32Z</time>
      </trkpt>
      <trkpt lat="45.75149" lon="3.10869">
        <ele>383</ele>
        <time>2018-02-13T15:36:44Z</time>
      </trkpt>
      <trkpt lat="45.75156" lon="3.10886">
        <ele>382</ele>
        <time>2018-02-13T15:36:49Z</time>
      </trkpt>
      <trkpt lat="45.75156" lon="3.10889">
        <ele>382</ele>
        <time>2018-02-13T15:37:05Z</time>
      </trkpt>
      <trkpt lat="45.75158" lon="3.10894">
        <ele>382</ele>
        <time>2018-02-13T15:37:16Z</time>
      </trkpt>
      <trkpt lat="45.7516" lon="3.10898">
        <ele>382</ele>
        <time>2018-02-13T15:37:24Z</time>
      </trkpt>
      <trkpt lat="45.75167" lon="3.10901">
        <ele>382</ele>
        <time>2018-02-13T15:37:43Z</time>
      </trkpt>
      <trkpt lat="45.75182" lon="3.10926">
        <ele>380</ele>
        <time>2018-02-13T15:37:48Z</time>
      </trkpt>
      <trkpt lat="45.75238" lon="3.11031">
        <ele>379</ele>
        <time>2018-02-13T15:37:50Z</time>
      </trkpt>
      <trkpt lat="45.75252" lon="3.11056">
        <ele>377</ele>
        <time>2018-02-13T15:37:53Z</time>
      </trkpt>
      <trkpt lat="45.75267" lon="3.11093">
        <ele>377</ele>
        <time>2018-02-13T15:38:04Z</time>
      </trkpt>
      <trkpt lat="45.75277" lon="3.11143">
        <ele>376</ele>
        <time>2018-02-13T15:38:19Z</time>
      </trkpt>
      <trkpt lat="45.75295" lon="3.11209">
        <ele>375</ele>
        <time>2018-02-13T15:38:28Z</time>
      </trkpt>
      <trkpt lat="45.75307" lon="3.11234">
        <ele>375</ele>
        <time>2018-02-13T15:38:44Z</time>
      </trkpt>
      <trkpt lat="45.75354" lon="3.11309">
        <ele>374</ele>
        <time>2018-02-13T15:38:50Z</time>
      </trkpt>
      <trkpt lat="45.75394" lon="3.11375">
        <ele>374</ele>
        <time>2018-02-13T15:39:01Z</time>
      </trkpt>
      <trkpt lat="45.7541" lon="3.11408">
        <ele>373</ele>
        <time>2018-02-13T15:39:13Z</time>
      </trkpt>
      <trkpt lat="45.75488" lon="3.11577">
        <ele>373</ele>
        <time>2018-02-13T15:39:22Z</time>
      </trkpt>
      <trkpt lat="45.755" lon="3.116">
        <ele>372</ele>
        <time>2018-02-13T15:39:40Z</time>
      </trkpt>
      <trkpt lat="45.7549" lon="3.1161">
        <ele>372</ele>
        <time>2018-02-13T15:39:55Z</time>
      </trkpt>
      <trkpt lat="45.75462" lon="3.11626">
        <ele>371</ele>
        <time>2018-02-13T15:40:15Z</time>
      </trkpt>
      <trkpt lat="45.75409" lon="3.11647">
        <ele>372</ele>
        <time>2018-02-13T15:40:25Z</time>
      </trkpt>
      <trkpt lat="45.75354" lon="3.11673">
        <ele>372</ele>
        <time>2018-02-13T15:40:43Z</time>
      </trkpt>
      <trkpt lat="45.75342" lon="3.11681">
        <ele>372</ele>
        <time>2018-02-13T15:40:52Z</time>
      </trkpt>
      <trkpt lat="45.75332" lon="3.11695">
        <ele>371</ele>
        <time>2018-02-13T15:40:59Z</time>
      </trkpt>
      <trkpt lat="45.75327" lon="3.11704">
        <ele>371</ele>
        <time>2018-02-13T15:41:16Z</time>
      </trkpt>
      <trkpt lat="45.75315" lon="3.11736">
        <ele>371</ele>
        <time>2018-02-13T15:41:32Z</time>
      </trkpt>
      <trkpt lat="45.75306" lon="3.11757">
        <ele>371</ele>
        <time>2018-02-13T15:41:50Z</time>
      </trkpt>
      <trkpt lat="45.75289" lon="3.11776">
        <ele>371</ele>
        <time>2018-02-13T15:42:04Z</time>
      </trkpt>
      <trkpt lat="45.75278" lon="3.11783">
        <ele>370</ele>
        <time>2018-02-13T15:42:22Z</time>
      </trkpt>
      <trkpt lat="45.75253" lon="3.1179">
        <ele>369</ele>
        <time>2018-02-13T15:42:28Z</time>
      </trkpt>
      <trkpt lat="45.75228" lon="3.11796">
        <ele>369</ele>
        <time>2018-02-13T15:42:47Z</time>
      </trkpt>
      <trkpt lat="45.75216" lon="3.11798">
        <ele>369</ele>
        <time>2018-02-13T15:43:07Z</time>
      </trkpt>
      <trkpt lat="45.75203" lon="3.11802">
        <ele>369</ele>
        <time>2018-02-13T15:43:22Z</time>
      </trkpt>
      <trkpt lat="45.75202" lon="3.11796">
        <ele>369</ele>
        <time>2018-02-13T15:43:27Z</time>
      </trkpt>
      <trkpt lat="45.75207" lon="3.11831">
        <ele>369</ele>
        <time>2018-02-13T15:43:37Z</time>
      </trkpt>
      <trkpt lat="45.75214" lon="3.11884">
        <ele>369</ele>
        <time>2018-02-13T15:43:53Z</time>
      </trkpt>
      <trkpt lat="45.75213" lon="3.11899">
        <ele>368</ele>
        <time>2018-02-13T15:43:55Z</time>
      </trkpt>
      <trkpt lat="45.75226" lon="3.11999">
        <ele>367</ele>
        <time>2018-02-13T15:44:13Z</time>
      </trkpt>
      <trkpt lat="45.75231" lon="3.12043">
        <ele>366</ele>
        <time>2018-02-13T15:44:29Z</time>
      </trkpt>
      <trkpt lat="45.75238" lon="3.12072">
        <ele>366</ele>
        <time>2018-02-13T15:44:37Z</time>
      </trkpt>
      <trkpt lat="45.75252" lon="3.12103">
        <ele>365</ele>
        <time>2018-02-13T15:44:45Z</time>
      </trkpt>
      <trkpt lat="45.75276" lon="3.12146">
        <ele>365</ele>
        <time>2018-02-13T15:45:02Z</time>
      </trkpt>
      <trkpt lat="45.75284" lon="3.12168">
        <ele>364</ele>
        <time>2018-02-13T15:45:05Z</time>
      </trkpt>
      <trkpt lat="45.75293" lon="3.12202">
        <ele>364</ele>
        <time>2018-02-13T15:45:17Z</time>
      </trkpt>
      <trkpt lat="45.75297" lon="3.12234">
        <ele>363</ele>
        <time>2018-02-13T15:45:36Z</time>
      </trkpt>
      <trkpt lat="45.75301" lon="3.12258">
        <ele>363</ele>
        <time>2018-02-13T15:45:55Z</time>
      </trkpt>
      <trkpt lat="45.75308" lon="3.12283">
        <ele>363</ele>
        <time>2018-02-13T15:46:13Z</time>
      </trkpt>
      <trkpt lat="45.75329" lon="3.12319">
        <ele>363</ele>
        <time>2018-02-13T15:46:15Z</time>
      </trkpt>
      <trkpt lat="45.75407" lon="3.12432">
        <ele>362</ele>
        <time>2018-02-13T15:46:31Z</time>
      </trkpt>
      <trkpt lat="45.75411" lon="3.12435">
        <ele>362</ele>
        <time>2018-02-13T15:46:38Z</time>
      </trkpt>
      <trkpt lat="45.75419" lon="3.12447">
        <ele>362</ele>
        <time>2018-02-13T15:46:42Z</time>
      </trkpt>
      <trkpt lat="45.7543" lon="3.12479">
        <ele>361</ele>
        <time>2018-02-13T15:46:46Z</time>
      </trkpt>
      <trkpt lat="45.75439" lon="3.12518">
        <ele>361</ele>
        <time>2018-02-13T15:46:53Z</time>
      </trkpt>
      <trkpt lat="45.75439" lon="3.12533">
        <ele>360</ele>
        <time>2018-02-13T15:46:55Z</time>
      </trkpt>
      <trkpt lat="45.75443" lon="3.12556">
        <ele>360</ele>
        <time>2018-02-13T15:47:09Z</time>
      </trkpt>
      <trkpt lat="45.75453" lon="3.12601">
        <ele>359</ele>
        <time>2018-02-13T15:47:28Z</time>
      </trkpt>
      <trkpt lat="45.75488" lon="3.1276">
        <ele>358</ele>
        <time>2018-02-13T15:47:38Z</time>
      </trkpt>
      <trkpt lat="45.75492" lon="3.12789">
        <ele>358</ele>
        <time>2018-02-13T15:47:43Z</time>
      </trkpt>
      <trkpt lat="45.75489" lon="3.12801">
        <ele>358</ele>
        <time>2018-02-13T15:47:53Z</time>
      </trkpt>
      <trkpt lat="45.7549" lon="3.12811">
        <ele>358</ele>
        <time>2018-02-13T15:48:13Z</time>
      </trkpt>
      <trkpt lat="45.75494" lon="3.12817">
        <ele>358</ele>
        <time>2018-02-13T15:48:22Z</time>
      </trkpt>
      <trkpt lat="45.75502" lon="3.12827">
        <ele>358</ele>
        <time>2018-02-13T15:48:29Z</time>
      </trkpt>
      <trkpt lat="45.75507" lon="3.12827">
        <ele>358</ele>
        <time>2018-02-13T15:48:38Z</time>
      </trkpt>
      <trkpt lat="45.75515" lon="3.12846">
        <ele>358</ele>
        <time>2018-02-13T15:48:50Z</time>
      </trkpt>
      <trkpt lat="45.75546" lon="3.12916">
        <ele>358</ele>
        <time>2018-02-13T15:48:59Z</time>
      </trkpt>
      <trkpt lat="45.75553" lon="3.12927">
        <ele>357</ele>
        <time>2018-02-13T15:49:09Z</time>
      </trkpt>
      <trkpt lat="45.75589" lon="3.13011">
        <ele>356</ele>
        <time>2018-02-13T15:49:13Z</time>
      </trkpt>
      <trkpt lat="45.75606" lon="3.13053">
        <ele>355</ele>
        <time>2018-02-13T15:49:29Z</time>
      </trkpt>
      <trkpt lat="45.75625" lon="3.13112">
        <ele>355</ele>
        <time>2018-02-13T15:49:48Z</time>
      </trkpt>
      <trkpt lat="45.75689" lon="3.13338">
        <ele>354</ele>
        <time>2018-02-13T15:49:55Z</time>
      </trkpt>
      <trkpt lat="45.75715" lon="3.13471">
        <ele>354</ele>
        <time>2018-02-13T15:50:15Z</time>
      </trkpt>
      <trkpt lat="45.75754" lon="3.13646">
        <ele>354</ele>
        <time>2018-02-13T15:50:34Z</time>
      </trkpt>
      <trkpt lat="45.75762" lon="3.1369">
        <ele>354</ele>
        <time>2018-02-13T15:50:46Z</time>
      </trkpt>
      <trkpt lat="45.75762" lon="3.13699">
        <ele>354</ele>
        <time>2018-02-13T15:50:58Z</time>
      </trkpt>
      <trkpt lat="45.7576" lon="3.13699">
        <ele>354</ele>
        <time>2018-02-13T15:51:01Z</time>
      </trkpt>
      <trkpt lat="45.75758" lon="3.137">
        <ele>354</ele>
        <time>2018-02-13T15:51:09Z</time>
      </trkpt>
      <trkpt lat="45.75756" lon="3.13706">
        <ele>354</ele>
        <time>2018-02-13T15:51:13Z</time>
      </trkpt>
      <trkpt lat="45.75756" lon="3.13708">
        <ele>354</ele>
        <time>2018-02-13T15:51:25Z</time>
      </trkpt>
      <trkpt lat="45.75589" lon="3.13757">
        <ele>354</ele>
        <time>2018-02-13T15:51:32Z</time>
      </trkpt>
      <trkpt lat="45.75589" lon="3.13763">
        <ele>354</ele>
        <time>2018-02-13T15:51:50Z</time>
      </trkpt>
      <trkpt lat="45.75586" lon="3.13769">
        <ele>354</ele>
        <time>2018-02-13T15:51:54Z</time>
      </trkpt>
      <trkpt lat="45.7558" lon="3.13771">
        <ele>354</ele>
        <time>2018-02-13T15:52:02Z</time>
      </trkpt>
      <trkpt lat="45.75575" lon="3.13765">
        <ele>354</ele>
        <time>2018-02-13T15:52:19Z</time>
      </trkpt>
      <trkpt lat="45.75574" lon="3.13762">
        <ele>354</ele>
        <time>2018-02-13T15:52:34Z</time>
      </trkpt>
      <trkpt lat="45.75501" lon="3.1378">
        <ele>354</ele>
        <time>2018-02-13T15:52:53Z</time>
      </trkpt>
      <trkpt lat="45.75399" lon="3.13805">
        <ele>354</ele>
        <time>2018-02-13T15:52:56Z</time>
      </trkpt>
      <trkpt lat="45.75379" lon="3.13816">
        <ele>354</ele>
        <time>2018-02-13T15:53:14Z</time>
      </trkpt>
      <trkpt lat="45.75374" lon="3.13825">
        <ele>354</ele>
        <time>2018-02-13T15:53:27Z</time>
      </trkpt>
      <trkpt lat="45.75373" lon="3.13827">
        <ele>354</ele>
        <time>2018-02-13T15:53:41Z</time>
      </trkpt>
      <trkpt lat="45.75378" lon="3.13871">
        <ele>354</ele>
        <time>2018-02-13T15:53:55Z</time>
      </trkpt>
      <trkpt lat="45.75411" lon="3.14026">
        <ele>353</ele>
        <time>2018-02-13T15:53:58Z</time>
      </trkpt>
      <trkpt lat="45.75434" lon="3.14142">
        <ele>352</ele>
        <time>2018-02-13T15:54:18Z</time>
      </trkpt>
      <trkpt lat="45.75442" lon="3.14182">
        <ele>351</ele>
        <time>2018-02-13T15:54:31Z</time>
      </trkpt>
      <trkpt lat="45.75461" lon="3.14274">
        <ele>351</ele>
        <time>2018-02-13T15:54:38Z</time>
      </trkpt>
      <trkpt lat="45.75487" lon="3.14408">
        <ele>351</ele>
        <time>2018-02-13T15:54:43Z</time>
      </trkpt>
      <trkpt lat="45.75491" lon="3.14442">
        <ele>351</ele>
        <time>2018-02-13T15:54:48Z</time>
      </trkpt>
      <trkpt lat="45.75506" lon="3.14496">
        <ele>351</ele>
        <time>2018-02-13T15:54:50Z</time>
      </trkpt>
      <trkpt lat="45.75522" lon="3.14534">
        <ele>351</ele>
        <time>2018-02-13T15:55:00Z</time>
      </trkpt>
      <trkpt lat="45.75519" lon="3.14544">
        <ele>351</ele>
        <time>2018-02-13T15:55:14Z</time>
      </trkpt>
      <trkpt lat="45.75518" lon="3.14555">
        <ele>351</ele>
        <time>2018-02-13T15:55:23Z</time>
      </trkpt>
      <trkpt lat="45.75523" lon="3.14567">
        <ele>350</ele>
        <time>2018-02-13T15:55:33Z</time>
      </trkpt>
      <trkpt lat="45.75527" lon="3.1457">
        <ele>350</ele>
        <time>2018-02-13T15:55:48Z</time>
      </trkpt>
      <trkpt lat="45.75533" lon="3.14639">
        <ele>350</ele>
        <time>2018-02-13T15:56:08Z</time>
      </trkpt>
      <trkpt lat="45.75541" lon="3.14688">
        <ele>349</ele>
        <time>2018-02-13T15:56:18Z</time>
      </trkpt>
      <trkpt lat="45.75566" lon="3.14811">
        <ele>348</ele>
        <time>2018-02-13T15:56:28Z</time>
      </trkpt>
      <trkpt lat="45.75593" lon="3.14944">
        <ele>348</ele>
        <time>2018-02-13T15:56:46Z</time>
      </trkpt>
      <trkpt lat="45.75604" lon="3.14985">
        <ele>348</ele>
        <time>2018-02-13T15:57:05Z</time>
      </trkpt>
      <trkpt lat="45.75612" lon="3.14999">
        <ele>349</ele>
        <time>2018-02-13T15:57:16Z</time>
      </trkpt>
      <trkpt lat="45.75615" lon="3.15013">
        <ele>349</ele>
        <time>2018-02-13T15:57:30Z</time>
      </trkpt>
      <trkpt lat="45.75614" lon="3.15019">
        <ele>349</ele>
        <time>2018-02-13T15:57:34Z</time>
      </trkpt>
      <trkpt lat="45.75614" lon="3.15026">
        <ele>349</ele>
        <time>2018-02-13T15:57:38Z</time>
      </trkpt>
      <trkpt lat="45.75618" lon="3.15041">
        <ele>349</ele>
        <time>2018-02-13T15:57:47Z</time>
      </trkpt>
      <trkpt lat="45.75622" lon="3.15047">
        <ele>349</ele>
        <time>2018-02-13T15:57:52Z</time>
      </trkpt>
      <trkpt lat="45.75628" lon="3.15071">
        <ele>349</ele>
        <time>2018-02-13T15:58:12Z</time>
      </trkpt>
      <trkpt lat="45.75627" lon="3.15108">
        <ele>349</ele>
        <time>2018-02-13T15:58:25Z</time>
      </trkpt>
      <trkpt lat="45.75625" lon="3.15128">
        <ele>349</ele>
        <time>2018-02-13T15:58:44Z</time>
      </trkpt>
      <trkpt lat="45.75625" lon="3.15148">
        <ele>349</ele>
        <time>2018-02-13T15:58:53Z</time>
      </trkpt>
      <trkpt lat="45.75609" lon="3.15215">
        <ele>349</ele>
        <time>2018-02-13T15:59:11Z</time>
      </trkpt>
      <trkpt lat="45.75583" lon="3.1533">
        <ele>348</ele>
        <time>2018-02-13T15:59:29Z</time>
      </trkpt>
      <trkpt lat="45.75575" lon="3.15362">
        <ele>347</ele>
        <time>2018-02-13T15:59:42Z</time>
      </trkpt>
      <trkpt lat="45.75567" lon="3.15401">
        <ele>348</ele>
        <time>2018-02-13T15:59:46Z</time>
      </trkpt>
      <trkpt lat="45.75554" lon="3.15454">
        <ele>348</ele>
        <time>2018-02-13T15:59:50Z</time>
      </trkpt>
      <trkpt lat="45.75539" lon="3.15503">
        <ele>349</ele>
        <time>2018-02-13T16:00:04Z</time>
      </trkpt>
      <trkpt lat="45.75522" lon="3.15549">
        <ele>349</ele>
        <time>2018-02-13T16:00:19Z</time>
      </trkpt>
      <trkpt lat="45.75503" lon="3.15593">
        <ele>349</ele>
        <time>2018-02-13T16:00:24Z</time>
      </trkpt>
      <trkpt lat="45.75495" lon="3.15607">
        <ele>349</ele>
        <time>2018-02-13T16:00:35Z</time>
      </trkpt>
      <trkpt lat="45.75487" lon="3.1565">
        <ele>349</ele>
        <time>2018-02-13T16:00:48Z</time>
      </trkpt>
      <trkpt lat="45.75481" lon="3.15657">
        <ele>350</ele>
        <time>2018-02-13T16:00:57Z</time>
      </trkpt>
      <trkpt lat="45.75478" lon="3.15662">
        <ele>350</ele>
        <time>2018-02-13T16:01:04Z</time>
      </trkpt>
      <trkpt lat="45.75474" lon="3.15675">
        <ele>350</ele>
        <time>2018-02-13T16:01:15Z</time>
      </trkpt>
      <trkpt lat="45.75475" lon="3.15686">
        <ele>350</ele>
        <time>2018-02-13T16:01:24Z</time>
      </trkpt>
      <trkpt lat="45.75477" lon="3.15695">
        <ele>350</ele>
        <time>2018-02-13T16:01:32Z</time>
      </trkpt>
      <trkpt lat="45.75478" lon="3.15698">
        <ele>350</ele>
        <time>2018-02-13T16:01:51Z</time>
      </trkpt>
      <trkpt lat="45.75473" lon="3.1572">
        <ele>350</ele>
        <time>2018-02-13T16:02:00Z</time>
      </trkpt>
      <trkpt lat="45.75464" lon="3.15736">
        <ele>350</ele>
        <time>2018-02-13T16:02:07Z</time>
      </trkpt>
      <trkpt lat="45.75458" lon="3.1574">
        <ele>350</ele>
        <time>2018-02-13T16:02:16Z</time>
      </trkpt>
      <trkpt lat="45.75444" lon="3.15744">
        <ele>350</ele>
        <time>2018-02-13T16:02:36Z</time>
      </trkpt>
      <trkpt lat="45.7542" lon="3.15741">
        <ele>351</ele>
        <time>2018-02-13T16:02:39Z</time>
      </trkpt>
      <trkpt lat="45.75404" lon="3.15742">
        <ele>351</ele>
        <time>2018-02-13T16:02:43Z</time>
      </trkpt>
      <trkpt lat="45.75396" lon="3.15745">
        <ele>351</ele>
        <time>2018-02-13T16:02:59Z</time>
      </trkpt>
      <trkpt lat="45.75392" lon="3.15749">
        <ele>351</ele>
        <time>2018-02-13T16:03:19Z</time>
      </trkpt>
      <trkpt lat="45.75379" lon="3.15761">
        <ele>352</ele>
        <time>2018-02-13T16:03:34Z</time>
      </trkpt>
      <trkpt lat="45.7536" lon="3.15777">
        <ele>352</ele>
        <time>2018-02-13T16:03:36Z</time>
      </trkpt>
      <trkpt lat="45.75335" lon="3.15806">
        <ele>353</ele>
        <time>2018-02-13T16:03:39Z</time>
      </trkpt>
      <trkpt lat="45.75304" lon="3.15849">
        <ele>354</ele>
        <time>2018-02-13T16:03:43Z</time>
      </trkpt>
      <trkpt lat="45.75282" lon="3.15883">
        <ele>354</ele>
        <time>2018-02-13T16:03:51Z</time>
      </trkpt>
      <trkpt lat="45.75217" lon="3.16">
        <ele>356</ele>
        <time>2018-02-13T16:04:10Z</time>
      </trkpt>
      <trkpt lat="45.75147" lon="3.16126">
        <ele>358</ele>
        <time>2018-02-13T16:04:30Z</time>
      </trkpt>
      <trkpt lat="45.75085" lon="3.16241">
        <ele>360</ele>
        <time>2018-02-13T16:04:50Z</time>
      </trkpt>
      <trkpt lat="45.75052" lon="3.16307">
        <ele>362</ele>
        <time>2018-02-13T16:05:07Z</time>
      </trkpt>
      <trkpt lat="45.74988" lon="3.1644">
        <ele>365</ele>
        <time>2018-02-13T16:05:14Z</time>
      </trkpt>
      <trkpt lat="45.74944" lon="3.1654">
        <ele>368</ele>
        <time>2018-02-13T16:05:17Z</time>
      </trkpt>
      <trkpt lat="45.74848" lon="3.16803">
        <ele>371</ele>
        <time>2018-02-13T16:05:33Z</time>
      </trkpt>
      <trkpt lat="45.74839" lon="3.16819">
        <ele>372</ele>
        <time>2018-02-13T16:05:53Z</time>
      </trkpt>
      <trkpt lat="45.74824" lon="3.16861">
        <ele>372</ele>
        <time>2018-02-13T16:06:05Z</time>
      </trkpt>
      <trkpt lat="45.74824" lon="3.16863">
        <ele>372</ele>
        <time>2018-02-13T16:06:23Z</time>
      </trkpt>
      <trkpt lat="45.74807" lon="3.16905">
        <ele>373</ele>
        <time>2018-02-13T16:06:43Z</time>
      </trkpt>
      <trkpt lat="45.74795" lon="3.16919">
        <ele>373</ele>
        <time>2018-02-13T16:06:48Z</time>
      </trkpt>
      <trkpt lat="45.7479" lon="3.16922">
        <ele>373</ele>
        <time>2018-02-13T16:07:06Z</time>
      </trkpt>
      <trkpt lat="45.74784" lon="3.16928">
        <ele>373</ele>
        <time>2018-02-13T16:07:19Z</time>
      </trkpt>
      <trkpt lat="45.74776" lon="3.16945">
        <ele>374</ele>
        <time>2018-02-13T16:07:28Z</time>
      </trkpt>
      <trkpt lat="45.74776" lon="3.16959">
        <ele>374</ele>
        <time>2018-02-13T16:07:43Z</time>
      </trkpt>
      <trkpt lat="45.74778" lon="3.16972">
        <ele>375</ele>
        <time>2018-02-13T16:08:02Z</time>
      </trkpt>
      <trkpt lat="45.74782" lon="3.16979">
        <ele>375</ele>
        <time>2018-02-13T16:08:08Z</time>
      </trkpt>
      <trkpt lat="45.7478" lon="3.17004">
        <ele>375</ele>
        <time>2018-02-13T16:08:28Z</time>
      </trkpt>
      <trkpt lat="45.74773" lon="3.17037">
        <ele>375</ele>
        <time>2018-02-13T16:08:43Z</time>
      </trkpt>
      <trkpt lat="45.74764" lon="3.17078">
        <ele>375</ele>
        <time>2018-02-13T16:08:58Z</time>
      </trkpt>
      <trkpt lat="45.74751" lon="3.17118">
        <ele>375</ele>
        <time>2018-02-13T16:09:05Z</time>
      </trkpt>
      <trkpt lat="45.74733" lon="3.17169">
        <ele>376</ele>
        <time>2018-02-13T16:09:13Z</time>
      </trkpt>
      <trkpt lat="45.74668" lon="3.17315">
        <ele>377</ele>
        <time>2018-02-13T16:09:17Z</time>
      </trkpt>
      <trkpt lat="45.74615" lon="3.17432">
        <ele>377</ele>
        <time>2018-02-13T16:09:22Z</time>
      </trkpt>
      <trkpt lat="45.74587" lon="3.17484">
        <ele>378</ele>
        <time>2018-02-13T16:09:42Z</time>
      </trkpt>
      <trkpt lat="45.74567" lon="3.17517">
        <ele>379</ele>
        <time>2018-02-13T16:09:48Z</time>
      </trkpt>
      <trkpt lat="45.74525" lon="3.17587">
        <ele>380</ele>
        <time>2018-02-13T16:09:51Z</time>
      </trkpt>
      <trkpt lat="45.74506" lon="3.17616">
        <ele>381</ele>
        <time>2018-02-13T16:09:53Z</time>
      </trkpt>
      <trkpt lat="45.74475" lon="3.17665">
        <ele>381</ele>
        <time>2018-02-13T16:10:00Z</time>
      </trkpt>
      <trkpt lat="45.74442" lon="3.17721">
        <ele>382</ele>
        <time>2018-02-13T16:10:02Z</time>
      </trkpt>
      <trkpt lat="45.74426" lon="3.17743">
        <ele>382</ele>
        <time>2018-02-13T16:10:19Z</time>
      </trkpt>
      <trkpt lat="45.74421" lon="3.17741">
        <ele>382</ele>
        <time>2018-02-13T16:10:37Z</time>
      </trkpt>
      <trkpt lat="45.74416" lon="3.17742">
        <ele>382</ele>
        <time>2018-02-13T16:10:44Z</time>
      </trkpt>
      <trkpt lat="45.74412" lon="3.17746">
        <ele>382</ele>
        <time>2018-02-13T16:11:04Z</time>
      </trkpt>
      <trkpt lat="45.74409" lon="3.17753">
        <ele>382</ele>
        <time>2018-02-13T16:11:10Z</time>
      </trkpt>
      <trkpt lat="45.74408" lon="3.1776">
        <ele>382</ele>
        <time>2018-02-13T16:11:12Z</time>
      </trkpt>
      <trkpt lat="45.74409" lon="3.17763">
        <ele>383</ele>
        <time>2018-02-13T16:11:30Z</time>
      </trkpt>
      <trkpt lat="45.74375" lon="3.17808">
        <ele>383</ele>
        <time>2018-02-13T16:11:34Z</time>
      </trkpt>
      <trkpt lat="45.74353" lon="3.17836">
        <ele>383</ele>
        <time>2018-02-13T16:11:48Z</time>
      </trkpt>
      <trkpt lat="45.74351" lon="3.17842">
        <ele>383</ele>
        <time>2018-02-13T16:11:55Z</time>
      </trkpt>
      <trkpt lat="45.74339" lon="3.17861">
        <ele>384</ele>
        <time>2018-02-13T16:12:03Z</time>
      </trkpt>
      <trkpt lat="45.7429" lon="3.17968">
        <ele>385</ele>
        <time>2018-02-13T16:12:19Z</time>
      </trkpt>
      <trkpt lat="45.74192" lon="3.18189">
        <ele>387</ele>
        <time>2018-02-13T16:12:34Z</time>
      </trkpt>
      <trkpt lat="45.74154" lon="3.18278">
        <ele>389</ele>
        <time>2018-02-13T16:12:43Z</time>
      </trkpt>
      <trkpt lat="45.7413" lon="3.18344">
        <ele>389</ele>
        <time>2018-02-13T16:12:54Z</time>
      </trkpt>
      <trkpt lat="45.74112" lon="3.18405">
        <ele>389</ele>
        <time>2018-02-13T16:13:10Z</time>
      </trkpt>
      <trkpt lat="45.74099" lon="3.1847">
        <ele>389</ele>
        <time>2018-02-13T16:13:26Z</time>
      </trkpt>
      <trkpt lat="45.74097" lon="3.18497">
        <ele>388</ele>
        <time>2018-02-13T16:13:42Z</time>
      </trkpt>
      <trkpt lat="45.74092" lon="3.18569">
        <ele>388</ele>
        <time>2018-02-13T16:13:48Z</time>
      </trkpt>
      <trkpt lat="45.74089" lon="3.1863">
        <ele>389</ele>
        <time>2018-02-13T16:14:06Z</time>
      </trkpt>
      <trkpt lat="45.74081" lon="3.18773">
        <ele>389</ele>
        <time>2018-02-13T16:14:08Z</time>
      </trkpt>
      <trkpt lat="45.74075" lon="3.1884">
        <ele>389</ele>
        <time>2018-02-13T16:14:25Z</time>
      </trkpt>
      <trkpt lat="45.7404" lon="3.19085">
        <ele>388</ele>
        <time>2018-02-13T16:14:42Z</time>
      </trkpt>
      <trkpt lat="45.74022" lon="3.19209">
        <ele>386</ele>
        <time>2018-02-13T16:14:56Z</time>
      </trkpt>
      <trkpt lat="45.7401" lon="3.19269">
        <ele>385</ele>
        <time>2018-02-13T16:14:58Z</time>
      </trkpt>
      <trkpt lat="45.74" lon="3.19297">
        <ele>384</ele>
        <time>2018-02-13T16:15:18Z</time>
      </trkpt>
      <trkpt lat="45.73989" lon="3.19327">
        <ele>384</ele>
        <time>2018-02-13T16:15:26Z</time>
      </trkpt>
      <trkpt lat="45.73983" lon="3.19357">
        <ele>383</ele>
        <time>2018-02-13T16:15:31Z</time>
      </trkpt>
      <trkpt lat="45.73972" lon="3.19414">
        <ele>382</ele>
        <time>2018-02-13T16:15:36Z</time>
      </trkpt>
      <trkpt lat="45.73968" lon="3.19447">
        <ele>382</ele>
        <time>2018-02-13T16:15:38Z</time>
      </trkpt>
      <trkpt lat="45.73966" lon="3.19497">
        <ele>382</ele>
        <time>2018-02-13T16:15:43Z</time>
      </trkpt>
      <trkpt lat="45.73965" lon="3.19547">
        <ele>381</ele>
        <time>2018-02-13T16:15:47Z</time>
      </trkpt>
      <trkpt lat="45.73967" lon="3.19597">
        <ele>381</ele>
        <time>2018-02-13T16:16:01Z</time>
      </trkpt>
      <trkpt lat="45.73968" lon="3.19618">
        <ele>381</ele>
        <time>2018-02-13T16:16:05Z</time>
      </trkpt>
      <trkpt lat="45.73966" lon="3.19626">
        <ele>381</ele>
        <time>2018-02-13T16:16:20Z</time>
      </trkpt>
      <trkpt lat="45.7396" lon="3.19646">
        <ele>381</ele>
        <time>2018-02-13T16:16:38Z</time>
      </trkpt>
      <trkpt lat="45.7395" lon="3.19673">
        <ele>381</ele>
        <time>2018-02-13T16:16:55Z</time>
      </trkpt>
      <trkpt lat="45.73941" lon="3.1969">
        <ele>381</ele>
        <time>2018-02-13T16:17:05Z</time>
      </trkpt>
      <trkpt lat="45.7391" lon="3.19728">
        <ele>381</ele>
        <time>2018-02-13T16:17:10Z</time>
      </trkpt>
      <trkpt lat="45.73892" lon="3.19759">
        <ele>381</ele>
        <time>2018-02-13T16:17:25Z</time>
      </trkpt>
      <trkpt lat="45.73888" lon="3.19775">
        <ele>381</ele>
        <time>2018-02-13T16:17:45Z</time>
      </trkpt>
      <trkpt lat="45.73883" lon="3.19887">
        <ele>380</ele>
        <time>2018-02-13T16:17:54Z</time>
      </trkpt>
      <trkpt lat="45.7387" lon="3.19976">
        <ele>378</ele>
        <time>2018-02-13T16:18:02Z</time>
      </trkpt>
      <trkpt lat="45.73865" lon="3.20022">
        <ele>376</ele>
        <time>2018-02-13T16:18:22Z</time>
      </trkpt>
      <trkpt lat="45.73866" lon="3.20097">
        <ele>374</ele>
        <time>2018-02-13T16:18:33Z</time>
      </trkpt>
      <trkpt lat="45.73871" lon="3.20195">
        <ele>371</ele>
        <time>2018-02-13T16:18:52Z</time>
      </trkpt>
      <trkpt lat="45.73854" lon="3.20222">
        <ele>369</ele>
        <time>2018-02-13T16:18:56Z</time>
      </trkpt>
      <trkpt lat="45.73838" lon="3.20246">
        <ele>368</ele>
        <time>2018-02-13T16:19:02Z</time>
      </trkpt>
      <trkpt lat="45.73826" lon="3.20272">
        <ele>367</ele>
        <time>2018-02-13T16:19:20Z</time>
      </trkpt>
      <trkpt lat="45.73778" lon="3.204">
        <ele>365</ele>
        <time>2018-02-13T16:19:36Z</time>
      </trkpt>
      <trkpt lat="45.73769" lon="3.20414">
        <ele>364</ele>
        <time>2018-02-13T16:19:55Z</time>
      </trkpt>
      <trkpt lat="45.73749" lon="3.20432">
        <ele>363</ele>
        <time>2018-02-13T16:20:02Z</time>
      </trkpt>
      <trkpt lat="45.73739" lon="3.20437">
        <ele>363</ele>
        <time>2018-02-13T16:20:16Z</time>
      </trkpt>
      <trkpt lat="45.7372" lon="3.20442">
        <ele>361</ele>
        <time>2018-02-13T16:20:20Z</time>
      </trkpt>
      <trkpt lat="45.73652" lon="3.20455">
        <ele>360</ele>
        <time>2018-02-13T16:20:28Z</time>
      </trkpt>
      <trkpt lat="45.73637" lon="3.20459">
        <ele>359</ele>
        <time>2018-02-13T16:20:33Z</time>
      </trkpt>
      <trkpt lat="45.73618" lon="3.20467">
        <ele>359</ele>
        <time>2018-02-13T16:20:38Z</time>
      </trkpt>
      <trkpt lat="45.73607" lon="3.20475">
        <ele>358</ele>
        <time>2018-02-13T16:20:54Z</time>
      </trkpt>
      <trkpt lat="45.73581" lon="3.20502">
        <ele>357</ele>
        <time>2018-02-13T16:20:58Z</time>
      </trkpt>
      <trkpt lat="45.73547" lon="3.20547">
        <ele>355</ele>
        <time>2018-02-13T16:21:16Z</time>
      </trkpt>
      <trkpt lat="45.73532" lon="3.20578">
        <ele>354</ele>
        <time>2018-02-13T16:21:19Z</time>
      </trkpt>
      <trkpt lat="45.73521" lon="3.20608">
        <ele>353</ele>
        <time>2018-02-13T16:21:32Z</time>
      </trkpt>
      <trkpt lat="45.73504" lon="3.20677">
        <ele>351</ele>
        <time>2018-02-13T16:21:44Z</time>
      </trkpt>
      <trkpt lat="45.73487" lon="3.20752">
        <ele>350</ele>
        <time>2018-02-13T16:22:00Z</time>
      </trkpt>
      <trkpt lat="45.73476" lon="3.20787">
        <ele>349</ele>
        <time>2018-02-13T16:22:03Z</time>
      </trkpt>
      <trkpt lat="45.73464" lon="3.20809">
        <ele>348</ele>
        <time>2018-02-13T16:22:10Z</time>
      </trkpt>
      <trkpt lat="45.73448" lon="3.20827">
        <ele>348</ele>
        <time>2018-02-13T16:22:27Z</time>
      </trkpt>
      <trkpt lat="45.73428" lon="3.20842">
        <ele>346</ele>
        <time>2018-02-13T16:22:46Z</time>
      </trkpt>
      <trkpt lat="45.73364" lon="3.20884">
        <ele>345</ele>
        <time>2018-02-13T16:23:06Z</time>
      </trkpt>
      <trkpt lat="45.73354" lon="3.20895">
        <ele>343</ele>
        <time>2018-02-13T16:23:22Z</time>
      </trkpt>
      <trkpt lat="45.73345" lon="3.20902">
        <ele>342</ele>
        <time>2018-02-13T16:23:29Z</time>
      </trkpt>
      <trkpt lat="45.73309" lon="3.20926">
        <ele>342</ele>
        <time>2018-02-13T16:23:46Z</time>
      </trkpt>
      <trkpt lat="45.7329" lon="3.20938">
        <ele>341</ele>
        <time>2018-02-13T16:23:50Z</time>
      </trkpt>
      <trkpt lat="45.73266" lon="3.20958">
        <ele>340</ele>
        <time>2018-02-13T16:24:08Z</time>
      </trkpt>
      <trkpt lat="45.73259" lon="3.20966">
        <ele>339</ele>
        <time>2018-02-13T16:24:27Z</time>
      </trkpt>
      <trkpt lat="45.73259" lon="3.20969">
        <ele>339</ele>
        <time>2018-02-13T16:24:43Z</time>
      </trkpt>
      <trkpt lat="45.7326" lon="3.20972">
        <ele>339</ele>
        <time>2018-02-13T16:24:47Z</time>
      </trkpt>
      <trkpt lat="45.7326" lon="3.20978">
        <ele>339</ele>
        <time>2018-02-13T16:25:00Z</time>
      </trkpt>
      <trkpt lat="45.73254" lon="3.20987">
        <ele>339</ele>
        <time>2018-02-13T16:25:17Z</time>
      </trkpt>
      <trkpt lat="45.73249" lon="3.20989">
        <ele>339</ele>
        <time>2018-02-13T16:25:33Z</time>
      </trkpt>
      <trkpt lat="45.73245" lon="3.20988">
        <ele>339</ele>
        <time>2018-02-13T16:25:42Z</time>
      </trkpt>
      <trkpt lat="45.73243" lon="3.20987">
        <ele>339</ele>
        <time>2018-02-13T16:25:48Z</time>
      </trkpt>
      <trkpt lat="45.73237" lon="3.20995">
        <ele>338</ele>
        <time>2018-02-13T16:26:05Z</time>
      </trkpt>
      <trkpt lat="45.73199" lon="3.21045">
        <ele>337</ele>
        <time>2018-02-13T16:26:17Z</time>
      </trkpt>
      <trkpt lat="45.73177" lon="3.21073">
        <ele>336</ele>
        <time>2018-02-13T16:26:26Z</time>
      </trkpt>
      <trkpt lat="45.7316" lon="3.21094">
        <ele>335</ele>
        <time>2018-02-13T16:26:40Z</time>
      </trkpt>
      <trkpt lat="45.73143" lon="3.21109">
        <ele>334</ele>
        <time>2018-02-13T16:26:58Z</time>
      </trkpt>
      <trkpt lat="45.73117" lon="3.21127">
        <ele>332</ele>
        <time>2018-02-13T16:27:07Z</time>
      </trkpt>
      <trkpt lat="45.73062" lon="3.21169">
        <ele>331</ele>
        <time>2018-02-13T16:27:21Z</time>
      </trkpt>
      <trkpt lat="45.73033" lon="3.21192">
        <ele>330</ele>
        <time>2018-02-13T16:27:36Z</time>
      </trkpt>
      <trkpt lat="45.73022" lon="3.21203">
        <ele>329</ele>
        <time>2018-02-13T16:27:39Z</time>
      </trkpt>
      <trkpt lat="45.73016" lon="3.21206">
        <ele>329</ele>
        <time>2018-02-13T16:27:47Z</time>
      </trkpt>
      <trkpt lat="45.7301" lon="3.21218">
        <ele>328</ele>
        <time>2018-02-13T16:27:51Z</time>
      </trkpt>
      <trkpt lat="45.73005" lon="3.21226">
        <ele>326</ele>
        <time>2018-02-13T16:28:01Z</time>
      </trkpt>
      <trkpt lat="45.72996" lon="3.21245">
        <ele>324</ele>
        <time>2018-02-13T16:28:04Z</time>
      </trkpt>
      <trkpt lat="45.7295" lon="3.21342">
        <ele>324</ele>
        <time>2018-02-13T16:28:12Z</time>
      </trkpt>
      <trkpt lat="45.72945" lon="3.21354">
        <ele>325</ele>
        <time>2018-02-13T16:28:21Z</time>
      </trkpt>
      <trkpt lat="45.72909" lon="3.21428">
        <ele>326</ele>
        <time>2018-02-13T16:28:23Z</time>
      </trkpt>
      <trkpt lat="45.72884" lon="3.21485">
        <ele>325</ele>
        <time>2018-02-13T16:28:27Z</time>
      </trkpt>
      <trkpt lat="45.72868" lon="3.21529">
        <ele>324</ele>
        <time>2018-02-13T16:28:45Z</time>
      </trkpt>
      <trkpt lat="45.72859" lon="3.21581">
        <ele>323</ele>
        <time>2018-02-13T16:29:01Z</time>
      </trkpt>
      <trkpt lat="45.72857" lon="3.21636">
        <ele>323</ele>
        <time>2018-02-13T16:29:13Z</time>
      </trkpt>
      <trkpt lat="45.72862" lon="3.21692">
        <ele>323</ele>
        <time>2018-02-13T16:29:28Z</time>
      </trkpt>
      <trkpt lat="45.72874" lon="3.21792">
        <ele>323</ele>
        <time>2018-02-13T16:29:38Z</time>
      </trkpt>
      <trkpt lat="45.72914" lon="3.22139">
        <ele>323</ele>
        <time>2018-02-13T16:29:42Z</time>
      </trkpt>
      <trkpt lat="45.7297" lon="3.22627">
        <ele>322</ele>
        <time>2018-02-13T16:29:57Z</time>
      </trkpt>
      <trkpt lat="45.72975" lon="3.22681">
        <ele>322</ele>
        <time>2018-02-13T16:30:09Z</time>
      </trkpt>
      <trkpt lat="45.72974" lon="3.22698">
        <ele>322</ele>
        <time>2018-02-13T16:30:20Z</time>
      </trkpt>
      <trkpt lat="45.72976" lon="3.22732">
        <ele>321</ele>
        <time>2018-02-13T16:30:27Z</time>
      </trkpt>
      <trkpt lat="45.72978" lon="3.22747">
        <ele>321</ele>
        <time>2018-02-13T16:30:33Z</time>
      </trkpt>
      <trkpt lat="45.72982" lon="3.22772">
        <ele>321</ele>
        <time>2018-02-13T16:30:35Z</time>
      </trkpt>
      <trkpt lat="45.72981" lon="3.22773">
        <ele>321</ele>
        <time>2018-02-13T16:30:43Z</time>
      </trkpt>
      <trkpt lat="45.7298" lon="3.22776">
        <ele>321</ele>
        <time>2018-02-13T16:30:48Z</time>
      </trkpt>
      <trkpt lat="45.72977" lon="3.22794">
        <ele>321</ele>
        <time>2018-02-13T16:30:57Z</time>
      </trkpt>
      <trkpt lat="45.72979" lon="3.22805">
        <ele>321</ele>
        <time>2018-02-13T16:31:04Z</time>
      </trkpt>
      <trkpt lat="45.72982" lon="3.22812">
        <ele>321</ele>
        <time>2018-02-13T16:31:08Z</time>
      </trkpt>
      <trkpt lat="45.72989" lon="3.2282">
        <ele>321</ele>
        <time>2018-02-13T16:31:23Z</time>
      </trkpt>
      <trkpt lat="45.72997" lon="3.22822">
        <ele>321</ele>
        <time>2018-02-13T16:31:43Z</time>
      </trkpt>
      <trkpt lat="45.73004" lon="3.22821">
        <ele>321</ele>
        <time>2018-02-13T16:31:55Z</time>
      </trkpt>
      <trkpt lat="45.72994" lon="3.22845">
        <ele>321</ele>
        <time>2018-02-13T16:32:11Z</time>
      </trkpt>
      <trkpt lat="45.72989" lon="3.22868">
        <ele>321</ele>
        <time>2018-02-13T16:32:22Z</time>
      </trkpt>
      <trkpt lat="45.72987" lon="3.22879">
        <ele>321</ele>
        <time>2018-02-13T16:32:37Z</time>
      </trkpt>
      <trkpt lat="45.72979" lon="3.22904">
        <ele>321</ele>
        <time>2018-02-13T16:32:42Z</time>
      </trkpt>
      <trkpt lat="45.7297" lon="3.22951">
        <ele>322</ele>
        <time>2018-02-13T16:32:46Z</time>
      </trkpt>
      <trkpt lat="45.72961" lon="3.23006">
        <ele>324</ele>
        <time>2018-02-13T16:32:56Z</time>
      </trkpt>
      <trkpt lat="45.72945" lon="3.23107">
        <ele>326</ele>
        <time>2018-02-13T16:33:08Z</time>
      </trkpt>
      <trkpt lat="45.72938" lon="3.23159">
        <ele>327</ele>
        <time>2018-02-13T16:33:17Z</time>
      </trkpt>
      <trkpt lat="45.72938" lon="3.23174">
        <ele>329</ele>
        <time>2018-02-13T16:33:31Z</time>
      </trkpt>
      <trkpt lat="45.72942" lon="3.23221">
        <ele>330</ele>
        <time>2018-02-13T16:33:51Z</time>
      </trkpt>
      <trkpt lat="45.72944" lon="3.23251">
        <ele>331</ele>
        <time>2018-02-13T16:34:10Z</time>
      </trkpt>
      <trkpt lat="45.72943" lon="3.2327">
        <ele>332</ele>
        <time>2018-02-13T16:34:19Z</time>
      </trkpt>
      <trkpt lat="45.7294" lon="3.23282">
        <ele>332</ele>
        <time>2018-02-13T16:34:36Z</time>
      </trkpt>
      <trkpt lat="45.72948" lon="3.23286">
        <ele>333</ele>
        <time>2018-02-13T16:34:42Z</time>
      </trkpt>
      <trkpt lat="45.72948" lon="3.23295">
        <ele>334</ele>
        <time>2018-02-13T16:35:01Z</time>
      </trkpt>
      <trkpt lat="45.72951" lon="3.23323">
        <ele>336</ele>
        <time>2018-02-13T16:35:06Z</time>
      </trkpt>
      <trkpt lat="45.72957" lon="3.23353">
        <ele>339</ele>
        <time>2018-02-13T16:35:17Z</time>
      </trkpt>
      <trkpt lat="45.72969" lon="3.23384">
        <ele>342</ele>
        <time>2018-02-13T16:35:34Z</time>
      </trkpt>
      <trkpt lat="45.72991" lon="3.23432">
        <ele>346</ele>
        <time>2018-02-13T16:35:41Z</time>
      </trkpt>
      <trkpt lat="45.7301" lon="3.23469">
        <ele>350</ele>
        <time>2018-02-13T16:36:01Z</time>
      </trkpt>
      <trkpt lat="45.73025" lon="3.23491">
        <ele>352</ele>
        <time>2018-02-13T16:36:07Z</time>
      </trkpt>
      <trkpt lat="45.73035" lon="3.23508">
        <ele>354</ele>
        <time>2018-02-13T16:36:21Z</time>
      </trkpt>
      <trkpt lat="45.73037" lon="3.23522">
        <ele>355</ele>
        <time>2018-02-13T16:36:32Z</time>
      </trkpt>
      <trkpt lat="45.73051" lon="3.23529">
        <ele>356</ele>
        <time>2018-02-13T16:36:51Z</time>
      </trkpt>
      <trkpt lat="45.73077" lon="3.23549">
        <ele>357</ele>
        <time>2018-02-13T16:36:55Z</time>
      </trkpt>
      <trkpt lat="45.73113" lon="3.23592">
        <ele>358</ele>
        <time>2018-02-13T16:36:59Z</time>
      </trkpt>
      <trkpt lat="45.73126" lon="3.23613">
        <ele>358</ele>
        <time>2018-02-13T16:37:01Z</time>
      </trkpt>
      <trkpt lat="45.73141" lon="3.23643">
        <ele>358</ele>
        <time>2018-02-13T16:37:14Z</time>
      </trkpt>
      <trkpt lat="45.73157" lon="3.23684">
        <ele>359</ele>
        <time>2018-02-13T16:37:19Z</time>
      </trkpt>
      <trkpt lat="45.73179" lon="3.23748">
        <ele>360</ele>
        <time>2018-02-13T16:37:38Z</time>
      </trkpt>
      <trkpt lat="45.73181" lon="3.2376">
        <ele>360</ele>
        <time>2018-02-13T16:37:46Z</time>
      </trkpt>
      <trkpt lat="45.73181" lon="3.23761">
        <ele>360</ele>
        <time>2018-02-13T16:37:57Z</time>
      </trkpt>
      <trkpt lat="45.73182" lon="3.23761">
        <ele>360</ele>
        <time>2018-02-13T16:38:09Z</time>
      </trkpt>
      <trkpt lat="45.73183" lon="3.23761">
        <ele>360</ele>
        <time>2018-02-13T16:38:21Z</time>
      </trkpt>
      <trkpt lat="45.73184" lon="3.23763">
        <ele>360</ele>
        <time>2018-02-13T16:38:40Z</time>
      </trkpt>
      <trkpt lat="45.73185" lon="3.23766">
        <ele>360</ele>
        <time>2018-02-13T16:38:45Z</time>
      </trkpt>
      <trkpt lat="45.73184" lon="3.2377">
        <ele>360</ele>
        <time>2018-02-13T16:39:00Z</time>
      </trkpt>
      <trkpt lat="45.73212" lon="3.23797">
        <ele>360</ele>
        <time>2018-02-13T16:39:18Z</time>
      </trkpt>
      <trkpt lat="45.73227" lon="3.23817">
        <ele>359</ele>
        <time>2018-02-13T16:39:34Z</time>
      </trkpt>
      <trkpt lat="45.73241" lon="3.23841">
        <ele>359</ele>
        <time>2018-02-13T16:39:40Z</time>
      </trkpt>
      <trkpt lat="45.73279" lon="3.23929">
        <ele>360</ele>
        <time>2018-02-13T16:39:49Z</time>
      </trkpt>
      <trkpt lat="45.73328" lon="3.24086">
        <ele>362</ele>
        <time>2018-02-13T16:39:53Z</time>
      </trkpt>
      <trkpt lat="45.73341" lon="3.24116">
        <ele>364</ele>
        <time>2018-02-13T16:40:01Z</time>
      </trkpt>
      <trkpt lat="45.73356" lon="3.24145">
        <ele>365</ele>
        <time>2018-02-13T16:40:15Z</time>
      </trkpt>
      <trkpt lat="45.73372" lon="3.24173">
        <ele>367</ele>
        <time>2018-02-13T16:40:17Z</time>
      </trkpt>
      <trkpt lat="45.73407" lon="3.24217">
        <ele>370</ele>
        <time>2018-02-13T16:40:19Z</time>
      </trkpt>
      <trkpt lat="45.73507" lon="3.24325">
        <ele>372</ele>
        <time>2018-02-13T16:40:24Z</time>
      </trkpt>
      <trkpt lat="45.73547" lon="3.24377">
        <ele>371</ele>
        <time>2018-02-13T16:40:44Z</time>
      </trkpt>
      <trkpt lat="45.73585" lon="3.24448">
        <ele>368</ele>
        <time>2018-02-13T16:40:58Z</time>
      </trkpt>
      <trkpt lat="45.73631" lon="3.24539">
        <ele>365</ele>
        <time>2018-02-13T16:41:03Z</time>
      </trkpt>
      <trkpt lat="45.73651" lon="3.24578">
        <ele>362</ele>
        <time>2018-02-13T16:41:21Z</time>
      </trkpt>
      <trkpt lat="45.73674" lon="3.24617">
        <ele>359</ele>
        <time>2018-02-13T16:41:39Z</time>
      </trkpt>
      <trkpt lat="45.7374" lon="3.24708">
        <ele>355</ele>
        <time>2018-02-13T16:41:45Z</time>
      </trkpt>
      <trkpt lat="45.73796" lon="3.2479">
        <ele>351</ele>
        <time>2018-02-13T16:41:55Z</time>
      </trkpt>
      <trkpt lat="45.73827" lon="3.24836">
        <ele>349</ele>
        <time>2018-02-13T16:42:03Z</time>
      </trkpt>
      <trkpt lat="45.73846" lon="3.24865">
        <ele>348</ele>
        <time>2018-02-13T16:42:09Z</time>
      </trkpt>
      <trkpt lat="45.73884" lon="3.24927">
        <ele>349</ele>
        <time>2018-02-13T16:42:28Z</time>
      </trkpt>
      <trkpt lat="45.7389" lon="3.24941">
        <ele>350</ele>
        <time>2018-02-13T16:42:46Z</time>
      </trkpt>
      <trkpt lat="45.73902" lon="3.24976">
        <ele>351</ele>
        <time>2018-02-13T16:43:01Z</time>
      </trkpt>
      <trkpt lat="45.73902" lon="3.25001">
        <ele>352</ele>
        <time>2018-02-13T16:43:21Z</time>
      </trkpt>
      <trkpt lat="45.73902" lon="3.25011">
        <ele>352</ele>
        <time>2018-02-13T16:43:30Z</time>
      </trkpt>
      <trkpt lat="45.73897" lon="3.25041">
        <ele>352</ele>
        <time>2018-02-13T16:43:33Z</time>
      </trkpt>
      <trkpt lat="45.73897" lon="3.25063">
        <ele>352</ele>
        <time>2018-02-13T16:43:42Z</time>
      </trkpt>
      <trkpt lat="45.73901" lon="3.25096">
        <ele>352</ele>
        <time>2018-02-13T16:44:01Z</time>
      </trkpt>
      <trkpt lat="45.73907" lon="3.25121">
        <ele>351</ele>
        <time>2018-02-13T16:44:12Z</time>
      </trkpt>
      <trkpt lat="45.73913" lon="3.25132">
        <ele>351</ele>
        <time>2018-02-13T16:44:18Z</time>
      </trkpt>
      <trkpt lat="45.73999" lon="3.25314">
        <ele>351</ele>
        <time>2018-02-13T16:44:23Z</time>
      </trkpt>
      <trkpt lat="45.74007" lon="3.25332">
        <ele>351</ele>
        <time>2018-02-13T16:44:30Z</time>
      </trkpt>
      <trkpt lat="45.73997" lon="3.2534">
        <ele>351</ele>
        <time>2018-02-13T16:44:35Z</time>
      </trkpt>
      <trkpt lat="45.73993" lon="3.25343">
        <ele>351</ele>
        <time>2018-02-13T16:44:53Z</time>
      </trkpt>
      <trkpt lat="45.73972" lon="3.25342">
        <ele>351</ele>
        <time>2018-02-13T16:44:56Z</time>
      </trkpt>
      <trkpt lat="45.73961" lon="3.25347">
        <ele>351</ele>
        <time>2018-02-13T16:45:04Z</time>
      </trkpt>
      <trkpt lat="45.73947" lon="3.25363">
        <ele>351</ele>
        <time>2018-02-13T16:45:06Z</time>
      </trkpt>
      <trkpt lat="45.73936" lon="3.25366">
        <ele>351</ele>
        <time>2018-02-13T16:45:21Z</time>
      </trkpt>
      <trkpt lat="45.73928" lon="3.25362">
        <ele>352</ele>
        <time>2018-02-13T16:45:24Z</time>
      </trkpt>
      <trkpt lat="45.73921" lon="3.25354">
        <ele>352</ele>
        <time>2018-02-13T16:45:42Z</time>
      </trkpt>
      <trkpt lat="45.73912" lon="3.25332">
        <ele>352</ele>
        <time>2018-02-13T16:45:53Z</time>
      </trkpt>
      <trkpt lat="45.73899" lon="3.25297">
        <ele>351</ele>
        <time>2018-02-13T16:45:56Z</time>
      </trkpt>
      <trkpt lat="45.73895" lon="3.25277">
        <ele>350</ele>
        <time>2018-02-13T16:46:00Z</time>
      </trkpt>
      <trkpt lat="45.73892" lon="3.25252">
        <ele>350</ele>
        <time>2018-02-13T16:46:12Z</time>
      </trkpt>
      <trkpt lat="45.73887" lon="3.25237">
        <ele>350</ele>
        <time>2018-02-13T16:46:29Z</time>
      </trkpt>
      <trkpt lat="45.73866" lon="3.25209">
        <ele>350</ele>
        <time>2018-02-13T16:46:36Z</time>
      </trkpt>
      <trkpt lat="45.73851" lon="3.25198">
        <ele>351</ele>
        <time>2018-02-13T16:46:53Z</time>
      </trkpt>
      <trkpt lat="45.73831" lon="3.25193">
        <ele>352</ele>
        <time>2018-02-13T16:47:12Z</time>
      </trkpt>
      <trkpt lat="45.73815" lon="3.25184">
        <ele>352</ele>
        <time>2018-02-13T16:47:19Z</time>
      </trkpt>
      <trkpt lat="45.73795" lon="3.25158">
        <ele>352</ele>
        <time>2018-02-13T16:47:26Z</time>
      </trkpt>
      <trkpt lat="45.73776" lon="3.25132">
        <ele>352</ele>
        <time>2018-02-13T16:47:36Z</time>
      </trkpt>
      <trkpt lat="45.73763" lon="3.25119">
        <ele>353</ele>
        <time>2018-02-13T16:47:49Z</time>
      </trkpt>
      <trkpt lat="45.7375" lon="3.25099">
        <ele>354</ele>
        <time>2018-02-13T16:48:09Z</time>
      </trkpt>
      <trkpt lat="45.73744" lon="3.25081">
        <ele>353</ele>
        <time>2018-02-13T16:48:11Z</time>
      </trkpt>
      <trkpt lat="45.73744" lon="3.25037">
        <ele>352</ele>
        <time>2018-02-13T16:48:26Z</time>
      </trkpt>
      <trkpt lat="45.73748" lon="3.25022">
        <ele>351</ele>
        <time>2018-02-13T16:48:29Z</time>
      </trkpt>
      <trkpt lat="45.73774" lon="3.24972">
        <ele>350</ele>
        <time>2018-02-13T16:48:39Z</time>
      </trkpt>
      <trkpt lat="45.73794" lon="3.24945">
        <ele>349</ele>
        <time>2018-02-13T16:48:53Z</time>
      </trkpt>
      <trkpt lat="45.73774" lon="3.24972">
        <ele>350</ele>
        <time>2018-02-13T16:49:08Z</time>
      </trkpt>
      <trkpt lat="45.73748" lon="3.25022">
        <ele>351</ele>
        <time>2018-02-13T16:49:17Z</time>
      </trkpt>
      <trkpt lat="45.73744" lon="3.25037">
        <ele>352</ele>
        <time>2018-02-13T16:49:27Z</time>
      </trkpt>
      <trkpt lat="45.73743" lon="3.25056">
        <ele>353</ele>
        <time>2018-02-13T16:49:29Z</time>
      </trkpt>
      <trkpt lat="45.73744" lon="3.25081">
        <ele>354</ele>
        <time>2018-02-13T16:49:37Z</time>
      </trkpt>
      <trkpt lat="45.7375" lon="3.25099">
        <ele>354</ele>
        <time>2018-02-13T16:49:54Z</time>
      </trkpt>
      <trkpt lat="45.73763" lon="3.25119">
        <ele>353</ele>
        <time>2018-02-13T16:49:58Z</time>
      </trkpt>
      <trkpt lat="45.73776" lon="3.25132">
        <ele>352</ele>
        <time>2018-02-13T16:50:00Z</time>
      </trkpt>
      <trkpt lat="45.73815" lon="3.25184">
        <ele>352</ele>
        <time>2018-02-13T16:50:08Z</time>
      </trkpt>
      <trkpt lat="45.73831" lon="3.25193">
        <ele>352</ele>
        <time>2018-02-13T16:50:16Z</time>
      </trkpt>
      <trkpt lat="45.73851" lon="3.25198">
        <ele>351</ele>
        <time>2018-02-13T16:50:31Z</time>
      </trkpt>
      <trkpt lat="45.73866" lon="3.25209">
        <ele>350</ele>
        <time>2018-02-13T16:50:44Z</time>
      </trkpt>
      <trkpt lat="45.73887" lon="3.25237">
        <ele>350</ele>
        <time>2018-02-13T16:51:01Z</time>
      </trkpt>
      <trkpt lat="45.73892" lon="3.25252">
        <ele>350</ele>
        <time>2018-02-13T16:51:14Z</time>
      </trkpt>
      <trkpt lat="45.73895" lon="3.25277">
        <ele>350</ele>
        <time>2018-02-13T16:51:20Z</time>
      </trkpt>
      <trkpt lat="45.73899" lon="3.25297">
        <ele>351</ele>
        <time>2018-02-13T16:51:37Z</time>
      </trkpt>
      <trkpt lat="45.73904" lon="3.25308">
        <ele>352</ele>
        <time>2018-02-13T16:51:45Z</time>
      </trkpt>
      <trkpt lat="45.73921" lon="3.25354">
        <ele>352</ele>
        <time>2018-02-13T16:51:54Z</time>
      </trkpt>
      <trkpt lat="45.73928" lon="3.25362">
        <ele>352</ele>
        <time>2018-02-13T16:52:04Z</time>
      </trkpt>
      <trkpt lat="45.73936" lon="3.25366">
        <ele>351</ele>
        <time>2018-02-13T16:52:24Z</time>
      </trkpt>
      <trkpt lat="45.73947" lon="3.25363">
        <ele>351</ele>
        <time>2018-02-13T16:52:37Z</time>
      </trkpt>
      <trkpt lat="45.73961" lon="3.25347">
        <ele>351</ele>
        <time>2018-02-13T16:52:45Z</time>
      </trkpt>
      <trkpt lat="45.73972" lon="3.25342">
        <ele>351</ele>
        <time>2018-02-13T16:52:55Z</time>
      </trkpt>
      <trkpt lat="45.73987" lon="3.25343">
        <ele>351</ele>
        <time>2018-02-13T16:53:00Z</time>
      </trkpt>
      <trkpt lat="45.73993" lon="3.25343">
        <ele>351</ele>
        <time>2018-02-13T16:53:11Z</time>
      </trkpt>
      <trkpt lat="45.73997" lon="3.2534">
        <ele>351</ele>
        <time>2018-02-13T16:53:30Z</time>
      </trkpt>
      <trkpt lat="45.74007" lon="3.25332">
        <ele>351</ele>
        <time>2018-02-13T16:53:35Z</time>
      </trkpt>
      <trkpt lat="45.74011" lon="3.2534">
        <ele>351</ele>
        <time>2018-02-13T16:53:47Z</time>
      </trkpt>
      <trkpt lat="45.74034" lon="3.25386">
        <ele>352</ele>
        <time>2018-02-13T16:54:03Z</time>
      </trkpt>
      <trkpt lat="45.74097" lon="3.2549">
        <ele>353</ele>
        <time>2018-02-13T16:54:22Z</time>
      </trkpt>
      <trkpt lat="45.74137" lon="3.2556">
        <ele>355</ele>
        <time>2018-02-13T16:54:24Z</time>
      </trkpt>
      <trkpt lat="45.74142" lon="3.25571">
        <ele>356</ele>
        <time>2018-02-13T16:54:43Z</time>
      </trkpt>
      <trkpt lat="45.74142" lon="3.25575">
        <ele>356</ele>
        <time>2018-02-13T16:55:01Z</time>
      </trkpt>
      <trkpt lat="45.74144" lon="3.2558">
        <ele>356</ele>
        <time>2018-02-13T16:55:18Z</time>
      </trkpt>
      <trkpt lat="45.74147" lon="3.25694">
        <ele>356</ele>
        <time>2018-02-13T16:55:30Z</time>
      </trkpt>
      <trkpt lat="45.74149" lon="3.25917">
        <ele>356</ele>
        <time>2018-02-13T16:55:38Z</time>
      </trkpt>
      <trkpt lat="45.74146" lon="3.25956">
        <ele>356</ele>
        <time>2018-02-13T16:55:46Z</time>
      </trkpt>
      <trkpt lat="45.74142" lon="3.25981">
        <ele>356</ele>
        <time>2018-02-13T16:56:03Z</time>
      </trkpt>
      <trkpt lat="45.7413" lon="3.26022">
        <ele>356</ele>
        <time>2018-02-13T16:56:19Z</time>
      </trkpt>
      <trkpt lat="45.74118" lon="3.26045">
        <ele>356</ele>
        <time>2018-02-13T16:56:23Z</time>
      </trkpt>
      <trkpt lat="45.74102" lon="3.2607">
        <ele>356</ele>
        <time>2018-02-13T16:56:31Z</time>
      </trkpt>
      <trkpt lat="45.74061" lon="3.26113">
        <ele>357</ele>
        <time>2018-02-13T16:56:36Z</time>
      </trkpt>
      <trkpt lat="45.73978" lon="3.26196">
        <ele>358</ele>
        <time>2018-02-13T16:56:43Z</time>
      </trkpt>
      <trkpt lat="45.73959" lon="3.26219">
        <ele>359</ele>
        <time>2018-02-13T16:56:45Z</time>
      </trkpt>
      <trkpt lat="45.73945" lon="3.2624">
        <ele>359</ele>
        <time>2018-02-13T16:56:57Z</time>
      </trkpt>
      <trkpt lat="45.73923" lon="3.26285">
        <ele>359</ele>
        <time>2018-02-13T16:57:09Z</time>
      </trkpt>
      <trkpt lat="45.73911" lon="3.26323">
        <ele>359</ele>
        <time>2018-02-13T16:57:20Z</time>
      </trkpt>
      <trkpt lat="45.7388" lon="3.26438">
        <ele>359</ele>
        <time>2018-02-13T16:57:39Z</time>
      </trkpt>
      <trkpt lat="45.73845" lon="3.26561">
        <ele>359</ele>
        <time>2018-02-13T16:57:56Z</time>
      </trkpt>
      <trkpt lat="45.73832" lon="3.26612">
        <ele>360</ele>
        <time>2018-02-13T16:58:10Z</time>
      </trkpt>
      <trkpt lat="45.7383" lon="3.26637">
        <ele>361</ele>
        <time>2018-02-13T16:58:23Z</time>
      </trkpt>
      <trkpt lat="45.73834" lon="3.26673">
        <ele>362</ele>
        <time>2018-02-13T16:58:35Z</time>
      </trkpt>
      <trkpt lat="45.73835" lon="3.26679">
        <ele>362</ele>
        <time>2018-02-13T16:58:47Z</time>
      </trkpt>
      <trkpt lat="45.73839" lon="3.26693">
        <ele>363</ele>
        <time>2018-02-13T16:58:51Z</time>
      </trkpt>
      <trkpt lat="45.73853" lon="3.2673">
        <ele>364</ele>
        <time>2018-02-13T16:59:02Z</time>
      </trkpt>
      <trkpt lat="45.73859" lon="3.26742">
        <ele>365</ele>
        <time>2018-02-13T16:59:10Z</time>
      </trkpt>
      <trkpt lat="45.73867" lon="3.26748">
        <ele>365</ele>
        <time>2018-02-13T16:59:27Z</time>
      </trkpt>
      <trkpt lat="45.73878" lon="3.26755">
        <ele>365</ele>
        <time>2018-02-13T16:59:33Z</time>
      </trkpt>
      <trkpt lat="45.73887" lon="3.26755">
        <ele>365</ele>
        <time>2018-02-13T16:59:49Z</time>
      </trkpt>
      <trkpt lat="45.73911" lon="3.26764">
        <ele>365</ele>
        <time>2018-02-13T17:00:08Z</time>
      </trkpt>
      <trkpt lat="45.73972" lon="3.26795">
        <ele>365</ele>
        <time>2018-02-13T17:00:11Z</time>
      </trkpt>
      <trkpt lat="45.74017" lon="3.26822">
        <ele>365</ele>
        <time>2018-02-13T17:00:30Z</time>
      </trkpt>
      <trkpt lat="45.74058" lon="3.26854">
        <ele>366</ele>
        <time>2018-02-13T17:00:41Z</time>
      </trkpt>
      <trkpt lat="45.74086" lon="3.26881">
        <ele>367</ele>
        <time>2018-02-13T17:00:53Z</time>
      </trkpt>
      <trkpt lat="45.74116" lon="3.26917">
        <ele>367</ele>
        <time>2018-02-13T17:01:02Z</time>
      </trkpt>
      <trkpt lat="45.74156" lon="3.26969">
        <ele>368</ele>
        <time>2018-02-13T17:01:20Z</time>
      </trkpt>
      <trkpt lat="45.74204" lon="3.27036">
        <ele>369</ele>
        <time>2018-02-13T17:01:38Z</time>
      </trkpt>
      <trkpt lat="45.74259" lon="3.2711">
        <ele>371</ele>
        <time>2018-02-13T17:01:56Z</time>
      </trkpt>
      <trkpt lat="45.74337" lon="3.27192">
        <ele>374</ele>
        <time>2018-02-13T17:02:14Z</time>
      </trkpt>
      <trkpt lat="45.74424" lon="3.27278">
        <ele>376</ele>
        <time>2018-02-13T17:02:33Z</time>
      </trkpt>
      <trkpt lat="45.74478" lon="3.27332">
        <ele>377</ele>
        <time>2018-02-13T17:02:39Z</time>
      </trkpt>
      <trkpt lat="45.74559" lon="3.27412">
        <ele>379</ele>
        <time>2018-02-13T17:02:54Z</time>
      </trkpt>
      <trkpt lat="45.74579" lon="3.27427">
        <ele>380</ele>
        <time>2018-02-13T17:03:06Z</time>
      </trkpt>
      <trkpt lat="45.74597" lon="3.27436">
        <ele>380</ele>
        <time>2018-02-13T17:03:21Z</time>
      </trkpt>
      <trkpt lat="45.74619" lon="3.27444">
        <ele>380</ele>
        <time>2018-02-13T17:03:32Z</time>
      </trkpt>
      <trkpt lat="45.74641" lon="3.2745">
        <ele>380</ele>
        <time>2018-02-13T17:03:47Z</time>
      </trkpt>
      <trkpt lat="45.74722" lon="3.2746">
        <ele>381</ele>
        <time>2018-02-13T17:03:51Z</time>
      </trkpt>
      <trkpt lat="45.74754" lon="3.27469">
        <ele>381</ele>
        <time>2018-02-13T17:03:54Z</time>
      </trkpt>
      <trkpt lat="45.74788" lon="3.27484">
        <ele>382</ele>
        <time>2018-02-13T17:04:08Z</time>
      </trkpt>
      <trkpt lat="45.74819" lon="3.275">
        <ele>382</ele>
        <time>2018-02-13T17:04:18Z</time>
      </trkpt>
      <trkpt lat="45.7486" lon="3.27529">
        <ele>382</ele>
        <time>2018-02-13T17:04:37Z</time>
      </trkpt>
      <trkpt lat="45.74894" lon="3.27557">
        <ele>383</ele>
        <time>2018-02-13T17:04:43Z</time>
      </trkpt>
      <trkpt lat="45.74915" lon="3.27579">
        <ele>383</ele>
        <time>2018-02-13T17:04:51Z</time>
      </trkpt>
      <trkpt lat="45.7494" lon="3.27604">
        <ele>383</ele>
        <time>2018-02-13T17:05:02Z</time>
      </trkpt>
      <trkpt lat="45.74954" lon="3.27622">
        <ele>383</ele>
        <time>2018-02-13T17:05:22Z</time>
      </trkpt>
      <trkpt lat="45.74966" lon="3.27645">
        <ele>383</ele>
        <time>2018-02-13T17:05:34Z</time>
      </trkpt>
      <trkpt lat="45.74975" lon="3.27666">
        <ele>384</ele>
        <time>2018-02-13T17:05:52Z</time>
      </trkpt>
      <trkpt lat="45.74999" lon="3.27734">
        <ele>386</ele>
        <time>2018-02-13T17:06:02Z</time>
      </trkpt>
      <trkpt lat="45.75007" lon="3.27755">
        <ele>387</ele>
        <time>2018-02-13T17:06:10Z</time>
      </trkpt>
      <trkpt lat="45.75015" lon="3.27769">
        <ele>387</ele>
        <time>2018-02-13T17:06:14Z</time>
      </trkpt>
      <trkpt lat="45.75028" lon="3.27783">
        <ele>388</ele>
        <time>2018-02-13T17:06:30Z</time>
      </trkpt>
      <trkpt lat="45.75042" lon="3.27791">
        <ele>388</ele>
        <time>2018-02-13T17:06:49Z</time>
      </trkpt>
      <trkpt lat="45.75056" lon="3.27795">
        <ele>388</ele>
        <time>2018-02-13T17:06:53Z</time>
      </trkpt>
      <trkpt lat="45.75064" lon="3.27795">
        <ele>388</ele>
        <time>2018-02-13T17:07:01Z</time>
      </trkpt>
      <trkpt lat="45.75089" lon="3.27791">
        <ele>388</ele>
        <time>2018-02-13T17:07:12Z</time>
      </trkpt>
      <trkpt lat="45.75103" lon="3.27795">
        <ele>389</ele>
        <time>2018-02-13T17:07:15Z</time>
      </trkpt>
      <trkpt lat="45.75115" lon="3.27805">
        <ele>389</ele>
        <time>2018-02-13T17:07:22Z</time>
      </trkpt>
      <trkpt lat="45.75126" lon="3.2782">
        <ele>390</ele>
        <time>2018-02-13T17:07:42Z</time>
      </trkpt>
      <trkpt lat="45.75113" lon="3.27857">
        <ele>391</ele>
        <time>2018-02-13T17:07:53Z</time>
      </trkpt>
      <trkpt lat="45.75105" lon="3.2791">
        <ele>392</ele>
        <time>2018-02-13T17:07:58Z</time>
      </trkpt>
      <trkpt lat="45.75103" lon="3.27924">
        <ele>394</ele>
        <time>2018-02-13T17:08:04Z</time>
      </trkpt>
      <trkpt lat="45.751" lon="3.27948">
        <ele>394</ele>
        <time>2018-02-13T17:08:20Z</time>
      </trkpt>
      <trkpt lat="45.75105" lon="3.27948">
        <ele>395</ele>
        <time>2018-02-13T17:08:30Z</time>
      </trkpt>
      <trkpt lat="45.75116" lon="3.2795">
        <ele>395</ele>
        <time>2018-02-13T17:08:32Z</time>
      </trkpt>
      <trkpt lat="45.7514" lon="3.2796">
        <ele>394</ele>
        <time>2018-02-13T17:08:42Z</time>
      </trkpt>
      <trkpt lat="45.75182" lon="3.27971">
        <ele>394</ele>
        <time>2018-02-13T17:08:48Z</time>
      </trkpt>
      <trkpt lat="45.75191" lon="3.27971">
        <ele>394</ele>
        <time>2018-02-13T17:08:51Z</time>
      </trkpt>
      <trkpt lat="45.75232" lon="3.27985">
        <ele>396</ele>
        <time>2018-02-13T17:09:08Z</time>
      </trkpt>
      <trkpt lat="45.75283" lon="3.28002">
        <ele>398</ele>
        <time>2018-02-13T17:09:12Z</time>
      </trkpt>
      <trkpt lat="45.7534" lon="3.28022">
        <ele>400</ele>
        <time>2018-02-13T17:09:16Z</time>
      </trkpt>
      <trkpt lat="45.75351" lon="3.28023">
        <ele>401</ele>
        <time>2018-02-13T17:09:34Z</time>
      </trkpt>
      <trkpt lat="45.75363" lon="3.28022">
        <ele>403</ele>
        <time>2018-02-13T17:09:49Z</time>
      </trkpt>
      <trkpt lat="45.75432" lon="3.28005">
        <ele>404</ele>
        <time>2018-02-13T17:09:53Z</time>
      </trkpt>
      <trkpt lat="45.75509" lon="3.27989">
        <ele>406</ele>
        <time>2018-02-13T17:10:04Z</time>
      </trkpt>
      <trkpt lat="45.7554" lon="3.2798">
        <ele>406</ele>
        <time>2018-02-13T17:10:18Z</time>
      </trkpt>
      <trkpt lat="45.75557" lon="3.27973">
        <ele>405</ele>
        <time>2018-02-13T17:10:25Z</time>
      </trkpt>
      <trkpt lat="45.75617" lon="3.27954">
        <ele>404</ele>
        <time>2018-02-13T17:10:41Z</time>
      </trkpt>
      <trkpt lat="45.75737" lon="3.27926">
        <ele>402</ele>
        <time>2018-02-13T17:10:53Z</time>
      </trkpt>
      <trkpt lat="45.75774" lon="3.27914">
        <ele>400</ele>
        <time>2018-02-13T17:11:12Z</time>
      </trkpt>
      <trkpt lat="45.75785" lon="3.27908">
        <ele>398</ele>
        <time>2018-02-13T17:11:28Z</time>
      </trkpt>
      <trkpt lat="45.75862" lon="3.27863">
        <ele>395</ele>
        <time>2018-02-13T17:11:35Z</time>
      </trkpt>
      <trkpt lat="45.76018" lon="3.27773">
        <ele>392</ele>
        <time>2018-02-13T17:11:55Z</time>
      </trkpt>
      <trkpt lat="45.76056" lon="3.27752">
        <ele>390</ele>
        <time>2018-02-13T17:12:07Z</time>
      </trkpt>
      <trkpt lat="45.76079" lon="3.27743">
        <ele>389</ele>
        <time>2018-02-13T17:12:23Z</time>
      </trkpt>
      <trkpt lat="45.76182" lon="3.27719">
        <ele>389</ele>
        <time>2018-02-13T17:12:39Z</time>
      </trkpt>
      <trkpt lat="45.76256" lon="3.27704">
        <ele>388</ele>
        <time>2018-02-13T17:12:46Z</time>
      </trkpt>
      <trkpt lat="45.76285" lon="3.277">
        <ele>387</ele>
        <time>2018-02-13T17:12:49Z</time>
      </trkpt>
      <trkpt lat="45.76317" lon="3.277">
        <ele>386</ele>
        <time>2018-02-13T17:13:09Z</time>
      </trkpt>
      <trkpt lat="45.76338" lon="3.27705">
        <ele>385</ele>
        <time>2018-02-13T17:13:21Z</time>
      </trkpt>
      <trkpt lat="45.7636" lon="3.27713">
        <ele>383</ele>
        <time>2018-02-13T17:13:23Z</time>
      </trkpt>
      <trkpt lat="45.76394" lon="3.2773">
        <ele>381</ele>
        <time>2018-02-13T17:13:40Z</time>
      </trkpt>
      <trkpt lat="45.76432" lon="3.27752">
        <ele>378</ele>
        <time>2018-02-13T17:13:44Z</time>
      </trkpt>
      <trkpt lat="45.76461" lon="3.2777">
        <ele>376</ele>
        <time>2018-02-13T17:13:59Z</time>
      </trkpt>
      <trkpt lat="45.76521" lon="3.27807">
        <ele>372</ele>
        <time>2018-02-13T17:14:18Z</time>
      </trkpt>
      <trkpt lat="45.76689" lon="3.27911">
        <ele>367</ele>
        <time>2018-02-13T17:14:20Z</time>
      </trkpt>
      <trkpt lat="45.76825" lon="3.27997">
        <ele>364</ele>
        <time>2018-02-13T17:14:27Z</time>
      </trkpt>
      <trkpt lat="45.76853" lon="3.28018">
        <ele>362</ele>
        <time>2018-02-13T17:14:34Z</time>
      </trkpt>
      <trkpt lat="45.76893" lon="3.28052">
        <ele>362</ele>
        <time>2018-02-13T17:14:41Z</time>
      </trkpt>
      <trkpt lat="45.76917" lon="3.2807">
        <ele>361</ele>
        <time>2018-02-13T17:14:53Z</time>
      </trkpt>
      <trkpt lat="45.7692" lon="3.28101">
        <ele>362</ele>
        <time>2018-02-13T17:15:05Z</time>
      </trkpt>
      <trkpt lat="45.76931" lon="3.28159">
        <ele>362</ele>
        <time>2018-02-13T17:15:14Z</time>
      </trkpt>
      <trkpt lat="45.76946" lon="3.28209">
        <ele>365</ele>
        <time>2018-02-13T17:15:25Z</time>
      </trkpt>
      <trkpt lat="45.76995" lon="3.28366">
        <ele>368</ele>
        <time>2018-02-13T17:15:27Z</time>
      </trkpt>
      <trkpt lat="45.77004" lon="3.28404">
        <ele>372</ele>
        <time>2018-02-13T17:15:45Z</time>
      </trkpt>
      <trkpt lat="45.77006" lon="3.28435">
        <ele>374</ele>
        <time>2018-02-13T17:16:02Z</time>
      </trkpt>
      <trkpt lat="45.77006" lon="3.28454">
        <ele>376</ele>
        <time>2018-02-13T17:16:20Z</time>
      </trkpt>
      <trkpt lat="45.77004" lon="3.28488">
        <ele>378</ele>
        <time>2018-02-13T17:16:32Z</time>
      </trkpt>
      <trkpt lat="45.76998" lon="3.28532">
        <ele>380</ele>
        <time>2018-02-13T17:16:49Z</time>
      </trkpt>
      <trkpt lat="45.76984" lon="3.2859">
        <ele>382</ele>
        <time>2018-02-13T17:16:57Z</time>
      </trkpt>
      <trkpt lat="45.76977" lon="3.28628">
        <ele>383</ele>
        <time>2018-02-13T17:17:16Z</time>
      </trkpt>
      <trkpt lat="45.76972" lon="3.28654">
        <ele>383</ele>
        <time>2018-02-13T17:17:27Z</time>
      </trkpt>
      <trkpt lat="45.76958" lon="3.28703">
        <ele>382</ele>
        <time>2018-02-13T17:17:33Z</time>
      </trkpt>
      <trkpt lat="45.76948" lon="3.28742">
        <ele>382</ele>
        <time>2018-02-13T17:17:51Z</time>
      </trkpt>
      <trkpt lat="45.76942" lon="3.2877">
        <ele>382</ele>
        <time>2018-02-13T17:18:10Z</time>
      </trkpt>
      <trkpt lat="45.76936" lon="3.28823">
        <ele>382</ele>
        <time>2018-02-13T17:18:17Z</time>
      </trkpt>
      <trkpt lat="45.76936" lon="3.28856">
        <ele>383</ele>
        <time>2018-02-13T17:18:35Z</time>
      </trkpt>
      <trkpt lat="45.76938" lon="3.28868">
        <ele>383</ele>
        <time>2018-02-13T17:18:40Z</time>
      </trkpt>
      <trkpt lat="45.76938" lon="3.28877">
        <ele>382</ele>
        <time>2018-02-13T17:19:00Z</time>
      </trkpt>
      <trkpt lat="45.76956" lon="3.28899">
        <ele>381</ele>
        <time>2018-02-13T17:19:04Z</time>
      </trkpt>
      <trkpt lat="45.76976" lon="3.28927">
        <ele>379</ele>
        <time>2018-02-13T17:19:10Z</time>
      </trkpt>
      <trkpt lat="45.76993" lon="3.28945">
        <ele>378</ele>
        <time>2018-02-13T17:19:12Z</time>
      </trkpt>
      <trkpt lat="45.77003" lon="3.28951">
        <ele>377</ele>
        <time>2018-02-13T17:19:25Z</time>
      </trkpt>
      <trkpt lat="45.77023" lon="3.28956">
        <ele>375</ele>
        <time>2018-02-13T17:19:37Z</time>
      </trkpt>
      <trkpt lat="45.77061" lon="3.28965">
        <ele>372</ele>
        <time>2018-02-13T17:19:56Z</time>
      </trkpt>
      <trkpt lat="45.77088" lon="3.28974">
        <ele>370</ele>
        <time>2018-02-13T17:20:09Z</time>
      </trkpt>
      <trkpt lat="45.77101" lon="3.28976">
        <ele>368</ele>
        <time>2018-02-13T17:20:16Z</time>
      </trkpt>
      <trkpt lat="45.77102" lon="3.29037">
        <ele>367</ele>
        <time>2018-02-13T17:20:24Z</time>
      </trkpt>
      <trkpt lat="45.77108" lon="3.29078">
        <ele>366</ele>
        <time>2018-02-13T17:20:43Z</time>
      </trkpt>
      <trkpt lat="45.77127" lon="3.29191">
        <ele>365</ele>
        <time>2018-02-13T17:20:47Z</time>
      </trkpt>
      <trkpt lat="45.77133" lon="3.29233">
        <ele>364</ele>
        <time>2018-02-13T17:20:57Z</time>
      </trkpt>
      <trkpt lat="45.77137" lon="3.29273">
        <ele>361</ele>
        <time>2018-02-13T17:21:08Z</time>
      </trkpt>
      <trkpt lat="45.77145" lon="3.29472">
        <ele>357</ele>
        <time>2018-02-13T17:21:15Z</time>
      </trkpt>
      <trkpt lat="45.77147" lon="3.29574">
        <ele>354</ele>
        <time>2018-02-13T17:21:23Z</time>
      </trkpt>
      <trkpt lat="45.77152" lon="3.29618">
        <ele>353</ele>
        <time>2018-02-13T17:21:31Z</time>
      </trkpt>
      <trkpt lat="45.77155" lon="3.29634">
        <ele>353</ele>
        <time>2018-02-13T17:21:45Z</time>
      </trkpt>
      <trkpt lat="45.7716" lon="3.29645">
        <ele>353</ele>
        <time>2018-02-13T17:22:00Z</time>
      </trkpt>
      <trkpt lat="45.77163" lon="3.29646">
        <ele>353</ele>
        <time>2018-02-13T17:22:13Z</time>
      </trkpt>
      <trkpt lat="45.77166" lon="3.29649">
        <ele>353</ele>
        <time>2018-02-13T17:22:17Z</time>
      </trkpt>
      <trkpt lat="45.77168" lon="3.29653">
        <ele>353</ele>
        <time>2018-02-13T17:22:23Z</time>
      </trkpt>
      <trkpt lat="45.7717" lon="3.29666">
        <ele>353</ele>
        <time>2018-02-13T17:22:33Z</time>
      </trkpt>
      <trkpt lat="45.77169" lon="3.29684">
        <ele>351</ele>
        <time>2018-02-13T17:22:52Z</time>
      </trkpt>
      <trkpt lat="45.77166" lon="3.29749">
        <ele>346</ele>
        <time>2018-02-13T17:23:04Z</time>
      </trkpt>
      <trkpt lat="45.77202" lon="3.30045">
        <ele>340</ele>
        <time>2018-02-13T17:23:16Z</time>
      </trkpt>
      <trkpt lat="45.77205" lon="3.30078">
        <ele>336</ele>
        <time>2018-02-13T17:23:35Z</time>
      </trkpt>
      <trkpt lat="45.77203" lon="3.30154">
        <ele>334</ele>
        <time>2018-02-13T17:23:49Z</time>
      </trkpt>
      <trkpt lat="45.77203" lon="3.3018">
        <ele>333</ele>
        <time>2018-02-13T17:23:58Z</time>
      </trkpt>
      <trkpt lat="45.77209" lon="3.30221">
        <ele>332</ele>
        <time>2018-02-13T17:24:12Z</time>
      </trkpt>
      <trkpt lat="45.77232" lon="3.30348">
        <ele>330</ele>
        <time>2018-02-13T17:24:27Z</time>
      </trkpt>
      <trkpt lat="45.77251" lon="3.30428">
        <ele>328</ele>
        <time>2018-02-13T17:24:36Z</time>
      </trkpt>
      <trkpt lat="45.77275" lon="3.30505">
        <ele>326</ele>
        <time>2018-02-13T17:24:50Z</time>
      </trkpt>
      <trkpt lat="45.77319" lon="3.30634">
        <ele>324</ele>
        <time>2018-02-13T17:24:55Z</time>
      </trkpt>
      <trkpt lat="45.77339" lon="3.307">
        <ele>323</ele>
        <time>2018-02-13T17:25:06Z</time>
      </trkpt>
      <trkpt lat="45.7735" lon="3.30758">
        <ele>322</ele>
        <time>2018-02-13T17:25:12Z</time>
      </trkpt>
      <trkpt lat="45.7737" lon="3.30868">
        <ele>321</ele>
        <time>2018-02-13T17:25:16Z</time>
      </trkpt>
      <trkpt lat="45.7738" lon="3.30934">
        <ele>321</ele>
        <time>2018-02-13T17:25:22Z</time>
      </trkpt>
      <trkpt lat="45.7739" lon="3.30998">
        <ele>321</ele>
        <time>2018-02-13T17:25:34Z</time>
      </trkpt>
      <trkpt lat="45.77397" lon="3.31026">
        <ele>322</ele>
        <time>2018-02-13T17:25:54Z</time>
      </trkpt>
      <trkpt lat="45.77418" lon="3.31081">
        <ele>322</ele>
        <time>2018-02-13T17:26:03Z</time>
      </trkpt>
      <trkpt lat="45.77432" lon="3.31109">
        <ele>321</ele>
        <time>2018-02-13T17:26:23Z</time>
      </trkpt>
      <trkpt lat="45.77447" lon="3.31132">
        <ele>320</ele>
        <time>2018-02-13T17:26:27Z</time>
      </trkpt>
      <trkpt lat="45.77461" lon="3.31147">
        <ele>320</ele>
        <time>2018-02-13T17:26:36Z</time>
      </trkpt>
      <trkpt lat="45.77476" lon="3.31159">
        <ele>320</ele>
        <time>2018-02-13T17:26:44Z</time>
      </trkpt>
      <trkpt lat="45.77492" lon="3.31169">
        <ele>320</ele>
        <time>2018-02-13T17:26:57Z</time>
      </trkpt>
      <trkpt lat="45.77513" lon="3.31178">
        <ele>320</ele>
        <time>2018-02-13T17:27:01Z</time>
      </trkpt>
      <trkpt lat="45.77541" lon="3.3119">
        <ele>320</ele>
        <time>2018-02-13T17:27:15Z</time>
      </trkpt>
      <trkpt lat="45.77554" lon="3.31197">
        <ele>320</ele>
        <time>2018-02-13T17:27:18Z</time>
      </trkpt>
      <trkpt lat="45.7757" lon="3.31207">
        <ele>320</ele>
        <time>2018-02-13T17:27:26Z</time>
      </trkpt>
      <trkpt lat="45.77587" lon="3.31222">
        <ele>320</ele>
        <time>2018-02-13T17:27:38Z</time>
      </trkpt>
      <trkpt lat="45.77607" lon="3.31248">
        <ele>320</ele>
        <time>2018-02-13T17:27:41Z</time>
      </trkpt>
      <trkpt lat="45.77671" lon="3.31363">
        <ele>321</ele>
        <time>2018-02-13T17:27:58Z</time>
      </trkpt>
      <trkpt lat="45.77707" lon="3.3142">
        <ele>321</ele>
        <time>2018-02-13T17:28:00Z</time>
      </trkpt>
      <trkpt lat="45.77727" lon="3.31454">
        <ele>321</ele>
        <time>2018-02-13T17:28:15Z</time>
      </trkpt>
      <trkpt lat="45.77735" lon="3.31472">
        <ele>321</ele>
        <time>2018-02-13T17:28:21Z</time>
      </trkpt>
      <trkpt lat="45.77743" lon="3.31495">
        <ele>321</ele>
        <time>2018-02-13T17:28:41Z</time>
      </trkpt>
      <trkpt lat="45.77761" lon="3.3156">
        <ele>321</ele>
        <time>2018-02-13T17:28:59Z</time>
      </trkpt>
      <trkpt lat="45.77774" lon="3.3159">
        <ele>322</ele>
        <time>2018-02-13T17:29:11Z</time>
      </trkpt>
      <trkpt lat="45.778" lon="3.31658">
        <ele>322</ele>
        <time>2018-02-13T17:29:21Z</time>
      </trkpt>
      <trkpt lat="45.77804" lon="3.31693">
        <ele>323</ele>
        <time>2018-02-13T17:29:37Z</time>
      </trkpt>
      <trkpt lat="45.77804" lon="3.31702">
        <ele>323</ele>
        <time>2018-02-13T17:29:51Z</time>
      </trkpt>
      <trkpt lat="45.77808" lon="3.31702">
        <ele>323</ele>
        <time>2018-02-13T17:30:09Z</time>
      </trkpt>
      <trkpt lat="45.77815" lon="3.31703">
        <ele>323</ele>
        <time>2018-02-13T17:30:26Z</time>
      </trkpt>
      <trkpt lat="45.77838" lon="3.31708">
        <ele>323</ele>
        <time>2018-02-13T17:30:28Z</time>
      </trkpt>
      <trkpt lat="45.77849" lon="3.31713">
        <ele>323</ele>
        <time>2018-02-13T17:30:33Z</time>
      </trkpt>
      <trkpt lat="45.77853" lon="3.31717">
        <ele>323</ele>
        <time>2018-02-13T17:30:45Z</time>
      </trkpt>
      <trkpt lat="45.77875" lon="3.31745">
        <ele>322</ele>
        <time>2018-02-13T17:30:53Z</time>
      </trkpt>
      <trkpt lat="45.77941" lon="3.31848">
        <ele>322</ele>
        <time>2018-02-13T17:31:13Z</time>
      </trkpt>
      <trkpt lat="45.77996" lon="3.31936">
        <ele>322</ele>
        <time>2018-02-13T17:31:17Z</time>
      </trkpt>
      <trkpt lat="45.78054" lon="3.32022">
        <ele>322</ele>
        <time>2018-02-13T17:31:28Z</time>
      </trkpt>
      <trkpt lat="45.78087" lon="3.3206">
        <ele>322</ele>
        <time>2018-02-13T17:31:47Z</time>
      </trkpt>
      <trkpt lat="45.78114" lon="3.32087">
        <ele>322</ele>
        <time>2018-02-13T17:31:54Z</time>
      </trkpt>
      <trkpt lat="45.78134" lon="3.32107">
        <ele>322</ele>
        <time>2018-02-13T17:32:10Z</time>
      </trkpt>
      <trkpt lat="45.78146" lon="3.32121">
        <ele>322</ele>
        <time>2018-02-13T17:32:17Z</time>
      </trkpt>
      <trkpt lat="45.78153" lon="3.32136">
        <ele>321</ele>
        <time>2018-02-13T17:32:37Z</time>
      </trkpt>
      <trkpt lat="45.78175" lon="3.32166">
        <ele>321</ele>
        <time>2018-02-13T17:32:39Z</time>
      </trkpt>
      <trkpt lat="45.78184" lon="3.32174">
        <ele>321</ele>
        <time>2018-02-13T17:32:56Z</time>
      </trkpt>
      <trkpt lat="45.7819" lon="3.32176">
        <ele>321</ele>
        <time>2018-02-13T17:33:00Z</time>
      </trkpt>
      <trkpt lat="45.782" lon="3.32178">
        <ele>321</ele>
        <time>2018-02-13T17:33:18Z</time>
      </trkpt>
      <trkpt lat="45.78194" lon="3.32236">
        <ele>321</ele>
        <time>2018-02-13T17:33:36Z</time>
      </trkpt>
      <trkpt lat="45.78183" lon="3.32296">
        <ele>322</ele>
        <time>2018-02-13T17:33:38Z</time>
      </trkpt>
      <trkpt lat="45.78153" lon="3.32449">
        <ele>323</ele>
        <time>2018-02-13T17:33:41Z</time>
      </trkpt>
      <trkpt lat="45.78151" lon="3.32469">
        <ele>324</ele>
        <time>2018-02-13T17:33:58Z</time>
      </trkpt>
      <trkpt lat="45.78123" lon="3.32599">
        <ele>324</ele>
        <time>2018-02-13T17:34:11Z</time>
      </trkpt>
      <trkpt lat="45.78092" lon="3.32747">
        <ele>324</ele>
        <time>2018-02-13T17:34:31Z</time>
      </trkpt>
      <trkpt lat="45.78081" lon="3.3281">
        <ele>324</ele>
        <time>2018-02-13T17:34:51Z</time>
      </trkpt>
      <trkpt lat="45.78074" lon="3.3289">
        <ele>324</ele>
        <time>2018-02-13T17:34:56Z</time>
      </trkpt>
      <trkpt lat="45.78074" lon="3.32973">
        <ele>324</ele>
        <time>2018-02-13T17:35:02Z</time>
      </trkpt>
      <trkpt lat="45.7808" lon="3.33113">
        <ele>324</ele>
        <time>2018-02-13T17:35:08Z</time>
      </trkpt>
      <trkpt lat="45.78079" lon="3.33167">
        <ele>323</ele>
        <time>2018-02-13T17:35:26Z</time>
      </trkpt>
      <trkpt lat="45.78064" lon="3.33402">
        <ele>323</ele>
        <time>2018-02-13T17:35:42Z</time>
      </trkpt>
      <trkpt lat="45.78046" lon="3.33652">
        <ele>323</ele>
        <time>2018-02-13T17:36:01Z</time>
      </trkpt>
      <trkpt lat="45.7804" lon="3.33748">
        <ele>323</ele>
        <time>2018-02-13T17:36:21Z</time>
      </trkpt>
      <trkpt lat="45.7803" lon="3.33866">
        <ele>324</ele>
        <time>2018-02-13T17:36:31Z</time>
      </trkpt>
      <trkpt lat="45.78009" lon="3.34081">
        <ele>324</ele>
        <time>2018-02-13T17:36:41Z</time>
      </trkpt>
      <trkpt lat="45.77993" lon="3.34262">
        <ele>324</ele>
        <time>2018-02-13T17:36:43Z</time>
      </trkpt>
      <trkpt lat="45.77993" lon="3.34338">
        <ele>324</ele>
        <time>2018-02-13T17:36:46Z</time>
      </trkpt>
      <trkpt lat="45.77998" lon="3.34385">
        <ele>323</ele>
        <time>2018-02-13T17:37:02Z</time>
      </trkpt>
      <trkpt lat="45.78013" lon="3.34489">
        <ele>323</ele>
        <time>2018-02-13T17:37:19Z</time>
      </trkpt>
      <trkpt lat="45.78015" lon="3.3451">
        <ele>323</ele>
        <time>2018-02-13T17:37:22Z</time>
      </trkpt>
      <trkpt lat="45.78023" lon="3.3459">
        <ele>324</ele>
        <time>2018-02-13T17:37:27Z</time>
      </trkpt>
      <trkpt lat="45.78024" lon="3.34627">
        <ele>324</ele>
        <time>2018-02-13T17:37:44Z</time>
      </trkpt>
      <trkpt lat="45.78022" lon="3.34802">
        <ele>327</ele>
        <time>2018-02-13T17:38:02Z</time>
      </trkpt>
      <trkpt lat="45.78019" lon="3.34962">
        <ele>331</ele>
        <time>2018-02-13T17:38:22Z</time>
      </trkpt>
      <trkpt lat="45.78018" lon="3.35089">
        <ele>334</ele>
        <time>2018-02-13T17:38:31Z</time>
      </trkpt>
      <trkpt lat="45.78035" lon="3.35085">
        <ele>335</ele>
        <time>2018-02-13T17:38:48Z</time>
      </trkpt>
      <trkpt lat="45.78058" lon="3.35076">
        <ele>334</ele>
        <time>2018-02-13T17:38:51Z</time>
      </trkpt>
      <trkpt lat="45.78102" lon="3.35057">
        <ele>332</ele>
        <time>2018-02-13T17:39:08Z</time>
      </trkpt>
      <trkpt lat="45.78124" lon="3.3505">
        <ele>331</ele>
        <time>2018-02-13T17:39:21Z</time>
      </trkpt>
      <trkpt lat="45.78149" lon="3.35047">
        <ele>329</ele>
        <time>2018-02-13T17:39:23Z</time>
      </trkpt>
      <trkpt lat="45.78231" lon="3.35042">
        <ele>327</ele>
        <time>2018-02-13T17:39:29Z</time>
      </trkpt>
      <trkpt lat="45.78321" lon="3.35029">
        <ele>325</ele>
        <time>2018-02-13T17:39:49Z</time>
      </trkpt>
      <trkpt lat="45.78412" lon="3.35013">
        <ele>324</ele>
        <time>2018-02-13T17:39:59Z</time>
      </trkpt>
      <trkpt lat="45.78435" lon="3.35007">
        <ele>323</ele>
        <time>2018-02-13T17:40:03Z</time>
      </trkpt>
      <trkpt lat="45.78454" lon="3.34995">
        <ele>323</ele>
        <time>2018-02-13T17:40:06Z</time>
      </trkpt>
      <trkpt lat="45.78465" lon="3.34983">
        <ele>323</ele>
        <time>2018-02-13T17:40:26Z</time>
      </trkpt>
      <trkpt lat="45.78482" lon="3.34959">
        <ele>323</ele>
        <time>2018-02-13T17:40:30Z</time>
      </trkpt>
      <trkpt lat="45.78496" lon="3.34925">
        <ele>323</ele>
        <time>2018-02-13T17:40:44Z</time>
      </trkpt>
      <trkpt lat="45.78561" lon="3.3472">
        <ele>322</ele>
        <time>2018-02-13T17:40:53Z</time>
      </trkpt>
      <trkpt lat="45.78571" lon="3.34694">
        <ele>322</ele>
        <time>2018-02-13T17:41:04Z</time>
      </trkpt>
      <trkpt lat="45.78579" lon="3.34678">
        <ele>321</ele>
        <time>2018-02-13T17:41:14Z</time>
      </trkpt>
      <trkpt lat="45.78592" lon="3.34664">
        <ele>321</ele>
        <time>2018-02-13T17:41:29Z</time>
      </trkpt>
      <trkpt lat="45.78604" lon="3.34657">
        <ele>321</ele>
        <time>2018-02-13T17:41:34Z</time>
      </trkpt>
      <trkpt lat="45.78619" lon="3.34653">
        <ele>321</ele>
        <time>2018-02-13T17:41:37Z</time>
      </trkpt>
      <trkpt lat="45.78857" lon="3.34614">
        <ele>321</ele>
        <time>2018-02-13T17:41:51Z</time>
      </trkpt>
      <trkpt lat="45.78882" lon="3.34613">
        <ele>321</ele>
        <time>2018-02-13T17:42:01Z</time>
      </trkpt>
      <trkpt lat="45.78903" lon="3.34612">
        <ele>321</ele>
        <time>2018-02-13T17:42:04Z</time>
      </trkpt>
      <trkpt lat="45.78927" lon="3.34605">
        <ele>321</ele>
        <time>2018-02-13T17:42:24Z</time>
      </trkpt>
      <trkpt lat="45.7896" lon="3.34592">
        <ele>321</ele>
        <time>2018-02-13T17:42:33Z</time>
      </trkpt>
      <trkpt lat="45.78986" lon="3.34581">
        <ele>320</ele>
        <time>2018-02-13T17:42:36Z</time>
      </trkpt>
      <trkpt lat="45.79088" lon="3.34537">
        <ele>320</ele>
        <time>2018-02-13T17:42:45Z</time>
      </trkpt>
      <trkpt lat="45.79099" lon="3.34531">
        <ele>320</ele>
        <time>2018-02-13T17:42:57Z</time>
      </trkpt>
      <trkpt lat="45.79116" lon="3.34514">
        <ele>320</ele>
        <time>2018-02-13T17:43:09Z</time>
      </trkpt>
      <trkpt lat="45.7916" lon="3.34458">
        <ele>320</ele>
        <time>2018-02-13T17:43:24Z</time>
      </trkpt>
      <trkpt lat="45.79247" lon="3.34344">
        <ele>319</ele>
        <time>2018-02-13T17:43:32Z</time>
      </trkpt>
      <trkpt lat="45.79274" lon="3.34311">
        <ele>319</ele>
        <time>2018-02-13T17:43:45Z</time>
      </trkpt>
      <trkpt lat="45.79288" lon="3.34296">
        <ele>319</ele>
        <time>2018-02-13T17:44:01Z</time>
      </trkpt>
      <trkpt lat="45.79306" lon="3.34287">
        <ele>320</ele>
        <time>2018-02-13T17:44:15Z</time>
      </trkpt>
      <trkpt lat="45.79325" lon="3.34283">
        <ele>319</ele>
        <time>2018-02-13T17:44:19Z</time>
      </trkpt>
      <trkpt lat="45.79378" lon="3.34279">
        <ele>319</ele>
        <time>2018-02-13T17:44:36Z</time>
      </trkpt>
      <trkpt lat="45.79394" lon="3.34275">
        <ele>319</ele>
        <time>2018-02-13T17:44:39Z</time>
      </trkpt>
      <trkpt lat="45.79413" lon="3.34267">
        <ele>319</ele>
        <time>2018-02-13T17:44:41Z</time>
      </trkpt>
      <trkpt lat="45.79473" lon="3.34229">
        <ele>319</ele>
        <time>2018-02-13T17:44:46Z</time>
      </trkpt>
      <trkpt lat="45.79516" lon="3.34215">
        <ele>319</ele>
        <time>2018-02-13T17:44:56Z</time>
      </trkpt>
      <trkpt lat="45.79556" lon="3.34204">
        <ele>319</ele>
        <time>2018-02-13T17:45:06Z</time>
      </trkpt>
      <trkpt lat="45.79571" lon="3.34202">
        <ele>319</ele>
        <time>2018-02-13T17:45:15Z</time>
      </trkpt>
      <trkpt lat="45.79582" lon="3.34202">
        <ele>319</ele>
        <time>2018-02-13T17:45:28Z</time>
      </trkpt>
      <trkpt lat="45.796" lon="3.34207">
        <ele>319</ele>
        <time>2018-02-13T17:45:38Z</time>
      </trkpt>
      <trkpt lat="45.79679" lon="3.34227">
        <ele>319</ele>
        <time>2018-02-13T17:45:49Z</time>
      </trkpt>
      <trkpt lat="45.79699" lon="3.34232">
        <ele>319</ele>
        <time>2018-02-13T17:45:59Z</time>
      </trkpt>
      <trkpt lat="45.79721" lon="3.3424">
        <ele>319</ele>
        <time>2018-02-13T17:46:17Z</time>
      </trkpt>
      <trkpt lat="45.7974" lon="3.34245">
        <ele>319</ele>
        <time>2018-02-13T17:46:21Z</time>
      </trkpt>
      <trkpt lat="45.79748" lon="3.34243">
        <ele>319</ele>
        <time>2018-02-13T17:46:26Z</time>
      </trkpt>
      <trkpt lat="45.79758" lon="3.34235">
        <ele>319</ele>
        <time>2018-02-13T17:46:45Z</time>
      </trkpt>
      <trkpt lat="45.79769" lon="3.34219">
        <ele>320</ele>
        <time>2018-02-13T17:47:05Z</time>
      </trkpt>
      <trkpt lat="45.7979" lon="3.34175">
        <ele>319</ele>
        <time>2018-02-13T17:47:11Z</time>
      </trkpt>
      <trkpt lat="45.79842" lon="3.34088">
        <ele>319</ele>
        <time>2018-02-13T17:47:22Z</time>
      </trkpt>
      <trkpt lat="45.79867" lon="3.34049">
        <ele>318</ele>
        <time>2018-02-13T17:47:38Z</time>
      </trkpt>
      <trkpt lat="45.79893" lon="3.3402">
        <ele>318</ele>
        <time>2018-02-13T17:47:56Z</time>
      </trkpt>
      <trkpt lat="45.79958" lon="3.33949">
        <ele>319</ele>
        <time>2018-02-13T17:48:06Z</time>
      </trkpt>
      <trkpt lat="45.80008" lon="3.33899">
        <ele>319</ele>
        <time>2018-02-13T17:48:09Z</time>
      </trkpt>
      <trkpt lat="45.80023" lon="3.33886">
        <ele>320</ele>
        <time>2018-02-13T17:48:12Z</time>
      </trkpt>
      <trkpt lat="45.80054" lon="3.33868">
        <ele>320</ele>
        <time>2018-02-13T17:48:15Z</time>
      </trkpt>
      <trkpt lat="45.80089" lon="3.33855">
        <ele>320</ele>
        <time>2018-02-13T17:48:30Z</time>
      </trkpt>
      <trkpt lat="45.80122" lon="3.33847">
        <ele>320</ele>
        <time>2018-02-13T17:48:41Z</time>
      </trkpt>
      <trkpt lat="45.80142" lon="3.33843">
        <ele>320</ele>
        <time>2018-02-13T17:48:52Z</time>
      </trkpt>
      <trkpt lat="45.80158" lon="3.33842">
        <ele>320</ele>
        <time>2018-02-13T17:49:11Z</time>
      </trkpt>
      <trkpt lat="45.80169" lon="3.33844">
        <ele>320</ele>
        <time>2018-02-13T17:49:19Z</time>
      </trkpt>
      <trkpt lat="45.80191" lon="3.33855">
        <ele>320</ele>
        <time>2018-02-13T17:49:37Z</time>
      </trkpt>
      <trkpt lat="45.80233" lon="3.33879">
        <ele>319</ele>
        <time>2018-02-13T17:49:51Z</time>
      </trkpt>
      <trkpt lat="45.80254" lon="3.33889">
        <ele>318</ele>
        <time>2018-02-13T17:50:08Z</time>
      </trkpt>
      <trkpt lat="45.80291" lon="3.33896">
        <ele>319</ele>
        <time>2018-02-13T17:50:21Z</time>
      </trkpt>
      <trkpt lat="45.80332" lon="3.33891">
        <ele>319</ele>
        <time>2018-02-13T17:50:34Z</time>
      </trkpt>
      <trkpt lat="45.80351" lon="3.33901">
        <ele>320</ele>
        <time>2018-02-13T17:50:46Z</time>
      </trkpt>
      <trkpt lat="45.80391" lon="3.33927">
        <ele>320</ele>
        <time>2018-02-13T17:51:06Z</time>
      </trkpt>
      <trkpt lat="45.80402" lon="3.33933">
        <ele>320</ele>
        <time>2018-02-13T17:51:17Z</time>
      </trkpt>
      <trkpt lat="45.80426" lon="3.33934">
        <ele>320</ele>
        <time>2018-02-13T17:51:21Z</time>
      </trkpt>
      <trkpt lat="45.80443" lon="3.3393">
        <ele>320</ele>
        <time>2018-02-13T17:51:36Z</time>
      </trkpt>
      <trkpt lat="45.80454" lon="3.33924">
        <ele>320</ele>
        <time>2018-02-13T17:51:48Z</time>
      </trkpt>
      <trkpt lat="45.80477" lon="3.33909">
        <ele>320</ele>
        <time>2018-02-13T17:52:00Z</time>
      </trkpt>
      <trkpt lat="45.80485" lon="3.33905">
        <ele>320</ele>
        <time>2018-02-13T17:52:09Z</time>
      </trkpt>
      <trkpt lat="45.80492" lon="3.33905">
        <ele>320</ele>
        <time>2018-02-13T17:52:13Z</time>
      </trkpt>
      <trkpt lat="45.80524" lon="3.33905">
        <ele>320</ele>
        <time>2018-02-13T17:52:26Z</time>
      </trkpt>
      <trkpt lat="45.80549" lon="3.33903">
        <ele>320</ele>
        <time>2018-02-13T17:52:46Z</time>
      </trkpt>
      <trkpt lat="45.80578" lon="3.33902">
        <ele>320</ele>
        <time>2018-02-13T17:53:05Z</time>
      </trkpt>
      <trkpt lat="45.80604" lon="3.33905">
        <ele>320</ele>
        <time>2018-02-13T17:53:13Z</time>
      </trkpt>
      <trkpt lat="45.80626" lon="3.33905">
        <ele>320</ele>
        <time>2018-02-13T17:53:15Z</time>
      </trkpt>
      <trkpt lat="45.80633" lon="3.33904">
        <ele>320</ele>
        <time>2018-02-13T17:53:24Z</time>
      </trkpt>
      <trkpt lat="45.80753" lon="3.3388">
        <ele>319</ele>
        <time>2018-02-13T17:53:41Z</time>
      </trkpt>
      <trkpt lat="45.80856" lon="3.33859">
        <ele>318</ele>
        <time>2018-02-13T17:53:51Z</time>
      </trkpt>
      <trkpt lat="45.81005" lon="3.33826">
        <ele>318</ele>
        <time>2018-02-13T17:53:58Z</time>
      </trkpt>
      <trkpt lat="45.81178" lon="3.33792">
        <ele>318</ele>
        <time>2018-02-13T17:54:05Z</time>
      </trkpt>
      <trkpt lat="45.81367" lon="3.33754">
        <ele>318</ele>
        <time>2018-02-13T17:54:11Z</time>
      </trkpt>
      <trkpt lat="45.81398" lon="3.33747">
        <ele>318</ele>
        <time>2018-02-13T17:54:25Z</time>
      </trkpt>
      <trkpt lat="45.81414" lon="3.33734">
        <ele>318</ele>
        <time>2018-02-13T17:54:40Z</time>
      </trkpt>
      <trkpt lat="45.81425" lon="3.33731">
        <ele>318</ele>
        <time>2018-02-13T17:54:57Z</time>
      </trkpt>
      <trkpt lat="45.81435" lon="3.33733">
        <ele>318</ele>
        <time>2018-02-13T17:55:00Z</time>
      </trkpt>
      <trkpt lat="45.81448" lon="3.33735">
        <ele>318</ele>
        <time>2018-02-13T17:55:02Z</time>
      </trkpt>
      <trkpt lat="45.81473" lon="3.33728">
        <ele>317</ele>
        <time>2018-02-13T17:55:04Z</time>
      </trkpt>
      <trkpt lat="45.81543" lon="3.33698">
        <ele>317</ele>
        <time>2018-02-13T17:55:12Z</time>
      </trkpt>
      <trkpt lat="45.81618" lon="3.33669">
        <ele>317</ele>
        <time>2018-02-13T17:55:20Z</time>
      </trkpt>
      <trkpt lat="45.81744" lon="3.33621">
        <ele>317</ele>
        <time>2018-02-13T17:55:26Z</time>
      </trkpt>
      <trkpt lat="45.82148" lon="3.33464">
        <ele>316</ele>
        <time>2018-02-13T17:55:46Z</time>
      </trkpt>
      <trkpt lat="45.82295" lon="3.33407">
        <ele>315</ele>
        <time>2018-02-13T17:55:56Z</time>
      </trkpt>
      <trkpt lat="45.82419" lon="3.33357">
        <ele>316</ele>
        <time>2018-02-13T17:56:09Z</time>
      </trkpt>
      <trkpt lat="45.82507" lon="3.33323">
        <ele>317</ele>
        <time>2018-02-13T17:56:23Z</time>
      </trkpt>
      <trkpt lat="45.82625" lon="3.33276">
        <ele>318</ele>
        <time>2018-02-13T17:56:38Z</time>
      </trkpt>
      <trkpt lat="45.82675" lon="3.33257">
        <ele>319</ele>
        <time>2018-02-13T17:56:47Z</time>
      </trkpt>
      <trkpt lat="45.82696" lon="3.33246">
        <ele>320</ele>
        <time>2018-02-13T17:57:03Z</time>
      </trkpt>
      <trkpt lat="45.82744" lon="3.33212">
        <ele>320</ele>
        <time>2018-02-13T17:57:19Z</time>
      </trkpt>
      <trkpt lat="45.8276" lon="3.33203">
        <ele>321</ele>
        <time>2018-02-13T17:57:29Z</time>
      </trkpt>
      <trkpt lat="45.82787" lon="3.33192">
        <ele>321</ele>
        <time>2018-02-13T17:57:32Z</time>
      </trkpt>
      <trkpt lat="45.82827" lon="3.33173">
        <ele>323</ele>
        <time>2018-02-13T17:57:48Z</time>
      </trkpt>
      <trkpt lat="45.82902" lon="3.33141">
        <ele>324</ele>
        <time>2018-02-13T17:58:04Z</time>
      </trkpt>
      <trkpt lat="45.82926" lon="3.33122">
        <ele>326</ele>
        <time>2018-02-13T17:58:15Z</time>
      </trkpt>
      <trkpt lat="45.82948" lon="3.33096">
        <ele>327</ele>
        <time>2018-02-13T17:58:21Z</time>
      </trkpt>
      <trkpt lat="45.82974" lon="3.33054">
        <ele>328</ele>
        <time>2018-02-13T17:58:30Z</time>
      </trkpt>
      <trkpt lat="45.83001" lon="3.33003">
        <ele>329</ele>
        <time>2018-02-13T17:58:42Z</time>
      </trkpt>
      <trkpt lat="45.8302" lon="3.32961">
        <ele>328</ele>
        <time>2018-02-13T17:58:54Z</time>
      </trkpt>
      <trkpt lat="45.83062" lon="3.32858">
        <ele>327</ele>
        <time>2018-02-13T17:58:59Z</time>
      </trkpt>
      <trkpt lat="45.83081" lon="3.32824">
        <ele>326</ele>
        <time>2018-02-13T17:59:05Z</time>
      </trkpt>
      <trkpt lat="45.8313" lon="3.32754">
        <ele>326</ele>
        <time>2018-02-13T17:59:24Z</time>
      </trkpt>
      <trkpt lat="45.83149" lon="3.32733">
        <ele>326</ele>
        <time>2018-02-13T17:59:34Z</time>
      </trkpt>
      <trkpt lat="45.83156" lon="3.32728">
        <ele>328</ele>
        <time>2018-02-13T17:59:54Z</time>
      </trkpt>
      <trkpt lat="45.83203" lon="3.32714">
        <ele>330</ele>
        <time>2018-02-13T18:00:01Z</time>
      </trkpt>
      <trkpt lat="45.83217" lon="3.32705">
        <ele>332</ele>
        <time>2018-02-13T18:00:12Z</time>
      </trkpt>
      <trkpt lat="45.8329" lon="3.32647">
        <ele>334</ele>
        <time>2018-02-13T18:00:18Z</time>
      </trkpt>
      <trkpt lat="45.83308" lon="3.32638">
        <ele>337</ele>
        <time>2018-02-13T18:00:33Z</time>
      </trkpt>
      <trkpt lat="45.83322" lon="3.32639">
        <ele>338</ele>
        <time>2018-02-13T18:00:42Z</time>
      </trkpt>
      <trkpt lat="45.83334" lon="3.32645">
        <ele>339</ele>
        <time>2018-02-13T18:00:44Z</time>
      </trkpt>
      <trkpt lat="45.83359" lon="3.32665">
        <ele>339</ele>
        <time>2018-02-13T18:01:00Z</time>
      </trkpt>
      <trkpt lat="45.83436" lon="3.32734">
        <ele>339</ele>
        <time>2018-02-13T18:01:02Z</time>
      </trkpt>
      <trkpt lat="45.83466" lon="3.32766">
        <ele>337</ele>
        <time>2018-02-13T18:01:09Z</time>
      </trkpt>
      <trkpt lat="45.83471" lon="3.32772">
        <ele>337</ele>
        <time>2018-02-13T18:01:16Z</time>
      </trkpt>
      <trkpt lat="45.8347" lon="3.3278">
        <ele>337</ele>
        <time>2018-02-13T18:01:29Z</time>
      </trkpt>
      <trkpt lat="45.83468" lon="3.32793">
        <ele>339</ele>
        <time>2018-02-13T18:01:42Z</time>
      </trkpt>
      <trkpt lat="45.83431" lon="3.32855">
        <ele>339</ele>
        <time>2018-02-13T18:01:52Z</time>
      </trkpt>
      <trkpt lat="45.83468" lon="3.32793">
        <ele>339</ele>
        <time>2018-02-13T18:02:05Z</time>
      </trkpt>
      <trkpt lat="45.8347" lon="3.3278">
        <ele>337</ele>
        <time>2018-02-13T18:02:13Z</time>
      </trkpt>
      <trkpt lat="45.83471" lon="3.32772">
        <ele>336</ele>
        <time>2018-02-13T18:02:20Z</time>
      </trkpt>
      <trkpt lat="45.83477" lon="3.32776">
        <ele>336</ele>
        <time>2018-02-13T18:02:25Z</time>
      </trkpt>
      <trkpt lat="45.83492" lon="3.32782">
        <ele>335</ele>
        <time>2018-02-13T18:02:28Z</time>
      </trkpt>
      <trkpt lat="45.83535" lon="3.32791">
        <ele>332</ele>
        <time>2018-02-13T18:02:30Z</time>
      </trkpt>
      <trkpt lat="45.83602" lon="3.32828">
        <ele>330</ele>
        <time>2018-02-13T18:02:40Z</time>
      </trkpt>
      <trkpt lat="45.83728" lon="3.32901">
        <ele>328</ele>
        <time>2018-02-13T18:02:54Z</time>
      </trkpt>
      <trkpt lat="45.8375" lon="3.32915">
        <ele>327</ele>
        <time>2018-02-13T18:03:01Z</time>
      </trkpt>
      <trkpt lat="45.83763" lon="3.32927">
        <ele>327</ele>
        <time>2018-02-13T18:03:10Z</time>
      </trkpt>
      <trkpt lat="45.83817" lon="3.32985">
        <ele>328</ele>
        <time>2018-02-13T18:03:29Z</time>
      </trkpt>
      <trkpt lat="45.83901" lon="3.33073">
        <ele>328</ele>
        <time>2018-02-13T18:03:38Z</time>
      </trkpt>
      <trkpt lat="45.8393" lon="3.33098">
        <ele>328</ele>
        <time>2018-02-13T18:03:52Z</time>
      </trkpt>
      <trkpt lat="45.8396" lon="3.33118">
        <ele>326</ele>
        <time>2018-02-13T18:04:03Z</time>
      </trkpt>
      <trkpt lat="45.84012" lon="3.33144">
        <ele>325</ele>
        <time>2018-02-13T18:04:18Z</time>
      </trkpt>
      <trkpt lat="45.84062" lon="3.33168">
        <ele>323</ele>
        <time>2018-02-13T18:04:38Z</time>
      </trkpt>
      <trkpt lat="45.84108" lon="3.33196">
        <ele>322</ele>
        <time>2018-02-13T18:04:45Z</time>
      </trkpt>
      <trkpt lat="45.84127" lon="3.33209">
        <ele>320</ele>
        <time>2018-02-13T18:04:51Z</time>
      </trkpt>
      <trkpt lat="45.84193" lon="3.33272">
        <ele>319</ele>
        <time>2018-02-13T18:05:08Z</time>
      </trkpt>
      <trkpt lat="45.84228" lon="3.33315">
        <ele>318</ele>
        <time>2018-02-13T18:05:22Z</time>
      </trkpt>
      <trkpt lat="45.84281" lon="3.33375">
        <ele>318</ele>
        <time>2018-02-13T18:05:40Z</time>
      </trkpt>
      <trkpt lat="45.84301" lon="3.33402">
        <ele>318</ele>
        <time>2018-02-13T18:05:42Z</time>
      </trkpt>
      <trkpt lat="45.84313" lon="3.33423">
        <ele>318</ele>
        <time>2018-02-13T18:05:53Z</time>
      </trkpt>
      <trkpt lat="45.84327" lon="3.33451">
        <ele>318</ele>
        <time>2018-02-13T18:05:58Z</time>
      </trkpt>
      <trkpt lat="45.84358" lon="3.33517">
        <ele>318</ele>
        <time>2018-02-13T18:06:06Z</time>
      </trkpt>
      <trkpt lat="45.84369" lon="3.33534">
        <ele>319</ele>
        <time>2018-02-13T18:06:17Z</time>
      </trkpt>
      <trkpt lat="45.84384" lon="3.33549">
        <ele>319</ele>
        <time>2018-02-13T18:06:34Z</time>
      </trkpt>
      <trkpt lat="45.84398" lon="3.3356">
        <ele>318</ele>
        <time>2018-02-13T18:06:43Z</time>
      </trkpt>
      <trkpt lat="45.84429" lon="3.33578">
        <ele>317</ele>
        <time>2018-02-13T18:07:00Z</time>
      </trkpt>
      <trkpt lat="45.84461" lon="3.33592">
        <ele>316</ele>
        <time>2018-02-13T18:07:11Z</time>
      </trkpt>
      <trkpt lat="45.84491" lon="3.33602">
        <ele>315</ele>
        <time>2018-02-13T18:07:19Z</time>
      </trkpt>
      <trkpt lat="45.84541" lon="3.3361">
        <ele>314</ele>
        <time>2018-02-13T18:07:28Z</time>
      </trkpt>
      <trkpt lat="45.84566" lon="3.33616">
        <ele>313</ele>
        <time>2018-02-13T18:07:40Z</time>
      </trkpt>
      <trkpt lat="45.84591" lon="3.33626">
        <ele>312</ele>
        <time>2018-02-13T18:07:45Z</time>
      </trkpt>
      <trkpt lat="45.84623" lon="3.33641">
        <ele>312</ele>
        <time>2018-02-13T18:08:00Z</time>
      </trkpt>
      <trkpt lat="45.84641" lon="3.33653">
        <ele>312</ele>
        <time>2018-02-13T18:08:03Z</time>
      </trkpt>
      <trkpt lat="45.84686" lon="3.33691">
        <ele>312</ele>
        <time>2018-02-13T18:08:11Z</time>
      </trkpt>
      <trkpt lat="45.84732" lon="3.33722">
        <ele>312</ele>
        <time>2018-02-13T18:08:24Z</time>
      </trkpt>
      <trkpt lat="45.84757" lon="3.33734">
        <ele>313</ele>
        <time>2018-02-13T18:08:31Z</time>
      </trkpt>
      <trkpt lat="45.84799" lon="3.33741">
        <ele>314</ele>
        <time>2018-02-13T18:08:44Z</time>
      </trkpt>
      <trkpt lat="45.84819" lon="3.33745">
        <ele>314</ele>
        <time>2018-02-13T18:09:02Z</time>
      </trkpt>
      <trkpt lat="45.84829" lon="3.33749">
        <ele>314</ele>
        <time>2018-02-13T18:09:12Z</time>
      </trkpt>
      <trkpt lat="45.84854" lon="3.33768">
        <ele>314</ele>
        <time>2018-02-13T18:09:25Z</time>
      </trkpt>
      <trkpt lat="45.84875" lon="3.3379">
        <ele>313</ele>
        <time>2018-02-13T18:09:38Z</time>
      </trkpt>
      <trkpt lat="45.84889" lon="3.33808">
        <ele>313</ele>
        <time>2018-02-13T18:09:43Z</time>
      </trkpt>
      <trkpt lat="45.84899" lon="3.33816">
        <ele>313</ele>
        <time>2018-02-13T18:09:53Z</time>
      </trkpt>
      <trkpt lat="45.84912" lon="3.33823">
        <ele>314</ele>
        <time>2018-02-13T18:09:55Z</time>
      </trkpt>
      <trkpt lat="45.84946" lon="3.33835">
        <ele>315</ele>
        <time>2018-02-13T18:10:01Z</time>
      </trkpt>
      <trkpt lat="45.84998" lon="3.33849">
        <ele>316</ele>
        <time>2018-02-13T18:10:09Z</time>
      </trkpt>
      <trkpt lat="45.85012" lon="3.33855">
        <ele>316</ele>
        <time>2018-02-13T18:10:25Z</time>
      </trkpt>
      <trkpt lat="45.85028" lon="3.33872">
        <ele>316</ele>
        <time>2018-02-13T18:10:30Z</time>
      </trkpt>
      <trkpt lat="45.85145" lon="3.33982">
        <ele>315</ele>
        <time>2018-02-13T18:10:38Z</time>
      </trkpt>
      <trkpt lat="45.85165" lon="3.33996">
        <ele>314</ele>
        <time>2018-02-13T18:10:49Z</time>
      </trkpt>
      <trkpt lat="45.85181" lon="3.33999">
        <ele>314</ele>
        <time>2018-02-13T18:11:00Z</time>
      </trkpt>
      <trkpt lat="45.85191" lon="3.33998">
        <ele>313</ele>
        <time>2018-02-13T18:11:11Z</time>
      </trkpt>
      <trkpt lat="45.85193" lon="3.33989">
        <ele>312</ele>
        <time>2018-02-13T18:11:19Z</time>
      </trkpt>
      <trkpt lat="45.85199" lon="3.33973">
        <ele>312</ele>
        <time>2018-02-13T18:11:34Z</time>
      </trkpt>
      <trkpt lat="45.85211" lon="3.3395">
        <ele>311</ele>
        <time>2018-02-13T18:11:53Z</time>
      </trkpt>
      <trkpt lat="45.85219" lon="3.3394">
        <ele>311</ele>
        <time>2018-02-13T18:12:03Z</time>
      </trkpt>
      <trkpt lat="45.85229" lon="3.33934">
        <ele>310</ele>
        <time>2018-02-13T18:12:05Z</time>
      </trkpt>
      <trkpt lat="45.85294" lon="3.33906">
        <ele>310</ele>
        <time>2018-02-13T18:12:08Z</time>
      </trkpt>
      <trkpt lat="45.85309" lon="3.33898">
        <ele>310</ele>
        <time>2018-02-13T18:12:15Z</time>
      </trkpt>
      <trkpt lat="45.85324" lon="3.33886">
        <ele>309</ele>
        <time>2018-02-13T18:12:29Z</time>
      </trkpt>
      <trkpt lat="45.85366" lon="3.33847">
        <ele>308</ele>
        <time>2018-02-13T18:12:46Z</time>
      </trkpt>
      <trkpt lat="45.85379" lon="3.3384">
        <ele>308</ele>
        <time>2018-02-13T18:12:50Z</time>
      </trkpt>
      <trkpt lat="45.85396" lon="3.33836">
        <ele>307</ele>
        <time>2018-02-13T18:12:57Z</time>
      </trkpt>
      <trkpt lat="45.85451" lon="3.33833">
        <ele>306</ele>
        <time>2018-02-13T18:13:14Z</time>
      </trkpt>
      <trkpt lat="45.85518" lon="3.33835">
        <ele>306</ele>
        <time>2018-02-13T18:13:31Z</time>
      </trkpt>
      <trkpt lat="45.85532" lon="3.33838">
        <ele>305</ele>
        <time>2018-02-13T18:13:50Z</time>
      </trkpt>
      <trkpt lat="45.85541" lon="3.33844">
        <ele>305</ele>
        <time>2018-02-13T18:13:53Z</time>
      </trkpt>
      <trkpt lat="45.85562" lon="3.33868">
        <ele>304</ele>
        <time>2018-02-13T18:14:06Z</time>
      </trkpt>
      <trkpt lat="45.85573" lon="3.33879">
        <ele>303</ele>
        <time>2018-02-13T18:14:13Z</time>
      </trkpt>
      <trkpt lat="45.85581" lon="3.33885">
        <ele>303</ele>
        <time>2018-02-13T18:14:32Z</time>
      </trkpt>
      <trkpt lat="45.85595" lon="3.33891">
        <ele>303</ele>
        <time>2018-02-13T18:14:37Z</time>
      </trkpt>
      <trkpt lat="45.8561" lon="3.33892">
        <ele>302</ele>
        <time>2018-02-13T18:14:44Z</time>
      </trkpt>
      <trkpt lat="45.85628" lon="3.33891">
        <ele>301</ele>
        <time>2018-02-13T18:14:52Z</time>
      </trkpt>
      <trkpt lat="45.85638" lon="3.33887">
        <ele>301</ele>
        <time>2018-02-13T18:15:11Z</time>
      </trkpt>
      <trkpt lat="45.85682" lon="3.33863">
        <ele>300</ele>
        <time>2018-02-13T18:15:21Z</time>
      </trkpt>
      <trkpt lat="45.85701" lon="3.33856">
        <ele>300</ele>
        <time>2018-02-13T18:15:29Z</time>
      </trkpt>
      <trkpt lat="45.85728" lon="3.33849">
        <ele>301</ele>
        <time>2018-02-13T18:15:44Z</time>
      </trkpt>
      <trkpt lat="45.85759" lon="3.33839">
        <ele>302</ele>
        <time>2018-02-13T18:15:54Z</time>
      </trkpt>
      <trkpt lat="45.8581" lon="3.33826">
        <ele>303</ele>
        <time>2018-02-13T18:15:58Z</time>
      </trkpt>
      <trkpt lat="45.85845" lon="3.33814">
        <ele>303</ele>
        <time>2018-02-13T18:16:12Z</time>
      </trkpt>
      <trkpt lat="45.85875" lon="3.33801">
        <ele>304</ele>
        <time>2018-02-13T18:16:18Z</time>
      </trkpt>
      <trkpt lat="45.85928" lon="3.33765">
        <ele>305</ele>
        <time>2018-02-13T18:16:21Z</time>
      </trkpt>
      <trkpt lat="45.85945" lon="3.33757">
        <ele>306</ele>
        <time>2018-02-13T18:16:29Z</time>
      </trkpt>
      <trkpt lat="45.85954" lon="3.33755">
        <ele>307</ele>
        <time>2018-02-13T18:16:35Z</time>
      </trkpt>
      <trkpt lat="45.85975" lon="3.33753">
        <ele>307</ele>
        <time>2018-02-13T18:16:51Z</time>
      </trkpt>
      <trkpt lat="45.86017" lon="3.33754">
        <ele>307</ele>
        <time>2018-02-13T18:17:01Z</time>
      </trkpt>
      <trkpt lat="45.86085" lon="3.33761">
        <ele>306</ele>
        <time>2018-02-13T18:17:12Z</time>
      </trkpt>
      <trkpt lat="45.86118" lon="3.33768">
        <ele>305</ele>
        <time>2018-02-13T18:17:17Z</time>
      </trkpt>
      <trkpt lat="45.86135" lon="3.33775">
        <ele>305</ele>
        <time>2018-02-13T18:17:34Z</time>
      </trkpt>
      <trkpt lat="45.86158" lon="3.33788">
        <ele>305</ele>
        <time>2018-02-13T18:17:42Z</time>
      </trkpt>
      <trkpt lat="45.86173" lon="3.33799">
        <ele>304</ele>
        <time>2018-02-13T18:17:49Z</time>
      </trkpt>
      <trkpt lat="45.86191" lon="3.33809">
        <ele>303</ele>
        <time>2018-02-13T18:17:58Z</time>
      </trkpt>
      <trkpt lat="45.86202" lon="3.3381">
        <ele>303</ele>
        <time>2018-02-13T18:18:08Z</time>
      </trkpt>
      <trkpt lat="45.8621" lon="3.33805">
        <ele>303</ele>
        <time>2018-02-13T18:18:26Z</time>
      </trkpt>
      <trkpt lat="45.86237" lon="3.33757">
        <ele>303</ele>
        <time>2018-02-13T18:18:30Z</time>
      </trkpt>
      <trkpt lat="45.86249" lon="3.33756">
        <ele>303</ele>
        <time>2018-02-13T18:18:35Z</time>
      </trkpt>
      <trkpt lat="45.86255" lon="3.33754">
        <ele>304</ele>
        <time>2018-02-13T18:18:49Z</time>
      </trkpt>
      <trkpt lat="45.86313" lon="3.33745">
        <ele>305</ele>
        <time>2018-02-13T18:18:58Z</time>
      </trkpt>
      <trkpt lat="45.86359" lon="3.33727">
        <ele>305</ele>
        <time>2018-02-13T18:19:01Z</time>
      </trkpt>
      <trkpt lat="45.86374" lon="3.33726">
        <ele>306</ele>
        <time>2018-02-13T18:19:05Z</time>
      </trkpt>
      <trkpt lat="45.8644" lon="3.33734">
        <ele>306</ele>
        <time>2018-02-13T18:19:15Z</time>
      </trkpt>
      <trkpt lat="45.86468" lon="3.33734">
        <ele>306</ele>
        <time>2018-02-13T18:19:27Z</time>
      </trkpt>
      <trkpt lat="45.86578" lon="3.33723">
        <ele>305</ele>
        <time>2018-02-13T18:19:34Z</time>
      </trkpt>
      <trkpt lat="45.86614" lon="3.33722">
        <ele>305</ele>
        <time>2018-02-13T18:19:52Z</time>
      </trkpt>
      <trkpt lat="45.86636" lon="3.33717">
        <ele>305</ele>
        <time>2018-02-13T18:19:59Z</time>
      </trkpt>
      <trkpt lat="45.86647" lon="3.33709">
        <ele>305</ele>
        <time>2018-02-13T18:20:10Z</time>
      </trkpt>
      <trkpt lat="45.86664" lon="3.33704">
        <ele>304</ele>
        <time>2018-02-13T18:20:25Z</time>
      </trkpt>
      <trkpt lat="45.86682" lon="3.33698">
        <ele>304</ele>
        <time>2018-02-13T18:20:41Z</time>
      </trkpt>
      <trkpt lat="45.86706" lon="3.337">
        <ele>304</ele>
        <time>2018-02-13T18:20:54Z</time>
      </trkpt>
      <trkpt lat="45.86722" lon="3.33705">
        <ele>304</ele>
        <time>2018-02-13T18:21:02Z</time>
      </trkpt>
      <trkpt lat="45.86737" lon="3.33714">
        <ele>304</ele>
        <time>2018-02-13T18:21:06Z</time>
      </trkpt>
      <trkpt lat="45.86785" lon="3.33754">
        <ele>304</ele>
        <time>2018-02-13T18:21:25Z</time>
      </trkpt>
      <trkpt lat="45.86815" lon="3.33781">
        <ele>304</ele>
        <time>2018-02-13T18:21:41Z</time>
      </trkpt>
      <trkpt lat="45.86854" lon="3.33809">
        <ele>304</ele>
        <time>2018-02-13T18:21:57Z</time>
      </trkpt>
      <trkpt lat="45.86866" lon="3.33815">
        <ele>303</ele>
        <time>2018-02-13T18:22:08Z</time>
      </trkpt>
      <trkpt lat="45.86914" lon="3.33822">
        <ele>302</ele>
        <time>2018-02-13T18:22:22Z</time>
      </trkpt>
      <trkpt lat="45.8702" lon="3.33837">
        <ele>301</ele>
        <time>2018-02-13T18:22:30Z</time>
      </trkpt>
      <trkpt lat="45.87077" lon="3.33841">
        <ele>300</ele>
        <time>2018-02-13T18:22:49Z</time>
      </trkpt>
      <trkpt lat="45.87133" lon="3.33848">
        <ele>299</ele>
        <time>2018-02-13T18:23:05Z</time>
      </trkpt>
      <trkpt lat="45.87144" lon="3.33847">
        <ele>299</ele>
        <time>2018-02-13T18:23:20Z</time>
      </trkpt>
      <trkpt lat="45.87209" lon="3.33821">
        <ele>298</ele>
        <time>2018-02-13T18:23:39Z</time>
      </trkpt>
      <trkpt lat="45.87235" lon="3.33808">
        <ele>298</ele>
        <time>2018-02-13T18:23:56Z</time>
      </trkpt>
      <trkpt lat="45.87245" lon="3.33823">
        <ele>299</ele>
        <time>2018-02-13T18:24:15Z</time>
      </trkpt>
      <trkpt lat="45.87252" lon="3.33836">
        <ele>299</ele>
        <time>2018-02-13T18:24:18Z</time>
      </trkpt>
      <trkpt lat="45.87269" lon="3.33874">
        <ele>299</ele>
        <time>2018-02-13T18:24:31Z</time>
      </trkpt>
      <trkpt lat="45.87284" lon="3.33908">
        <ele>299</ele>
        <time>2018-02-13T18:24:44Z</time>
      </trkpt>
      <trkpt lat="45.87311" lon="3.33988">
        <ele>300</ele>
        <time>2018-02-13T18:25:03Z</time>
      </trkpt>
      <trkpt lat="45.8734" lon="3.34091">
        <ele>301</ele>
        <time>2018-02-13T18:25:05Z</time>
      </trkpt>
      <trkpt lat="45.87364" lon="3.34152">
        <ele>302</ele>
        <time>2018-02-13T18:25:14Z</time>
      </trkpt>
      <trkpt lat="45.87389" lon="3.34192">
        <ele>302</ele>
        <time>2018-02-13T18:25:32Z</time>
      </trkpt>
      <trkpt lat="45.87411" lon="3.34215">
        <ele>302</ele>
        <time>2018-02-13T18:25:52Z</time>
      </trkpt>
      <trkpt lat="45.87446" lon="3.3424">
        <ele>302</ele>
        <time>2018-02-13T18:25:57Z</time>
      </trkpt>
      <trkpt lat="45.87518" lon="3.34276">
        <ele>302</ele>
        <time>2018-02-13T18:26:09Z</time>
      </trkpt>
      <trkpt lat="45.87535" lon="3.34288">
        <ele>302</ele>
        <time>2018-02-13T18:26:25Z</time>
      </trkpt>
      <trkpt lat="45.87555" lon="3.34305">
        <ele>302</ele>
        <time>2018-02-13T18:26:38Z</time>
      </trkpt>
      <trkpt lat="45.87627" lon="3.34386">
        <ele>302</ele>
        <time>2018-02-13T18:26:41Z</time>
      </trkpt>
      <trkpt lat="45.8766" lon="3.34422">
        <ele>302</ele>
        <time>2018-02-13T18:26:57Z</time>
      </trkpt>
      <trkpt lat="45.87688" lon="3.34447">
        <ele>302</ele>
        <time>2018-02-13T18:27:07Z</time>
      </trkpt>
      <trkpt lat="45.87705" lon="3.34458">
        <ele>302</ele>
        <time>2018-02-13T18:27:19Z</time>
      </trkpt>
      <trkpt lat="45.8772" lon="3.34472">
        <ele>302</ele>
        <time>2018-02-13T18:27:39Z</time>
      </trkpt>
      <trkpt lat="45.87735" lon="3.34489">
        <ele>302</ele>
        <time>2018-02-13T18:27:59Z</time>
      </trkpt>
      <trkpt lat="45.87771" lon="3.34538">
        <ele>301</ele>
        <time>2018-02-13T18:28:07Z</time>
      </trkpt>
      <trkpt lat="45.87795" lon="3.34585">
        <ele>301</ele>
        <time>2018-02-13T18:28:27Z</time>
      </trkpt>
      <trkpt lat="45.87819" lon="3.34629">
        <ele>301</ele>
        <time>2018-02-13T18:28:39Z</time>
      </trkpt>
      <trkpt lat="45.87844" lon="3.34666">
        <ele>302</ele>
        <time>2018-02-13T18:28:44Z</time>
      </trkpt>
      <trkpt lat="45.8787" lon="3.347">
        <ele>301</ele>
        <time>2018-02-13T18:28:49Z</time>
      </trkpt>
      <trkpt lat="45.87908" lon="3.34743">
        <ele>302</ele>
        <time>2018-02-13T18:28:51Z</time>
      </trkpt>
      <trkpt lat="45.87943" lon="3.34781">
        <ele>302</ele>
        <time>2018-02-13T18:28:58Z</time>
      </trkpt>
      <trkpt lat="45.87959" lon="3.34794">
        <ele>301</ele>
        <time>2018-02-13T18:29:15Z</time>
      </trkpt>
      <trkpt lat="45.88012" lon="3.34821">
        <ele>301</ele>
        <time>2018-02-13T18:29:28Z</time>
      </trkpt>
      <trkpt lat="45.88042" lon="3.34831">
        <ele>300</ele>
        <time>2018-02-13T18:29:30Z</time>
      </trkpt>
      <trkpt lat="45.8809" lon="3.34837">
        <ele>299</ele>
        <time>2018-02-13T18:29:47Z</time>
      </trkpt>
      <trkpt lat="45.88131" lon="3.34844">
        <ele>298</ele>
        <time>2018-02-13T18:30:00Z</time>
      </trkpt>
      <trkpt lat="45.88152" lon="3.34853">
        <ele>297</ele>
        <time>2018-02-13T18:30:17Z</time>
      </trkpt>
      <trkpt lat="45.88176" lon="3.34871">
        <ele>296</ele>
        <time>2018-02-13T18:30:36Z</time>
      </trkpt>
      <trkpt lat="45.88189" lon="3.34884">
        <ele>296</ele>
        <time>2018-02-13T18:30:47Z</time>
      </trkpt>
      <trkpt lat="45.88207" lon="3.34902">
        <ele>296</ele>
        <time>2018-02-13T18:30:58Z</time>
      </trkpt>
      <trkpt lat="45.88244" lon="3.34948">
        <ele>296</ele>
        <time>2018-02-13T18:31:10Z</time>
      </trkpt>
      <trkpt lat="45.88267" lon="3.34963">
        <ele>296</ele>
        <time>2018-02-13T18:31:13Z</time>
      </trkpt>
      <trkpt lat="45.88302" lon="3.34982">
        <ele>297</ele>
        <time>2018-02-13T18:31:27Z</time>
      </trkpt>
      <trkpt lat="45.8835" lon="3.35004">
        <ele>298</ele>
        <time>2018-02-13T18:31:46Z</time>
      </trkpt>
      <trkpt lat="45.88382" lon="3.35014">
        <ele>298</ele>
        <time>2018-02-13T18:31:49Z</time>
      </trkpt>
      <trkpt lat="45.88467" lon="3.35031">
        <ele>297</ele>
        <time>2018-02-13T18:32:00Z</time>
      </trkpt>
      <trkpt lat="45.88506" lon="3.35034">
        <ele>296</ele>
        <time>2018-02-13T18:32:06Z</time>
      </trkpt>
      <trkpt lat="45.88542" lon="3.35028">
        <ele>295</ele>
        <time>2018-02-13T18:32:21Z</time>
      </trkpt>
      <trkpt lat="45.88671" lon="3.34996">
        <ele>294</ele>
        <time>2018-02-13T18:32:41Z</time>
      </trkpt>
      <trkpt lat="45.88754" lon="3.34961">
        <ele>292</ele>
        <time>2018-02-13T18:32:53Z</time>
      </trkpt>
      <trkpt lat="45.88815" lon="3.34929">
        <ele>292</ele>
        <time>2018-02-13T18:33:05Z</time>
      </trkpt>
      <trkpt lat="45.88864" lon="3.349">
        <ele>293</ele>
        <time>2018-02-13T18:33:25Z</time>
      </trkpt>
      <trkpt lat="45.88911" lon="3.34887">
        <ele>294</ele>
        <time>2018-02-13T18:33:33Z</time>
      </trkpt>
      <trkpt lat="45.88937" lon="3.34884">
        <ele>295</ele>
        <time>2018-02-13T18:33:40Z</time>
      </trkpt>
      <trkpt lat="45.8895" lon="3.34886">
        <ele>296</ele>
        <time>2018-02-13T18:33:44Z</time>
      </trkpt>
      <trkpt lat="45.88965" lon="3.34892">
        <ele>297</ele>
        <time>2018-02-13T18:33:50Z</time>
      </trkpt>
      <trkpt lat="45.89005" lon="3.34916">
        <ele>298</ele>
        <time>2018-02-13T18:34:00Z</time>
      </trkpt>
      <trkpt lat="45.89034" lon="3.34931">
        <ele>300</ele>
        <time>2018-02-13T18:34:03Z</time>
      </trkpt>
      <trkpt lat="45.89048" lon="3.34935">
        <ele>300</ele>
        <time>2018-02-13T18:34:19Z</time>
      </trkpt>
      <trkpt lat="45.89096" lon="3.34942">
        <ele>300</ele>
        <time>2018-02-13T18:34:23Z</time>
      </trkpt>
      <trkpt lat="45.89117" lon="3.34947">
        <ele>300</ele>
        <time>2018-02-13T18:34:40Z</time>
      </trkpt>
      <trkpt lat="45.89201" lon="3.34983">
        <ele>299</ele>
        <time>2018-02-13T18:34:45Z</time>
      </trkpt>
      <trkpt lat="45.89225" lon="3.34989">
        <ele>297</ele>
        <time>2018-02-13T18:34:47Z</time>
      </trkpt>
      <trkpt lat="45.89249" lon="3.3499">
        <ele>296</ele>
        <time>2018-02-13T18:35:04Z</time>
      </trkpt>
      <trkpt lat="45.89277" lon="3.34982">
        <ele>295</ele>
        <time>2018-02-13T18:35:24Z</time>
      </trkpt>
      <trkpt lat="45.8929" lon="3.34983">
        <ele>294</ele>
        <time>2018-02-13T18:35:40Z</time>
      </trkpt>
      <trkpt lat="45.89305" lon="3.34988">
        <ele>294</ele>
        <time>2018-02-13T18:35:54Z</time>
      </trkpt>
      <trkpt lat="45.89318" lon="3.34996">
        <ele>294</ele>
        <time>2018-02-13T18:36:14Z</time>
      </trkpt>
      <trkpt lat="45.89336" lon="3.35008">
        <ele>293</ele>
        <time>2018-02-13T18:36:16Z</time>
      </trkpt>
      <trkpt lat="45.89399" lon="3.35057">
        <ele>292</ele>
        <time>2018-02-13T18:36:32Z</time>
      </trkpt>
      <trkpt lat="45.89481" lon="3.35111">
        <ele>292</ele>
        <time>2018-02-13T18:36:51Z</time>
      </trkpt>
      <trkpt lat="45.89529" lon="3.35145">
        <ele>292</ele>
        <time>2018-02-13T18:36:53Z</time>
      </trkpt>
      <trkpt lat="45.89554" lon="3.35166">
        <ele>291</ele>
        <time>2018-02-13T18:37:11Z</time>
      </trkpt>
      <trkpt lat="45.89617" lon="3.35228">
        <ele>290</ele>
        <time>2018-02-13T18:37:24Z</time>
      </trkpt>
      <trkpt lat="45.89649" lon="3.35261">
        <ele>290</ele>
        <time>2018-02-13T18:37:38Z</time>
      </trkpt>
      <trkpt lat="45.89776" lon="3.35422">
        <ele>290</ele>
        <time>2018-02-13T18:37:52Z</time>
      </trkpt>
      <trkpt lat="45.89825" lon="3.35476">
        <ele>290</ele>
        <time>2018-02-13T18:37:54Z</time>
      </trkpt>
      <trkpt lat="45.8986" lon="3.35506">
        <ele>290</ele>
        <time>2018-02-13T18:38:09Z</time>
      </trkpt>
      <trkpt lat="45.89889" lon="3.35529">
        <ele>289</ele>
        <time>2018-02-13T18:38:14Z</time>
      </trkpt>
      <trkpt lat="45.89992" lon="3.35597">
        <ele>288</ele>
        <time>2018-02-13T18:38:25Z</time>
      </trkpt>
      <trkpt lat="45.90124" lon="3.35684">
        <ele>287</ele>
        <time>2018-02-13T18:38:41Z</time>
      </trkpt>
      <trkpt lat="45.9018" lon="3.35724">
        <ele>286</ele>
        <time>2018-02-13T18:38:55Z</time>
      </trkpt>
      <trkpt lat="45.90206" lon="3.35745">
        <ele>286</ele>
        <time>2018-02-13T18:39:06Z</time>
      </trkpt>
      <trkpt lat="45.9023" lon="3.35767">
        <ele>286</ele>
        <time>2018-02-13T18:39:22Z</time>
      </trkpt>
      <trkpt lat="45.90244" lon="3.35784">
        <ele>286</ele>
        <time>2018-02-13T18:39:26Z</time>
      </trkpt>
      <trkpt lat="45.90258" lon="3.35806">
        <ele>287</ele>
        <time>2018-02-13T18:39:38Z</time>
      </trkpt>
      <trkpt lat="45.90333" lon="3.35948">
        <ele>287</ele>
        <time>2018-02-13T18:39:46Z</time>
      </trkpt>
      <trkpt lat="45.90362" lon="3.35998">
        <ele>287</ele>
        <time>2018-02-13T18:39:48Z</time>
      </trkpt>
      <trkpt lat="45.90404" lon="3.36077">
        <ele>286</ele>
        <time>2018-02-13T18:39:58Z</time>
      </trkpt>
      <trkpt lat="45.90416" lon="3.36106">
        <ele>286</ele>
        <time>2018-02-13T18:40:02Z</time>
      </trkpt>
      <trkpt lat="45.9042" lon="3.36122">
        <ele>287</ele>
        <time>2018-02-13T18:40:10Z</time>
      </trkpt>
      <trkpt lat="45.90421" lon="3.36127">
        <ele>287</ele>
        <time>2018-02-13T18:40:14Z</time>
      </trkpt>
      <trkpt lat="45.90424" lon="3.36128">
        <ele>287</ele>
        <time>2018-02-13T18:40:21Z</time>
      </trkpt>
      <trkpt lat="45.90428" lon="3.36129">
        <ele>286</ele>
        <time>2018-02-13T18:40:26Z</time>
      </trkpt>
      <trkpt lat="45.90432" lon="3.36135">
        <ele>286</ele>
        <time>2018-02-13T18:40:34Z</time>
      </trkpt>
      <trkpt lat="45.90474" lon="3.36229">
        <ele>286</ele>
        <time>2018-02-13T18:40:54Z</time>
      </trkpt>
      <trkpt lat="45.90479" lon="3.36244">
        <ele>287</ele>
        <time>2018-02-13T18:41:09Z</time>
      </trkpt>
      <trkpt lat="45.9048" lon="3.36253">
        <ele>288</ele>
        <time>2018-02-13T18:41:19Z</time>
      </trkpt>
      <trkpt lat="45.90481" lon="3.36357">
        <ele>289</ele>
        <time>2018-02-13T18:41:31Z</time>
      </trkpt>
      <trkpt lat="45.90488" lon="3.3638">
        <ele>291</ele>
        <time>2018-02-13T18:41:41Z</time>
      </trkpt>
      <trkpt lat="45.90495" lon="3.36389">
        <ele>290</ele>
        <time>2018-02-13T18:41:52Z</time>
      </trkpt>
      <trkpt lat="45.90544" lon="3.36434">
        <ele>290</ele>
        <time>2018-02-13T18:42:00Z</time>
      </trkpt>
      <trkpt lat="45.90567" lon="3.36456">
        <ele>290</ele>
        <time>2018-02-13T18:42:17Z</time>
      </trkpt>
      <trkpt lat="45.90572" lon="3.36467">
        <ele>290</ele>
        <time>2018-02-13T18:42:33Z</time>
      </trkpt>
      <trkpt lat="45.90599" lon="3.36617">
        <ele>291</ele>
        <time>2018-02-13T18:42:43Z</time>
      </trkpt>
      <trkpt lat="45.90614" lon="3.36697">
        <ele>291</ele>
        <time>2018-02-13T18:42:53Z</time>
      </trkpt>
      <trkpt lat="45.90614" lon="3.36703">
        <ele>291</ele>
        <time>2018-02-13T18:42:56Z</time>
      </trkpt>
      <trkpt lat="45.90625" lon="3.36718">
        <ele>291</ele>
        <time>2018-02-13T18:43:15Z</time>
      </trkpt>
      <trkpt lat="45.90638" lon="3.36736">
        <ele>291</ele>
        <time>2018-02-13T18:43:26Z</time>
      </trkpt>
      <trkpt lat="45.90649" lon="3.36753">
        <ele>291</ele>
        <time>2018-02-13T18:43:29Z</time>
      </trkpt>
      <trkpt lat="45.90666" lon="3.36773">
        <ele>292</ele>
        <time>2018-02-13T18:43:40Z</time>
      </trkpt>
      <trkpt lat="45.90684" lon="3.36787">
        <ele>292</ele>
        <time>2018-02-13T18:44:00Z</time>
      </trkpt>
      <trkpt lat="45.90696" lon="3.36792">
        <ele>292</ele>
        <time>2018-02-13T18:44:06Z</time>
      </trkpt>
      <trkpt lat="45.90774" lon="3.3681">
        <ele>292</ele>
        <time>2018-02-13T18:44:09Z</time>
      </trkpt>
      <trkpt lat="45.90824" lon="3.3682">
        <ele>291</ele>
        <time>2018-02-13T18:44:16Z</time>
      </trkpt>
      <trkpt lat="45.90842" lon="3.36822">
        <ele>291</ele>
        <time>2018-02-13T18:44:20Z</time>
      </trkpt>
      <trkpt lat="45.90855" lon="3.3682">
        <ele>291</ele>
        <time>2018-02-13T18:44:26Z</time>
      </trkpt>
      <trkpt lat="45.90866" lon="3.36814">
        <ele>291</ele>
        <time>2018-02-13T18:44:35Z</time>
      </trkpt>
      <trkpt lat="45.9088" lon="3.36805">
        <ele>291</ele>
        <time>2018-02-13T18:44:37Z</time>
      </trkpt>
      <trkpt lat="45.909" lon="3.36789">
        <ele>291</ele>
        <time>2018-02-13T18:44:40Z</time>
      </trkpt>
      <trkpt lat="45.90916" lon="3.3678">
        <ele>290</ele>
        <time>2018-02-13T18:44:57Z</time>
      </trkpt>
      <trkpt lat="45.90948" lon="3.36767">
        <ele>290</ele>
        <time>2018-02-13T18:44:59Z</time>
      </trkpt>
      <trkpt lat="45.90955" lon="3.36765">
        <ele>289</ele>
        <time>2018-02-13T18:45:12Z</time>
      </trkpt>
      <trkpt lat="45.90968" lon="3.36763">
        <ele>289</ele>
        <time>2018-02-13T18:45:17Z</time>
      </trkpt>
      <trkpt lat="45.90984" lon="3.36765">
        <ele>288</ele>
        <time>2018-02-13T18:45:21Z</time>
      </trkpt>
      <trkpt lat="45.91066" lon="3.36789">
        <ele>289</ele>
        <time>2018-02-13T18:45:23Z</time>
      </trkpt>
      <trkpt lat="45.91168" lon="3.36826">
        <ele>290</ele>
        <time>2018-02-13T18:45:27Z</time>
      </trkpt>
      <trkpt lat="45.91216" lon="3.36845">
        <ele>291</ele>
        <time>2018-02-13T18:45:47Z</time>
      </trkpt>
      <trkpt lat="45.91228" lon="3.36854">
        <ele>291</ele>
        <time>2018-02-13T18:45:54Z</time>
      </trkpt>
      <trkpt lat="45.9124" lon="3.36874">
        <ele>291</ele>
        <time>2018-02-13T18:46:09Z</time>
      </trkpt>
      <trkpt lat="45.9125" lon="3.36891">
        <ele>291</ele>
        <time>2018-02-13T18:46:24Z</time>
      </trkpt>
      <trkpt lat="45.91265" lon="3.36905">
        <ele>291</ele>
        <time>2018-02-13T18:46:33Z</time>
      </trkpt>
      <trkpt lat="45.91289" lon="3.36925">
        <ele>291</ele>
        <time>2018-02-13T18:46:46Z</time>
      </trkpt>
      <trkpt lat="45.91306" lon="3.3694">
        <ele>291</ele>
        <time>2018-02-13T18:46:53Z</time>
      </trkpt>
      <trkpt lat="45.9132" lon="3.36957">
        <ele>291</ele>
        <time>2018-02-13T18:47:13Z</time>
      </trkpt>
      <trkpt lat="45.91343" lon="3.37007">
        <ele>291</ele>
        <time>2018-02-13T18:47:25Z</time>
      </trkpt>
      <trkpt lat="45.91354" lon="3.37027">
        <ele>291</ele>
        <time>2018-02-13T18:47:29Z</time>
      </trkpt>
      <trkpt lat="45.91371" lon="3.37044">
        <ele>291</ele>
        <time>2018-02-13T18:47:49Z</time>
      </trkpt>
      <trkpt lat="45.91389" lon="3.3706">
        <ele>291</ele>
        <time>2018-02-13T18:48:02Z</time>
      </trkpt>
      <trkpt lat="45.91403" lon="3.37075">
        <ele>291</ele>
        <time>2018-02-13T18:48:07Z</time>
      </trkpt>
      <trkpt lat="45.91424" lon="3.37101">
        <ele>292</ele>
        <time>2018-02-13T18:48:18Z</time>
      </trkpt>
      <trkpt lat="45.91435" lon="3.37114">
        <ele>292</ele>
        <time>2018-02-13T18:48:21Z</time>
      </trkpt>
      <trkpt lat="45.91448" lon="3.37126">
        <ele>292</ele>
        <time>2018-02-13T18:48:39Z</time>
      </trkpt>
      <trkpt lat="45.91469" lon="3.37143">
        <ele>292</ele>
        <time>2018-02-13T18:48:48Z</time>
      </trkpt>
      <trkpt lat="45.91495" lon="3.37159">
        <ele>292</ele>
        <time>2018-02-13T18:48:52Z</time>
      </trkpt>
      <trkpt lat="45.91533" lon="3.37182">
        <ele>292</ele>
        <time>2018-02-13T18:49:05Z</time>
      </trkpt>
      <trkpt lat="45.91608" lon="3.37228">
        <ele>292</ele>
        <time>2018-02-13T18:49:24Z</time>
      </trkpt>
      <trkpt lat="45.9163" lon="3.37238">
        <ele>292</ele>
        <time>2018-02-13T18:49:30Z</time>
      </trkpt>
      <trkpt lat="45.9165" lon="3.37253">
        <ele>292</ele>
        <time>2018-02-13T18:49:32Z</time>
      </trkpt>
      <trkpt lat="45.91679" lon="3.37273">
        <ele>292</ele>
        <time>2018-02-13T18:49:47Z</time>
      </trkpt>
      <trkpt lat="45.91698" lon="3.37281">
        <ele>292</ele>
        <time>2018-02-13T18:50:01Z</time>
      </trkpt>
      <trkpt lat="45.91727" lon="3.37287">
        <ele>292</ele>
        <time>2018-02-13T18:50:03Z</time>
      </trkpt>
      <trkpt lat="45.91759" lon="3.37294">
        <ele>291</ele>
        <time>2018-02-13T18:50:18Z</time>
      </trkpt>
      <trkpt lat="45.9177" lon="3.37301">
        <ele>291</ele>
        <time>2018-02-13T18:50:22Z</time>
      </trkpt>
      <trkpt lat="45.9178" lon="3.37316">
        <ele>290</ele>
        <time>2018-02-13T18:50:38Z</time>
      </trkpt>
      <trkpt lat="45.91794" lon="3.37345">
        <ele>290</ele>
        <time>2018-02-13T18:50:43Z</time>
      </trkpt>
      <trkpt lat="45.91797" lon="3.37351">
        <ele>290</ele>
        <time>2018-02-13T18:50:49Z</time>
      </trkpt>
      <trkpt lat="45.91809" lon="3.37361">
        <ele>290</ele>
        <time>2018-02-13T18:51:04Z</time>
      </trkpt>
      <trkpt lat="45.91831" lon="3.37374">
        <ele>290</ele>
        <time>2018-02-13T18:51:09Z</time>
      </trkpt>
      <trkpt lat="45.91853" lon="3.37388">
        <ele>289</ele>
        <time>2018-02-13T18:51:13Z</time>
      </trkpt>
      <trkpt lat="45.9186" lon="3.37397">
        <ele>288</ele>
        <time>2018-02-13T18:51:17Z</time>
      </trkpt>
      <trkpt lat="45.9187" lon="3.37416">
        <ele>287</ele>
        <time>2018-02-13T18:51:24Z</time>
      </trkpt>
      <trkpt lat="45.91895" lon="3.37499">
        <ele>287</ele>
        <time>2018-02-13T18:51:34Z</time>
      </trkpt>
      <trkpt lat="45.91913" lon="3.37533">
        <ele>286</ele>
        <time>2018-02-13T18:51:51Z</time>
      </trkpt>
      <trkpt lat="45.91945" lon="3.37586">
        <ele>285</ele>
        <time>2018-02-13T18:51:53Z</time>
      </trkpt>
      <trkpt lat="45.91965" lon="3.37637">
        <ele>284</ele>
        <time>2018-02-13T18:51:55Z</time>
      </trkpt>
      <trkpt lat="45.91998" lon="3.37738">
        <ele>284</ele>
        <time>2018-02-13T18:52:01Z</time>
      </trkpt>
      <trkpt lat="45.92015" lon="3.37807">
        <ele>283</ele>
        <time>2018-02-13T18:52:07Z</time>
      </trkpt>
      <trkpt lat="45.9204" lon="3.37923">
        <ele>283</ele>
        <time>2018-02-13T18:52:18Z</time>
      </trkpt>
      <trkpt lat="45.92056" lon="3.37967">
        <ele>283</ele>
        <time>2018-02-13T18:52:23Z</time>
      </trkpt>
      <trkpt lat="45.92124" lon="3.38122">
        <ele>283</ele>
        <time>2018-02-13T18:52:33Z</time>
      </trkpt>
      <trkpt lat="45.92203" lon="3.38319">
        <ele>284</ele>
        <time>2018-02-13T18:52:45Z</time>
      </trkpt>
      <trkpt lat="45.9221" lon="3.38348">
        <ele>285</ele>
        <time>2018-02-13T18:52:55Z</time>
      </trkpt>
      <trkpt lat="45.9221" lon="3.38366">
        <ele>285</ele>
        <time>2018-02-13T18:53:14Z</time>
      </trkpt>
      <trkpt lat="45.92206" lon="3.38392">
        <ele>284</ele>
        <time>2018-02-13T18:53:34Z</time>
      </trkpt>
      <trkpt lat="45.92192" lon="3.3844">
        <ele>284</ele>
        <time>2018-02-13T18:53:49Z</time>
      </trkpt>
      <trkpt lat="45.92137" lon="3.3861">
        <ele>285</ele>
        <time>2018-02-13T18:54:07Z</time>
      </trkpt>
      <trkpt lat="45.92087" lon="3.38773">
        <ele>286</ele>
        <time>2018-02-13T18:54:25Z</time>
      </trkpt>
      <trkpt lat="45.92089" lon="3.38803">
        <ele>286</ele>
        <time>2018-02-13T18:54:44Z</time>
      </trkpt>
      <trkpt lat="45.92094" lon="3.38827">
        <ele>286</ele>
        <time>2018-02-13T18:54:55Z</time>
      </trkpt>
      <trkpt lat="45.92099" lon="3.38836">
        <ele>285</ele>
        <time>2018-02-13T18:55:07Z</time>
      </trkpt>
      <trkpt lat="45.92126" lon="3.38866">
        <ele>284</ele>
        <time>2018-02-13T18:55:25Z</time>
      </trkpt>
      <trkpt lat="45.92183" lon="3.38935">
        <ele>283</ele>
        <time>2018-02-13T18:55:37Z</time>
      </trkpt>
      <trkpt lat="45.9221" lon="3.38966">
        <ele>283</ele>
        <time>2018-02-13T18:55:40Z</time>
      </trkpt>
      <trkpt lat="45.92225" lon="3.38987">
        <ele>283</ele>
        <time>2018-02-13T18:55:55Z</time>
      </trkpt>
      <trkpt lat="45.92238" lon="3.39011">
        <ele>283</ele>
        <time>2018-02-13T18:56:05Z</time>
      </trkpt>
      <trkpt lat="45.92248" lon="3.39033">
        <ele>283</ele>
        <time>2018-02-13T18:56:16Z</time>
      </trkpt>
      <trkpt lat="45.92276" lon="3.39098">
        <ele>283</ele>
        <time>2018-02-13T18:56:20Z</time>
      </trkpt>
      <trkpt lat="45.92291" lon="3.39128">
        <ele>283</ele>
        <time>2018-02-13T18:56:26Z</time>
      </trkpt>
      <trkpt lat="45.923" lon="3.39142">
        <ele>283</ele>
        <time>2018-02-13T18:56:45Z</time>
      </trkpt>
      <trkpt lat="45.92314" lon="3.39156">
        <ele>283</ele>
        <time>2018-02-13T18:56:57Z</time>
      </trkpt>
      <trkpt lat="45.92339" lon="3.39177">
        <ele>283</ele>
        <time>2018-02-13T18:57:10Z</time>
      </trkpt>
      <trkpt lat="45.92366" lon="3.39214">
        <ele>282</ele>
        <time>2018-02-13T18:57:25Z</time>
      </trkpt>
      <trkpt lat="45.92401" lon="3.39264">
        <ele>282</ele>
        <time>2018-02-13T18:57:31Z</time>
      </trkpt>
      <trkpt lat="45.92411" lon="3.39287">
        <ele>282</ele>
        <time>2018-02-13T18:57:36Z</time>
      </trkpt>
      <trkpt lat="45.92429" lon="3.39351">
        <ele>283</ele>
        <time>2018-02-13T18:57:56Z</time>
      </trkpt>
      <trkpt lat="45.92437" lon="3.39387">
        <ele>283</ele>
        <time>2018-02-13T18:58:03Z</time>
      </trkpt>
      <trkpt lat="45.92442" lon="3.39424">
        <ele>283</ele>
        <time>2018-02-13T18:58:08Z</time>
      </trkpt>
      <trkpt lat="45.92447" lon="3.39449">
        <ele>283</ele>
        <time>2018-02-13T18:58:12Z</time>
      </trkpt>
      <trkpt lat="45.92455" lon="3.39466">
        <ele>284</ele>
        <time>2018-02-13T18:58:23Z</time>
      </trkpt>
      <trkpt lat="45.92492" lon="3.39529">
        <ele>284</ele>
        <time>2018-02-13T18:58:29Z</time>
      </trkpt>
      <trkpt lat="45.92516" lon="3.39568">
        <ele>286</ele>
        <time>2018-02-13T18:58:48Z</time>
      </trkpt>
      <trkpt lat="45.92543" lon="3.39606">
        <ele>287</ele>
        <time>2018-02-13T18:59:04Z</time>
      </trkpt>
      <trkpt lat="45.92553" lon="3.39622">
        <ele>288</ele>
        <time>2018-02-13T18:59:21Z</time>
      </trkpt>
      <trkpt lat="45.92559" lon="3.39637">
        <ele>288</ele>
        <time>2018-02-13T18:59:32Z</time>
      </trkpt>
      <trkpt lat="45.92558" lon="3.39656">
        <ele>288</ele>
        <time>2018-02-13T18:59:46Z</time>
      </trkpt>
      <trkpt lat="45.92553" lon="3.39687">
        <ele>287</ele>
        <time>2018-02-13T19:00:03Z</time>
      </trkpt>
      <trkpt lat="45.92556" lon="3.39715">
        <ele>287</ele>
        <time>2018-02-13T19:00:05Z</time>
      </trkpt>
      <trkpt lat="45.92565" lon="3.39738">
        <ele>287</ele>
        <time>2018-02-13T19:00:20Z</time>
      </trkpt>
      <trkpt lat="45.92573" lon="3.39745">
        <ele>287</ele>
        <time>2018-02-13T19:00:27Z</time>
      </trkpt>
      <trkpt lat="45.92596" lon="3.39752">
        <ele>287</ele>
        <time>2018-02-13T19:00:43Z</time>
      </trkpt>
      <trkpt lat="45.92613" lon="3.39755">
        <ele>286</ele>
        <time>2018-02-13T19:01:01Z</time>
      </trkpt>
      <trkpt lat="45.92631" lon="3.39761">
        <ele>285</ele>
        <time>2018-02-13T19:01:21Z</time>
      </trkpt>
      <trkpt lat="45.92673" lon="3.39794">
        <ele>285</ele>
        <time>2018-02-13T19:01:25Z</time>
      </trkpt>
      <trkpt lat="45.92695" lon="3.3981">
        <ele>284</ele>
        <time>2018-02-13T19:01:45Z</time>
      </trkpt>
      <trkpt lat="45.92735" lon="3.39829">
        <ele>283</ele>
        <time>2018-02-13T19:01:53Z</time>
      </trkpt>
      <trkpt lat="45.92756" lon="3.39839">
        <ele>284</ele>
        <time>2018-02-13T19:02:10Z</time>
      </trkpt>
      <trkpt lat="45.92786" lon="3.39856">
        <ele>285</ele>
        <time>2018-02-13T19:02:19Z</time>
      </trkpt>
      <trkpt lat="45.92813" lon="3.39878">
        <ele>285</ele>
        <time>2018-02-13T19:02:38Z</time>
      </trkpt>
      <trkpt lat="45.92831" lon="3.3989">
        <ele>285</ele>
        <time>2018-02-13T19:02:55Z</time>
      </trkpt>
      <trkpt lat="45.92872" lon="3.39912">
        <ele>285</ele>
        <time>2018-02-13T19:02:58Z</time>
      </trkpt>
      <trkpt lat="45.92885" lon="3.39922">
        <ele>285</ele>
        <time>2018-02-13T19:03:13Z</time>
      </trkpt>
      <trkpt lat="45.92895" lon="3.39938">
        <ele>285</ele>
        <time>2018-02-13T19:03:18Z</time>
      </trkpt>
      <trkpt lat="45.92941" lon="3.40026">
        <ele>285</ele>
        <time>2018-02-13T19:03:30Z</time>
      </trkpt>
      <trkpt lat="45.9295" lon="3.40051">
        <ele>284</ele>
        <time>2018-02-13T19:03:35Z</time>
      </trkpt>
      <trkpt lat="45.92955" lon="3.40078">
        <ele>284</ele>
        <time>2018-02-13T19:03:53Z</time>
      </trkpt>
      <trkpt lat="45.92971" lon="3.40196">
        <ele>284</ele>
        <time>2018-02-13T19:03:55Z</time>
      </trkpt>
      <trkpt lat="45.92981" lon="3.4024">
        <ele>284</ele>
        <time>2018-02-13T19:04:11Z</time>
      </trkpt>
      <trkpt lat="45.92989" lon="3.40265">
        <ele>284</ele>
        <time>2018-02-13T19:04:13Z</time>
      </trkpt>
      <trkpt lat="45.93013" lon="3.40321">
        <ele>283</ele>
        <time>2018-02-13T19:04:26Z</time>
      </trkpt>
      <trkpt lat="45.93016" lon="3.4033">
        <ele>284</ele>
        <time>2018-02-13T19:04:29Z</time>
      </trkpt>
      <trkpt lat="45.93051" lon="3.40504">
        <ele>284</ele>
        <time>2018-02-13T19:04:46Z</time>
      </trkpt>
      <trkpt lat="45.9307" lon="3.40556">
        <ele>284</ele>
        <time>2018-02-13T19:05:02Z</time>
      </trkpt>
      <trkpt lat="45.93094" lon="3.40612">
        <ele>284</ele>
        <time>2018-02-13T19:05:09Z</time>
      </trkpt>
      <trkpt lat="45.93107" lon="3.40648">
        <ele>283</ele>
        <time>2018-02-13T19:05:16Z</time>
      </trkpt>
      <trkpt lat="45.93138" lon="3.40771">
        <ele>284</ele>
        <time>2018-02-13T19:05:19Z</time>
      </trkpt>
      <trkpt lat="45.9317" lon="3.40905">
        <ele>284</ele>
        <time>2018-02-13T19:05:36Z</time>
      </trkpt>
      <trkpt lat="45.93206" lon="3.41001">
        <ele>285</ele>
        <time>2018-02-13T19:05:40Z</time>
      </trkpt>
      <trkpt lat="45.93216" lon="3.41024">
        <ele>284</ele>
        <time>2018-02-13T19:05:44Z</time>
      </trkpt>
      <trkpt lat="45.93231" lon="3.41048">
        <ele>283</ele>
        <time>2018-02-13T19:05:57Z</time>
      </trkpt>
      <trkpt lat="45.93269" lon="3.411">
        <ele>282</ele>
        <time>2018-02-13T19:06:15Z</time>
      </trkpt>
      <trkpt lat="45.93281" lon="3.4111">
        <ele>282</ele>
        <time>2018-02-13T19:06:26Z</time>
      </trkpt>
      <trkpt lat="45.93293" lon="3.41115">
        <ele>282</ele>
        <time>2018-02-13T19:06:35Z</time>
      </trkpt>
      <trkpt lat="45.93313" lon="3.41116">
        <ele>282</ele>
        <time>2018-02-13T19:06:38Z</time>
      </trkpt>
      <trkpt lat="45.93335" lon="3.41111">
        <ele>282</ele>
        <time>2018-02-13T19:06:46Z</time>
      </trkpt>
      <trkpt lat="45.93366" lon="3.4111">
        <ele>282</ele>
        <time>2018-02-13T19:06:59Z</time>
      </trkpt>
      <trkpt lat="45.93388" lon="3.41113">
        <ele>281</ele>
        <time>2018-02-13T19:07:05Z</time>
      </trkpt>
      <trkpt lat="45.93407" lon="3.41117">
        <ele>281</ele>
        <time>2018-02-13T19:07:17Z</time>
      </trkpt>
      <trkpt lat="45.93423" lon="3.41124">
        <ele>281</ele>
        <time>2018-02-13T19:07:24Z</time>
      </trkpt>
      <trkpt lat="45.93436" lon="3.41133">
        <ele>281</ele>
        <time>2018-02-13T19:07:30Z</time>
      </trkpt>
      <trkpt lat="45.93449" lon="3.41147">
        <ele>281</ele>
        <time>2018-02-13T19:07:34Z</time>
      </trkpt>
      <trkpt lat="45.93474" lon="3.41183">
        <ele>281</ele>
        <time>2018-02-13T19:07:47Z</time>
      </trkpt>
      <trkpt lat="45.93488" lon="3.41202">
        <ele>281</ele>
        <time>2018-02-13T19:07:51Z</time>
      </trkpt>
      <trkpt lat="45.93498" lon="3.41223">
        <ele>281</ele>
        <time>2018-02-13T19:08:02Z</time>
      </trkpt>
      <trkpt lat="45.93508" lon="3.41245">
        <ele>281</ele>
        <time>2018-02-13T19:08:17Z</time>
      </trkpt>
      <trkpt lat="45.93522" lon="3.41268">
        <ele>281</ele>
        <time>2018-02-13T19:08:22Z</time>
      </trkpt>
      <trkpt lat="45.93539" lon="3.41286">
        <ele>281</ele>
        <time>2018-02-13T19:08:29Z</time>
      </trkpt>
      <trkpt lat="45.93574" lon="3.4131">
        <ele>281</ele>
        <time>2018-02-13T19:08:33Z</time>
      </trkpt>
      <trkpt lat="45.93633" lon="3.41349">
        <ele>281</ele>
        <time>2018-02-13T19:08:35Z</time>
      </trkpt>
      <trkpt lat="45.93665" lon="3.41373">
        <ele>281</ele>
        <time>2018-02-13T19:08:55Z</time>
      </trkpt>
      <trkpt lat="45.93709" lon="3.41415">
        <ele>281</ele>
        <time>2018-02-13T19:09:11Z</time>
      </trkpt>
      <trkpt lat="45.93812" lon="3.41488">
        <ele>282</ele>
        <time>2018-02-13T19:09:21Z</time>
      </trkpt>
      <trkpt lat="45.93872" lon="3.41533">
        <ele>282</ele>
        <time>2018-02-13T19:09:34Z</time>
      </trkpt>
      <trkpt lat="45.93888" lon="3.41546">
        <ele>282</ele>
        <time>2018-02-13T19:09:54Z</time>
      </trkpt>
      <trkpt lat="45.93897" lon="3.41559">
        <ele>282</ele>
        <time>2018-02-13T19:10:06Z</time>
      </trkpt>
      <trkpt lat="45.93904" lon="3.41577">
        <ele>282</ele>
        <time>2018-02-13T19:10:20Z</time>
      </trkpt>
      <trkpt lat="45.93913" lon="3.41609">
        <ele>282</ele>
        <time>2018-02-13T19:10:34Z</time>
      </trkpt>
      <trkpt lat="45.9392" lon="3.41629">
        <ele>282</ele>
        <time>2018-02-13T19:10:36Z</time>
      </trkpt>
      <trkpt lat="45.93929" lon="3.41642">
        <ele>282</ele>
        <time>2018-02-13T19:10:48Z</time>
      </trkpt>
      <trkpt lat="45.93943" lon="3.41659">
        <ele>282</ele>
        <time>2018-02-13T19:11:00Z</time>
      </trkpt>
      <trkpt lat="45.93959" lon="3.41674">
        <ele>282</ele>
        <time>2018-02-13T19:11:16Z</time>
      </trkpt>
      <trkpt lat="45.93984" lon="3.41695">
        <ele>282</ele>
        <time>2018-02-13T19:11:20Z</time>
      </trkpt>
      <trkpt lat="45.93996" lon="3.41707">
        <ele>281</ele>
        <time>2018-02-13T19:11:39Z</time>
      </trkpt>
      <trkpt lat="45.94014" lon="3.41736">
        <ele>281</ele>
        <time>2018-02-13T19:11:46Z</time>
      </trkpt>
      <trkpt lat="45.94032" lon="3.41782">
        <ele>281</ele>
        <time>2018-02-13T19:11:55Z</time>
      </trkpt>
      <trkpt lat="45.94049" lon="3.41837">
        <ele>280</ele>
        <time>2018-02-13T19:11:59Z</time>
      </trkpt>
      <trkpt lat="45.9408" lon="3.41968">
        <ele>279</ele>
        <time>2018-02-13T19:12:07Z</time>
      </trkpt>
      <trkpt lat="45.941" lon="3.42053">
        <ele>279</ele>
        <time>2018-02-13T19:12:22Z</time>
      </trkpt>
      <trkpt lat="45.94108" lon="3.42101">
        <ele>280</ele>
        <time>2018-02-13T19:12:37Z</time>
      </trkpt>
      <trkpt lat="45.94111" lon="3.42136">
        <ele>280</ele>
        <time>2018-02-13T19:12:48Z</time>
      </trkpt>
      <trkpt lat="45.94109" lon="3.42211">
        <ele>281</ele>
        <time>2018-02-13T19:12:50Z</time>
      </trkpt>
      <trkpt lat="45.94111" lon="3.4224">
        <ele>282</ele>
        <time>2018-02-13T19:13:03Z</time>
      </trkpt>
      <trkpt lat="45.94114" lon="3.42267">
        <ele>285</ele>
        <time>2018-02-13T19:13:17Z</time>
      </trkpt>
      <trkpt lat="45.94128" lon="3.42328">
        <ele>286</ele>
        <time>2018-02-13T19:13:23Z</time>
      </trkpt>
      <trkpt lat="45.94135" lon="3.42361">
        <ele>288</ele>
        <time>2018-02-13T19:13:25Z</time>
      </trkpt>
      <trkpt lat="45.94152" lon="3.42481">
        <ele>287</ele>
        <time>2018-02-13T19:13:35Z</time>
      </trkpt>
      <trkpt lat="45.94159" lon="3.42513">
        <ele>287</ele>
        <time>2018-02-13T19:13:55Z</time>
      </trkpt>
      <trkpt lat="45.94165" lon="3.42532">
        <ele>287</ele>
        <time>2018-02-13T19:14:02Z</time>
      </trkpt>
      <trkpt lat="45.94176" lon="3.42556">
        <ele>286</ele>
        <time>2018-02-13T19:14:13Z</time>
      </trkpt>
      <trkpt lat="45.94189" lon="3.42578">
        <ele>286</ele>
        <time>2018-02-13T19:14:18Z</time>
      </trkpt>
      <trkpt lat="45.94211" lon="3.42606">
        <ele>285</ele>
        <time>2018-02-13T19:14:31Z</time>
      </trkpt>
      <trkpt lat="45.94231" lon="3.42624">
        <ele>285</ele>
        <time>2018-02-13T19:14:46Z</time>
      </trkpt>
      <trkpt lat="45.94246" lon="3.42641">
        <ele>285</ele>
        <time>2018-02-13T19:14:51Z</time>
      </trkpt>
      <trkpt lat="45.94257" lon="3.42656">
        <ele>285</ele>
        <time>2018-02-13T19:14:59Z</time>
      </trkpt>
      <trkpt lat="45.94272" lon="3.42685">
        <ele>284</ele>
        <time>2018-02-13T19:15:19Z</time>
      </trkpt>
      <trkpt lat="45.94358" lon="3.42887">
        <ele>284</ele>
        <time>2018-02-13T19:15:21Z</time>
      </trkpt>
      <trkpt lat="45.94385" lon="3.42952">
        <ele>284</ele>
        <time>2018-02-13T19:15:27Z</time>
      </trkpt>
      <trkpt lat="45.94422" lon="3.43029">
        <ele>283</ele>
        <time>2018-02-13T19:15:44Z</time>
      </trkpt>
      <trkpt lat="45.94507" lon="3.43207">
        <ele>282</ele>
        <time>2018-02-13T19:15:59Z</time>
      </trkpt>
      <trkpt lat="45.94519" lon="3.43225">
        <ele>281</ele>
        <time>2018-02-13T19:16:17Z</time>
      </trkpt>
      <trkpt lat="45.9456" lon="3.43245">
        <ele>279</ele>
        <time>2018-02-13T19:16:26Z</time>
      </trkpt>
      <trkpt lat="45.94626" lon="3.43276">
        <ele>278</ele>
        <time>2018-02-13T19:16:35Z</time>
      </trkpt>
      <trkpt lat="45.9466" lon="3.43294">
        <ele>277</ele>
        <time>2018-02-13T19:16:53Z</time>
      </trkpt>
      <trkpt lat="45.94674" lon="3.43305">
        <ele>277</ele>
        <time>2018-02-13T19:17:12Z</time>
      </trkpt>
      <trkpt lat="45.94682" lon="3.43316">
        <ele>277</ele>
        <time>2018-02-13T19:17:28Z</time>
      </trkpt>
      <trkpt lat="45.94689" lon="3.43331">
        <ele>277</ele>
        <time>2018-02-13T19:17:30Z</time>
      </trkpt>
      <trkpt lat="45.94699" lon="3.43365">
        <ele>276</ele>
        <time>2018-02-13T19:17:45Z</time>
      </trkpt>
      <trkpt lat="45.94709" lon="3.43415">
        <ele>276</ele>
        <time>2018-02-13T19:18:02Z</time>
      </trkpt>
      <trkpt lat="45.94721" lon="3.43493">
        <ele>276</ele>
        <time>2018-02-13T19:18:09Z</time>
      </trkpt>
      <trkpt lat="45.94724" lon="3.43536">
        <ele>276</ele>
        <time>2018-02-13T19:18:27Z</time>
      </trkpt>
      <trkpt lat="45.94724" lon="3.43594">
        <ele>276</ele>
        <time>2018-02-13T19:18:43Z</time>
      </trkpt>
      <trkpt lat="45.94721" lon="3.43644">
        <ele>276</ele>
        <time>2018-02-13T19:18:58Z</time>
      </trkpt>
      <trkpt lat="45.94714" lon="3.43711">
        <ele>276</ele>
        <time>2018-02-13T19:19:05Z</time>
      </trkpt>
      <trkpt lat="45.94712" lon="3.43741">
        <ele>276</ele>
        <time>2018-02-13T19:19:25Z</time>
      </trkpt>
      <trkpt lat="45.94717" lon="3.43778">
        <ele>276</ele>
        <time>2018-02-13T19:19:29Z</time>
      </trkpt>
      <trkpt lat="45.94726" lon="3.43814">
        <ele>276</ele>
        <time>2018-02-13T19:19:31Z</time>
      </trkpt>
      <trkpt lat="45.94739" lon="3.43856">
        <ele>275</ele>
        <time>2018-02-13T19:19:33Z</time>
      </trkpt>
      <trkpt lat="45.94746" lon="3.43886">
        <ele>275</ele>
        <time>2018-02-13T19:19:52Z</time>
      </trkpt>
      <trkpt lat="45.94751" lon="3.43913">
        <ele>275</ele>
        <time>2018-02-13T19:19:55Z</time>
      </trkpt>
      <trkpt lat="45.94753" lon="3.43937">
        <ele>275</ele>
        <time>2018-02-13T19:20:10Z</time>
      </trkpt>
      <trkpt lat="45.94751" lon="3.43964">
        <ele>275</ele>
        <time>2018-02-13T19:20:23Z</time>
      </trkpt>
      <trkpt lat="45.94737" lon="3.44052">
        <ele>275</ele>
        <time>2018-02-13T19:20:38Z</time>
      </trkpt>
      <trkpt lat="45.94732" lon="3.44094">
        <ele>275</ele>
        <time>2018-02-13T19:20:45Z</time>
      </trkpt>
      <trkpt lat="45.9473" lon="3.44147">
        <ele>275</ele>
        <time>2018-02-13T19:20:57Z</time>
      </trkpt>
      <trkpt lat="45.94731" lon="3.44209">
        <ele>275</ele>
        <time>2018-02-13T19:21:13Z</time>
      </trkpt>
      <trkpt lat="45.94735" lon="3.44254">
        <ele>275</ele>
        <time>2018-02-13T19:21:17Z</time>
      </trkpt>
      <trkpt lat="45.94753" lon="3.44348">
        <ele>275</ele>
        <time>2018-02-13T19:21:21Z</time>
      </trkpt>
      <trkpt lat="45.94802" lon="3.44528">
        <ele>275</ele>
        <time>2018-02-13T19:21:24Z</time>
      </trkpt>
      <trkpt lat="45.94829" lon="3.44613">
        <ele>275</ele>
        <time>2018-02-13T19:21:35Z</time>
      </trkpt>
      <trkpt lat="45.94841" lon="3.44644">
        <ele>275</ele>
        <time>2018-02-13T19:21:38Z</time>
      </trkpt>
      <trkpt lat="45.94863" lon="3.44691">
        <ele>275</ele>
        <time>2018-02-13T19:21:42Z</time>
      </trkpt>
      <trkpt lat="45.94941" lon="3.44848">
        <ele>275</ele>
        <time>2018-02-13T19:21:49Z</time>
      </trkpt>
      <trkpt lat="45.94964" lon="3.44894">
        <ele>275</ele>
        <time>2018-02-13T19:21:51Z</time>
      </trkpt>
      <trkpt lat="45.94986" lon="3.44923">
        <ele>276</ele>
        <time>2018-02-13T19:21:56Z</time>
      </trkpt>
      <trkpt lat="45.95" lon="3.44935">
        <ele>276</ele>
        <time>2018-02-13T19:22:03Z</time>
      </trkpt>
      <trkpt lat="45.95043" lon="3.4496">
        <ele>277</ele>
        <time>2018-02-13T19:22:12Z</time>
      </trkpt>
      <trkpt lat="45.95063" lon="3.44971">
        <ele>276</ele>
        <time>2018-02-13T19:22:15Z</time>
      </trkpt>
      <trkpt lat="45.95083" lon="3.44987">
        <ele>275</ele>
        <time>2018-02-13T19:22:27Z</time>
      </trkpt>
      <trkpt lat="45.95099" lon="3.45004">
        <ele>275</ele>
        <time>2018-02-13T19:22:31Z</time>
      </trkpt>
      <trkpt lat="45.95115" lon="3.45028">
        <ele>275</ele>
        <time>2018-02-13T19:22:50Z</time>
      </trkpt>
      <trkpt lat="45.95141" lon="3.45079">
        <ele>275</ele>
        <time>2018-02-13T19:23:07Z</time>
      </trkpt>
      <trkpt lat="45.95172" lon="3.45147">
        <ele>275</ele>
        <time>2018-02-13T19:23:10Z</time>
      </trkpt>
      <trkpt lat="45.95201" lon="3.45196">
        <ele>275</ele>
        <time>2018-02-13T19:23:26Z</time>
      </trkpt>
      <trkpt lat="45.95229" lon="3.45224">
        <ele>276</ele>
        <time>2018-02-13T19:23:30Z</time>
      </trkpt>
      <trkpt lat="45.95253" lon="3.45242">
        <ele>275</ele>
        <time>2018-02-13T19:23:41Z</time>
      </trkpt>
      <trkpt lat="45.95267" lon="3.4525">
        <ele>275</ele>
        <time>2018-02-13T19:24:00Z</time>
      </trkpt>
      <trkpt lat="45.95374" lon="3.453">
        <ele>275</ele>
        <time>2018-02-13T19:24:09Z</time>
      </trkpt>
      <trkpt lat="45.95437" lon="3.45329">
        <ele>275</ele>
        <time>2018-02-13T19:24:25Z</time>
      </trkpt>
      <trkpt lat="45.95475" lon="3.4535">
        <ele>275</ele>
        <time>2018-02-13T19:24:33Z</time>
      </trkpt>
      <trkpt lat="45.95502" lon="3.45371">
        <ele>275</ele>
        <time>2018-02-13T19:24:40Z</time>
      </trkpt>
      <trkpt lat="45.95525" lon="3.45395">
        <ele>274</ele>
        <time>2018-02-13T19:24:48Z</time>
      </trkpt>
      <trkpt lat="45.95548" lon="3.45425">
        <ele>274</ele>
        <time>2018-02-13T19:25:07Z</time>
      </trkpt>
      <trkpt lat="45.95564" lon="3.45452">
        <ele>274</ele>
        <time>2018-02-13T19:25:22Z</time>
      </trkpt>
      <trkpt lat="45.95579" lon="3.45484">
        <ele>274</ele>
        <time>2018-02-13T19:25:42Z</time>
      </trkpt>
      <trkpt lat="45.95588" lon="3.45512">
        <ele>274</ele>
        <time>2018-02-13T19:25:53Z</time>
      </trkpt>
      <trkpt lat="45.95624" lon="3.45658">
        <ele>274</ele>
        <time>2018-02-13T19:25:58Z</time>
      </trkpt>
      <trkpt lat="45.95646" lon="3.45738">
        <ele>274</ele>
        <time>2018-02-13T19:26:04Z</time>
      </trkpt>
      <trkpt lat="45.95668" lon="3.45795">
        <ele>274</ele>
        <time>2018-02-13T19:26:06Z</time>
      </trkpt>
      <trkpt lat="45.9568" lon="3.45817">
        <ele>274</ele>
        <time>2018-02-13T19:26:16Z</time>
      </trkpt>
      <trkpt lat="45.95686" lon="3.45827">
        <ele>274</ele>
        <time>2018-02-13T19:26:36Z</time>
      </trkpt>
      <trkpt lat="45.95692" lon="3.45832">
        <ele>274</ele>
        <time>2018-02-13T19:26:52Z</time>
      </trkpt>
      <trkpt lat="45.95713" lon="3.45859">
        <ele>274</ele>
        <time>2018-02-13T19:26:58Z</time>
      </trkpt>
      <trkpt lat="45.95759" lon="3.45903">
        <ele>274</ele>
        <time>2018-02-13T19:27:06Z</time>
      </trkpt>
      <trkpt lat="45.95882" lon="3.46012">
        <ele>274</ele>
        <time>2018-02-13T19:27:09Z</time>
      </trkpt>
      <trkpt lat="45.95924" lon="3.4605">
        <ele>274</ele>
        <time>2018-02-13T19:27:22Z</time>
      </trkpt>
      <trkpt lat="45.95967" lon="3.46082">
        <ele>274</ele>
        <time>2018-02-13T19:27:34Z</time>
      </trkpt>
      <trkpt lat="45.96052" lon="3.46134">
        <ele>274</ele>
        <time>2018-02-13T19:27:46Z</time>
      </trkpt>
      <trkpt lat="45.96103" lon="3.46167">
        <ele>274</ele>
        <time>2018-02-13T19:27:51Z</time>
      </trkpt>
      <trkpt lat="45.96179" lon="3.46222">
        <ele>273</ele>
        <time>2018-02-13T19:28:01Z</time>
      </trkpt>
      <trkpt lat="45.96229" lon="3.4626">
        <ele>274</ele>
        <time>2018-02-13T19:28:09Z</time>
      </trkpt>
      <trkpt lat="45.96276" lon="3.463">
        <ele>275</ele>
        <time>2018-02-13T19:28:26Z</time>
      </trkpt>
      <trkpt lat="45.96305" lon="3.46322">
        <ele>275</ele>
        <time>2018-02-13T19:28:32Z</time>
      </trkpt>
      <trkpt lat="45.96287" lon="3.46369">
        <ele>274</ele>
        <time>2018-02-13T19:28:41Z</time>
      </trkpt>
      <trkpt lat="45.96275" lon="3.46402">
        <ele>273</ele>
        <time>2018-02-13T19:28:57Z</time>
      </trkpt>
      <trkpt lat="45.96161" lon="3.46694">
        <ele>273</ele>
        <time>2018-02-13T19:29:17Z</time>
      </trkpt>
      <trkpt lat="45.9611" lon="3.46828">
        <ele>273</ele>
        <time>2018-02-13T19:29:37Z</time>
      </trkpt>
      <trkpt lat="45.96096" lon="3.46873">
        <ele>273</ele>
        <time>2018-02-13T19:29:54Z</time>
      </trkpt>
      <trkpt lat="45.96096" lon="3.46884">
        <ele>273</ele>
        <time>2018-02-13T19:29:56Z</time>
      </trkpt>
      <trkpt lat="45.96092" lon="3.46893">
        <ele>273</ele>
        <time>2018-02-13T19:30:01Z</time>
      </trkpt>
      <trkpt lat="45.96085" lon="3.46898">
        <ele>274</ele>
        <time>2018-02-13T19:30:19Z</time>
      </trkpt>
      <trkpt lat="45.96071" lon="3.46931">
        <ele>274</ele>
        <time>2018-02-13T19:30:22Z</time>
      </trkpt>
      <trkpt lat="45.96055" lon="3.46974">
        <ele>275</ele>
        <time>2018-02-13T19:30:34Z</time>
      </trkpt>
      <trkpt lat="45.96043" lon="3.47017">
        <ele>277</ele>
        <time>2018-02-13T19:30:48Z</time>
      </trkpt>
      <trkpt lat="45.96026" lon="3.47091">
        <ele>278</ele>
        <time>2018-02-13T19:31:03Z</time>
      </trkpt>
      <trkpt lat="45.9602" lon="3.47129">
        <ele>280</ele>
        <time>2018-02-13T19:31:12Z</time>
      </trkpt>
      <trkpt lat="45.96001" lon="3.47298">
        <ele>281</ele>
        <time>2018-02-13T19:31:16Z</time>
      </trkpt>
      <trkpt lat="45.95986" lon="3.47391">
        <ele>282</ele>
        <time>2018-02-13T19:31:20Z</time>
      </trkpt>
      <trkpt lat="45.95984" lon="3.4741">
        <ele>283</ele>
        <time>2018-02-13T19:31:25Z</time>
      </trkpt>
      <trkpt lat="45.95998" lon="3.47411">
        <ele>283</ele>
        <time>2018-02-13T19:31:29Z</time>
      </trkpt>
      <trkpt lat="45.96053" lon="3.4743">
        <ele>283</ele>
        <time>2018-02-13T19:31:41Z</time>
      </trkpt>
      <trkpt lat="45.96154" lon="3.47466">
        <ele>282</ele>
        <time>2018-02-13T19:31:53Z</time>
      </trkpt>
      <trkpt lat="45.96257" lon="3.47526">
        <ele>280</ele>
        <time>2018-02-13T19:32:09Z</time>
      </trkpt>
      <trkpt lat="45.96361" lon="3.47589">
        <ele>280</ele>
        <time>2018-02-13T19:32:29Z</time>
      </trkpt>
      <trkpt lat="45.96542" lon="3.47695">
        <ele>284</ele>
        <time>2018-02-13T19:32:34Z</time>
      </trkpt>
      <trkpt lat="45.96799" lon="3.47846">
        <ele>286</ele>
        <time>2018-02-13T19:32:41Z</time>
      </trkpt>
      <trkpt lat="45.96864" lon="3.47885">
        <ele>288</ele>
        <time>2018-02-13T19:32:55Z</time>
      </trkpt>
      <trkpt lat="45.96857" lon="3.4794">
        <ele>288</ele>
        <time>2018-02-13T19:33:12Z</time>
      </trkpt>
      <trkpt lat="45.96841" lon="3.4806">
        <ele>289</ele>
        <time>2018-02-13T19:33:24Z</time>
      </trkpt>
      <trkpt lat="45.96838" lon="3.48119">
        <ele>290</ele>
        <time>2018-02-13T19:33:43Z</time>
      </trkpt>
      <trkpt lat="45.96838" lon="3.48167">
        <ele>291</ele>
        <time>2018-02-13T19:34:02Z</time>
      </trkpt>
      <trkpt lat="45.96851" lon="3.48284">
        <ele>291</ele>
        <time>2018-02-13T19:34:06Z</time>
      </trkpt>
      <trkpt lat="45.96857" lon="3.48318">
        <ele>291</ele>
        <time>2018-02-13T19:34:09Z</time>
      </trkpt>
      <trkpt lat="45.9687" lon="3.48368">
        <ele>292</ele>
        <time>2018-02-13T19:34:14Z</time>
      </trkpt>
      <trkpt lat="45.96887" lon="3.48412">
        <ele>293</ele>
        <time>2018-02-13T19:34:26Z</time>
      </trkpt>
      <trkpt lat="45.96902" lon="3.48446">
        <ele>294</ele>
        <time>2018-02-13T19:34:42Z</time>
      </trkpt>
      <trkpt lat="45.96949" lon="3.48517">
        <ele>296</ele>
        <time>2018-02-13T19:34:45Z</time>
      </trkpt>
      <trkpt lat="45.97037" lon="3.4864">
        <ele>299</ele>
        <time>2018-02-13T19:34:58Z</time>
      </trkpt>
      <trkpt lat="45.97068" lon="3.48684">
        <ele>302</ele>
        <time>2018-02-13T19:35:05Z</time>
      </trkpt>
      <trkpt lat="45.97108" lon="3.48739">
        <ele>304</ele>
        <time>2018-02-13T19:35:16Z</time>
      </trkpt>
      <trkpt lat="45.97126" lon="3.48759">
        <ele>306</ele>
        <time>2018-02-13T19:35:22Z</time>
      </trkpt>
      <trkpt lat="45.97229" lon="3.48852">
        <ele>307</ele>
        <time>2018-02-13T19:35:35Z</time>
      </trkpt>
      <trkpt lat="45.97302" lon="3.48918">
        <ele>309</ele>
        <time>2018-02-13T19:35:49Z</time>
      </trkpt>
      <trkpt lat="45.97324" lon="3.48938">
        <ele>310</ele>
        <time>2018-02-13T19:36:00Z</time>
      </trkpt>
      <trkpt lat="45.97345" lon="3.48961">
        <ele>312</ele>
        <time>2018-02-13T19:36:07Z</time>
      </trkpt>
      <trkpt lat="45.97395" lon="3.49027">
        <ele>313</ele>
        <time>2018-02-13T19:36:27Z</time>
      </trkpt>
      <trkpt lat="45.9742" lon="3.49062">
        <ele>315</ele>
        <time>2018-02-13T19:36:37Z</time>
      </trkpt>
      <trkpt lat="45.97431" lon="3.49084">
        <ele>315</ele>
        <time>2018-02-13T19:36:50Z</time>
      </trkpt>
      <trkpt lat="45.97456" lon="3.49145">
        <ele>316</ele>
        <time>2018-02-13T19:36:59Z</time>
      </trkpt>
      <trkpt lat="45.97492" lon="3.49224">
        <ele>317</ele>
        <time>2018-02-13T19:37:08Z</time>
      </trkpt>
      <trkpt lat="45.97516" lon="3.49274">
        <ele>319</ele>
        <time>2018-02-13T19:37:23Z</time>
      </trkpt>
      <trkpt lat="45.97552" lon="3.49332">
        <ele>321</ele>
        <time>2018-02-13T19:37:33Z</time>
      </trkpt>
      <trkpt lat="45.97595" lon="3.49396">
        <ele>324</ele>
        <time>2018-02-13T19:37:36Z</time>
      </trkpt>
      <trkpt lat="45.97609" lon="3.4941">
        <ele>327</ele>
        <time>2018-02-13T19:37:42Z</time>
      </trkpt>
      <trkpt lat="45.97664" lon="3.49443">
        <ele>328</ele>
        <time>2018-02-13T19:37:53Z</time>
      </trkpt>
      <trkpt lat="45.97676" lon="3.49452">
        <ele>331</ele>
        <time>2018-02-13T19:38:09Z</time>
      </trkpt>
      <trkpt lat="45.97698" lon="3.49478">
        <ele>332</ele>
        <time>2018-02-13T19:38:19Z</time>
      </trkpt>
      <trkpt lat="45.97721" lon="3.49517">
        <ele>335</ele>
        <time>2018-02-13T19:38:27Z</time>
      </trkpt>
      <trkpt lat="45.97739" lon="3.49564">
        <ele>337</ele>
        <time>2018-02-13T19:38:40Z</time>
      </trkpt>
      <trkpt lat="45.97759" lon="3.49599">
        <ele>340</ele>
        <time>2018-02-13T19:39:00Z</time>
      </trkpt>
      <trkpt lat="45.97777" lon="3.49631">
        <ele>342</ele>
        <time>2018-02-13T19:39:20Z</time>
      </trkpt>
      <trkpt lat="45.97785" lon="3.49661">
        <ele>344</ele>
        <time>2018-02-13T19:39:31Z</time>
      </trkpt>
      <trkpt lat="45.97791" lon="3.497">
        <ele>346</ele>
        <time>2018-02-13T19:39:34Z</time>
      </trkpt>
      <trkpt lat="45.97794" lon="3.49747">
        <ele>348</ele>
        <time>2018-02-13T19:39:51Z</time>
      </trkpt>
      <trkpt lat="45.97795" lon="3.49826">
        <ele>349</ele>
        <time>2018-02-13T19:39:58Z</time>
      </trkpt>
      <trkpt lat="45.97794" lon="3.49747">
        <ele>350</ele>
        <time>2018-02-13T19:40:15Z</time>
      </trkpt>
      <trkpt lat="45.97834" lon="3.49742">
        <ele>350</ele>
        <time>2018-02-13T19:40:32Z</time>
      </trkpt>
      <trkpt lat="45.97868" lon="3.49736">
        <ele>351</ele>
        <time>2018-02-13T19:40:37Z</time>
      </trkpt>
      <trkpt lat="45.97903" lon="3.49729">
        <ele>350</ele>
        <time>2018-02-13T19:40:53Z</time>
      </trkpt>
      <trkpt lat="45.97912" lon="3.49707">
        <ele>349</ele>
        <time>2018-02-13T19:40:55Z</time>
      </trkpt>
      <trkpt lat="45.9792" lon="3.49707">
        <ele>348</ele>
        <time>2018-02-13T19:41:15Z</time>
      </trkpt>
      <trkpt lat="45.97952" lon="3.49688">
        <ele>344</ele>
        <time>2018-02-13T19:41:27Z</time>
      </trkpt>
      <trkpt lat="45.98064" lon="3.49634">
        <ele>340</ele>
        <time>2018-02-13T19:41:40Z</time>
      </trkpt>
      <trkpt lat="45.98085" lon="3.49624">
        <ele>335</ele>
        <time>2018-02-13T19:41:55Z</time>
      </trkpt>
      <trkpt lat="45.98113" lon="3.49617">
        <ele>332</ele>
        <time>2018-02-13T19:42:00Z</time>
      </trkpt>
      <trkpt lat="45.98184" lon="3.49602">
        <ele>328</ele>
        <time>2018-02-13T19:42:19Z</time>
      </trkpt>
      <trkpt lat="45.98221" lon="3.49591">
        <ele>325</ele>
        <time>2018-02-13T19:42:30Z</time>
      </trkpt>
      <trkpt lat="45.98256" lon="3.49577">
        <ele>321</ele>
        <time>2018-02-13T19:42:36Z</time>
      </trkpt>
      <trkpt lat="45.98293" lon="3.4956">
        <ele>318</ele>
        <time>2018-02-13T19:42:47Z</time>
      </trkpt>
      <trkpt lat="45.98318" lon="3.49552">
        <ele>315</ele>
        <time>2018-02-13T19:42:51Z</time>
      </trkpt>
      <trkpt lat="45.98351" lon="3.4955">
        <ele>313</ele>
        <time>2018-02-13T19:43:04Z</time>
      </trkpt>
      <trkpt lat="45.98387" lon="3.49555">
        <ele>308</ele>
        <time>2018-02-13T19:43:16Z</time>
      </trkpt>
      <trkpt lat="45.98465" lon="3.49577">
        <ele>303</ele>
        <time>2018-02-13T19:43:31Z</time>
      </trkpt>
      <trkpt lat="45.98484" lon="3.49581">
        <ele>300</ele>
        <time>2018-02-13T19:43:47Z</time>
      </trkpt>
      <trkpt lat="45.98513" lon="3.4958">
        <ele>300</ele>
        <time>2018-02-13T19:43:54Z</time>
      </trkpt>
      <trkpt lat="45.98522" lon="3.49581">
        <ele>300</ele>
        <time>2018-02-13T19:44:03Z</time>
      </trkpt>
      <trkpt lat="45.98528" lon="3.49586">
        <ele>299</ele>
        <time>2018-02-13T19:44:16Z</time>
      </trkpt>
      <trkpt lat="45.98535" lon="3.49605">
        <ele>298</ele>
        <time>2018-02-13T19:44:22Z</time>
      </trkpt>
      <trkpt lat="45.98544" lon="3.49638">
        <ele>296</ele>
        <time>2018-02-13T19:44:33Z</time>
      </trkpt>
      <trkpt lat="45.98555" lon="3.49653">
        <ele>294</ele>
        <time>2018-02-13T19:44:36Z</time>
      </trkpt>
      <trkpt lat="45.98578" lon="3.49665">
        <ele>293</ele>
        <time>2018-02-13T19:44:50Z</time>
      </trkpt>
      <trkpt lat="45.98589" lon="3.49668">
        <ele>291</ele>
        <time>2018-02-13T19:45:04Z</time>
      </trkpt>
      <trkpt lat="45.98622" lon="3.49669">
        <ele>291</ele>
        <time>2018-02-13T19:45:13Z</time>
      </trkpt>
      <trkpt lat="45.98652" lon="3.49672">
        <ele>290</ele>
        <time>2018-02-13T19:45:16Z</time>
      </trkpt>
      <trkpt lat="45.98696" lon="3.49685">
        <ele>290</ele>
        <time>2018-02-13T19:45:27Z</time>
      </trkpt>
      <trkpt lat="45.98704" lon="3.49667">
        <ele>290</ele>
        <time>2018-02-13T19:45:33Z</time>
      </trkpt>
      <trkpt lat="45.98721" lon="3.4968">
        <ele>290</ele>
        <time>2018-02-13T19:45:41Z</time>
      </trkpt>
      <trkpt lat="45.98792" lon="3.49733">
        <ele>290</ele>
        <time>2018-02-13T19:45:57Z</time>
      </trkpt>
      <trkpt lat="45.98837" lon="3.49768">
        <ele>289</ele>
        <time>2018-02-13T19:46:03Z</time>
      </trkpt>
      <trkpt lat="45.98874" lon="3.49802">
        <ele>288</ele>
        <time>2018-02-13T19:46:20Z</time>
      </trkpt>
      <trkpt lat="45.98899" lon="3.49825">
        <ele>288</ele>
        <time>2018-02-13T19:46:35Z</time>
      </trkpt>
      <trkpt lat="45.98917" lon="3.49854">
        <ele>288</ele>
        <time>2018-02-13T19:46:52Z</time>
      </trkpt>
      <trkpt lat="45.98944" lon="3.49908">
        <ele>289</ele>
        <time>2018-02-13T19:47:02Z</time>
      </trkpt>
      <trkpt lat="45.98963" lon="3.49934">
        <ele>290</ele>
        <time>2018-02-13T19:47:14Z</time>
      </trkpt>
      <trkpt lat="45.9897" lon="3.49938">
        <ele>290</ele>
        <time>2018-02-13T19:47:30Z</time>
      </trkpt>
      <trkpt lat="45.98976" lon="3.49939">
        <ele>291</ele>
        <time>2018-02-13T19:47:35Z</time>
      </trkpt>
      <trkpt lat="45.98982" lon="3.49936">
        <ele>291</ele>
        <time>2018-02-13T19:47:42Z</time>
      </trkpt>
      <trkpt lat="45.98989" lon="3.49928">
        <ele>291</ele>
        <time>2018-02-13T19:48:01Z</time>
      </trkpt>
      <trkpt lat="45.99009" lon="3.49893">
        <ele>291</ele>
        <time>2018-02-13T19:48:14Z</time>
      </trkpt>
      <trkpt lat="45.99061" lon="3.49827">
        <ele>291</ele>
        <time>2018-02-13T19:48:25Z</time>
      </trkpt>
      <trkpt lat="45.99085" lon="3.49789">
        <ele>291</ele>
        <time>2018-02-13T19:48:34Z</time>
      </trkpt>
      <trkpt lat="45.99099" lon="3.49775">
        <ele>292</ele>
        <time>2018-02-13T19:48:47Z</time>
      </trkpt>
      <trkpt lat="45.99132" lon="3.49753">
        <ele>294</ele>
        <time>2018-02-13T19:48:59Z</time>
      </trkpt>
      <trkpt lat="45.99159" lon="3.49742">
        <ele>298</ele>
        <time>2018-02-13T19:49:15Z</time>
      </trkpt>
      <trkpt lat="45.99234" lon="3.49722">
        <ele>301</ele>
        <time>2018-02-13T19:49:30Z</time>
      </trkpt>
      <trkpt lat="45.99289" lon="3.49699">
        <ele>305</ele>
        <time>2018-02-13T19:49:50Z</time>
      </trkpt>
      <trkpt lat="45.99314" lon="3.49688">
        <ele>307</ele>
        <time>2018-02-13T19:50:02Z</time>
      </trkpt>
      <trkpt lat="45.99348" lon="3.49677">
        <ele>308</ele>
        <time>2018-02-13T19:50:12Z</time>
      </trkpt>
      <trkpt lat="45.99392" lon="3.49665">
        <ele>309</ele>
        <time>2018-02-13T19:50:32Z</time>
      </trkpt>
      <trkpt lat="45.99446" lon="3.49645">
        <ele>309</ele>
        <time>2018-02-13T19:50:43Z</time>
      </trkpt>
      <trkpt lat="45.99486" lon="3.49636">
        <ele>309</ele>
        <time>2018-02-13T19:50:58Z</time>
      </trkpt>
      <trkpt lat="45.99542" lon="3.49624">
        <ele>310</ele>
        <time>2018-02-13T19:51:15Z</time>
      </trkpt>
      <trkpt lat="45.99567" lon="3.49622">
        <ele>311</ele>
        <time>2018-02-13T19:51:32Z</time>
      </trkpt>
      <trkpt lat="45.99603" lon="3.49628">
        <ele>312</ele>
        <time>2018-02-13T19:51:41Z</time>
      </trkpt>
      <trkpt lat="45.9978" lon="3.49668">
        <ele>313</ele>
        <time>2018-02-13T19:52:00Z</time>
      </trkpt>
      <trkpt lat="45.99823" lon="3.49668">
        <ele>314</ele>
        <time>2018-02-13T19:52:15Z</time>
      </trkpt>
      <trkpt lat="45.99847" lon="3.49664">
        <ele>313</ele>
        <time>2018-02-13T19:52:24Z</time>
      </trkpt>
      <trkpt lat="45.99879" lon="3.49649">
        <ele>312</ele>
        <time>2018-02-13T19:52:28Z</time>
      </trkpt>
      <trkpt lat="45.9991" lon="3.49636">
        <ele>311</ele>
        <time>2018-02-13T19:52:40Z</time>
      </trkpt>
      <trkpt lat="45.99922" lon="3.49632">
        <ele>311</ele>
        <time>2018-02-13T19:52:46Z</time>
      </trkpt>
      <trkpt lat="45.99926" lon="3.49643">
        <ele>311</ele>
        <time>2018-02-13T19:52:48Z</time>
      </trkpt>
      <trkpt lat="45.99933" lon="3.4965">
        <ele>311</ele>
        <time>2018-02-13T19:52:55Z</time>
      </trkpt>
      <trkpt lat="45.99937" lon="3.49653">
        <ele>311</ele>
        <time>2018-02-13T19:52:59Z</time>
      </trkpt>
      <trkpt lat="45.99939" lon="3.49661">
        <ele>310</ele>
        <time>2018-02-13T19:53:19Z</time>
      </trkpt>
      <trkpt lat="45.99942" lon="3.49667">
        <ele>310</ele>
        <time>2018-02-13T19:53:22Z</time>
      </trkpt>
      <trkpt lat="45.99945" lon="3.49669">
        <ele>310</ele>
        <time>2018-02-13T19:53:33Z</time>
      </trkpt>
      <trkpt lat="45.99958" lon="3.49669">
        <ele>309</ele>
        <time>2018-02-13T19:53:48Z</time>
      </trkpt>
      <trkpt lat="45.99972" lon="3.49668">
        <ele>308</ele>
        <time>2018-02-13T19:54:05Z</time>
      </trkpt>
      <trkpt lat="45.99971" lon="3.49683">
        <ele>308</ele>
        <time>2018-02-13T19:54:25Z</time>
      </trkpt>
      <trkpt lat="45.99958" lon="3.49689">
        <ele>308</ele>
        <time>2018-02-13T19:54:40Z</time>
      </trkpt>
      <trkpt lat="45.99949" lon="3.49693">
        <ele>309</ele>
        <time>2018-02-13T19:55:00Z</time>
      </trkpt>
      <trkpt lat="45.99941" lon="3.49694">
        <ele>309</ele>
        <time>2018-02-13T19:55:18Z</time>
      </trkpt>
      <trkpt lat="45.99958" lon="3.49689">
        <ele>308</ele>
        <time>2018-02-13T19:55:30Z</time>
      </trkpt>
      <trkpt lat="45.99971" lon="3.49683">
        <ele>308</ele>
        <time>2018-02-13T19:55:42Z</time>
      </trkpt>
      <trkpt lat="45.99974" lon="3.49658">
        <ele>307</ele>
        <time>2018-02-13T19:55:50Z</time>
      </trkpt>
      <trkpt lat="45.99979" lon="3.49633">
        <ele>306</ele>
        <time>2018-02-13T19:56:01Z</time>
      </trkpt>
      <trkpt lat="46.00003" lon="3.49554">
        <ele>304</ele>
        <time>2018-02-13T19:56:05Z</time>
      </trkpt>
      <trkpt lat="46.00018" lon="3.49498">
        <ele>298</ele>
        <time>2018-02-13T19:56:17Z</time>
      </trkpt>
      <trkpt lat="46.00081" lon="3.49239">
        <ele>293</ele>
        <time>2018-02-13T19:56:27Z</time>
      </trkpt>
      <trkpt lat="46.00104" lon="3.4915">
        <ele>287</ele>
        <time>2018-02-13T19:56:43Z</time>
      </trkpt>
      <trkpt lat="46.0013" lon="3.49083">
        <ele>286</ele>
        <time>2018-02-13T19:56:59Z</time>
      </trkpt>
      <trkpt lat="46.0014" lon="3.49053">
        <ele>285</ele>
        <time>2018-02-13T19:57:08Z</time>
      </trkpt>
      <trkpt lat="46.00161" lon="3.48967">
        <ele>284</ele>
        <time>2018-02-13T19:57:17Z</time>
      </trkpt>
      <trkpt lat="46.00171" lon="3.48941">
        <ele>283</ele>
        <time>2018-02-13T19:57:23Z</time>
      </trkpt>
      <trkpt lat="46.00182" lon="3.48919">
        <ele>283</ele>
        <time>2018-02-13T19:57:33Z</time>
      </trkpt>
      <trkpt lat="46.00203" lon="3.48885">
        <ele>283</ele>
        <time>2018-02-13T19:57:42Z</time>
      </trkpt>
      <trkpt lat="46.00214" lon="3.48873">
        <ele>282</ele>
        <time>2018-02-13T19:57:47Z</time>
      </trkpt>
      <trkpt lat="46.00228" lon="3.48862">
        <ele>282</ele>
        <time>2018-02-13T19:58:02Z</time>
      </trkpt>
      <trkpt lat="46.00291" lon="3.48821">
        <ele>282</ele>
        <time>2018-02-13T19:58:09Z</time>
      </trkpt>
      <trkpt lat="46.00299" lon="3.48816">
        <ele>282</ele>
        <time>2018-02-13T19:58:27Z</time>
      </trkpt>
      <trkpt lat="46.00306" lon="3.48819">
        <ele>282</ele>
        <time>2018-02-13T19:58:42Z</time>
      </trkpt>
      <trkpt lat="46.00331" lon="3.48825">
        <ele>282</ele>
        <time>2018-02-13T19:58:57Z</time>
      </trkpt>
      <trkpt lat="46.00354" lon="3.48829">
        <ele>282</ele>
        <time>2018-02-13T19:59:04Z</time>
      </trkpt>
      <trkpt lat="46.00331" lon="3.48825">
        <ele>282</ele>
        <time>2018-02-13T19:59:11Z</time>
      </trkpt>
      <trkpt lat="46.00306" lon="3.48819">
        <ele>282</ele>
        <time>2018-02-13T19:59:21Z</time>
      </trkpt>
      <trkpt lat="46.00299" lon="3.48816">
        <ele>282</ele>
        <time>2018-02-13T19:59:23Z</time>
      </trkpt>
      <trkpt lat="46.00303" lon="3.48811">
        <ele>282</ele>
        <time>2018-02-13T19:59:27Z</time>
      </trkpt>
      <trkpt lat="46.00308" lon="3.48805">
        <ele>282</ele>
        <time>2018-02-13T19:59:31Z</time>
      </trkpt>
      <trkpt lat="46.00314" lon="3.48798">
        <ele>282</ele>
        <time>2018-02-13T19:59:39Z</time>
      </trkpt>
      <trkpt lat="46.00321" lon="3.48787">
        <ele>282</ele>
        <time>2018-02-13T19:59:46Z</time>
      </trkpt>
      <trkpt lat="46.00332" lon="3.48765">
        <ele>281</ele>
        <time>2018-02-13T20:00:04Z</time>
      </trkpt>
      <trkpt lat="46.00381" lon="3.48644">
        <ele>281</ele>
        <time>2018-02-13T20:00:24Z</time>
      </trkpt>
      <trkpt lat="46.00392" lon="3.48615">
        <ele>281</ele>
        <time>2018-02-13T20:00:32Z</time>
      </trkpt>
      <trkpt lat="46.00397" lon="3.48601">
        <ele>280</ele>
        <time>2018-02-13T20:00:43Z</time>
      </trkpt>
      <trkpt lat="46.00426" lon="3.4861">
        <ele>280</ele>
        <time>2018-02-13T20:00:56Z</time>
      </trkpt>
      <trkpt lat="46.00541" lon="3.48646">
        <ele>280</ele>
        <time>2018-02-13T20:01:02Z</time>
      </trkpt>
      <trkpt lat="46.00559" lon="3.48648">
        <ele>280</ele>
        <time>2018-02-13T20:01:13Z</time>
      </trkpt>
      <trkpt lat="46.00653" lon="3.48673">
        <ele>280</ele>
        <time>2018-02-13T20:01:26Z</time>
      </trkpt>
      <trkpt lat="46.00716" lon="3.48692">
        <ele>279</ele>
        <time>2018-02-13T20:01:42Z</time>
      </trkpt>
      <trkpt lat="46.00756" lon="3.48703">
        <ele>279</ele>
        <time>2018-02-13T20:01:45Z</time>
      </trkpt>
      <trkpt lat="46.00823" lon="3.48714">
        <ele>279</ele>
        <time>2018-02-13T20:01:50Z</time>
      </trkpt>
      <trkpt lat="46.00851" lon="3.48718">
        <ele>279</ele>
        <time>2018-02-13T20:01:55Z</time>
      </trkpt>
      <trkpt lat="46.00883" lon="3.48719">
        <ele>279</ele>
        <time>2018-02-13T20:02:01Z</time>
      </trkpt>
      <trkpt lat="46.0096" lon="3.48712">
        <ele>279</ele>
        <time>2018-02-13T20:02:09Z</time>
      </trkpt>
      <trkpt lat="46.00978" lon="3.48709">
        <ele>280</ele>
        <time>2018-02-13T20:02:18Z</time>
      </trkpt>
      <trkpt lat="46.00985" lon="3.48705">
        <ele>280</ele>
        <time>2018-02-13T20:02:27Z</time>
      </trkpt>
      <trkpt lat="46.01012" lon="3.48698">
        <ele>280</ele>
        <time>2018-02-13T20:02:44Z</time>
      </trkpt>
      <trkpt lat="46.01056" lon="3.48686">
        <ele>280</ele>
        <time>2018-02-13T20:03:04Z</time>
      </trkpt>
      <trkpt lat="46.01112" lon="3.48666">
        <ele>280</ele>
        <time>2018-02-13T20:03:19Z</time>
      </trkpt>
      <trkpt lat="46.01151" lon="3.48648">
        <ele>280</ele>
        <time>2018-02-13T20:03:27Z</time>
      </trkpt>
      <trkpt lat="46.01191" lon="3.48627">
        <ele>280</ele>
        <time>2018-02-13T20:03:32Z</time>
      </trkpt>
      <trkpt lat="46.01257" lon="3.48589">
        <ele>279</ele>
        <time>2018-02-13T20:03:46Z</time>
      </trkpt>
      <trkpt lat="46.01315" lon="3.48555">
        <ele>278</ele>
        <time>2018-02-13T20:04:02Z</time>
      </trkpt>
      <trkpt lat="46.01332" lon="3.4855">
        <ele>276</ele>
        <time>2018-02-13T20:04:07Z</time>
      </trkpt>
      <trkpt lat="46.01677" lon="3.4834">
        <ele>275</ele>
        <time>2018-02-13T20:04:19Z</time>
      </trkpt>
      <trkpt lat="46.01786" lon="3.48274">
        <ele>275</ele>
        <time>2018-02-13T20:04:38Z</time>
      </trkpt>
      <trkpt lat="46.01819" lon="3.48253">
        <ele>275</ele>
        <time>2018-02-13T20:04:40Z</time>
      </trkpt>
      <trkpt lat="46.01837" lon="3.48239">
        <ele>276</ele>
        <time>2018-02-13T20:04:49Z</time>
      </trkpt>
      <trkpt lat="46.01923" lon="3.48186">
        <ele>275</ele>
        <time>2018-02-13T20:05:01Z</time>
      </trkpt>
      <trkpt lat="46.02264" lon="3.47978">
        <ele>275</ele>
        <time>2018-02-13T20:05:05Z</time>
      </trkpt>
      <trkpt lat="46.02323" lon="3.47947">
        <ele>274</ele>
        <time>2018-02-13T20:05:10Z</time>
      </trkpt>
      <trkpt lat="46.0237" lon="3.47927">
        <ele>274</ele>
        <time>2018-02-13T20:05:19Z</time>
      </trkpt>
      <trkpt lat="46.0247" lon="3.47895">
        <ele>274</ele>
        <time>2018-02-13T20:05:31Z</time>
      </trkpt>
      <trkpt lat="46.02598" lon="3.47857">
        <ele>273</ele>
        <time>2018-02-13T20:05:50Z</time>
      </trkpt>
      <trkpt lat="46.02622" lon="3.47848">
        <ele>273</ele>
        <time>2018-02-13T20:05:52Z</time>
      </trkpt>
      <trkpt lat="46.02662" lon="3.47836">
        <ele>273</ele>
        <time>2018-02-13T20:06:02Z</time>
      </trkpt>
      <trkpt lat="46.02785" lon="3.47799">
        <ele>273</ele>
        <time>2018-02-13T20:06:13Z</time>
      </trkpt>
      <trkpt lat="46.02862" lon="3.47776">
        <ele>273</ele>
        <time>2018-02-13T20:06:26Z</time>
      </trkpt>
      <trkpt lat="46.02951" lon="3.47752">
        <ele>272</ele>
        <time>2018-02-13T20:06:43Z</time>
      </trkpt>
      <trkpt lat="46.02991" lon="3.47742">
        <ele>272</ele>
        <time>2018-02-13T20:06:53Z</time>
      </trkpt>
      <trkpt lat="46.03002" lon="3.47742">
        <ele>272</ele>
        <time>2018-02-13T20:07:02Z</time>
      </trkpt>
      <trkpt lat="46.0328" lon="3.47659">
        <ele>272</ele>
        <time>2018-02-13T20:07:18Z</time>
      </trkpt>
      <trkpt lat="46.03706" lon="3.47532">
        <ele>272</ele>
        <time>2018-02-13T20:07:26Z</time>
      </trkpt>
      <trkpt lat="46.03793" lon="3.47507">
        <ele>271</ele>
        <time>2018-02-13T20:07:34Z</time>
      </trkpt>
      <trkpt lat="46.03893" lon="3.47477">
        <ele>271</ele>
        <time>2018-02-13T20:07:45Z</time>
      </trkpt>
      <trkpt lat="46.04008" lon="3.47432">
        <ele>270</ele>
        <time>2018-02-13T20:07:57Z</time>
      </trkpt>
      <trkpt lat="46.04027" lon="3.47425">
        <ele>270</ele>
        <time>2018-02-13T20:08:17Z</time>
      </trkpt>
      <trkpt lat="46.04034" lon="3.47425">
        <ele>270</ele>
        <time>2018-02-13T20:08:34Z</time>
      </trkpt>
      <trkpt lat="46.04075" lon="3.4741">
        <ele>270</ele>
        <time>2018-02-13T20:08:47Z</time>
      </trkpt>
      <trkpt lat="46.04142" lon="3.47395">
        <ele>270</ele>
        <time>2018-02-13T20:09:05Z</time>
      </trkpt>
      <trkpt lat="46.04142" lon="3.47431">
        <ele>270</ele>
        <time>2018-02-13T20:09:22Z</time>
      </trkpt>
      <trkpt lat="46.04157" lon="3.4743">
        <ele>270</ele>
        <time>2018-02-13T20:09:26Z</time>
      </trkpt>
      <trkpt lat="46.04227" lon="3.47414">
        <ele>271</ele>
        <time>2018-02-13T20:09:43Z</time>
      </trkpt>
      <trkpt lat="46.04231" lon="3.47409">
        <ele>271</ele>
        <time>2018-02-13T20:09:56Z</time>
      </trkpt>
      <trkpt lat="46.04232" lon="3.4739">
        <ele>271</ele>
        <time>2018-02-13T20:10:10Z</time>
      </trkpt>
      <trkpt lat="46.04235" lon="3.47378">
        <ele>271</ele>
        <time>2018-02-13T20:10:28Z</time>
      </trkpt>
      <trkpt lat="46.04242" lon="3.47374">
        <ele>271</ele>
        <time>2018-02-13T20:10:33Z</time>
      </trkpt>
      <trkpt lat="46.04282" lon="3.47372">
        <ele>271</ele>
        <time>2018-02-13T20:10:42Z</time>
      </trkpt>
      <trkpt lat="46.04318" lon="3.47366">
        <ele>271</ele>
        <time>2018-02-13T20:11:01Z</time>
      </trkpt>
      <trkpt lat="46.04422" lon="3.47343">
        <ele>270</ele>
        <time>2018-02-13T20:11:12Z</time>
      </trkpt>
      <trkpt lat="46.04461" lon="3.47341">
        <ele>270</ele>
        <time>2018-02-13T20:11:25Z</time>
      </trkpt>
      <trkpt lat="46.04547" lon="3.47315">
        <ele>270</ele>
        <time>2018-02-13T20:11:32Z</time>
      </trkpt>
      <trkpt lat="46.04554" lon="3.47315">
        <ele>270</ele>
        <time>2018-02-13T20:11:52Z</time>
      </trkpt>
      <trkpt lat="46.04522" lon="3.47322">
        <ele>270</ele>
        <time>2018-02-13T20:12:06Z</time>
      </trkpt>
      <trkpt lat="46.04461" lon="3.47341">
        <ele>270</ele>
        <time>2018-02-13T20:12:12Z</time>
      </trkpt>
      <trkpt lat="46.04437" lon="3.47341">
        <ele>270</ele>
        <time>2018-02-13T20:12:20Z</time>
      </trkpt>
      <trkpt lat="46.04388" lon="3.4735">
        <ele>271</ele>
        <time>2018-02-13T20:12:39Z</time>
      </trkpt>
      <trkpt lat="46.04293" lon="3.47371">
        <ele>271</ele>
        <time>2018-02-13T20:12:58Z</time>
      </trkpt>
      <trkpt lat="46.04248" lon="3.47373">
        <ele>271</ele>
        <time>2018-02-13T20:13:02Z</time>
      </trkpt>
      <trkpt lat="46.04238" lon="3.47376">
        <ele>271</ele>
        <time>2018-02-13T20:13:14Z</time>
      </trkpt>
      <trkpt lat="46.04233" lon="3.47383">
        <ele>271</ele>
        <time>2018-02-13T20:13:18Z</time>
      </trkpt>
      <trkpt lat="46.04232" lon="3.47405">
        <ele>271</ele>
        <time>2018-02-13T20:13:28Z</time>
      </trkpt>
      <trkpt lat="46.0423" lon="3.47411">
        <ele>271</ele>
        <time>2018-02-13T20:13:30Z</time>
      </trkpt>
      <trkpt lat="46.04221" lon="3.47416">
        <ele>271</ele>
        <time>2018-02-13T20:13:46Z</time>
      </trkpt>
      <trkpt lat="46.04149" lon="3.47431">
        <ele>270</ele>
        <time>2018-02-13T20:13:55Z</time>
      </trkpt>
      <trkpt lat="46.04142" lon="3.47431">
        <ele>270</ele>
        <time>2018-02-13T20:13:59Z</time>
      </trkpt>
      <trkpt lat="46.04142" lon="3.47395">
        <ele>270</ele>
        <time>2018-02-13T20:14:06Z</time>
      </trkpt>
      <trkpt lat="46.04143" lon="3.47379">
        <ele>270</ele>
        <time>2018-02-13T20:14:18Z</time>
      </trkpt>
      <trkpt lat="46.0414" lon="3.4737">
        <ele>270</ele>
        <time>2018-02-13T20:14:27Z</time>
      </trkpt>
      <trkpt lat="46.04196" lon="3.47341">
        <ele>271</ele>
        <time>2018-02-13T20:14:37Z</time>
      </trkpt>
      <trkpt lat="46.04313" lon="3.47273">
        <ele>272</ele>
        <time>2018-02-13T20:14:55Z</time>
      </trkpt>
      <trkpt lat="46.04357" lon="3.47252">
        <ele>272</ele>
        <time>2018-02-13T20:15:09Z</time>
      </trkpt>
      <trkpt lat="46.04389" lon="3.47244">
        <ele>271</ele>
        <time>2018-02-13T20:15:20Z</time>
      </trkpt>
      <trkpt lat="46.04417" lon="3.47241">
        <ele>271</ele>
        <time>2018-02-13T20:15:29Z</time>
      </trkpt>
      <trkpt lat="46.04451" lon="3.47239">
        <ele>270</ele>
        <time>2018-02-13T20:15:34Z</time>
      </trkpt>
      <trkpt lat="46.04498" lon="3.47242">
        <ele>270</ele>
        <time>2018-02-13T20:15:53Z</time>
      </trkpt>
      <trkpt lat="46.04534" lon="3.4724">
        <ele>269</ele>
        <time>2018-02-13T20:16:10Z</time>
      </trkpt>
      <trkpt lat="46.04565" lon="3.47235">
        <ele>268</ele>
        <time>2018-02-13T20:16:20Z</time>
      </trkpt>
      <trkpt lat="46.04575" lon="3.4723">
        <ele>268</ele>
        <time>2018-02-13T20:16:37Z</time>
      </trkpt>
      <trkpt lat="46.04584" lon="3.47223">
        <ele>268</ele>
        <time>2018-02-13T20:16:43Z</time>
      </trkpt>
      <trkpt lat="46.04591" lon="3.47221">
        <ele>268</ele>
        <time>2018-02-13T20:16:45Z</time>
      </trkpt>
      <trkpt lat="46.04593" lon="3.47216">
        <ele>268</ele>
        <time>2018-02-13T20:16:57Z</time>
      </trkpt>
      <trkpt lat="46.04595" lon="3.4721">
        <ele>268</ele>
        <time>2018-02-13T20:17:00Z</time>
      </trkpt>
      <trkpt lat="46.04601" lon="3.47204">
        <ele>268</ele>
        <time>2018-02-13T20:17:06Z</time>
      </trkpt>
      <trkpt lat="46.04607" lon="3.47202">
        <ele>268</ele>
        <time>2018-02-13T20:17:17Z</time>
      </trkpt>
      <trkpt lat="46.04613" lon="3.47203">
        <ele>268</ele>
        <time>2018-02-13T20:17:25Z</time>
      </trkpt>
      <trkpt lat="46.04628" lon="3.47196">
        <ele>269</ele>
        <time>2018-02-13T20:17:28Z</time>
      </trkpt>
      <trkpt lat="46.04643" lon="3.4718">
        <ele>269</ele>
        <time>2018-02-13T20:17:34Z</time>
      </trkpt>
      <trkpt lat="46.04677" lon="3.47142">
        <ele>269</ele>
        <time>2018-02-13T20:17:51Z</time>
      </trkpt>
      <trkpt lat="46.047" lon="3.47119">
        <ele>269</ele>
        <time>2018-02-13T20:18:05Z</time>
      </trkpt>
      <trkpt lat="46.0472" lon="3.47106">
        <ele>269</ele>
        <time>2018-02-13T20:18:15Z</time>
      </trkpt>
      <trkpt lat="46.04752" lon="3.47085">
        <ele>268</ele>
        <time>2018-02-13T20:18:23Z</time>
      </trkpt>
      <trkpt lat="46.04795" lon="3.4707">
        <ele>268</ele>
        <time>2018-02-13T20:18:34Z</time>
      </trkpt>
      <trkpt lat="46.04913" lon="3.47042">
        <ele>267</ele>
        <time>2018-02-13T20:18:49Z</time>
      </trkpt>
      <trkpt lat="46.04985" lon="3.47028">
        <ele>267</ele>
        <time>2018-02-13T20:18:51Z</time>
      </trkpt>
      <trkpt lat="46.05067" lon="3.47007">
        <ele>268</ele>
        <time>2018-02-13T20:18:58Z</time>
      </trkpt>
      <trkpt lat="46.0523" lon="3.46957">
        <ele>269</ele>
        <time>2018-02-13T20:19:12Z</time>
      </trkpt>
      <trkpt lat="46.05381" lon="3.46913">
        <ele>269</ele>
        <time>2018-02-13T20:19:24Z</time>
      </trkpt>
      <trkpt lat="46.05393" lon="3.46906">
        <ele>269</ele>
        <time>2018-02-13T20:19:35Z</time>
      </trkpt>
      <trkpt lat="46.05401" lon="3.46898">
        <ele>269</ele>
        <time>2018-02-13T20:19:42Z</time>
      </trkpt>
      <trkpt lat="46.05403" lon="3.46888">
        <ele>269</ele>
        <time>2018-02-13T20:19:56Z</time>
      </trkpt>
      <trkpt lat="46.05405" lon="3.46884">
        <ele>269</ele>
        <time>2018-02-13T20:20:13Z</time>
      </trkpt>
      <trkpt lat="46.05408" lon="3.4688">
        <ele>269</ele>
        <time>2018-02-13T20:20:21Z</time>
      </trkpt>
      <trkpt lat="46.05417" lon="3.46874">
        <ele>269</ele>
        <time>2018-02-13T20:20:30Z</time>
      </trkpt>
      <trkpt lat="46.05434" lon="3.4685">
        <ele>269</ele>
        <time>2018-02-13T20:20:41Z</time>
      </trkpt>
      <trkpt lat="46.0545" lon="3.46836">
        <ele>269</ele>
        <time>2018-02-13T20:20:46Z</time>
      </trkpt>
      <trkpt lat="46.05524" lon="3.46766">
        <ele>269</ele>
        <time>2018-02-13T20:20:54Z</time>
      </trkpt>
      <trkpt lat="46.05556" lon="3.4673">
        <ele>268</ele>
        <time>2018-02-13T20:21:07Z</time>
      </trkpt>
      <trkpt lat="46.05632" lon="3.46654">
        <ele>268</ele>
        <time>2018-02-13T20:21:26Z</time>
      </trkpt>
      <trkpt lat="46.05671" lon="3.46615">
        <ele>267</ele>
        <time>2018-02-13T20:21:40Z</time>
      </trkpt>
      <trkpt lat="46.0571" lon="3.46572">
        <ele>267</ele>
        <time>2018-02-13T20:21:45Z</time>
      </trkpt>
      <trkpt lat="46.05807" lon="3.46477">
        <ele>267</ele>
        <time>2018-02-13T20:22:01Z</time>
      </trkpt>
      <trkpt lat="46.0591" lon="3.46379">
        <ele>267</ele>
        <time>2018-02-13T20:22:12Z</time>
      </trkpt>
      <trkpt lat="46.05939" lon="3.46354">
        <ele>267</ele>
        <time>2018-02-13T20:22:28Z</time>
      </trkpt>
      <trkpt lat="46.05952" lon="3.46346">
        <ele>267</ele>
        <time>2018-02-13T20:22:36Z</time>
      </trkpt>
      <trkpt lat="46.05999" lon="3.46331">
        <ele>267</ele>
        <time>2018-02-13T20:22:39Z</time>
      </trkpt>
      <trkpt lat="46.06048" lon="3.4632">
        <ele>267</ele>
        <time>2018-02-13T20:22:41Z</time>
      </trkpt>
      <trkpt lat="46.06072" lon="3.46313">
        <ele>266</ele>
        <time>2018-02-13T20:22:57Z</time>
      </trkpt>
      <trkpt lat="46.06086" lon="3.46307">
        <ele>266</ele>
        <time>2018-02-13T20:22:59Z</time>
      </trkpt>
      <trkpt lat="46.0615" lon="3.46253">
        <ele>267</ele>
        <time>2018-02-13T20:23:06Z</time>
      </trkpt>
      <trkpt lat="46.06166" lon="3.46234">
        <ele>267</ele>
        <time>2018-02-13T20:23:23Z</time>
      </trkpt>
      <trkpt lat="46.06168" lon="3.46229">
        <ele>267</ele>
        <time>2018-02-13T20:23:43Z</time>
      </trkpt>
      <trkpt lat="46.06176" lon="3.4623">
        <ele>268</ele>
        <time>2018-02-13T20:23:46Z</time>
      </trkpt>
      <trkpt lat="46.06188" lon="3.46228">
        <ele>269</ele>
        <time>2018-02-13T20:23:54Z</time>
      </trkpt>
      <trkpt lat="46.0625" lon="3.46202">
        <ele>271</ele>
        <time>2018-02-13T20:23:56Z</time>
      </trkpt>
      <trkpt lat="46.06272" lon="3.46257">
        <ele>272</ele>
        <time>2018-02-13T20:24:12Z</time>
      </trkpt>
      <trkpt lat="46.06287" lon="3.4629">
        <ele>272</ele>
        <time>2018-02-13T20:24:27Z</time>
      </trkpt>
      <trkpt lat="46.06254" lon="3.46214">
        <ele>271</ele>
        <time>2018-02-13T20:24:41Z</time>
      </trkpt>
      <trkpt lat="46.0625" lon="3.46202">
        <ele>271</ele>
        <time>2018-02-13T20:24:50Z</time>
      </trkpt>
      <trkpt lat="46.06252" lon="3.462">
        <ele>271</ele>
        <time>2018-02-13T20:25:05Z</time>
      </trkpt>
      <trkpt lat="46.06276" lon="3.46186">
        <ele>270</ele>
        <time>2018-02-13T20:25:11Z</time>
      </trkpt>
      <trkpt lat="46.063" lon="3.46168">
        <ele>268</ele>
        <time>2018-02-13T20:25:21Z</time>
      </trkpt>
      <trkpt lat="46.06311" lon="3.46153">
        <ele>267</ele>
        <time>2018-02-13T20:25:37Z</time>
      </trkpt>
      <trkpt lat="46.06318" lon="3.4614">
        <ele>266</ele>
        <time>2018-02-13T20:25:44Z</time>
      </trkpt>
      <trkpt lat="46.0633" lon="3.46106">
        <ele>267</ele>
        <time>2018-02-13T20:26:04Z</time>
      </trkpt>
      <trkpt lat="46.06336" lon="3.46092">
        <ele>268</ele>
        <time>2018-02-13T20:26:18Z</time>
      </trkpt>
      <trkpt lat="46.0634" lon="3.46083">
        <ele>269</ele>
        <time>2018-02-13T20:26:21Z</time>
      </trkpt>
      <trkpt lat="46.06327" lon="3.4606">
        <ele>269</ele>
        <time>2018-02-13T20:26:40Z</time>
      </trkpt>
      <trkpt lat="46.06315" lon="3.46044">
        <ele>268</ele>
        <time>2018-02-13T20:27:00Z</time>
      </trkpt>
      <trkpt lat="46.06308" lon="3.46042">
        <ele>268</ele>
        <time>2018-02-13T20:27:19Z</time>
      </trkpt>
      <trkpt lat="46.06295" lon="3.46039">
        <ele>267</ele>
        <time>2018-02-13T20:27:29Z</time>
      </trkpt>
      <trkpt lat="46.06285" lon="3.46037">
        <ele>266</ele>
        <time>2018-02-13T20:27:42Z</time>
      </trkpt>
      <trkpt lat="46.06282" lon="3.46025">
        <ele>266</ele>
        <time>2018-02-13T20:27:46Z</time>
      </trkpt>
      <trkpt lat="46.06274" lon="3.46008">
        <ele>266</ele>
        <time>2018-02-13T20:27:52Z</time>
      </trkpt>
      <trkpt lat="46.06261" lon="3.45979">
        <ele>266</ele>
        <time>2018-02-13T20:27:59Z</time>
      </trkpt>
      <trkpt lat="46.06248" lon="3.45933">
        <ele>266</ele>
        <time>2018-02-13T20:28:02Z</time>
      </trkpt>
      <trkpt lat="46.06241" lon="3.4591">
        <ele>262</ele>
        <time>2018-02-13T20:28:05Z</time>
      </trkpt>
      <trkpt lat="46.06199" lon="3.45866">
        <ele>259</ele>
        <time>2018-02-13T20:28:17Z</time>
      </trkpt>
      <trkpt lat="46.06154" lon="3.45822">
        <ele>258</ele>
        <time>2018-02-13T20:28:30Z</time>
      </trkpt>
      <trkpt lat="46.06141" lon="3.45808">
        <ele>261</ele>
        <time>2018-02-13T20:28:36Z</time>
      </trkpt>
      <trkpt lat="46.06121" lon="3.45788">
        <ele>263</ele>
        <time>2018-02-13T20:28:45Z</time>
      </trkpt>
      <trkpt lat="46.06108" lon="3.45771">
        <ele>263</ele>
        <time>2018-02-13T20:28:50Z</time>
      </trkpt>
      <trkpt lat="46.06068" lon="3.45717">
        <ele>262</ele>
        <time>2018-02-13T20:29:06Z</time>
      </trkpt>
      <trkpt lat="46.06034" lon="3.45671">
        <ele>262</ele>
        <time>2018-02-13T20:29:18Z</time>
      </trkpt>
      <trkpt lat="46.05944" lon="3.45548">
        <ele>261</ele>
        <time>2018-02-13T20:29:26Z</time>
      </trkpt>
      <trkpt lat="46.05872" lon="3.45451">
        <ele>261</ele>
        <time>2018-02-13T20:29:33Z</time>
      </trkpt>
      <trkpt lat="46.05847" lon="3.45419">
        <ele>261</ele>
        <time>2018-02-13T20:29:51Z</time>
      </trkpt>
      <trkpt lat="46.0585" lon="3.45416">
        <ele>261</ele>
        <time>2018-02-13T20:29:57Z</time>
      </trkpt>
      <trkpt lat="46.05852" lon="3.45412">
        <ele>261</ele>
        <time>2018-02-13T20:30:09Z</time>
      </trkpt>
      <trkpt lat="46.05859" lon="3.45403">
        <ele>261</ele>
        <time>2018-02-13T20:30:25Z</time>
      </trkpt>
      <trkpt lat="46.05866" lon="3.45399">
        <ele>261</ele>
        <time>2018-02-13T20:30:32Z</time>
      </trkpt>
      <trkpt lat="46.05955" lon="3.45367">
        <ele>261</ele>
        <time>2018-02-13T20:30:46Z</time>
      </trkpt>
      <trkpt lat="46.05993" lon="3.45354">
        <ele>261</ele>
        <time>2018-02-13T20:30:55Z</time>
      </trkpt>
      <trkpt lat="46.06011" lon="3.45345">
        <ele>261</ele>
        <time>2018-02-13T20:30:59Z</time>
      </trkpt>
      <trkpt lat="46.0603" lon="3.45332">
        <ele>261</ele>
        <time>2018-02-13T20:31:09Z</time>
      </trkpt>
      <trkpt lat="46.06058" lon="3.45307">
        <ele>260</ele>
        <time>2018-02-13T20:31:22Z</time>
      </trkpt>
      <trkpt lat="46.0612" lon="3.45246">
        <ele>260</ele>
        <time>2018-02-13T20:31:42Z</time>
      </trkpt>
      <trkpt lat="46.06291" lon="3.45079">
        <ele>260</ele>
        <time>2018-02-13T20:31:54Z</time>
      </trkpt>
      <trkpt lat="46.06445" lon="3.44924">
        <ele>260</ele>
        <time>2018-02-13T20:32:08Z</time>
      </trkpt>
      <trkpt lat="46.06563" lon="3.44804">
        <ele>260</ele>
        <time>2018-02-13T20:32:16Z</time>
      </trkpt>
      <trkpt lat="46.06946" lon="3.44419">
        <ele>261</ele>
        <time>2018-02-13T20:32:22Z</time>
      </trkpt>
      <trkpt lat="46.07034" lon="3.44332">
        <ele>262</ele>
        <time>2018-02-13T20:32:31Z</time>
      </trkpt>
      <trkpt lat="46.07085" lon="3.44283">
        <ele>263</ele>
        <time>2018-02-13T20:32:41Z</time>
      </trkpt>
      <trkpt lat="46.07101" lon="3.4427">
        <ele>263</ele>
        <time>2018-02-13T20:32:58Z</time>
      </trkpt>
      <trkpt lat="46.07098" lon="3.44261">
        <ele>263</ele>
        <time>2018-02-13T20:33:05Z</time>
      </trkpt>
      <trkpt lat="46.07092" lon="3.44254">
        <ele>264</ele>
        <time>2018-02-13T20:33:09Z</time>
      </trkpt>
      <trkpt lat="46.07087" lon="3.44253">
        <ele>264</ele>
        <time>2018-02-13T20:33:29Z</time>
      </trkpt>
      <trkpt lat="46.07075" lon="3.44252">
        <ele>265</ele>
        <time>2018-02-13T20:33:40Z</time>
      </trkpt>
      <trkpt lat="46.07064" lon="3.44255">
        <ele>265</ele>
        <time>2018-02-13T20:33:55Z</time>
      </trkpt>
      <trkpt lat="46.07048" lon="3.44254">
        <ele>266</ele>
        <time>2018-02-13T20:34:15Z</time>
      </trkpt>
      <trkpt lat="46.0703" lon="3.44245">
        <ele>266</ele>
        <time>2018-02-13T20:34:20Z</time>
      </trkpt>
      <trkpt lat="46.07016" lon="3.44233">
        <ele>266</ele>
        <time>2018-02-13T20:34:36Z</time>
      </trkpt>
      <trkpt lat="46.07" lon="3.44213">
        <ele>266</ele>
        <time>2018-02-13T20:34:45Z</time>
      </trkpt>
      <trkpt lat="46.06938" lon="3.44128">
        <ele>265</ele>
        <time>2018-02-13T20:34:59Z</time>
      </trkpt>
      <trkpt lat="46.0691" lon="3.44088">
        <ele>265</ele>
        <time>2018-02-13T20:35:04Z</time>
      </trkpt>
      <trkpt lat="46.06859" lon="3.44017">
        <ele>266</ele>
        <time>2018-02-13T20:35:09Z</time>
      </trkpt>
      <trkpt lat="46.06841" lon="3.43999">
        <ele>267</ele>
        <time>2018-02-13T20:35:16Z</time>
      </trkpt>
      <trkpt lat="46.06815" lon="3.43978">
        <ele>268</ele>
        <time>2018-02-13T20:35:18Z</time>
      </trkpt>
      <trkpt lat="46.06607" lon="3.43822">
        <ele>270</ele>
        <time>2018-02-13T20:35:35Z</time>
      </trkpt>
      <trkpt lat="46.06429" lon="3.4369">
        <ele>272</ele>
        <time>2018-02-13T20:35:47Z</time>
      </trkpt>
      <trkpt lat="46.06385" lon="3.43656">
        <ele>273</ele>
        <time>2018-02-13T20:35:57Z</time>
      </trkpt>
      <trkpt lat="46.0635" lon="3.43623">
        <ele>273</ele>
        <time>2018-02-13T20:36:02Z</time>
      </trkpt>
      <trkpt lat="46.06285" lon="3.43553">
        <ele>273</ele>
        <time>2018-02-13T20:36:22Z</time>
      </trkpt>
      <trkpt lat="46.06229" lon="3.4351">
        <ele>274</ele>
        <time>2018-02-13T20:36:41Z</time>
      </trkpt>
      <trkpt lat="46.06208" lon="3.43496">
        <ele>273</ele>
        <time>2018-02-13T20:36:47Z</time>
      </trkpt>
      <trkpt lat="46.06178" lon="3.43484">
        <ele>273</ele>
        <time>2018-02-13T20:36:51Z</time>
      </trkpt>
      <trkpt lat="46.06134" lon="3.43473">
        <ele>273</ele>
        <time>2018-02-13T20:36:54Z</time>
      </trkpt>
      <trkpt lat="46.06055" lon="3.4346">
        <ele>272</ele>
        <time>2018-02-13T20:36:58Z</time>
      </trkpt>
      <trkpt lat="46.06047" lon="3.4346">
        <ele>272</ele>
        <time>2018-02-13T20:37:11Z</time>
      </trkpt>
      <trkpt lat="46.06035" lon="3.43464">
        <ele>271</ele>
        <time>2018-02-13T20:37:16Z</time>
      </trkpt>
      <trkpt lat="46.06014" lon="3.43477">
        <ele>270</ele>
        <time>2018-02-13T20:37:34Z</time>
      </trkpt>
      <trkpt lat="46.05977" lon="3.43507">
        <ele>270</ele>
        <time>2018-02-13T20:37:42Z</time>
      </trkpt>
      <trkpt lat="46.05944" lon="3.43532">
        <ele>270</ele>
        <time>2018-02-13T20:37:53Z</time>
      </trkpt>
      <trkpt lat="46.05928" lon="3.43544">
        <ele>270</ele>
        <time>2018-02-13T20:38:05Z</time>
      </trkpt>
      <trkpt lat="46.05901" lon="3.43556">
        <ele>271</ele>
        <time>2018-02-13T20:38:15Z</time>
      </trkpt>
      <trkpt lat="46.05837" lon="3.43579">
        <ele>272</ele>
        <time>2018-02-13T20:38:33Z</time>
      </trkpt>
      <trkpt lat="46.05703" lon="3.43625">
        <ele>273</ele>
        <time>2018-02-13T20:38:49Z</time>
      </trkpt>
      <trkpt lat="46.05636" lon="3.43646">
        <ele>274</ele>
        <time>2018-02-13T20:38:51Z</time>
      </trkpt>
      <trkpt lat="46.05563" lon="3.43656">
        <ele>275</ele>
        <time>2018-02-13T20:38:54Z</time>
      </trkpt>
      <trkpt lat="46.05507" lon="3.43664">
        <ele>275</ele>
        <time>2018-02-13T20:39:00Z</time>
      </trkpt>
      <trkpt lat="46.05478" lon="3.43667">
        <ele>274</ele>
        <time>2018-02-13T20:39:18Z</time>
      </trkpt>
      <trkpt lat="46.05396" lon="3.4366">
        <ele>273</ele>
        <time>2018-02-13T20:39:21Z</time>
      </trkpt>
      <trkpt lat="46.0532" lon="3.43646">
        <ele>273</ele>
        <time>2018-02-13T20:39:38Z</time>
      </trkpt>
      <trkpt lat="46.05279" lon="3.43631">
        <ele>273</ele>
        <time>2018-02-13T20:39:43Z</time>
      </trkpt>
      <trkpt lat="46.05263" lon="3.43622">
        <ele>273</ele>
        <time>2018-02-13T20:39:58Z</time>
      </trkpt>
      <trkpt lat="46.05262" lon="3.43623">
        <ele>273</ele>
        <time>2018-02-13T20:40:01Z</time>
      </trkpt>
      <trkpt lat="46.0526" lon="3.43626">
        <ele>273</ele>
        <time>2018-02-13T20:40:06Z</time>
      </trkpt>
      <trkpt lat="46.05255" lon="3.43628">
        <ele>272</ele>
        <time>2018-02-13T20:40:15Z</time>
      </trkpt>
      <trkpt lat="46.05244" lon="3.43665">
        <ele>271</ele>
        <time>2018-02-13T20:40:27Z</time>
      </trkpt>
      <trkpt lat="46.0524" lon="3.43682">
        <ele>270</ele>
        <time>2018-02-13T20:40:46Z</time>
      </trkpt>
      <trkpt lat="46.05238" lon="3.43703">
        <ele>269</ele>
        <time>2018-02-13T20:40:56Z</time>
      </trkpt>
      <trkpt lat="46.05233" lon="3.43701">
        <ele>269</ele>
        <time>2018-02-13T20:40:58Z</time>
      </trkpt>
      <trkpt lat="46.0523" lon="3.43699">
        <ele>269</ele>
        <time>2018-02-13T20:41:00Z</time>
      </trkpt>
      <trkpt lat="46.0523" lon="3.43698">
        <ele>269</ele>
        <time>2018-02-13T20:41:03Z</time>
      </trkpt>
      <trkpt lat="46.0523" lon="3.43681">
        <ele>270</ele>
        <time>2018-02-13T20:41:21Z</time>
      </trkpt>
      <trkpt lat="46.05223" lon="3.43666">
        <ele>271</ele>
        <time>2018-02-13T20:41:37Z</time>
      </trkpt>
      <trkpt lat="46.05222" lon="3.43659">
        <ele>272</ele>
        <time>2018-02-13T20:41:54Z</time>
      </trkpt>
      <trkpt lat="46.05218" lon="3.43648">
        <ele>273</ele>
        <time>2018-02-13T20:42:10Z</time>
      </trkpt>
      <trkpt lat="46.05211" lon="3.43639">
        <ele>273</ele>
        <time>2018-02-13T20:42:22Z</time>
      </trkpt>
      <trkpt lat="46.05201" lon="3.43632">
        <ele>273</ele>
        <time>2018-02-13T20:42:27Z</time>
      </trkpt>
      <trkpt lat="46.05199" lon="3.43627">
        <ele>273</ele>
        <time>2018-02-13T20:42:37Z</time>
      </trkpt>
      <trkpt lat="46.05197" lon="3.43617">
        <ele>274</ele>
        <time>2018-02-13T20:42:55Z</time>
      </trkpt>
      <trkpt lat="46.05197" lon="3.4361">
        <ele>274</ele>
        <time>2018-02-13T20:43:10Z</time>
      </trkpt>
      <trkpt lat="46.05185" lon="3.43608">
        <ele>274</ele>
        <time>2018-02-13T20:43:17Z</time>
      </trkpt>
      <trkpt lat="46.05169" lon="3.43606">
        <ele>272</ele>
        <time>2018-02-13T20:43:35Z</time>
      </trkpt>
      <trkpt lat="46.05036" lon="3.4357">
        <ele>270</ele>
        <time>2018-02-13T20:43:43Z</time>
      </trkpt>
      <trkpt lat="46.05009" lon="3.43566">
        <ele>268</ele>
        <time>2018-02-13T20:43:50Z</time>
      </trkpt>
      <trkpt lat="46.04978" lon="3.43567">
        <ele>268</ele>
        <time>2018-02-13T20:43:54Z</time>
      </trkpt>
      <trkpt lat="46.04944" lon="3.4357">
        <ele>267</ele>
        <time>2018-02-13T20:43:56Z</time>
      </trkpt>
      <trkpt lat="46.04876" lon="3.43577">
        <ele>267</ele>
        <time>2018-02-13T20:44:09Z</time>
      </trkpt>
      <trkpt lat="46.04841" lon="3.43583">
        <ele>267</ele>
        <time>2018-02-13T20:44:12Z</time>
      </trkpt>
      <trkpt lat="46.0483" lon="3.43586">
        <ele>267</ele>
        <time>2018-02-13T20:44:27Z</time>
      </trkpt>
      <trkpt lat="46.0478" lon="3.43616">
        <ele>267</ele>
        <time>2018-02-13T20:44:46Z</time>
      </trkpt>
      <trkpt lat="46.04751" lon="3.43633">
        <ele>268</ele>
        <time>2018-02-13T20:45:06Z</time>
      </trkpt>
      <trkpt lat="46.04711" lon="3.43647">
        <ele>270</ele>
        <time>2018-02-13T20:45:25Z</time>
      </trkpt>
      <trkpt lat="46.04635" lon="3.4367">
        <ele>271</ele>
        <time>2018-02-13T20:45:28Z</time>
      </trkpt>
      <trkpt lat="46.04604" lon="3.43681">
        <ele>271</ele>
        <time>2018-02-13T20:45:30Z</time>
      </trkpt>
      <trkpt lat="46.04585" lon="3.4369">
        <ele>270</ele>
        <time>2018-02-13T20:45:48Z</time>
      </trkpt>
      <trkpt lat="46.04539" lon="3.43718">
        <ele>269</ele>
        <time>2018-02-13T20:46:05Z</time>
      </trkpt>
      <trkpt lat="46.04497" lon="3.43746">
        <ele>268</ele>
        <time>2018-02-13T20:46:20Z</time>
      </trkpt>
      <trkpt lat="46.04483" lon="3.4376">
        <ele>267</ele>
        <time>2018-02-13T20:46:24Z</time>
      </trkpt>
      <trkpt lat="46.04462" lon="3.43789">
        <ele>266</ele>
        <time>2018-02-13T20:46:29Z</time>
      </trkpt>
      <trkpt lat="46.04408" lon="3.43876">
        <ele>265</ele>
        <time>2018-02-13T20:46:49Z</time>
      </trkpt>
      <trkpt lat="46.04383" lon="3.43912">
        <ele>264</ele>
        <time>2018-02-13T20:47:06Z</time>
      </trkpt>
      <trkpt lat="46.04364" lon="3.43931">
        <ele>264</ele>
        <time>2018-02-13T20:47:15Z</time>
      </trkpt>
      <trkpt lat="46.04354" lon="3.43938">
        <ele>264</ele>
        <time>2018-02-13T20:47:19Z</time>
      </trkpt>
      <trkpt lat="46.04331" lon="3.43949">
        <ele>264</ele>
        <time>2018-02-13T20:47:35Z</time>
      </trkpt>
      <trkpt lat="46.04296" lon="3.43957">
        <ele>264</ele>
        <time>2018-02-13T20:47:37Z</time>
      </trkpt>
      <trkpt lat="46.04257" lon="3.43966">
        <ele>264</ele>
        <time>2018-02-13T20:47:43Z</time>
      </trkpt>
      <trkpt lat="46.04236" lon="3.43973">
        <ele>264</ele>
        <time>2018-02-13T20:47:59Z</time>
      </trkpt>
      <trkpt lat="46.04213" lon="3.43987">
        <ele>264</ele>
        <time>2018-02-13T20:48:18Z</time>
      </trkpt>
      <trkpt lat="46.04193" lon="3.44006">
        <ele>264</ele>
        <time>2018-02-13T20:48:31Z</time>
      </trkpt>
      <trkpt lat="46.04138" lon="3.44078">
        <ele>264</ele>
        <time>2018-02-13T20:48:43Z</time>
      </trkpt>
      <trkpt lat="46.04123" lon="3.44093">
        <ele>264</ele>
        <time>2018-02-13T20:48:59Z</time>
      </trkpt>
      <trkpt lat="46.04106" lon="3.44103">
        <ele>265</ele>
        <time>2018-02-13T20:49:17Z</time>
      </trkpt>
      <trkpt lat="46.04081" lon="3.4411">
        <ele>265</ele>
        <time>2018-02-13T20:49:25Z</time>
      </trkpt>
      <trkpt lat="46.03952" lon="3.44129">
        <ele>266</ele>
        <time>2018-02-13T20:49:37Z</time>
      </trkpt>
      <trkpt lat="46.03907" lon="3.44134">
        <ele>266</ele>
        <time>2018-02-13T20:49:52Z</time>
      </trkpt>
      <trkpt lat="46.03871" lon="3.44133">
        <ele>266</ele>
        <time>2018-02-13T20:50:00Z</time>
      </trkpt>
      <trkpt lat="46.03826" lon="3.44124">
        <ele>267</ele>
        <time>2018-02-13T20:50:16Z</time>
      </trkpt>
      <trkpt lat="46.03792" lon="3.44119">
        <ele>268</ele>
        <time>2018-02-13T20:50:23Z</time>
      </trkpt>
      <trkpt lat="46.03664" lon="3.44097">
        <ele>268</ele>
        <time>2018-02-13T20:50:32Z</time>
      </trkpt>
      <trkpt lat="46.0365" lon="3.44097">
        <ele>269</ele>
        <time>2018-02-13T20:50:45Z</time>
      </trkpt>
      <trkpt lat="46.03627" lon="3.441">
        <ele>269</ele>
        <time>2018-02-13T20:51:00Z</time>
      </trkpt>
      <trkpt lat="46.03584" lon="3.44113">
        <ele>269</ele>
        <time>2018-02-13T20:51:05Z</time>
      </trkpt>
      <trkpt lat="46.03531" lon="3.44116">
        <ele>269</ele>
        <time>2018-02-13T20:51:21Z</time>
      </trkpt>
      <trkpt lat="46.03439" lon="3.44118">
        <ele>269</ele>
        <time>2018-02-13T20:51:41Z</time>
      </trkpt>
      <trkpt lat="46.03336" lon="3.44122">
        <ele>270</ele>
        <time>2018-02-13T20:51:53Z</time>
      </trkpt>
      <trkpt lat="46.03312" lon="3.44126">
        <ele>271</ele>
        <time>2018-02-13T20:52:06Z</time>
      </trkpt>
      <trkpt lat="46.03288" lon="3.44134">
        <ele>271</ele>
        <time>2018-02-13T20:52:19Z</time>
      </trkpt>
      <trkpt lat="46.03256" lon="3.44151">
        <ele>270</ele>
        <time>2018-02-13T20:52:30Z</time>
      </trkpt>
      <trkpt lat="46.03163" lon="3.44216">
        <ele>268</ele>
        <time>2018-02-13T20:52:44Z</time>
      </trkpt>
      <trkpt lat="46.03143" lon="3.44233">
        <ele>267</ele>
        <time>2018-02-13T20:52:54Z</time>
      </trkpt>
      <trkpt lat="46.03117" lon="3.44267">
        <ele>267</ele>
        <time>2018-02-13T20:53:09Z</time>
      </trkpt>
      <trkpt lat="46.03098" lon="3.44296">
        <ele>267</ele>
        <time>2018-02-13T20:53:29Z</time>
      </trkpt>
      <trkpt lat="46.03079" lon="3.44275">
        <ele>267</ele>
        <time>2018-02-13T20:53:31Z</time>
      </trkpt>
      <trkpt lat="46.03049" lon="3.44244">
        <ele>267</ele>
        <time>2018-02-13T20:53:47Z</time>
      </trkpt>
      <trkpt lat="46.03098" lon="3.44296">
        <ele>267</ele>
        <time>2018-02-13T20:53:51Z</time>
      </trkpt>
      <trkpt lat="46.03016" lon="3.44419">
        <ele>266</ele>
        <time>2018-02-13T20:53:58Z</time>
      </trkpt>
      <trkpt lat="46.02972" lon="3.44486">
        <ele>266</ele>
        <time>2018-02-13T20:54:17Z</time>
      </trkpt>
      <trkpt lat="46.0295" lon="3.44515">
        <ele>266</ele>
        <time>2018-02-13T20:54:37Z</time>
      </trkpt>
      <trkpt lat="46.02937" lon="3.44529">
        <ele>266</ele>
        <time>2018-02-13T20:54:48Z</time>
      </trkpt>
      <trkpt lat="46.02921" lon="3.44538">
        <ele>265</ele>
        <time>2018-02-13T20:54:53Z</time>
      </trkpt>
      <trkpt lat="46.02896" lon="3.44543">
        <ele>265</ele>
        <time>2018-02-13T20:55:02Z</time>
      </trkpt>
      <trkpt lat="46.02875" lon="3.44546">
        <ele>265</ele>
        <time>2018-02-13T20:55:21Z</time>
      </trkpt>
      <trkpt lat="46.02727" lon="3.44567">
        <ele>265</ele>
        <time>2018-02-13T20:55:36Z</time>
      </trkpt>
      <trkpt lat="46.02581" lon="3.44587">
        <ele>266</ele>
        <time>2018-02-13T20:55:55Z</time>
      </trkpt>
      <trkpt lat="46.02543" lon="3.44591">
        <ele>267</ele>
        <time>2018-02-13T20:56:10Z</time>
      </trkpt>
      <trkpt lat="46.0253" lon="3.44594">
        <ele>267</ele>
        <time>2018-02-13T20:56:22Z</time>
      </trkpt>
      <trkpt lat="46.02517" lon="3.44601">
        <ele>267</ele>
        <time>2018-02-13T20:56:34Z</time>
      </trkpt>
      <trkpt lat="46.02503" lon="3.44612">
        <ele>267</ele>
        <time>2018-02-13T20:56:51Z</time>
      </trkpt>
      <trkpt lat="46.02433" lon="3.44684">
        <ele>268</ele>
        <time>2018-02-13T20:56:54Z</time>
      </trkpt>
      <trkpt lat="46.02403" lon="3.44727">
        <ele>268</ele>
        <time>2018-02-13T20:57:13Z</time>
      </trkpt>
      <trkpt lat="46.02392" lon="3.44748">
        <ele>268</ele>
        <time>2018-02-13T20:57:25Z</time>
      </trkpt>
      <trkpt lat="46.02382" lon="3.44771">
        <ele>268</ele>
        <time>2018-02-13T20:57:40Z</time>
      </trkpt>
      <trkpt lat="46.02376" lon="3.44794">
        <ele>268</ele>
        <time>2018-02-13T20:57:42Z</time>
      </trkpt>
      <trkpt lat="46.02358" lon="3.44854">
        <ele>267</ele>
        <time>2018-02-13T20:57:59Z</time>
      </trkpt>
      <trkpt lat="46.02348" lon="3.44874">
        <ele>267</ele>
        <time>2018-02-13T20:58:06Z</time>
      </trkpt>
      <trkpt lat="46.02336" lon="3.44886">
        <ele>267</ele>
        <time>2018-02-13T20:58:13Z</time>
      </trkpt>
      <trkpt lat="46.02239" lon="3.44961">
        <ele>268</ele>
        <time>2018-02-13T20:58:27Z</time>
      </trkpt>
      <trkpt lat="46.02225" lon="3.4497">
        <ele>268</ele>
        <time>2018-02-13T20:58:34Z</time>
      </trkpt>
      <trkpt lat="46.0221" lon="3.44976">
        <ele>267</ele>
        <time>2018-02-13T20:58:39Z</time>
      </trkpt>
      <trkpt lat="46.02205" lon="3.44978">
        <ele>267</ele>
        <time>2018-02-13T20:58:49Z</time>
      </trkpt>
      <trkpt lat="46.02184" lon="3.44981">
        <ele>268</ele>
        <time>2018-02-13T20:59:08Z</time>
      </trkpt>
      <trkpt lat="46.02162" lon="3.44981">
        <ele>268</ele>
        <time>2018-02-13T20:59:19Z</time>
      </trkpt>
      <trkpt lat="46.02126" lon="3.4499">
        <ele>268</ele>
        <time>2018-02-13T20:59:23Z</time>
      </trkpt>
      <trkpt lat="46.02097" lon="3.45002">
        <ele>268</ele>
        <time>2018-02-13T20:59:38Z</time>
      </trkpt>
      <trkpt lat="46.02052" lon="3.45025">
        <ele>267</ele>
        <time>2018-02-13T20:59:40Z</time>
      </trkpt>
      <trkpt lat="46.0203" lon="3.4503">
        <ele>267</ele>
        <time>2018-02-13T20:59:47Z</time>
      </trkpt>
      <trkpt lat="46.01952" lon="3.45043">
        <ele>267</ele>
        <time>2018-02-13T21:00:02Z</time>
      </trkpt>
      <trkpt lat="46.01904" lon="3.45053">
        <ele>268</ele>
        <time>2018-02-13T21:00:21Z</time>
      </trkpt>
      <trkpt lat="46.01879" lon="3.45055">
        <ele>268</ele>
        <time>2018-02-13T21:00:25Z</time>
      </trkpt>
      <trkpt lat="46.01808" lon="3.4505">
        <ele>268</ele>
        <time>2018-02-13T21:00:41Z</time>
      </trkpt>
      <trkpt lat="46.01778" lon="3.45043">
        <ele>268</ele>
        <time>2018-02-13T21:00:54Z</time>
      </trkpt>
      <trkpt lat="46.01774" lon="3.45056">
        <ele>268</ele>
        <time>2018-02-13T21:01:04Z</time>
      </trkpt>
      <trkpt lat="46.01763" lon="3.45076">
        <ele>267</ele>
        <time>2018-02-13T21:01:20Z</time>
      </trkpt>
      <trkpt lat="46.01708" lon="3.45148">
        <ele>266</ele>
        <time>2018-02-13T21:01:33Z</time>
      </trkpt>
      <trkpt lat="46.0169" lon="3.45162">
        <ele>266</ele>
        <time>2018-02-13T21:01:52Z</time>
      </trkpt>
      <trkpt lat="46.01647" lon="3.45187">
        <ele>266</ele>
        <time>2018-02-13T21:02:03Z</time>
      </trkpt>
      <trkpt lat="46.01577" lon="3.45226">
        <ele>266</ele>
        <time>2018-02-13T21:02:06Z</time>
      </trkpt>
      <trkpt lat="46.0156" lon="3.45238">
        <ele>266</ele>
        <time>2018-02-13T21:02:21Z</time>
      </trkpt>
      <trkpt lat="46.01552" lon="3.45246">
        <ele>266</ele>
        <time>2018-02-13T21:02:27Z</time>
      </trkpt>
      <trkpt lat="46.01549" lon="3.45251">
        <ele>266</ele>
        <time>2018-02-13T21:02:42Z</time>
      </trkpt>
      <trkpt lat="46.01547" lon="3.45249">
        <ele>266</ele>
        <time>2018-02-13T21:03:01Z</time>
      </trkpt>
      <trkpt lat="46.01539" lon="3.4525">
        <ele>266</ele>
        <time>2018-02-13T21:03:05Z</time>
      </trkpt>
      <trkpt lat="46.01512" lon="3.45259">
        <ele>266</ele>
        <time>2018-02-13T21:03:10Z</time>
      </trkpt>
      <trkpt lat="46.0149" lon="3.45269">
        <ele>266</ele>
        <time>2018-02-13T21:03:18Z</time>
      </trkpt>
      <trkpt lat="46.01467" lon="3.45279">
        <ele>266</ele>
        <time>2018-02-13T21:03:23Z</time>
      </trkpt>
      <trkpt lat="46.01378" lon="3.45314">
        <ele>267</ele>
        <time>2018-02-13T21:03:41Z</time>
      </trkpt>
      <trkpt lat="46.01275" lon="3.45357">
        <ele>267</ele>
        <time>2018-02-13T21:03:48Z</time>
      </trkpt>
      <trkpt lat="46.01252" lon="3.45364">
        <ele>267</ele>
        <time>2018-02-13T21:03:50Z</time>
      </trkpt>
      <trkpt lat="46.01199" lon="3.45375">
        <ele>266</ele>
        <time>2018-02-13T21:04:10Z</time>
      </trkpt>
      <trkpt lat="46.01182" lon="3.45374">
        <ele>266</ele>
        <time>2018-02-13T21:04:29Z</time>
      </trkpt>
      <trkpt lat="46.01165" lon="3.45367">
        <ele>266</ele>
        <time>2018-02-13T21:04:34Z</time>
      </trkpt>
      <trkpt lat="46.01149" lon="3.45359">
        <ele>266</ele>
        <time>2018-02-13T21:04:36Z</time>
      </trkpt>
      <trkpt lat="46.01136" lon="3.45355">
        <ele>266</ele>
        <time>2018-02-13T21:04:44Z</time>
      </trkpt>
      <trkpt lat="46.0112" lon="3.45354">
        <ele>266</ele>
        <time>2018-02-13T21:04:52Z</time>
      </trkpt>
      <trkpt lat="46.01105" lon="3.45357">
        <ele>266</ele>
        <time>2018-02-13T21:05:06Z</time>
      </trkpt>
      <trkpt lat="46.01073" lon="3.45375">
        <ele>266</ele>
        <time>2018-02-13T21:05:16Z</time>
      </trkpt>
      <trkpt lat="46.00983" lon="3.45446">
        <ele>267</ele>
        <time>2018-02-13T21:05:24Z</time>
      </trkpt>
      <trkpt lat="46.00896" lon="3.45515">
        <ele>267</ele>
        <time>2018-02-13T21:05:39Z</time>
      </trkpt>
      <trkpt lat="46.00868" lon="3.45534">
        <ele>267</ele>
        <time>2018-02-13T21:05:46Z</time>
      </trkpt>
      <trkpt lat="46.00836" lon="3.45554">
        <ele>267</ele>
        <time>2018-02-13T21:05:51Z</time>
      </trkpt>
      <trkpt lat="46.00795" lon="3.45584">
        <ele>267</ele>
        <time>2018-02-13T21:06:10Z</time>
      </trkpt>
      <trkpt lat="46.00774" lon="3.45598">
        <ele>267</ele>
        <time>2018-02-13T21:06:21Z</time>
      </trkpt>
      <trkpt lat="46.00729" lon="3.4562">
        <ele>268</ele>
        <time>2018-02-13T21:06:24Z</time>
      </trkpt>
      <trkpt lat="46.00703" lon="3.4563">
        <ele>268</ele>
        <time>2018-02-13T21:06:36Z</time>
      </trkpt>
      <trkpt lat="46.00687" lon="3.45634">
        <ele>268</ele>
        <time>2018-02-13T21:06:38Z</time>
      </trkpt>
      <trkpt lat="46.00689" lon="3.45663">
        <ele>268</ele>
        <time>2018-02-13T21:06:51Z</time>
      </trkpt>
      <trkpt lat="46.00694" lon="3.45702">
        <ele>268</ele>
        <time>2018-02-13T21:07:06Z</time>
      </trkpt>
      <trkpt lat="46.00708" lon="3.45773">
        <ele>268</ele>
        <time>2018-02-13T21:07:24Z</time>
      </trkpt>
      <trkpt lat="46.00724" lon="3.45872">
        <ele>267</ele>
        <time>2018-02-13T21:07:42Z</time>
      </trkpt>
      <trkpt lat="46.00694" lon="3.45898">
        <ele>267</ele>
        <time>2018-02-13T21:07:49Z</time>
      </trkpt>
      <trkpt lat="46.00692" lon="3.45902">
        <ele>267</ele>
        <time>2018-02-13T21:07:57Z</time>
      </trkpt>
      <trkpt lat="46.00686" lon="3.45902">
        <ele>267</ele>
        <time>2018-02-13T21:08:06Z</time>
      </trkpt>
      <trkpt lat="46.00672" lon="3.45907">
        <ele>267</ele>
        <time>2018-02-13T21:08:19Z</time>
      </trkpt>
      <trkpt lat="46.00584" lon="3.45966">
        <ele>267</ele>
        <time>2018-02-13T21:08:22Z</time>
      </trkpt>
      <trkpt lat="46.00568" lon="3.45974">
        <ele>267</ele>
        <time>2018-02-13T21:08:26Z</time>
      </trkpt>
      <trkpt lat="46.00555" lon="3.45977">
        <ele>267</ele>
        <time>2018-02-13T21:08:33Z</time>
      </trkpt>
      <trkpt lat="46.00469" lon="3.45985">
        <ele>267</ele>
        <time>2018-02-13T21:08:40Z</time>
      </trkpt>
      <trkpt lat="46.00442" lon="3.45994">
        <ele>267</ele>
        <time>2018-02-13T21:08:47Z</time>
      </trkpt>
      <trkpt lat="46.00358" lon="3.46049">
        <ele>267</ele>
        <time>2018-02-13T21:09:07Z</time>
      </trkpt>
      <trkpt lat="46.00341" lon="3.46058">
        <ele>267</ele>
        <time>2018-02-13T21:09:19Z</time>
      </trkpt>
      <trkpt lat="46.00322" lon="3.46062">
        <ele>267</ele>
        <time>2018-02-13T21:09:34Z</time>
      </trkpt>
      <trkpt lat="46.00191" lon="3.46061">
        <ele>267</ele>
        <time>2018-02-13T21:09:41Z</time>
      </trkpt>
      <trkpt lat="46.00149" lon="3.46064">
        <ele>268</ele>
        <time>2018-02-13T21:09:46Z</time>
      </trkpt>
      <trkpt lat="46.00052" lon="3.46075">
        <ele>268</ele>
        <time>2018-02-13T21:10:05Z</time>
      </trkpt>
      <trkpt lat="46.00026" lon="3.4608">
        <ele>268</ele>
        <time>2018-02-13T21:10:15Z</time>
      </trkpt>
      <trkpt lat="45.99969" lon="3.46098">
        <ele>269</ele>
        <time>2018-02-13T21:10:22Z</time>
      </trkpt>
      <trkpt lat="45.99875" lon="3.46126">
        <ele>269</ele>
        <time>2018-02-13T21:10:42Z</time>
      </trkpt>
      <trkpt lat="45.99856" lon="3.46131">
        <ele>271</ele>
        <time>2018-02-13T21:10:45Z</time>
      </trkpt>
      <trkpt lat="45.9985" lon="3.46087">
        <ele>272</ele>
        <time>2018-02-13T21:10:49Z</time>
      </trkpt>
      <trkpt lat="45.99848" lon="3.46038">
        <ele>273</ele>
        <time>2018-02-13T21:10:58Z</time>
      </trkpt>
      <trkpt lat="45.99839" lon="3.45949">
        <ele>274</ele>
        <time>2018-02-13T21:11:06Z</time>
      </trkpt>
      <trkpt lat="45.9977" lon="3.45925">
        <ele>274</ele>
        <time>2018-02-13T21:11:24Z</time>
      </trkpt>
      <trkpt lat="45.99725" lon="3.45908">
        <ele>274</ele>
        <time>2018-02-13T21:11:29Z</time>
      </trkpt>
      <trkpt lat="45.99712" lon="3.45902">
        <ele>275</ele>
        <time>2018-02-13T21:11:45Z</time>
      </trkpt>
      <trkpt lat="45.99697" lon="3.45889">
        <ele>275</ele>
        <time>2018-02-13T21:11:53Z</time>
      </trkpt>
      <trkpt lat="45.99678" lon="3.45864">
        <ele>275</ele>
        <time>2018-02-13T21:12:12Z</time>
      </trkpt>
      <trkpt lat="45.99667" lon="3.45849">
        <ele>274</ele>
        <time>2018-02-13T21:12:24Z</time>
      </trkpt>
      <trkpt lat="45.99654" lon="3.45839">
        <ele>274</ele>
        <time>2018-02-13T21:12:36Z</time>
      </trkpt>
      <trkpt lat="45.99646" lon="3.45835">
        <ele>274</ele>
        <time>2018-02-13T21:12:48Z</time>
      </trkpt>
      <trkpt lat="45.99654" lon="3.45775">
        <ele>274</ele>
        <time>2018-02-13T21:12:54Z</time>
      </trkpt>
      <trkpt lat="45.99662" lon="3.457">
        <ele>274</ele>
        <time>2018-02-13T21:13:05Z</time>
      </trkpt>
      <trkpt lat="45.99664" lon="3.45662">
        <ele>275</ele>
        <time>2018-02-13T21:13:14Z</time>
      </trkpt>
      <trkpt lat="45.99662" lon="3.45632">
        <ele>275</ele>
        <time>2018-02-13T21:13:18Z</time>
      </trkpt>
      <trkpt lat="45.99654" lon="3.45563">
        <ele>275</ele>
        <time>2018-02-13T21:13:33Z</time>
      </trkpt>
      <trkpt lat="45.99654" lon="3.45531">
        <ele>275</ele>
        <time>2018-02-13T21:13:44Z</time>
      </trkpt>
      <trkpt lat="45.99665" lon="3.45483">
        <ele>275</ele>
        <time>2018-02-13T21:13:46Z</time>
      </trkpt>
      <trkpt lat="45.99681" lon="3.45432">
        <ele>275</ele>
        <time>2018-02-13T21:14:02Z</time>
      </trkpt>
      <trkpt lat="45.99688" lon="3.45405">
        <ele>275</ele>
        <time>2018-02-13T21:14:06Z</time>
      </trkpt>
      <trkpt lat="45.9969" lon="3.4538">
        <ele>276</ele>
        <time>2018-02-13T21:14:18Z</time>
      </trkpt>
      <trkpt lat="45.99686" lon="3.45354">
        <ele>276</ele>
        <time>2018-02-13T21:14:26Z</time>
      </trkpt>
      <trkpt lat="45.99673" lon="3.45322">
        <ele>276</ele>
        <time>2018-02-13T21:14:30Z</time>
      </trkpt>
      <trkpt lat="45.99603" lon="3.45157">
        <ele>277</ele>
        <time>2018-02-13T21:14:37Z</time>
      </trkpt>
      <trkpt lat="45.99586" lon="3.45132">
        <ele>278</ele>
        <time>2018-02-13T21:14:50Z</time>
      </trkpt>
      <trkpt lat="45.99572" lon="3.45121">
        <ele>280</ele>
        <time>2018-02-13T21:14:58Z</time>
      </trkpt>
      <trkpt lat="45.99547" lon="3.45101">
        <ele>282</ele>
        <time>2018-02-13T21:15:00Z</time>
      </trkpt>
      <trkpt lat="45.99477" lon="3.45064">
        <ele>284</ele>
        <time>2018-02-13T21:15:14Z</time>
      </trkpt>
      <trkpt lat="45.99445" lon="3.45044">
        <ele>287</ele>
        <time>2018-02-13T21:15:18Z</time>
      </trkpt>
      <trkpt lat="45.99432" lon="3.45029">
        <ele>289</ele>
        <time>2018-02-13T21:15:23Z</time>
      </trkpt>
      <trkpt lat="45.99395" lon="3.44961">
        <ele>290</ele>
        <time>2018-02-13T21:15:42Z</time>
      </trkpt>
      <trkpt lat="45.99359" lon="3.44906">
        <ele>291</ele>
        <time>2018-02-13T21:15:47Z</time>
      </trkpt>
      <trkpt lat="45.9928" lon="3.44775">
        <ele>291</ele>
        <time>2018-02-13T21:16:02Z</time>
      </trkpt>
      <trkpt lat="45.9926" lon="3.44746">
        <ele>290</ele>
        <time>2018-02-13T21:16:04Z</time>
      </trkpt>
      <trkpt lat="45.99245" lon="3.44728">
        <ele>290</ele>
        <time>2018-02-13T21:16:06Z</time>
      </trkpt>
      <trkpt lat="45.99235" lon="3.44722">
        <ele>290</ele>
        <time>2018-02-13T21:16:17Z</time>
      </trkpt>
      <trkpt lat="45.99224" lon="3.4472">
        <ele>291</ele>
        <time>2018-02-13T21:16:29Z</time>
      </trkpt>
      <trkpt lat="45.99218" lon="3.44721">
        <ele>291</ele>
        <time>2018-02-13T21:16:48Z</time>
      </trkpt>
      <trkpt lat="45.99196" lon="3.44729">
        <ele>291</ele>
        <time>2018-02-13T21:17:00Z</time>
      </trkpt>
      <trkpt lat="45.99174" lon="3.44743">
        <ele>291</ele>
        <time>2018-02-13T21:17:15Z</time>
      </trkpt>
      <trkpt lat="45.99153" lon="3.44761">
        <ele>291</ele>
        <time>2018-02-13T21:17:28Z</time>
      </trkpt>
      <trkpt lat="45.99116" lon="3.44794">
        <ele>291</ele>
        <time>2018-02-13T21:17:45Z</time>
      </trkpt>
      <trkpt lat="45.99102" lon="3.44805">
        <ele>291</ele>
        <time>2018-02-13T21:17:57Z</time>
      </trkpt>
      <trkpt lat="45.99091" lon="3.44808">
        <ele>291</ele>
        <time>2018-02-13T21:18:05Z</time>
      </trkpt>
      <trkpt lat="45.99076" lon="3.44808">
        <ele>291</ele>
        <time>2018-02-13T21:18:15Z</time>
      </trkpt>
      <trkpt lat="45.9899" lon="3.448">
        <ele>291</ele>
        <time>2018-02-13T21:18:33Z</time>
      </trkpt>
      <trkpt lat="45.98921" lon="3.44781">
        <ele>291</ele>
        <time>2018-02-13T21:18:38Z</time>
      </trkpt>
      <trkpt lat="45.98876" lon="3.44769">
        <ele>291</ele>
        <time>2018-02-13T21:18:53Z</time>
      </trkpt>
      <trkpt lat="45.98856" lon="3.44766">
        <ele>292</ele>
        <time>2018-02-13T21:19:04Z</time>
      </trkpt>
      <trkpt lat="45.98841" lon="3.44768">
        <ele>292</ele>
        <time>2018-02-13T21:19:11Z</time>
      </trkpt>
      <trkpt lat="45.98819" lon="3.44775">
        <ele>292</ele>
        <time>2018-02-13T21:19:23Z</time>
      </trkpt>
      <trkpt lat="45.98794" lon="3.44777">
        <ele>292</ele>
        <time>2018-02-13T21:19:36Z</time>
      </trkpt>
      <trkpt lat="45.98781" lon="3.44775">
        <ele>292</ele>
        <time>2018-02-13T21:19:46Z</time>
      </trkpt>
      <trkpt lat="45.98757" lon="3.44765">
        <ele>292</ele>
        <time>2018-02-13T21:20:01Z</time>
      </trkpt>
      <trkpt lat="45.98724" lon="3.44748">
        <ele>291</ele>
        <time>2018-02-13T21:20:04Z</time>
      </trkpt>
      <trkpt lat="45.98702" lon="3.44742">
        <ele>291</ele>
        <time>2018-02-13T21:20:24Z</time>
      </trkpt>
      <trkpt lat="45.98689" lon="3.44743">
        <ele>291</ele>
        <time>2018-02-13T21:20:43Z</time>
      </trkpt>
      <trkpt lat="45.98633" lon="3.44765">
        <ele>292</ele>
        <time>2018-02-13T21:20:57Z</time>
      </trkpt>
      <trkpt lat="45.98616" lon="3.4477">
        <ele>293</ele>
        <time>2018-02-13T21:21:05Z</time>
      </trkpt>
      <trkpt lat="45.98574" lon="3.44777">
        <ele>293</ele>
        <time>2018-02-13T21:21:18Z</time>
      </trkpt>
      <trkpt lat="45.98463" lon="3.448">
        <ele>294</ele>
        <time>2018-02-13T21:21:26Z</time>
      </trkpt>
      <trkpt lat="45.98435" lon="3.44804">
        <ele>295</ele>
        <time>2018-02-13T21:21:29Z</time>
      </trkpt>
      <trkpt lat="45.98402" lon="3.44799">
        <ele>296</ele>
        <time>2018-02-13T21:21:36Z</time>
      </trkpt>
      <trkpt lat="45.98318" lon="3.44781">
        <ele>296</ele>
        <time>2018-02-13T21:21:46Z</time>
      </trkpt>
      <trkpt lat="45.98284" lon="3.44775">
        <ele>297</ele>
        <time>2018-02-13T21:21:55Z</time>
      </trkpt>
      <trkpt lat="45.98262" lon="3.44775">
        <ele>296</ele>
        <time>2018-02-13T21:22:10Z</time>
      </trkpt>
      <trkpt lat="45.98231" lon="3.44779">
        <ele>295</ele>
        <time>2018-02-13T21:22:14Z</time>
      </trkpt>
      <trkpt lat="45.98208" lon="3.44786">
        <ele>294</ele>
        <time>2018-02-13T21:22:34Z</time>
      </trkpt>
      <trkpt lat="45.98158" lon="3.448">
        <ele>294</ele>
        <time>2018-02-13T21:22:47Z</time>
      </trkpt>
      <trkpt lat="45.9809" lon="3.44806">
        <ele>293</ele>
        <time>2018-02-13T21:22:58Z</time>
      </trkpt>
      <trkpt lat="45.98048" lon="3.4482">
        <ele>293</ele>
        <time>2018-02-13T21:23:15Z</time>
      </trkpt>
      <trkpt lat="45.98027" lon="3.44823">
        <ele>293</ele>
        <time>2018-02-13T21:23:21Z</time>
      </trkpt>
      <trkpt lat="45.97994" lon="3.44823">
        <ele>293</ele>
        <time>2018-02-13T21:23:26Z</time>
      </trkpt>
      <trkpt lat="45.9798" lon="3.44825">
        <ele>294</ele>
        <time>2018-02-13T21:23:30Z</time>
      </trkpt>
      <trkpt lat="45.97964" lon="3.4483">
        <ele>295</ele>
        <time>2018-02-13T21:23:37Z</time>
      </trkpt>
      <trkpt lat="45.97903" lon="3.44855">
        <ele>295</ele>
        <time>2018-02-13T21:23:46Z</time>
      </trkpt>
      <trkpt lat="45.97885" lon="3.44861">
        <ele>296</ele>
        <time>2018-02-13T21:23:50Z</time>
      </trkpt>
      <trkpt lat="45.97867" lon="3.44864">
        <ele>296</ele>
        <time>2018-02-13T21:24:08Z</time>
      </trkpt>
      <trkpt lat="45.9784" lon="3.44863">
        <ele>296</ele>
        <time>2018-02-13T21:24:24Z</time>
      </trkpt>
      <trkpt lat="45.97826" lon="3.44859">
        <ele>296</ele>
        <time>2018-02-13T21:24:31Z</time>
      </trkpt>
      <trkpt lat="45.97788" lon="3.44835">
        <ele>296</ele>
        <time>2018-02-13T21:24:42Z</time>
      </trkpt>
      <trkpt lat="45.97771" lon="3.44827">
        <ele>296</ele>
        <time>2018-02-13T21:24:57Z</time>
      </trkpt>
      <trkpt lat="45.9776" lon="3.44826">
        <ele>296</ele>
        <time>2018-02-13T21:25:05Z</time>
      </trkpt>
      <trkpt lat="45.97713" lon="3.44831">
        <ele>295</ele>
        <time>2018-02-13T21:25:21Z</time>
      </trkpt>
      <trkpt lat="45.97688" lon="3.44831">
        <ele>295</ele>
        <time>2018-02-13T21:25:34Z</time>
      </trkpt>
      <trkpt lat="45.97665" lon="3.44826">
        <ele>294</ele>
        <time>2018-02-13T21:25:47Z</time>
      </trkpt>
      <trkpt lat="45.97624" lon="3.4481">
        <ele>293</ele>
        <time>2018-02-13T21:25:59Z</time>
      </trkpt>
      <trkpt lat="45.97596" lon="3.44804">
        <ele>293</ele>
        <time>2018-02-13T21:26:13Z</time>
      </trkpt>
      <trkpt lat="45.97583" lon="3.44797">
        <ele>294</ele>
        <time>2018-02-13T21:26:31Z</time>
      </trkpt>
      <trkpt lat="45.9753" lon="3.44762">
        <ele>295</ele>
        <time>2018-02-13T21:26:47Z</time>
      </trkpt>
      <trkpt lat="45.97514" lon="3.44751">
        <ele>295</ele>
        <time>2018-02-13T21:27:01Z</time>
      </trkpt>
      <trkpt lat="45.97497" lon="3.44733">
        <ele>295</ele>
        <time>2018-02-13T21:27:05Z</time>
      </trkpt>
      <trkpt lat="45.97477" lon="3.44714">
        <ele>296</ele>
        <time>2018-02-13T21:27:10Z</time>
      </trkpt>
      <trkpt lat="45.97447" lon="3.44692">
        <ele>296</ele>
        <time>2018-02-13T21:27:12Z</time>
      </trkpt>
      <trkpt lat="45.97377" lon="3.44652">
        <ele>296</ele>
        <time>2018-02-13T21:27:15Z</time>
      </trkpt>
      <trkpt lat="45.97351" lon="3.44631">
        <ele>296</ele>
        <time>2018-02-13T21:27:35Z</time>
      </trkpt>
      <trkpt lat="45.9734" lon="3.44617">
        <ele>296</ele>
        <time>2018-02-13T21:27:38Z</time>
      </trkpt>
      <trkpt lat="45.97326" lon="3.44594">
        <ele>295</ele>
        <time>2018-02-13T21:27:43Z</time>
      </trkpt>
      <trkpt lat="45.97295" lon="3.44545">
        <ele>295</ele>
        <time>2018-02-13T21:28:02Z</time>
      </trkpt>
      <trkpt lat="45.97289" lon="3.44541">
        <ele>294</ele>
        <time>2018-02-13T21:28:19Z</time>
      </trkpt>
      <trkpt lat="45.97276" lon="3.44529">
        <ele>294</ele>
        <time>2018-02-13T21:28:25Z</time>
      </trkpt>
      <trkpt lat="45.97264" lon="3.44517">
        <ele>292</ele>
        <time>2018-02-13T21:28:31Z</time>
      </trkpt>
      <trkpt lat="45.9724" lon="3.44485">
        <ele>291</ele>
        <time>2018-02-13T21:28:49Z</time>
      </trkpt>
      <trkpt lat="45.97226" lon="3.44465">
        <ele>289</ele>
        <time>2018-02-13T21:28:59Z</time>
      </trkpt>
      <trkpt lat="45.9721" lon="3.44448">
        <ele>288</ele>
        <time>2018-02-13T21:29:09Z</time>
      </trkpt>
      <trkpt lat="45.9718" lon="3.44417">
        <ele>288</ele>
        <time>2018-02-13T21:29:18Z</time>
      </trkpt>
      <trkpt lat="45.97147" lon="3.44382">
        <ele>287</ele>
        <time>2018-02-13T21:29:29Z</time>
      </trkpt>
      <trkpt lat="45.97139" lon="3.44378">
        <ele>286</ele>
        <time>2018-02-13T21:29:48Z</time>
      </trkpt>
      <trkpt lat="45.97132" lon="3.44376">
        <ele>286</ele>
        <time>2018-02-13T21:30:04Z</time>
      </trkpt>
      <trkpt lat="45.97128" lon="3.44374">
        <ele>286</ele>
        <time>2018-02-13T21:30:17Z</time>
      </trkpt>
      <trkpt lat="45.97121" lon="3.44366">
        <ele>286</ele>
        <time>2018-02-13T21:30:23Z</time>
      </trkpt>
      <trkpt lat="45.97111" lon="3.44353">
        <ele>286</ele>
        <time>2018-02-13T21:30:33Z</time>
      </trkpt>
      <trkpt lat="45.97095" lon="3.44312">
        <ele>286</ele>
        <time>2018-02-13T21:30:40Z</time>
      </trkpt>
      <trkpt lat="45.97078" lon="3.44277">
        <ele>286</ele>
        <time>2018-02-13T21:30:51Z</time>
      </trkpt>
      <trkpt lat="45.97062" lon="3.44247">
        <ele>286</ele>
        <time>2018-02-13T21:31:00Z</time>
      </trkpt>
      <trkpt lat="45.97054" lon="3.44217">
        <ele>287</ele>
        <time>2018-02-13T21:31:06Z</time>
      </trkpt>
      <trkpt lat="45.97045" lon="3.44087">
        <ele>286</ele>
        <time>2018-02-13T21:31:20Z</time>
      </trkpt>
      <trkpt lat="45.97041" lon="3.4404">
        <ele>286</ele>
        <time>2018-02-13T21:31:37Z</time>
      </trkpt>
      <trkpt lat="45.97031" lon="3.44">
        <ele>286</ele>
        <time>2018-02-13T21:31:46Z</time>
      </trkpt>
      <trkpt lat="45.96951" lon="3.43797">
        <ele>287</ele>
        <time>2018-02-13T21:31:51Z</time>
      </trkpt>
      <trkpt lat="45.96886" lon="3.43631">
        <ele>287</ele>
        <time>2018-02-13T21:32:09Z</time>
      </trkpt>
      <trkpt lat="45.96867" lon="3.43576">
        <ele>287</ele>
        <time>2018-02-13T21:32:26Z</time>
      </trkpt>
      <trkpt lat="45.96843" lon="3.4346">
        <ele>287</ele>
        <time>2018-02-13T21:32:43Z</time>
      </trkpt>
      <trkpt lat="45.96803" lon="3.43276">
        <ele>287</ele>
        <time>2018-02-13T21:32:54Z</time>
      </trkpt>
      <trkpt lat="45.96787" lon="3.43209">
        <ele>287</ele>
        <time>2018-02-13T21:33:10Z</time>
      </trkpt>
      <trkpt lat="45.96775" lon="3.43178">
        <ele>287</ele>
        <time>2018-02-13T21:33:20Z</time>
      </trkpt>
      <trkpt lat="45.96713" lon="3.43021">
        <ele>287</ele>
        <time>2018-02-13T21:33:23Z</time>
      </trkpt>
      <trkpt lat="45.96677" lon="3.42935">
        <ele>287</ele>
        <time>2018-02-13T21:33:35Z</time>
      </trkpt>
      <trkpt lat="45.9666" lon="3.42901">
        <ele>287</ele>
        <time>2018-02-13T21:33:46Z</time>
      </trkpt>
      <trkpt lat="45.96503" lon="3.42611">
        <ele>288</ele>
        <time>2018-02-13T21:34:03Z</time>
      </trkpt>
      <trkpt lat="45.96406" lon="3.42401">
        <ele>289</ele>
        <time>2018-02-13T21:34:19Z</time>
      </trkpt>
      <trkpt lat="45.96334" lon="3.42247">
        <ele>289</ele>
        <time>2018-02-13T21:34:23Z</time>
      </trkpt>
      <trkpt lat="45.96271" lon="3.42146">
        <ele>289</ele>
        <time>2018-02-13T21:34:42Z</time>
      </trkpt>
      <trkpt lat="45.96172" lon="3.41989">
        <ele>289</ele>
        <time>2018-02-13T21:34:56Z</time>
      </trkpt>
      <trkpt lat="45.96129" lon="3.41926">
        <ele>288</ele>
        <time>2018-02-13T21:34:59Z</time>
      </trkpt>
      <trkpt lat="45.96092" lon="3.41865">
        <ele>288</ele>
        <time>2018-02-13T21:35:11Z</time>
      </trkpt>
      <trkpt lat="45.96021" lon="3.41733">
        <ele>288</ele>
        <time>2018-02-13T21:35:17Z</time>
      </trkpt>
      <trkpt lat="45.95991" lon="3.41678">
        <ele>288</ele>
        <time>2018-02-13T21:35:35Z</time>
      </trkpt>
      <trkpt lat="45.95975" lon="3.41655">
        <ele>288</ele>
        <time>2018-02-13T21:35:44Z</time>
      </trkpt>
      <trkpt lat="45.95952" lon="3.41628">
        <ele>288</ele>
        <time>2018-02-13T21:35:56Z</time>
      </trkpt>
      <trkpt lat="45.95926" lon="3.41605">
        <ele>287</ele>
        <time>2018-02-13T21:36:05Z</time>
      </trkpt>
      <trkpt lat="45.95905" lon="3.41587">
        <ele>287</ele>
        <time>2018-02-13T21:36:25Z</time>
      </trkpt>
      <trkpt lat="45.95878" lon="3.41559">
        <ele>287</ele>
        <time>2018-02-13T21:36:37Z</time>
      </trkpt>
      <trkpt lat="45.95857" lon="3.41527">
        <ele>287</ele>
        <time>2018-02-13T21:36:54Z</time>
      </trkpt>
      <trkpt lat="45.95836" lon="3.4148">
        <ele>286</ele>
        <time>2018-02-13T21:36:57Z</time>
      </trkpt>
      <trkpt lat="45.9579" lon="3.4136">
        <ele>285</ele>
        <time>2018-02-13T21:37:02Z</time>
      </trkpt>
      <trkpt lat="45.95715" lon="3.41202">
        <ele>283</ele>
        <time>2018-02-13T21:37:19Z</time>
      </trkpt>
      <trkpt lat="45.95703" lon="3.41171">
        <ele>284</ele>
        <time>2018-02-13T21:37:23Z</time>
      </trkpt>
      <trkpt lat="45.95684" lon="3.41116">
        <ele>285</ele>
        <time>2018-02-13T21:37:26Z</time>
      </trkpt>
      <trkpt lat="45.95673" lon="3.41091">
        <ele>287</ele>
        <time>2018-02-13T21:37:37Z</time>
      </trkpt>
      <trkpt lat="45.95613" lon="3.40974">
        <ele>287</ele>
        <time>2018-02-13T21:37:44Z</time>
      </trkpt>
      <trkpt lat="45.95596" lon="3.40936">
        <ele>288</ele>
        <time>2018-02-13T21:37:57Z</time>
      </trkpt>
      <trkpt lat="45.95585" lon="3.40906">
        <ele>288</ele>
        <time>2018-02-13T21:38:08Z</time>
      </trkpt>
      <trkpt lat="45.95525" lon="3.40711">
        <ele>288</ele>
        <time>2018-02-13T21:38:22Z</time>
      </trkpt>
      <trkpt lat="45.95513" lon="3.40672">
        <ele>289</ele>
        <time>2018-02-13T21:38:37Z</time>
      </trkpt>
      <trkpt lat="45.95503" lon="3.40653">
        <ele>289</ele>
        <time>2018-02-13T21:38:41Z</time>
      </trkpt>
      <trkpt lat="45.95437" lon="3.40546">
        <ele>289</ele>
        <time>2018-02-13T21:38:56Z</time>
      </trkpt>
      <trkpt lat="45.95419" lon="3.40516">
        <ele>290</ele>
        <time>2018-02-13T21:39:14Z</time>
      </trkpt>
      <trkpt lat="45.95404" lon="3.40484">
        <ele>289</ele>
        <time>2018-02-13T21:39:31Z</time>
      </trkpt>
      <trkpt lat="45.95388" lon="3.40442">
        <ele>289</ele>
        <time>2018-02-13T21:39:36Z</time>
      </trkpt>
      <trkpt lat="45.95377" lon="3.40392">
        <ele>290</ele>
        <time>2018-02-13T21:39:49Z</time>
      </trkpt>
      <trkpt lat="45.95354" lon="3.40255">
        <ele>290</ele>
        <time>2018-02-13T21:39:59Z</time>
      </trkpt>
      <trkpt lat="45.95347" lon="3.40201">
        <ele>290</ele>
        <time>2018-02-13T21:40:07Z</time>
      </trkpt>
      <trkpt lat="45.9534" lon="3.40126">
        <ele>290</ele>
        <time>2018-02-13T21:40:26Z</time>
      </trkpt>
      <trkpt lat="45.95332" lon="3.40099">
        <ele>291</ele>
        <time>2018-02-13T21:40:42Z</time>
      </trkpt>
      <trkpt lat="45.95318" lon="3.40067">
        <ele>291</ele>
        <time>2018-02-13T21:40:48Z</time>
      </trkpt>
      <trkpt lat="45.95294" lon="3.40019">
        <ele>291</ele>
        <time>2018-02-13T21:41:01Z</time>
      </trkpt>
      <trkpt lat="45.95231" lon="3.39919">
        <ele>291</ele>
        <time>2018-02-13T21:41:15Z</time>
      </trkpt>
      <trkpt lat="45.95217" lon="3.39895">
        <ele>291</ele>
        <time>2018-02-13T21:41:20Z</time>
      </trkpt>
      <trkpt lat="45.95204" lon="3.39867">
        <ele>292</ele>
        <time>2018-02-13T21:41:30Z</time>
      </trkpt>
      <trkpt lat="45.95176" lon="3.39789">
        <ele>293</ele>
        <time>2018-02-13T21:41:46Z</time>
      </trkpt>
      <trkpt lat="45.95167" lon="3.39764">
        <ele>293</ele>
        <time>2018-02-13T21:41:57Z</time>
      </trkpt>
      <trkpt lat="45.95146" lon="3.39722">
        <ele>293</ele>
        <time>2018-02-13T21:42:17Z</time>
      </trkpt>
      <trkpt lat="45.95062" lon="3.39563">
        <ele>293</ele>
        <time>2018-02-13T21:42:27Z</time>
      </trkpt>
      <trkpt lat="45.95033" lon="3.39479">
        <ele>292</ele>
        <time>2018-02-13T21:42:44Z</time>
      </trkpt>
      <trkpt lat="45.95019" lon="3.39444">
        <ele>292</ele>
        <time>2018-02-13T21:42:49Z</time>
      </trkpt>
      <trkpt lat="45.95009" lon="3.39424">
        <ele>292</ele>
        <time>2018-02-13T21:43:02Z</time>
      </trkpt>
      <trkpt lat="45.94985" lon="3.39384">
        <ele>292</ele>
        <time>2018-02-13T21:43:14Z</time>
      </trkpt>
      <trkpt lat="45.94957" lon="3.39351">
        <ele>292</ele>
        <time>2018-02-13T21:43:29Z</time>
      </trkpt>
      <trkpt lat="45.94926" lon="3.39324">
        <ele>292</ele>
        <time>2018-02-13T21:43:42Z</time>
      </trkpt>
      <trkpt lat="45.949" lon="3.39292">
        <ele>293</ele>
        <time>2018-02-13T21:43:44Z</time>
      </trkpt>
      <trkpt lat="45.94875" lon="3.39253">
        <ele>293</ele>
        <time>2018-02-13T21:44:00Z</time>
      </trkpt>
      <trkpt lat="45.94845" lon="3.39196">
        <ele>292</ele>
        <time>2018-02-13T21:44:14Z</time>
      </trkpt>
      <trkpt lat="45.94824" lon="3.39157">
        <ele>292</ele>
        <time>2018-02-13T21:44:28Z</time>
      </trkpt>
      <trkpt lat="45.94739" lon="3.39009">
        <ele>292</ele>
        <time>2018-02-13T21:44:48Z</time>
      </trkpt>
      <trkpt lat="45.9469" lon="3.38927">
        <ele>292</ele>
        <time>2018-02-13T21:44:53Z</time>
      </trkpt>
      <trkpt lat="45.94681" lon="3.38917">
        <ele>291</ele>
        <time>2018-02-13T21:45:06Z</time>
      </trkpt>
      <trkpt lat="45.94654" lon="3.38893">
        <ele>291</ele>
        <time>2018-02-13T21:45:12Z</time>
      </trkpt>
      <trkpt lat="45.94641" lon="3.38883">
        <ele>291</ele>
        <time>2018-02-13T21:45:21Z</time>
      </trkpt>
      <trkpt lat="45.94607" lon="3.38851">
        <ele>291</ele>
        <time>2018-02-13T21:45:31Z</time>
      </trkpt>
      <trkpt lat="45.94596" lon="3.38837">
        <ele>291</ele>
        <time>2018-02-13T21:45:51Z</time>
      </trkpt>
      <trkpt lat="45.94587" lon="3.3882">
        <ele>291</ele>
        <time>2018-02-13T21:46:10Z</time>
      </trkpt>
      <trkpt lat="45.94555" lon="3.38753">
        <ele>292</ele>
        <time>2018-02-13T21:46:15Z</time>
      </trkpt>
      <trkpt lat="45.94541" lon="3.3873">
        <ele>292</ele>
        <time>2018-02-13T21:46:25Z</time>
      </trkpt>
      <trkpt lat="45.94526" lon="3.387">
        <ele>292</ele>
        <time>2018-02-13T21:46:42Z</time>
      </trkpt>
      <trkpt lat="45.94481" lon="3.38593">
        <ele>292</ele>
        <time>2018-02-13T21:47:01Z</time>
      </trkpt>
      <trkpt lat="45.94459" lon="3.38555">
        <ele>292</ele>
        <time>2018-02-13T21:47:19Z</time>
      </trkpt>
      <trkpt lat="45.94376" lon="3.38424">
        <ele>293</ele>
        <time>2018-02-13T21:47:34Z</time>
      </trkpt>
      <trkpt lat="45.94295" lon="3.38285">
        <ele>294</ele>
        <time>2018-02-13T21:47:54Z</time>
      </trkpt>
      <trkpt lat="45.94238" lon="3.38178">
        <ele>294</ele>
        <time>2018-02-13T21:48:14Z</time>
      </trkpt>
      <trkpt lat="45.94187" lon="3.38097">
        <ele>294</ele>
        <time>2018-02-13T21:48:25Z</time>
      </trkpt>
      <trkpt lat="45.94106" lon="3.37976">
        <ele>294</ele>
        <time>2018-02-13T21:48:28Z</time>
      </trkpt>
      <trkpt lat="45.94062" lon="3.37912">
        <ele>294</ele>
        <time>2018-02-13T21:48:41Z</time>
      </trkpt>
      <trkpt lat="45.94004" lon="3.37841">
        <ele>294</ele>
        <time>2018-02-13T21:48:47Z</time>
      </trkpt>
      <trkpt lat="45.9396" lon="3.37794">
        <ele>294</ele>
        <time>2018-02-13T21:48:52Z</time>
      </trkpt>
      <trkpt lat="45.93943" lon="3.37775">
        <ele>295</ele>
        <time>2018-02-13T21:49:00Z</time>
      </trkpt>
      <trkpt lat="45.93912" lon="3.37728">
        <ele>294</ele>
        <time>2018-02-13T21:49:14Z</time>
      </trkpt>
      <trkpt lat="45.93821" lon="3.37582">
        <ele>294</ele>
        <time>2018-02-13T21:49:24Z</time>
      </trkpt>
      <trkpt lat="45.938" lon="3.37536">
        <ele>293</ele>
        <time>2018-02-13T21:49:29Z</time>
      </trkpt>
      <trkpt lat="45.93782" lon="3.37471">
        <ele>293</ele>
        <time>2018-02-13T21:49:31Z</time>
      </trkpt>
      <trkpt lat="45.93768" lon="3.37409">
        <ele>293</ele>
        <time>2018-02-13T21:49:49Z</time>
      </trkpt>
      <trkpt lat="45.93746" lon="3.37307">
        <ele>293</ele>
        <time>2018-02-13T21:50:03Z</time>
      </trkpt>
      <trkpt lat="45.93726" lon="3.37199">
        <ele>294</ele>
        <time>2018-02-13T21:50:15Z</time>
      </trkpt>
      <trkpt lat="45.937" lon="3.37055">
        <ele>294</ele>
        <time>2018-02-13T21:50:26Z</time>
      </trkpt>
      <trkpt lat="45.93691" lon="3.36981">
        <ele>295</ele>
        <time>2018-02-13T21:50:44Z</time>
      </trkpt>
      <trkpt lat="45.93686" lon="3.36916">
        <ele>296</ele>
        <time>2018-02-13T21:51:03Z</time>
      </trkpt>
      <trkpt lat="45.93687" lon="3.36864">
        <ele>297</ele>
        <time>2018-02-13T21:51:07Z</time>
      </trkpt>
      <trkpt lat="45.93703" lon="3.36726">
        <ele>297</ele>
        <time>2018-02-13T21:51:25Z</time>
      </trkpt>
      <trkpt lat="45.93715" lon="3.36676">
        <ele>297</ele>
        <time>2018-02-13T21:51:28Z</time>
      </trkpt>
      <trkpt lat="45.93734" lon="3.3661">
        <ele>298</ele>
        <time>2018-02-13T21:51:47Z</time>
      </trkpt>
      <trkpt lat="45.93745" lon="3.36576">
        <ele>298</ele>
        <time>2018-02-13T21:51:54Z</time>
      </trkpt>
      <trkpt lat="45.93757" lon="3.36528">
        <ele>297</ele>
        <time>2018-02-13T21:52:03Z</time>
      </trkpt>
      <trkpt lat="45.9376" lon="3.36512">
        <ele>297</ele>
        <time>2018-02-13T21:52:18Z</time>
      </trkpt>
      <trkpt lat="45.93761" lon="3.36482">
        <ele>297</ele>
        <time>2018-02-13T21:52:35Z</time>
      </trkpt>
      <trkpt lat="45.9376" lon="3.36454">
        <ele>297</ele>
        <time>2018-02-13T21:52:47Z</time>
      </trkpt>
      <trkpt lat="45.93755" lon="3.36428">
        <ele>296</ele>
        <time>2018-02-13T21:52:57Z</time>
      </trkpt>
      <trkpt lat="45.93742" lon="3.36386">
        <ele>295</ele>
        <time>2018-02-13T21:53:10Z</time>
      </trkpt>
      <trkpt lat="45.93706" lon="3.36291">
        <ele>295</ele>
        <time>2018-02-13T21:53:16Z</time>
      </trkpt>
      <trkpt lat="45.93661" lon="3.36175">
        <ele>295</ele>
        <time>2018-02-13T21:53:23Z</time>
      </trkpt>
      <trkpt lat="45.93638" lon="3.36127">
        <ele>295</ele>
        <time>2018-02-13T21:53:40Z</time>
      </trkpt>
      <trkpt lat="45.93596" lon="3.36055">
        <ele>294</ele>
        <time>2018-02-13T21:53:58Z</time>
      </trkpt>
      <trkpt lat="45.93529" lon="3.35949">
        <ele>293</ele>
        <time>2018-02-13T21:54:01Z</time>
      </trkpt>
      <trkpt lat="45.93519" lon="3.35937">
        <ele>293</ele>
        <time>2018-02-13T21:54:15Z</time>
      </trkpt>
      <trkpt lat="45.93496" lon="3.35915">
        <ele>294</ele>
        <time>2018-02-13T21:54:27Z</time>
      </trkpt>
      <trkpt lat="45.9344" lon="3.35869">
        <ele>297</ele>
        <time>2018-02-13T21:54:34Z</time>
      </trkpt>
      <trkpt lat="45.93352" lon="3.35792">
        <ele>298</ele>
        <time>2018-02-13T21:54:54Z</time>
      </trkpt>
      <trkpt lat="45.93317" lon="3.3576">
        <ele>299</ele>
        <time>2018-02-13T21:55:06Z</time>
      </trkpt>
      <trkpt lat="45.93229" lon="3.35678">
        <ele>299</ele>
        <time>2018-02-13T21:55:12Z</time>
      </trkpt>
      <trkpt lat="45.932" lon="3.35655">
        <ele>299</ele>
        <time>2018-02-13T21:55:17Z</time>
      </trkpt>
      <trkpt lat="45.93162" lon="3.35631">
        <ele>300</ele>
        <time>2018-02-13T21:55:30Z</time>
      </trkpt>
      <trkpt lat="45.93128" lon="3.35615">
        <ele>300</ele>
        <time>2018-02-13T21:55:41Z</time>
      </trkpt>
      <trkpt lat="45.93098" lon="3.35603">
        <ele>300</ele>
        <time>2018-02-13T21:55:50Z</time>
      </trkpt>
      <trkpt lat="45.93049" lon="3.35587">
        <ele>301</ele>
        <time>2018-02-13T21:56:08Z</time>
      </trkpt>
      <trkpt lat="45.93009" lon="3.35572">
        <ele>301</ele>
        <time>2018-02-13T21:56:10Z</time>
      </trkpt>
      <trkpt lat="45.92977" lon="3.35556">
        <ele>300</ele>
        <time>2018-02-13T21:56:30Z</time>
      </trkpt>
      <trkpt lat="45.92953" lon="3.35541">
        <ele>299</ele>
        <time>2018-02-13T21:56:38Z</time>
      </trkpt>
      <trkpt lat="45.92937" lon="3.35529">
        <ele>298</ele>
        <time>2018-02-13T21:56:52Z</time>
      </trkpt>
      <trkpt lat="45.92895" lon="3.35493">
        <ele>298</ele>
        <time>2018-02-13T21:56:56Z</time>
      </trkpt>
      <trkpt lat="45.9287" lon="3.35466">
        <ele>297</ele>
        <time>2018-02-13T21:56:58Z</time>
      </trkpt>
      <trkpt lat="45.9285" lon="3.3544">
        <ele>296</ele>
        <time>2018-02-13T21:57:04Z</time>
      </trkpt>
      <trkpt lat="45.92806" lon="3.35376">
        <ele>295</ele>
        <time>2018-02-13T21:57:12Z</time>
      </trkpt>
      <trkpt lat="45.92723" lon="3.35248">
        <ele>295</ele>
        <time>2018-02-13T21:57:18Z</time>
      </trkpt>
      <trkpt lat="45.92692" lon="3.35189">
        <ele>296</ele>
        <time>2018-02-13T21:57:38Z</time>
      </trkpt>
      <trkpt lat="45.92662" lon="3.35106">
        <ele>296</ele>
        <time>2018-02-13T21:57:43Z</time>
      </trkpt>
      <trkpt lat="45.9264" lon="3.35015">
        <ele>296</ele>
        <time>2018-02-13T21:57:53Z</time>
      </trkpt>
      <trkpt lat="45.92633" lon="3.3497">
        <ele>297</ele>
        <time>2018-02-13T21:58:04Z</time>
      </trkpt>
      <trkpt lat="45.92632" lon="3.34944">
        <ele>297</ele>
        <time>2018-02-13T21:58:21Z</time>
      </trkpt>
      <trkpt lat="45.92634" lon="3.34898">
        <ele>297</ele>
        <time>2018-02-13T21:58:26Z</time>
      </trkpt>
      <trkpt lat="45.92638" lon="3.34837">
        <ele>296</ele>
        <time>2018-02-13T21:58:44Z</time>
      </trkpt>
      <trkpt lat="45.92637" lon="3.34798">
        <ele>296</ele>
        <time>2018-02-13T21:58:58Z</time>
      </trkpt>
      <trkpt lat="45.92633" lon="3.34757">
        <ele>296</ele>
        <time>2018-02-13T21:59:03Z</time>
      </trkpt>
      <trkpt lat="45.92624" lon="3.34706">
        <ele>296</ele>
        <time>2018-02-13T21:59:22Z</time>
      </trkpt>
      <trkpt lat="45.92617" lon="3.34671">
        <ele>297</ele>
        <time>2018-02-13T21:59:42Z</time>
      </trkpt>
      <trkpt lat="45.92608" lon="3.34642">
        <ele>297</ele>
        <time>2018-02-13T21:59:54Z</time>
      </trkpt>
      <trkpt lat="45.92592" lon="3.34608">
        <ele>297</ele>
        <time>2018-02-13T21:59:56Z</time>
      </trkpt>
      <trkpt lat="45.92549" lon="3.34518">
        <ele>298</ele>
        <time>2018-02-13T22:00:01Z</time>
      </trkpt>
      <trkpt lat="45.92515" lon="3.34454">
        <ele>298</ele>
        <time>2018-02-13T22:00:09Z</time>
      </trkpt>
      <trkpt lat="45.92474" lon="3.34376">
        <ele>299</ele>
        <time>2018-02-13T22:00:13Z</time>
      </trkpt>
      <trkpt lat="45.92459" lon="3.34342">
        <ele>300</ele>
        <time>2018-02-13T22:00:26Z</time>
      </trkpt>
      <trkpt lat="45.92432" lon="3.34261">
        <ele>300</ele>
        <time>2018-02-13T22:00:37Z</time>
      </trkpt>
      <trkpt lat="45.92407" lon="3.34173">
        <ele>300</ele>
        <time>2018-02-13T22:00:56Z</time>
      </trkpt>
      <trkpt lat="45.92392" lon="3.34089">
        <ele>300</ele>
        <time>2018-02-13T22:01:00Z</time>
      </trkpt>
      <trkpt lat="45.92381" lon="3.34022">
        <ele>301</ele>
        <time>2018-02-13T22:01:04Z</time>
      </trkpt>
      <trkpt lat="45.92378" lon="3.33997">
        <ele>300</ele>
        <time>2018-02-13T22:01:18Z</time>
      </trkpt>
      <trkpt lat="45.92372" lon="3.33997">
        <ele>300</ele>
        <time>2018-02-13T22:01:35Z</time>
      </trkpt>
      <trkpt lat="45.92369" lon="3.33996">
        <ele>300</ele>
        <time>2018-02-13T22:01:44Z</time>
      </trkpt>
      <trkpt lat="45.92368" lon="3.33995">
        <ele>300</ele>
        <time>2018-02-13T22:01:53Z</time>
      </trkpt>
      <trkpt lat="45.92372" lon="3.33997">
        <ele>300</ele>
        <time>2018-02-13T22:01:59Z</time>
      </trkpt>
      <trkpt lat="45.92378" lon="3.33997">
        <ele>301</ele>
        <time>2018-02-13T22:02:02Z</time>
      </trkpt>
      <trkpt lat="45.92374" lon="3.33973">
        <ele>301</ele>
        <time>2018-02-13T22:02:16Z</time>
      </trkpt>
      <trkpt lat="45.92371" lon="3.3396">
        <ele>301</ele>
        <time>2018-02-13T22:02:34Z</time>
      </trkpt>
      <trkpt lat="45.92367" lon="3.3393">
        <ele>301</ele>
        <time>2018-02-13T22:02:40Z</time>
      </trkpt>
      <trkpt lat="45.92364" lon="3.3392">
        <ele>301</ele>
        <time>2018-02-13T22:02:52Z</time>
      </trkpt>
      <trkpt lat="45.92359" lon="3.33913">
        <ele>301</ele>
        <time>2018-02-13T22:03:11Z</time>
      </trkpt>
      <trkpt lat="45.92356" lon="3.33872">
        <ele>301</ele>
        <time>2018-02-13T22:03:27Z</time>
      </trkpt>
      <trkpt lat="45.92356" lon="3.33864">
        <ele>301</ele>
        <time>2018-02-13T22:03:36Z</time>
      </trkpt>
      <trkpt lat="45.9235" lon="3.33846">
        <ele>302</ele>
        <time>2018-02-13T22:03:49Z</time>
      </trkpt>
      <trkpt lat="45.92339" lon="3.33794">
        <ele>303</ele>
        <time>2018-02-13T22:03:51Z</time>
      </trkpt>
      <trkpt lat="45.9232" lon="3.33701">
        <ele>304</ele>
        <time>2018-02-13T22:04:08Z</time>
      </trkpt>
      <trkpt lat="45.92302" lon="3.33619">
        <ele>306</ele>
        <time>2018-02-13T22:04:12Z</time>
      </trkpt>
      <trkpt lat="45.92282" lon="3.33537">
        <ele>308</ele>
        <time>2018-02-13T22:04:19Z</time>
      </trkpt>
      <trkpt lat="45.9227" lon="3.33463">
        <ele>309</ele>
        <time>2018-02-13T22:04:26Z</time>
      </trkpt>
      <trkpt lat="45.92272" lon="3.33443">
        <ele>309</ele>
        <time>2018-02-13T22:04:46Z</time>
      </trkpt>
      <trkpt lat="45.92262" lon="3.3343">
        <ele>309</ele>
        <time>2018-02-13T22:04:55Z</time>
      </trkpt>
      <trkpt lat="45.92249" lon="3.33404">
        <ele>309</ele>
        <time>2018-02-13T22:05:14Z</time>
      </trkpt>
      <trkpt lat="45.92232" lon="3.33377">
        <ele>309</ele>
        <time>2018-02-13T22:05:28Z</time>
      </trkpt>
      <trkpt lat="45.92222" lon="3.33366">
        <ele>309</ele>
        <time>2018-02-13T22:05:39Z</time>
      </trkpt>
      <trkpt lat="45.92185" lon="3.33352">
        <ele>308</ele>
        <time>2018-02-13T22:05:55Z</time>
      </trkpt>
      <trkpt lat="45.92174" lon="3.33348">
        <ele>307</ele>
        <time>2018-02-13T22:05:58Z</time>
      </trkpt>
      <trkpt lat="45.92153" lon="3.33332">
        <ele>307</ele>
        <time>2018-02-13T22:06:00Z</time>
      </trkpt>
      <trkpt lat="45.92145" lon="3.33323">
        <ele>306</ele>
        <time>2018-02-13T22:06:02Z</time>
      </trkpt>
      <trkpt lat="45.92136" lon="3.33309">
        <ele>305</ele>
        <time>2018-02-13T22:06:19Z</time>
      </trkpt>
      <trkpt lat="45.92087" lon="3.33196">
        <ele>303</ele>
        <time>2018-02-13T22:06:24Z</time>
      </trkpt>
      <trkpt lat="45.92064" lon="3.33088">
        <ele>301</ele>
        <time>2018-02-13T22:06:37Z</time>
      </trkpt>
      <trkpt lat="45.92052" lon="3.33041">
        <ele>299</ele>
        <time>2018-02-13T22:06:42Z</time>
      </trkpt>
      <trkpt lat="45.92032" lon="3.33002">
        <ele>298</ele>
        <time>2018-02-13T22:06:55Z</time>
      </trkpt>
      <trkpt lat="45.92027" lon="3.32993">
        <ele>297</ele>
        <time>2018-02-13T22:07:12Z</time>
      </trkpt>
      <trkpt lat="45.92025" lon="3.32983">
        <ele>297</ele>
        <time>2018-02-13T22:07:14Z</time>
      </trkpt>
      <trkpt lat="45.92022" lon="3.32986">
        <ele>296</ele>
        <time>2018-02-13T22:07:29Z</time>
      </trkpt>
      <trkpt lat="45.92016" lon="3.32988">
        <ele>295</ele>
        <time>2018-02-13T22:07:45Z</time>
      </trkpt>
      <trkpt lat="45.91981" lon="3.32994">
        <ele>295</ele>
        <time>2018-02-13T22:08:00Z</time>
      </trkpt>
      <trkpt lat="45.91945" lon="3.33003">
        <ele>296</ele>
        <time>2018-02-13T22:08:04Z</time>
      </trkpt>
      <trkpt lat="45.91912" lon="3.33006">
        <ele>298</ele>
        <time>2018-02-13T22:08:18Z</time>
      </trkpt>
      <trkpt lat="45.91884" lon="3.33004">
        <ele>298</ele>
        <time>2018-02-13T22:08:20Z</time>
      </trkpt>
      <trkpt lat="45.91855" lon="3.3301">
        <ele>297</ele>
        <time>2018-02-13T22:08:30Z</time>
      </trkpt>
      <trkpt lat="45.91836" lon="3.33011">
        <ele>298</ele>
        <time>2018-02-13T22:08:36Z</time>
      </trkpt>
      <trkpt lat="45.91763" lon="3.33012">
        <ele>299</ele>
        <time>2018-02-13T22:08:51Z</time>
      </trkpt>
      <trkpt lat="45.91714" lon="3.33021">
        <ele>301</ele>
        <time>2018-02-13T22:09:03Z</time>
      </trkpt>
      <trkpt lat="45.91714" lon="3.33012">
        <ele>301</ele>
        <time>2018-02-13T22:09:06Z</time>
      </trkpt>
      <trkpt lat="45.91711" lon="3.33005">
        <ele>301</ele>
        <time>2018-02-13T22:09:25Z</time>
      </trkpt>
      <trkpt lat="45.91683" lon="3.32982">
        <ele>302</ele>
        <time>2018-02-13T22:09:45Z</time>
      </trkpt>
      <trkpt lat="45.91627" lon="3.32913">
        <ele>302</ele>
        <time>2018-02-13T22:09:55Z</time>
      </trkpt>
      <trkpt lat="45.91581" lon="3.32854">
        <ele>301</ele>
        <time>2018-02-13T22:10:07Z</time>
      </trkpt>
      <trkpt lat="45.91511" lon="3.32762">
        <ele>301</ele>
        <time>2018-02-13T22:10:13Z</time>
      </trkpt>
      <trkpt lat="45.91496" lon="3.32737">
        <ele>300</ele>
        <time>2018-02-13T22:10:21Z</time>
      </trkpt>
      <trkpt lat="45.91486" lon="3.32715">
        <ele>300</ele>
        <time>2018-02-13T22:10:27Z</time>
      </trkpt>
      <trkpt lat="45.91473" lon="3.32682">
        <ele>300</ele>
        <time>2018-02-13T22:10:35Z</time>
      </trkpt>
      <trkpt lat="45.91455" lon="3.32629">
        <ele>300</ele>
        <time>2018-02-13T22:10:40Z</time>
      </trkpt>
      <trkpt lat="45.91422" lon="3.32533">
        <ele>301</ele>
        <time>2018-02-13T22:10:54Z</time>
      </trkpt>
      <trkpt lat="45.91409" lon="3.32487">
        <ele>301</ele>
        <time>2018-02-13T22:11:13Z</time>
      </trkpt>
      <trkpt lat="45.9139" lon="3.32434">
        <ele>302</ele>
        <time>2018-02-13T22:11:31Z</time>
      </trkpt>
      <trkpt lat="45.91373" lon="3.32378">
        <ele>302</ele>
        <time>2018-02-13T22:11:45Z</time>
      </trkpt>
      <trkpt lat="45.91364" lon="3.32355">
        <ele>302</ele>
        <time>2018-02-13T22:11:48Z</time>
      </trkpt>
      <trkpt lat="45.91322" lon="3.32227">
        <ele>303</ele>
        <time>2018-02-13T22:12:00Z</time>
      </trkpt>
      <trkpt lat="45.91307" lon="3.32186">
        <ele>303</ele>
        <time>2018-02-13T22:12:03Z</time>
      </trkpt>
      <trkpt lat="45.91286" lon="3.32136">
        <ele>302</ele>
        <time>2018-02-13T22:12:10Z</time>
      </trkpt>
      <trkpt lat="45.91271" lon="3.32107">
        <ele>302</ele>
        <time>2018-02-13T22:12:30Z</time>
      </trkpt>
      <trkpt lat="45.91245" lon="3.3207">
        <ele>301</ele>
        <time>2018-02-13T22:12:48Z</time>
      </trkpt>
      <trkpt lat="45.91178" lon="3.3198">
        <ele>301</ele>
        <time>2018-02-13T22:13:00Z</time>
      </trkpt>
      <trkpt lat="45.91009" lon="3.31753">
        <ele>302</ele>
        <time>2018-02-13T22:13:03Z</time>
      </trkpt>
      <trkpt lat="45.90956" lon="3.3167">
        <ele>303</ele>
        <time>2018-02-13T22:13:10Z</time>
      </trkpt>
      <trkpt lat="45.90937" lon="3.31632">
        <ele>304</ele>
        <time>2018-02-13T22:13:15Z</time>
      </trkpt>
      <trkpt lat="45.90883" lon="3.31526">
        <ele>306</ele>
        <time>2018-02-13T22:13:33Z</time>
      </trkpt>
      <trkpt lat="45.90814" lon="3.3139">
        <ele>308</ele>
        <time>2018-02-13T22:13:47Z</time>
      </trkpt>
      <trkpt lat="45.90785" lon="3.3134">
        <ele>308</ele>
        <time>2018-02-13T22:13:53Z</time>
      </trkpt>
      <trkpt lat="45.90765" lon="3.31296">
        <ele>308</ele>
        <time>2018-02-13T22:14:03Z</time>
      </trkpt>
      <trkpt lat="45.90748" lon="3.31274">
        <ele>307</ele>
        <time>2018-02-13T22:14:19Z</time>
      </trkpt>
      <trkpt lat="45.90733" lon="3.31267">
        <ele>307</ele>
        <time>2018-02-13T22:14:35Z</time>
      </trkpt>
      <trkpt lat="45.90725" lon="3.31262">
        <ele>307</ele>
        <time>2018-02-13T22:14:44Z</time>
      </trkpt>
      <trkpt lat="45.9072" lon="3.31254">
        <ele>307</ele>
        <time>2018-02-13T22:15:03Z</time>
      </trkpt>
      <trkpt lat="45.90714" lon="3.31243">
        <ele>306</ele>
        <time>2018-02-13T22:15:16Z</time>
      </trkpt>
      <trkpt lat="45.90696" lon="3.31176">
        <ele>305</ele>
        <time>2018-02-13T22:15:19Z</time>
      </trkpt>
      <trkpt lat="45.90684" lon="3.31122">
        <ele>303</ele>
        <time>2018-02-13T22:15:38Z</time>
      </trkpt>
      <trkpt lat="45.90667" lon="3.3103">
        <ele>302</ele>
        <time>2018-02-13T22:15:55Z</time>
      </trkpt>
      <trkpt lat="45.90664" lon="3.31024">
        <ele>302</ele>
        <time>2018-02-13T22:16:12Z</time>
      </trkpt>
      <trkpt lat="45.9066" lon="3.30995">
        <ele>301</ele>
        <time>2018-02-13T22:16:23Z</time>
      </trkpt>
      <trkpt lat="45.90643" lon="3.30894">
        <ele>300</ele>
        <time>2018-02-13T22:16:38Z</time>
      </trkpt>
      <trkpt lat="45.90623" lon="3.30775">
        <ele>299</ele>
        <time>2018-02-13T22:16:53Z</time>
      </trkpt>
      <trkpt lat="45.90614" lon="3.3071">
        <ele>298</ele>
        <time>2018-02-13T22:17:03Z</time>
      </trkpt>
      <trkpt lat="45.90612" lon="3.30657">
        <ele>299</ele>
        <time>2018-02-13T22:17:05Z</time>
      </trkpt>
      <trkpt lat="45.90614" lon="3.30626">
        <ele>299</ele>
        <time>2018-02-13T22:17:14Z</time>
      </trkpt>
      <trkpt lat="45.90627" lon="3.30559">
        <ele>299</ele>
        <time>2018-02-13T22:17:28Z</time>
      </trkpt>
      <trkpt lat="45.90642" lon="3.30487">
        <ele>300</ele>
        <time>2018-02-13T22:17:44Z</time>
      </trkpt>
      <trkpt lat="45.90647" lon="3.30437">
        <ele>301</ele>
        <time>2018-02-13T22:18:03Z</time>
      </trkpt>
      <trkpt lat="45.90646" lon="3.30411">
        <ele>301</ele>
        <time>2018-02-13T22:18:15Z</time>
      </trkpt>
      <trkpt lat="45.9064" lon="3.3036">
        <ele>301</ele>
        <time>2018-02-13T22:18:17Z</time>
      </trkpt>
      <trkpt lat="45.90602" lon="3.3015">
        <ele>301</ele>
        <time>2018-02-13T22:18:23Z</time>
      </trkpt>
      <trkpt lat="45.90593" lon="3.30102">
        <ele>301</ele>
        <time>2018-02-13T22:18:42Z</time>
      </trkpt>
      <trkpt lat="45.90579" lon="3.30071">
        <ele>301</ele>
        <time>2018-02-13T22:18:47Z</time>
      </trkpt>
      <trkpt lat="45.90564" lon="3.30041">
        <ele>301</ele>
        <time>2018-02-13T22:18:55Z</time>
      </trkpt>
      <trkpt lat="45.90522" lon="3.29978">
        <ele>301</ele>
        <time>2018-02-13T22:19:02Z</time>
      </trkpt>
      <trkpt lat="45.90466" lon="3.29897">
        <ele>301</ele>
        <time>2018-02-13T22:19:04Z</time>
      </trkpt>
      <trkpt lat="45.90411" lon="3.29817">
        <ele>302</ele>
        <time>2018-02-13T22:19:15Z</time>
      </trkpt>
      <trkpt lat="45.90388" lon="3.29778">
        <ele>302</ele>
        <time>2018-02-13T22:19:31Z</time>
      </trkpt>
      <trkpt lat="45.90379" lon="3.2976">
        <ele>302</ele>
        <time>2018-02-13T22:19:40Z</time>
      </trkpt>
      <trkpt lat="45.90353" lon="3.2969">
        <ele>302</ele>
        <time>2018-02-13T22:19:56Z</time>
      </trkpt>
      <trkpt lat="45.90316" lon="3.29581">
        <ele>302</ele>
        <time>2018-02-13T22:20:15Z</time>
      </trkpt>
      <trkpt lat="45.90302" lon="3.29536">
        <ele>302</ele>
        <time>2018-02-13T22:20:26Z</time>
      </trkpt>
      <trkpt lat="45.90285" lon="3.29457">
        <ele>302</ele>
        <time>2018-02-13T22:20:30Z</time>
      </trkpt>
      <trkpt lat="45.90263" lon="3.29359">
        <ele>303</ele>
        <time>2018-02-13T22:20:38Z</time>
      </trkpt>
      <trkpt lat="45.90229" lon="3.29243">
        <ele>304</ele>
        <time>2018-02-13T22:20:50Z</time>
      </trkpt>
      <trkpt lat="45.90214" lon="3.29185">
        <ele>305</ele>
        <time>2018-02-13T22:20:53Z</time>
      </trkpt>
      <trkpt lat="45.90204" lon="3.29149">
        <ele>305</ele>
        <time>2018-02-13T22:21:08Z</time>
      </trkpt>
      <trkpt lat="45.90193" lon="3.29129">
        <ele>305</ele>
        <time>2018-02-13T22:21:11Z</time>
      </trkpt>
      <trkpt lat="45.90185" lon="3.29115">
        <ele>305</ele>
        <time>2018-02-13T22:21:13Z</time>
      </trkpt>
      <trkpt lat="45.90175" lon="3.29098">
        <ele>305</ele>
        <time>2018-02-13T22:21:32Z</time>
      </trkpt>
      <trkpt lat="45.90163" lon="3.29086">
        <ele>305</ele>
        <time>2018-02-13T22:21:37Z</time>
      </trkpt>
      <trkpt lat="45.90151" lon="3.29102">
        <ele>305</ele>
        <time>2018-02-13T22:21:47Z</time>
      </trkpt>
      <trkpt lat="45.90141" lon="3.2911">
        <ele>304</ele>
        <time>2018-02-13T22:21:53Z</time>
      </trkpt>
      <trkpt lat="45.90113" lon="3.29132">
        <ele>303</ele>
        <time>2018-02-13T22:21:59Z</time>
      </trkpt>
      <trkpt lat="45.90091" lon="3.29153">
        <ele>301</ele>
        <time>2018-02-13T22:22:19Z</time>
      </trkpt>
      <trkpt lat="45.90079" lon="3.29182">
        <ele>300</ele>
        <time>2018-02-13T22:22:38Z</time>
      </trkpt>
      <trkpt lat="45.90071" lon="3.29204">
        <ele>299</ele>
        <time>2018-02-13T22:22:45Z</time>
      </trkpt>
      <trkpt lat="45.90065" lon="3.29216">
        <ele>300</ele>
        <time>2018-02-13T22:22:47Z</time>
      </trkpt>
      <trkpt lat="45.90051" lon="3.29237">
        <ele>301</ele>
        <time>2018-02-13T22:22:53Z</time>
      </trkpt>
      <trkpt lat="45.90037" lon="3.29249">
        <ele>301</ele>
        <time>2018-02-13T22:22:57Z</time>
      </trkpt>
      <trkpt lat="45.9002" lon="3.29256">
        <ele>301</ele>
        <time>2018-02-13T22:22:59Z</time>
      </trkpt>
      <trkpt lat="45.9" lon="3.29258">
        <ele>300</ele>
        <time>2018-02-13T22:23:14Z</time>
      </trkpt>
      <trkpt lat="45.89972" lon="3.29258">
        <ele>300</ele>
        <time>2018-02-13T22:23:22Z</time>
      </trkpt>
      <trkpt lat="45.89954" lon="3.29253">
        <ele>300</ele>
        <time>2018-02-13T22:23:29Z</time>
      </trkpt>
      <trkpt lat="45.89943" lon="3.29252">
        <ele>300</ele>
        <time>2018-02-13T22:23:48Z</time>
      </trkpt>
      <trkpt lat="45.8993" lon="3.29254">
        <ele>301</ele>
        <time>2018-02-13T22:23:53Z</time>
      </trkpt>
      <trkpt lat="45.89891" lon="3.29258">
        <ele>301</ele>
        <time>2018-02-13T22:23:56Z</time>
      </trkpt>
      <trkpt lat="45.89866" lon="3.29257">
        <ele>301</ele>
        <time>2018-02-13T22:24:12Z</time>
      </trkpt>
      <trkpt lat="45.89855" lon="3.29255">
        <ele>301</ele>
        <time>2018-02-13T22:24:28Z</time>
      </trkpt>
      <trkpt lat="45.89811" lon="3.2924">
        <ele>302</ele>
        <time>2018-02-13T22:24:47Z</time>
      </trkpt>
      <trkpt lat="45.89768" lon="3.2923">
        <ele>303</ele>
        <time>2018-02-13T22:25:05Z</time>
      </trkpt>
      <trkpt lat="45.89752" lon="3.2923">
        <ele>303</ele>
        <time>2018-02-13T22:25:12Z</time>
      </trkpt>
      <trkpt lat="45.8973" lon="3.29234">
        <ele>304</ele>
        <time>2018-02-13T22:25:14Z</time>
      </trkpt>
      <trkpt lat="45.89695" lon="3.29249">
        <ele>305</ele>
        <time>2018-02-13T22:25:27Z</time>
      </trkpt>
      <trkpt lat="45.89638" lon="3.29276">
        <ele>307</ele>
        <time>2018-02-13T22:25:33Z</time>
      </trkpt>
      <trkpt lat="45.89524" lon="3.2933">
        <ele>309</ele>
        <time>2018-02-13T22:25:43Z</time>
      </trkpt>
      <trkpt lat="45.89426" lon="3.2939">
        <ele>311</ele>
        <time>2018-02-13T22:26:03Z</time>
      </trkpt>
      <trkpt lat="45.89382" lon="3.29419">
        <ele>311</ele>
        <time>2018-02-13T22:26:09Z</time>
      </trkpt>
      <trkpt lat="45.89359" lon="3.29437">
        <ele>312</ele>
        <time>2018-02-13T22:26:25Z</time>
      </trkpt>
      <trkpt lat="45.89293" lon="3.29497">
        <ele>313</ele>
        <time>2018-02-13T22:26:28Z</time>
      </trkpt>
      <trkpt lat="45.8927" lon="3.29511">
        <ele>314</ele>
        <time>2018-02-13T22:26:39Z</time>
      </trkpt>
      <trkpt lat="45.89255" lon="3.29518">
        <ele>314</ele>
        <time>2018-02-13T22:26:50Z</time>
      </trkpt>
      <trkpt lat="45.89225" lon="3.29529">
        <ele>315</ele>
        <time>2018-02-13T22:27:01Z</time>
      </trkpt>
      <trkpt lat="45.89196" lon="3.29537">
        <ele>316</ele>
        <time>2018-02-13T22:27:04Z</time>
      </trkpt>
      <trkpt lat="45.8915" lon="3.29545">
        <ele>317</ele>
        <time>2018-02-13T22:27:22Z</time>
      </trkpt>
      <trkpt lat="45.89103" lon="3.29551">
        <ele>318</ele>
        <time>2018-02-13T22:27:39Z</time>
      </trkpt>
      <trkpt lat="45.89055" lon="3.29551">
        <ele>318</ele>
        <time>2018-02-13T22:27:46Z</time>
      </trkpt>
      <trkpt lat="45.88987" lon="3.29544">
        <ele>318</ele>
        <time>2018-02-13T22:27:48Z</time>
      </trkpt>
      <trkpt lat="45.8886" lon="3.29529">
        <ele>319</ele>
        <time>2018-02-13T22:28:07Z</time>
      </trkpt>
      <trkpt lat="45.88824" lon="3.29518">
        <ele>319</ele>
        <time>2018-02-13T22:28:18Z</time>
      </trkpt>
      <trkpt lat="45.88761" lon="3.29485">
        <ele>319</ele>
        <time>2018-02-13T22:28:34Z</time>
      </trkpt>
      <trkpt lat="45.88752" lon="3.29481">
        <ele>319</ele>
        <time>2018-02-13T22:28:54Z</time>
      </trkpt>
      <trkpt lat="45.88744" lon="3.29478">
        <ele>319</ele>
        <time>2018-02-13T22:29:05Z</time>
      </trkpt>
      <trkpt lat="45.88733" lon="3.29479">
        <ele>319</ele>
        <time>2018-02-13T22:29:23Z</time>
      </trkpt>
      <trkpt lat="45.88721" lon="3.29481">
        <ele>319</ele>
        <time>2018-02-13T22:29:43Z</time>
      </trkpt>
      <trkpt lat="45.88681" lon="3.29495">
        <ele>320</ele>
        <time>2018-02-13T22:29:51Z</time>
      </trkpt>
      <trkpt lat="45.88631" lon="3.29515">
        <ele>320</ele>
        <time>2018-02-13T22:30:07Z</time>
      </trkpt>
      <trkpt lat="45.88559" lon="3.2955">
        <ele>321</ele>
        <time>2018-02-13T22:30:22Z</time>
      </trkpt>
      <trkpt lat="45.88484" lon="3.29585">
        <ele>322</ele>
        <time>2018-02-13T22:30:34Z</time>
      </trkpt>
      <trkpt lat="45.88456" lon="3.296">
        <ele>322</ele>
        <time>2018-02-13T22:30:46Z</time>
      </trkpt>
      <trkpt lat="45.88389" lon="3.29651">
        <ele>322</ele>
        <time>2018-02-13T22:31:02Z</time>
      </trkpt>
      <trkpt lat="45.88374" lon="3.29663">
        <ele>322</ele>
        <time>2018-02-13T22:31:10Z</time>
      </trkpt>
      <trkpt lat="45.88322" lon="3.29694">
        <ele>321</ele>
        <time>2018-02-13T22:31:18Z</time>
      </trkpt>
      <trkpt lat="45.88301" lon="3.29706">
        <ele>321</ele>
        <time>2018-02-13T22:31:25Z</time>
      </trkpt>
      <trkpt lat="45.88269" lon="3.29729">
        <ele>322</ele>
        <time>2018-02-13T22:31:44Z</time>
      </trkpt>
      <trkpt lat="45.88169" lon="3.29801">
        <ele>322</ele>
        <time>2018-02-13T22:31:59Z</time>
      </trkpt>
      <trkpt lat="45.88127" lon="3.29829">
        <ele>323</ele>
        <time>2018-02-13T22:32:02Z</time>
      </trkpt>
      <trkpt lat="45.88069" lon="3.29862">
        <ele>323</ele>
        <time>2018-02-13T22:32:16Z</time>
      </trkpt>
      <trkpt lat="45.8801" lon="3.29888">
        <ele>323</ele>
        <time>2018-02-13T22:32:23Z</time>
      </trkpt>
      <trkpt lat="45.87938" lon="3.29908">
        <ele>323</ele>
        <time>2018-02-13T22:32:27Z</time>
      </trkpt>
      <trkpt lat="45.87917" lon="3.29914">
        <ele>323</ele>
        <time>2018-02-13T22:32:45Z</time>
      </trkpt>
      <trkpt lat="45.879" lon="3.2992">
        <ele>323</ele>
        <time>2018-02-13T22:32:54Z</time>
      </trkpt>
      <trkpt lat="45.87876" lon="3.29934">
        <ele>323</ele>
        <time>2018-02-13T22:33:14Z</time>
      </trkpt>
      <trkpt lat="45.87848" lon="3.29954">
        <ele>322</ele>
        <time>2018-02-13T22:33:32Z</time>
      </trkpt>
      <trkpt lat="45.87808" lon="3.29983">
        <ele>320</ele>
        <time>2018-02-13T22:33:48Z</time>
      </trkpt>
      <trkpt lat="45.87766" lon="3.30006">
        <ele>319</ele>
        <time>2018-02-13T22:34:06Z</time>
      </trkpt>
      <trkpt lat="45.87729" lon="3.30024">
        <ele>317</ele>
        <time>2018-02-13T22:34:19Z</time>
      </trkpt>
      <trkpt lat="45.877" lon="3.30035">
        <ele>316</ele>
        <time>2018-02-13T22:34:38Z</time>
      </trkpt>
      <trkpt lat="45.87678" lon="3.30043">
        <ele>316</ele>
        <time>2018-02-13T22:34:54Z</time>
      </trkpt>
      <trkpt lat="45.8764" lon="3.30058">
        <ele>315</ele>
        <time>2018-02-13T22:34:59Z</time>
      </trkpt>
      <trkpt lat="45.87584" lon="3.3009">
        <ele>315</ele>
        <time>2018-02-13T22:35:02Z</time>
      </trkpt>
      <trkpt lat="45.87568" lon="3.30096">
        <ele>315</ele>
        <time>2018-02-13T22:35:13Z</time>
      </trkpt>
      <trkpt lat="45.87483" lon="3.30122">
        <ele>314</ele>
        <time>2018-02-13T22:35:20Z</time>
      </trkpt>
      <trkpt lat="45.87364" lon="3.30157">
        <ele>314</ele>
        <time>2018-02-13T22:35:38Z</time>
      </trkpt>
      <trkpt lat="45.87303" lon="3.30176">
        <ele>315</ele>
        <time>2018-02-13T22:35:52Z</time>
      </trkpt>
      <trkpt lat="45.87212" lon="3.302">
        <ele>315</ele>
        <time>2018-02-13T22:36:02Z</time>
      </trkpt>
      <trkpt lat="45.87153" lon="3.30212">
        <ele>314</ele>
        <time>2018-02-13T22:36:09Z</time>
      </trkpt>
      <trkpt lat="45.87127" lon="3.30222">
        <ele>314</ele>
        <time>2018-02-13T22:36:24Z</time>
      </trkpt>
      <trkpt lat="45.87063" lon="3.30257">
        <ele>313</ele>
        <time>2018-02-13T22:36:30Z</time>
      </trkpt>
      <trkpt lat="45.87054" lon="3.3027">
        <ele>313</ele>
        <time>2018-02-13T22:36:36Z</time>
      </trkpt>
      <trkpt lat="45.87052" lon="3.30275">
        <ele>313</ele>
        <time>2018-02-13T22:36:48Z</time>
      </trkpt>
      <trkpt lat="45.8704" lon="3.30267">
        <ele>313</ele>
        <time>2018-02-13T22:36:50Z</time>
      </trkpt>
      <trkpt lat="45.87025" lon="3.30261">
        <ele>313</ele>
        <time>2018-02-13T22:36:53Z</time>
      </trkpt>
      <trkpt lat="45.87011" lon="3.30258">
        <ele>314</ele>
        <time>2018-02-13T22:37:10Z</time>
      </trkpt>
      <trkpt lat="45.86993" lon="3.30256">
        <ele>314</ele>
        <time>2018-02-13T22:37:25Z</time>
      </trkpt>
      <trkpt lat="45.86955" lon="3.3026">
        <ele>315</ele>
        <time>2018-02-13T22:37:28Z</time>
      </trkpt>
      <trkpt lat="45.86875" lon="3.30272">
        <ele>315</ele>
        <time>2018-02-13T22:37:40Z</time>
      </trkpt>
      <trkpt lat="45.86849" lon="3.30277">
        <ele>314</ele>
        <time>2018-02-13T22:37:44Z</time>
      </trkpt>
      <trkpt lat="45.86822" lon="3.3028">
        <ele>314</ele>
        <time>2018-02-13T22:37:59Z</time>
      </trkpt>
      <trkpt lat="45.86788" lon="3.30278">
        <ele>314</ele>
        <time>2018-02-13T22:38:09Z</time>
      </trkpt>
      <trkpt lat="45.86707" lon="3.30271">
        <ele>315</ele>
        <time>2018-02-13T22:38:14Z</time>
      </trkpt>
      <trkpt lat="45.86643" lon="3.30266">
        <ele>315</ele>
        <time>2018-02-13T22:38:23Z</time>
      </trkpt>
      <trkpt lat="45.8654" lon="3.3027">
        <ele>315</ele>
        <time>2018-02-13T22:38:32Z</time>
      </trkpt>
      <trkpt lat="45.86479" lon="3.3026">
        <ele>315</ele>
        <time>2018-02-13T22:38:42Z</time>
      </trkpt>
      <trkpt lat="45.86453" lon="3.30253">
        <ele>315</ele>
        <time>2018-02-13T22:39:01Z</time>
      </trkpt>
      <trkpt lat="45.86405" lon="3.30238">
        <ele>315</ele>
        <time>2018-02-13T22:39:20Z</time>
      </trkpt>
      <trkpt lat="45.86397" lon="3.30234">
        <ele>315</ele>
        <time>2018-02-13T22:39:36Z</time>
      </trkpt>
      <trkpt lat="45.86368" lon="3.30214">
        <ele>315</ele>
        <time>2018-02-13T22:39:52Z</time>
      </trkpt>
      <trkpt lat="45.86352" lon="3.30205">
        <ele>315</ele>
        <time>2018-02-13T22:40:08Z</time>
      </trkpt>
      <trkpt lat="45.86305" lon="3.30187">
        <ele>315</ele>
        <time>2018-02-13T22:40:10Z</time>
      </trkpt>
      <trkpt lat="45.86275" lon="3.30175">
        <ele>314</ele>
        <time>2018-02-13T22:40:25Z</time>
      </trkpt>
      <trkpt lat="45.86266" lon="3.30169">
        <ele>314</ele>
        <time>2018-02-13T22:40:34Z</time>
      </trkpt>
      <trkpt lat="45.86187" lon="3.30125">
        <ele>313</ele>
        <time>2018-02-13T22:40:50Z</time>
      </trkpt>
      <trkpt lat="45.86152" lon="3.30115">
        <ele>313</ele>
        <time>2018-02-13T22:40:54Z</time>
      </trkpt>
      <trkpt lat="45.86113" lon="3.30108">
        <ele>311</ele>
        <time>2018-02-13T22:41:09Z</time>
      </trkpt>
      <trkpt lat="45.86021" lon="3.30091">
        <ele>310</ele>
        <time>2018-02-13T22:41:12Z</time>
      </trkpt>
      <trkpt lat="45.86004" lon="3.30084">
        <ele>308</ele>
        <time>2018-02-13T22:41:29Z</time>
      </trkpt>
      <trkpt lat="45.8593" lon="3.30029">
        <ele>308</ele>
        <time>2018-02-13T22:41:31Z</time>
      </trkpt>
      <trkpt lat="45.85901" lon="3.30008">
        <ele>308</ele>
        <time>2018-02-13T22:41:42Z</time>
      </trkpt>
      <trkpt lat="45.85883" lon="3.29998">
        <ele>308</ele>
        <time>2018-02-13T22:41:56Z</time>
      </trkpt>
      <trkpt lat="45.85864" lon="3.29981">
        <ele>307</ele>
        <time>2018-02-13T22:42:11Z</time>
      </trkpt>
      <trkpt lat="45.85841" lon="3.29955">
        <ele>307</ele>
        <time>2018-02-13T22:42:22Z</time>
      </trkpt>
      <trkpt lat="45.85829" lon="3.29932">
        <ele>307</ele>
        <time>2018-02-13T22:42:24Z</time>
      </trkpt>
      <trkpt lat="45.85806" lon="3.29869">
        <ele>305</ele>
        <time>2018-02-13T22:42:42Z</time>
      </trkpt>
      <trkpt lat="45.85794" lon="3.29823">
        <ele>304</ele>
        <time>2018-02-13T22:42:45Z</time>
      </trkpt>
      <trkpt lat="45.85782" lon="3.29786">
        <ele>304</ele>
        <time>2018-02-13T22:42:51Z</time>
      </trkpt>
      <trkpt lat="45.85769" lon="3.29756">
        <ele>304</ele>
        <time>2018-02-13T22:43:10Z</time>
      </trkpt>
      <trkpt lat="45.85745" lon="3.29707">
        <ele>304</ele>
        <time>2018-02-13T22:43:27Z</time>
      </trkpt>
      <trkpt lat="45.85718" lon="3.29644">
        <ele>304</ele>
        <time>2018-02-13T22:43:38Z</time>
      </trkpt>
      <trkpt lat="45.85677" lon="3.29511">
        <ele>305</ele>
        <time>2018-02-13T22:43:49Z</time>
      </trkpt>
      <trkpt lat="45.8564" lon="3.29389">
        <ele>306</ele>
        <time>2018-02-13T22:44:07Z</time>
      </trkpt>
      <trkpt lat="45.85627" lon="3.29357">
        <ele>306</ele>
        <time>2018-02-13T22:44:26Z</time>
      </trkpt>
      <trkpt lat="45.85598" lon="3.29292">
        <ele>306</ele>
        <time>2018-02-13T22:44:33Z</time>
      </trkpt>
      <trkpt lat="45.85581" lon="3.29245">
        <ele>307</ele>
        <time>2018-02-13T22:44:53Z</time>
      </trkpt>
      <trkpt lat="45.85547" lon="3.29149">
        <ele>307</ele>
        <time>2018-02-13T22:45:00Z</time>
      </trkpt>
      <trkpt lat="45.85513" lon="3.29053">
        <ele>308</ele>
        <time>2018-02-13T22:45:04Z</time>
      </trkpt>
      <trkpt lat="45.85489" lon="3.28991">
        <ele>309</ele>
        <time>2018-02-13T22:45:21Z</time>
      </trkpt>
      <trkpt lat="45.85472" lon="3.28959">
        <ele>309</ele>
        <time>2018-02-13T22:45:26Z</time>
      </trkpt>
      <trkpt lat="45.85443" lon="3.28911">
        <ele>309</ele>
        <time>2018-02-13T22:45:30Z</time>
      </trkpt>
      <trkpt lat="45.85377" lon="3.28806">
        <ele>309</ele>
        <time>2018-02-13T22:45:41Z</time>
      </trkpt>
      <trkpt lat="45.85294" lon="3.28673">
        <ele>310</ele>
        <time>2018-02-13T22:45:48Z</time>
      </trkpt>
      <trkpt lat="45.8527" lon="3.28636">
        <ele>310</ele>
        <time>2018-02-13T22:45:54Z</time>
      </trkpt>
      <trkpt lat="45.85214" lon="3.28545">
        <ele>310</ele>
        <time>2018-02-13T22:46:02Z</time>
      </trkpt>
      <trkpt lat="45.85174" lon="3.2848">
        <ele>310</ele>
        <time>2018-02-13T22:46:10Z</time>
      </trkpt>
      <trkpt lat="45.85143" lon="3.2844">
        <ele>311</ele>
        <time>2018-02-13T22:46:22Z</time>
      </trkpt>
      <trkpt lat="45.85116" lon="3.28414">
        <ele>311</ele>
        <time>2018-02-13T22:46:31Z</time>
      </trkpt>
      <trkpt lat="45.85089" lon="3.28392">
        <ele>311</ele>
        <time>2018-02-13T22:46:50Z</time>
      </trkpt>
      <trkpt lat="45.85052" lon="3.28369">
        <ele>311</ele>
        <time>2018-02-13T22:47:08Z</time>
      </trkpt>
      <trkpt lat="45.85008" lon="3.28352">
        <ele>312</ele>
        <time>2018-02-13T22:47:25Z</time>
      </trkpt>
      <trkpt lat="45.84935" lon="3.2834">
        <ele>312</ele>
        <time>2018-02-13T22:47:29Z</time>
      </trkpt>
      <trkpt lat="45.84907" lon="3.28335">
        <ele>312</ele>
        <time>2018-02-13T22:47:38Z</time>
      </trkpt>
      <trkpt lat="45.84887" lon="3.28329">
        <ele>312</ele>
        <time>2018-02-13T22:47:57Z</time>
      </trkpt>
      <trkpt lat="45.84867" lon="3.28319">
        <ele>312</ele>
        <time>2018-02-13T22:48:06Z</time>
      </trkpt>
      <trkpt lat="45.84842" lon="3.28304">
        <ele>312</ele>
        <time>2018-02-13T22:48:11Z</time>
      </trkpt>
      <trkpt lat="45.8482" lon="3.28285">
        <ele>312</ele>
        <time>2018-02-13T22:48:20Z</time>
      </trkpt>
      <trkpt lat="45.84796" lon="3.2826">
        <ele>313</ele>
        <time>2018-02-13T22:48:24Z</time>
      </trkpt>
      <trkpt lat="45.84736" lon="3.28198">
        <ele>314</ele>
        <time>2018-02-13T22:48:29Z</time>
      </trkpt>
      <trkpt lat="45.8465" lon="3.28109">
        <ele>315</ele>
        <time>2018-02-13T22:48:46Z</time>
      </trkpt>
      <trkpt lat="45.846" lon="3.28055">
        <ele>316</ele>
        <time>2018-02-13T22:49:03Z</time>
      </trkpt>
      <trkpt lat="45.84582" lon="3.28029">
        <ele>316</ele>
        <time>2018-02-13T22:49:05Z</time>
      </trkpt>
      <trkpt lat="45.8457" lon="3.28006">
        <ele>316</ele>
        <time>2018-02-13T22:49:09Z</time>
      </trkpt>
      <trkpt lat="45.84546" lon="3.27932">
        <ele>316</ele>
        <time>2018-02-13T22:49:23Z</time>
      </trkpt>
      <trkpt lat="45.84454" lon="3.27618">
        <ele>317</ele>
        <time>2018-02-13T22:49:35Z</time>
      </trkpt>
      <trkpt lat="45.84441" lon="3.27584">
        <ele>318</ele>
        <time>2018-02-13T22:49:50Z</time>
      </trkpt>
      <trkpt lat="45.84433" lon="3.27568">
        <ele>318</ele>
        <time>2018-02-13T22:50:06Z</time>
      </trkpt>
      <trkpt lat="45.84409" lon="3.27531">
        <ele>317</ele>
        <time>2018-02-13T22:50:26Z</time>
      </trkpt>
      <trkpt lat="45.84284" lon="3.27395">
        <ele>316</ele>
        <time>2018-02-13T22:50:35Z</time>
      </trkpt>
      <trkpt lat="45.84236" lon="3.27351">
        <ele>315</ele>
        <time>2018-02-13T22:50:54Z</time>
      </trkpt>
      <trkpt lat="45.84017" lon="3.27161">
        <ele>314</ele>
        <time>2018-02-13T22:51:03Z</time>
      </trkpt>
      <trkpt lat="45.84002" lon="3.27147">
        <ele>313</ele>
        <time>2018-02-13T22:51:07Z</time>
      </trkpt>
      <trkpt lat="45.83963" lon="3.271">
        <ele>312</ele>
        <time>2018-02-13T22:51:25Z</time>
      </trkpt>
      <trkpt lat="45.83945" lon="3.2707">
        <ele>312</ele>
        <time>2018-02-13T22:51:34Z</time>
      </trkpt>
      <trkpt lat="45.83931" lon="3.27049">
        <ele>312</ele>
        <time>2018-02-13T22:51:38Z</time>
      </trkpt>
      <trkpt lat="45.8392" lon="3.27012">
        <ele>312</ele>
        <time>2018-02-13T22:51:52Z</time>
      </trkpt>
      <trkpt lat="45.8391" lon="3.26995">
        <ele>312</ele>
        <time>2018-02-13T22:52:01Z</time>
      </trkpt>
      <trkpt lat="45.83905" lon="3.26973">
        <ele>313</ele>
        <time>2018-02-13T22:52:16Z</time>
      </trkpt>
      <trkpt lat="45.83861" lon="3.26803">
        <ele>314</ele>
        <time>2018-02-13T22:52:30Z</time>
      </trkpt>
      <trkpt lat="45.83855" lon="3.26776">
        <ele>314</ele>
        <time>2018-02-13T22:52:48Z</time>
      </trkpt>
      <trkpt lat="45.83847" lon="3.26721">
        <ele>314</ele>
        <time>2018-02-13T22:52:50Z</time>
      </trkpt>
      <trkpt lat="45.83833" lon="3.26605">
        <ele>314</ele>
        <time>2018-02-13T22:53:07Z</time>
      </trkpt>
      <trkpt lat="45.83827" lon="3.26567">
        <ele>314</ele>
        <time>2018-02-13T22:53:14Z</time>
      </trkpt>
      <trkpt lat="45.83823" lon="3.26553">
        <ele>315</ele>
        <time>2018-02-13T22:53:33Z</time>
      </trkpt>
      <trkpt lat="45.83792" lon="3.2639">
        <ele>315</ele>
        <time>2018-02-13T22:53:44Z</time>
      </trkpt>
      <trkpt lat="45.83765" lon="3.26245">
        <ele>316</ele>
        <time>2018-02-13T22:53:54Z</time>
      </trkpt>
      <trkpt lat="45.83751" lon="3.26182">
        <ele>316</ele>
        <time>2018-02-13T22:54:04Z</time>
      </trkpt>
      <trkpt lat="45.83739" lon="3.26113">
        <ele>317</ele>
        <time>2018-02-13T22:54:09Z</time>
      </trkpt>
      <trkpt lat="45.83728" lon="3.26054">
        <ele>319</ele>
        <time>2018-02-13T22:54:25Z</time>
      </trkpt>
      <trkpt lat="45.83722" lon="3.26025">
        <ele>320</ele>
        <time>2018-02-13T22:54:32Z</time>
      </trkpt>
      <trkpt lat="45.83722" lon="3.26015">
        <ele>321</ele>
        <time>2018-02-13T22:54:47Z</time>
      </trkpt>
      <trkpt lat="45.83709" lon="3.25946">
        <ele>322</ele>
        <time>2018-02-13T22:54:51Z</time>
      </trkpt>
      <trkpt lat="45.83694" lon="3.25865">
        <ele>323</ele>
        <time>2018-02-13T22:55:09Z</time>
      </trkpt>
      <trkpt lat="45.83687" lon="3.25824">
        <ele>323</ele>
        <time>2018-02-13T22:55:12Z</time>
      </trkpt>
      <trkpt lat="45.83685" lon="3.25774">
        <ele>323</ele>
        <time>2018-02-13T22:55:28Z</time>
      </trkpt>
      <trkpt lat="45.83679" lon="3.25772">
        <ele>323</ele>
        <time>2018-02-13T22:55:45Z</time>
      </trkpt>
      <trkpt lat="45.83678" lon="3.25761">
        <ele>323</ele>
        <time>2018-02-13T22:55:53Z</time>
      </trkpt>
      <trkpt lat="45.83674" lon="3.25728">
        <ele>323</ele>
        <time>2018-02-13T22:56:00Z</time>
      </trkpt>
      <trkpt lat="45.83679" lon="3.25772">
        <ele>323</ele>
        <time>2018-02-13T22:56:03Z</time>
      </trkpt>
      <trkpt lat="45.83685" lon="3.25774">
        <ele>323</ele>
        <time>2018-02-13T22:56:06Z</time>
      </trkpt>
      <trkpt lat="45.83685" lon="3.25748">
        <ele>323</ele>
        <time>2018-02-13T22:56:19Z</time>
      </trkpt>
      <trkpt lat="45.83692" lon="3.25675">
        <ele>323</ele>
        <time>2018-02-13T22:56:37Z</time>
      </trkpt>
      <trkpt lat="45.8371" lon="3.25596">
        <ele>323</ele>
        <time>2018-02-13T22:56:41Z</time>
      </trkpt>
      <trkpt lat="45.83716" lon="3.25578">
        <ele>323</ele>
        <time>2018-02-13T22:56:51Z</time>
      </trkpt>
      <trkpt lat="45.83733" lon="3.25541">
        <ele>322</ele>
        <time>2018-02-13T22:57:04Z</time>
      </trkpt>
      <trkpt lat="45.83813" lon="3.25397">
        <ele>322</ele>
        <time>2018-02-13T22:57:09Z</time>
      </trkpt>
      <trkpt lat="45.83889" lon="3.25264">
        <ele>321</ele>
        <time>2018-02-13T22:57:14Z</time>
      </trkpt>
      <trkpt lat="45.83925" lon="3.25199">
        <ele>321</ele>
        <time>2018-02-13T22:57:26Z</time>
      </trkpt>
      <trkpt lat="45.83952" lon="3.25143">
        <ele>321</ele>
        <time>2018-02-13T22:57:39Z</time>
      </trkpt>
      <trkpt lat="45.8401" lon="3.25011">
        <ele>321</ele>
        <time>2018-02-13T22:57:49Z</time>
      </trkpt>
      <trkpt lat="45.84047" lon="3.2493">
        <ele>321</ele>
        <time>2018-02-13T22:58:05Z</time>
      </trkpt>
      <trkpt lat="45.84067" lon="3.24896">
        <ele>321</ele>
        <time>2018-02-13T22:58:24Z</time>
      </trkpt>
      <trkpt lat="45.84101" lon="3.24842">
        <ele>321</ele>
        <time>2018-02-13T22:58:31Z</time>
      </trkpt>
      <trkpt lat="45.84119" lon="3.24807">
        <ele>321</ele>
        <time>2018-02-13T22:58:46Z</time>
      </trkpt>
      <trkpt lat="45.8417" lon="3.24707">
        <ele>321</ele>
        <time>2018-02-13T22:58:59Z</time>
      </trkpt>
      <trkpt lat="45.84179" lon="3.24686">
        <ele>321</ele>
        <time>2018-02-13T22:59:18Z</time>
      </trkpt>
      <trkpt lat="45.84165" lon="3.24674">
        <ele>321</ele>
        <time>2018-02-13T22:59:33Z</time>
      </trkpt>
      <trkpt lat="45.84146" lon="3.24661">
        <ele>321</ele>
        <time>2018-02-13T22:59:48Z</time>
      </trkpt>
      <trkpt lat="45.84132" lon="3.24646">
        <ele>322</ele>
        <time>2018-02-13T22:59:55Z</time>
      </trkpt>
      <trkpt lat="45.84125" lon="3.2463">
        <ele>322</ele>
        <time>2018-02-13T23:00:13Z</time>
      </trkpt>
      <trkpt lat="45.84122" lon="3.24617">
        <ele>321</ele>
        <time>2018-02-13T23:00:25Z</time>
      </trkpt>
      <trkpt lat="45.84122" lon="3.24602">
        <ele>321</ele>
        <time>2018-02-13T23:00:27Z</time>
      </trkpt>
      <trkpt lat="45.84125" lon="3.2459">
        <ele>322</ele>
        <time>2018-02-13T23:00:37Z</time>
      </trkpt>
      <trkpt lat="45.8413" lon="3.2458">
        <ele>322</ele>
        <time>2018-02-13T23:00:49Z</time>
      </trkpt>
      <trkpt lat="45.84135" lon="3.24573">
        <ele>321</ele>
        <time>2018-02-13T23:01:05Z</time>
      </trkpt>
      <trkpt lat="45.84146" lon="3.24566">
        <ele>321</ele>
        <time>2018-02-13T23:01:24Z</time>
      </trkpt>
      <trkpt lat="45.84171" lon="3.24558">
        <ele>322</ele>
        <time>2018-02-13T23:01:27Z</time>
      </trkpt>
      <trkpt lat="45.84164" lon="3.24517">
        <ele>322</ele>
        <time>2018-02-13T23:01:36Z</time>
      </trkpt>
      <trkpt lat="45.84164" lon="3.24503">
        <ele>321</ele>
        <time>2018-02-13T23:01:55Z</time>
      </trkpt>
      <trkpt lat="45.84168" lon="3.24497">
        <ele>321</ele>
        <time>2018-02-13T23:01:58Z</time>
      </trkpt>
      <trkpt lat="45.84162" lon="3.24465">
        <ele>321</ele>
        <time>2018-02-13T23:02:09Z</time>
      </trkpt>
      <trkpt lat="45.8414" lon="3.24362">
        <ele>321</ele>
        <time>2018-02-13T23:02:27Z</time>
      </trkpt>
      <trkpt lat="45.84121" lon="3.24276">
        <ele>321</ele>
        <time>2018-02-13T23:02:34Z</time>
      </trkpt>
      <trkpt lat="45.84116" lon="3.24244">
        <ele>321</ele>
        <time>2018-02-13T23:02:52Z</time>
      </trkpt>
      <trkpt lat="45.84112" lon="3.2418">
        <ele>321</ele>
        <time>2018-02-13T23:02:57Z</time>
      </trkpt>
      <trkpt lat="45.84113" lon="3.24084">
        <ele>322</ele>
        <time>2018-02-13T23:03:13Z</time>
      </trkpt>
      <trkpt lat="45.84111" lon="3.24032">
        <ele>322</ele>
        <time>2018-02-13T23:03:24Z</time>
      </trkpt>
      <trkpt lat="45.84103" lon="3.23961">
        <ele>322</ele>
        <time>2018-02-13T23:03:36Z</time>
      </trkpt>
      <trkpt lat="45.84082" lon="3.23838">
        <ele>323</ele>
        <time>2018-02-13T23:03:49Z</time>
      </trkpt>
      <trkpt lat="45.84057" lon="3.23688">
        <ele>325</ele>
        <time>2018-02-13T23:04:01Z</time>
      </trkpt>
      <trkpt lat="45.8404" lon="3.23542">
        <ele>326</ele>
        <time>2018-02-13T23:04:04Z</time>
      </trkpt>
      <trkpt lat="45.84032" lon="3.23416">
        <ele>328</ele>
        <time>2018-02-13T23:04:21Z</time>
      </trkpt>
      <trkpt lat="45.84023" lon="3.23303">
        <ele>327</ele>
        <time>2018-02-13T23:04:33Z</time>
      </trkpt>
      <trkpt lat="45.83998" lon="3.2289">
        <ele>325</ele>
        <time>2018-02-13T23:04:51Z</time>
      </trkpt>
      <trkpt lat="45.83996" lon="3.22842">
        <ele>322</ele>
        <time>2018-02-13T23:05:08Z</time>
      </trkpt>
      <trkpt lat="45.83996" lon="3.22692">
        <ele>322</ele>
        <time>2018-02-13T23:05:10Z</time>
      </trkpt>
      <trkpt lat="45.84006" lon="3.22518">
        <ele>322</ele>
        <time>2018-02-13T23:05:19Z</time>
      </trkpt>
      <trkpt lat="45.84012" lon="3.22477">
        <ele>321</ele>
        <time>2018-02-13T23:05:27Z</time>
      </trkpt>
      <trkpt lat="45.84016" lon="3.22446">
        <ele>321</ele>
        <time>2018-02-13T23:05:32Z</time>
      </trkpt>
      <trkpt lat="45.84024" lon="3.22405">
        <ele>321</ele>
        <time>2018-02-13T23:05:50Z</time>
      </trkpt>
      <trkpt lat="45.84033" lon="3.22372">
        <ele>321</ele>
        <time>2018-02-13T23:06:09Z</time>
      </trkpt>
      <trkpt lat="45.84072" lon="3.22284">
        <ele>322</ele>
        <time>2018-02-13T23:06:12Z</time>
      </trkpt>
      <trkpt lat="45.8408" lon="3.22265">
        <ele>322</ele>
        <time>2018-02-13T23:06:31Z</time>
      </trkpt>
      <trkpt lat="45.84127" lon="3.2218">
        <ele>323</ele>
        <time>2018-02-13T23:06:49Z</time>
      </trkpt>
      <trkpt lat="45.84147" lon="3.22139">
        <ele>323</ele>
        <time>2018-02-13T23:06:51Z</time>
      </trkpt>
      <trkpt lat="45.84155" lon="3.22113">
        <ele>322</ele>
        <time>2018-02-13T23:07:10Z</time>
      </trkpt>
      <trkpt lat="45.8416" lon="3.22097">
        <ele>322</ele>
        <time>2018-02-13T23:07:13Z</time>
      </trkpt>
      <trkpt lat="45.84167" lon="3.22058">
        <ele>322</ele>
        <time>2018-02-13T23:07:26Z</time>
      </trkpt>
      <trkpt lat="45.84171" lon="3.22015">
        <ele>321</ele>
        <time>2018-02-13T23:07:38Z</time>
      </trkpt>
      <trkpt lat="45.84196" lon="3.21596">
        <ele>320</ele>
        <time>2018-02-13T23:07:44Z</time>
      </trkpt>
      <trkpt lat="45.842" lon="3.21515">
        <ele>318</ele>
        <time>2018-02-13T23:08:03Z</time>
      </trkpt>
      <trkpt lat="45.842" lon="3.21505">
        <ele>318</ele>
        <time>2018-02-13T23:08:21Z</time>
      </trkpt>
      <trkpt lat="45.84199" lon="3.21458">
        <ele>318</ele>
        <time>2018-02-13T23:08:38Z</time>
      </trkpt>
      <trkpt lat="45.84166" lon="3.21265">
        <ele>317</ele>
        <time>2018-02-13T23:08:58Z</time>
      </trkpt>
      <trkpt lat="45.84159" lon="3.21228">
        <ele>317</ele>
        <time>2018-02-13T23:09:16Z</time>
      </trkpt>
      <trkpt lat="45.84155" lon="3.21211">
        <ele>316</ele>
        <time>2018-02-13T23:09:35Z</time>
      </trkpt>
      <trkpt lat="45.84148" lon="3.21194">
        <ele>316</ele>
        <time>2018-02-13T23:09:47Z</time>
      </trkpt>
      <trkpt lat="45.84145" lon="3.21193">
        <ele>316</ele>
        <time>2018-02-13T23:09:54Z</time>
      </trkpt>
      <trkpt lat="45.84143" lon="3.21191">
        <ele>316</ele>
        <time>2018-02-13T23:09:57Z</time>
      </trkpt>
      <trkpt lat="45.84138" lon="3.21187">
        <ele>316</ele>
        <time>2018-02-13T23:10:08Z</time>
      </trkpt>
      <trkpt lat="45.84134" lon="3.21178">
        <ele>317</ele>
        <time>2018-02-13T23:10:13Z</time>
      </trkpt>
      <trkpt lat="45.84133" lon="3.21165">
        <ele>317</ele>
        <time>2018-02-13T23:10:32Z</time>
      </trkpt>
      <trkpt lat="45.84133" lon="3.2116">
        <ele>316</ele>
        <time>2018-02-13T23:10:39Z</time>
      </trkpt>
      <trkpt lat="45.84117" lon="3.21136">
        <ele>316</ele>
        <time>2018-02-13T23:10:47Z</time>
      </trkpt>
      <trkpt lat="45.84066" lon="3.21079">
        <ele>316</ele>
        <time>2018-02-13T23:10:51Z</time>
      </trkpt>
      <trkpt lat="45.84026" lon="3.21039">
        <ele>316</ele>
        <time>2018-02-13T23:11:01Z</time>
      </trkpt>
      <trkpt lat="45.83999" lon="3.21019">
        <ele>316</ele>
        <time>2018-02-13T23:11:07Z</time>
      </trkpt>
      <trkpt lat="45.83924" lon="3.20975">
        <ele>317</ele>
        <time>2018-02-13T23:11:14Z</time>
      </trkpt>
      <trkpt lat="45.83902" lon="3.2096">
        <ele>317</ele>
        <time>2018-02-13T23:11:29Z</time>
      </trkpt>
      <trkpt lat="45.83889" lon="3.20948">
        <ele>317</ele>
        <time>2018-02-13T23:11:45Z</time>
      </trkpt>
      <trkpt lat="45.83878" lon="3.20929">
        <ele>317</ele>
        <time>2018-02-13T23:11:51Z</time>
      </trkpt>
      <trkpt lat="45.83865" lon="3.20888">
        <ele>317</ele>
        <time>2018-02-13T23:12:00Z</time>
      </trkpt>
      <trkpt lat="45.8386" lon="3.20842">
        <ele>318</ele>
        <time>2018-02-13T23:12:04Z</time>
      </trkpt>
      <trkpt lat="45.83861" lon="3.20804">
        <ele>318</ele>
        <time>2018-02-13T23:12:18Z</time>
      </trkpt>
      <trkpt lat="45.83874" lon="3.20697">
        <ele>318</ele>
        <time>2018-02-13T23:12:27Z</time>
      </trkpt>
      <trkpt lat="45.83874" lon="3.20659">
        <ele>318</ele>
        <time>2018-02-13T23:12:36Z</time>
      </trkpt>
      <trkpt lat="45.83869" lon="3.20638">
        <ele>317</ele>
        <time>2018-02-13T23:12:51Z</time>
      </trkpt>
      <trkpt lat="45.8384" lon="3.2055">
        <ele>317</ele>
        <time>2018-02-13T23:13:02Z</time>
      </trkpt>
      <trkpt lat="45.83822" lon="3.20513">
        <ele>317</ele>
        <time>2018-02-13T23:13:20Z</time>
      </trkpt>
      <trkpt lat="45.83813" lon="3.205">
        <ele>317</ele>
        <time>2018-02-13T23:13:27Z</time>
      </trkpt>
      <trkpt lat="45.83799" lon="3.20488">
        <ele>317</ele>
        <time>2018-02-13T23:13:44Z</time>
      </trkpt>
      <trkpt lat="45.8378" lon="3.20477">
        <ele>317</ele>
        <time>2018-02-13T23:14:04Z</time>
      </trkpt>
      <trkpt lat="45.83633" lon="3.20404">
        <ele>318</ele>
        <time>2018-02-13T23:14:17Z</time>
      </trkpt>
      <trkpt lat="45.83606" lon="3.20391">
        <ele>318</ele>
        <time>2018-02-13T23:14:33Z</time>
      </trkpt>
      <trkpt lat="45.83574" lon="3.20379">
        <ele>318</ele>
        <time>2018-02-13T23:14:47Z</time>
      </trkpt>
      <trkpt lat="45.83559" lon="3.20375">
        <ele>318</ele>
        <time>2018-02-13T23:14:56Z</time>
      </trkpt>
      <trkpt lat="45.83482" lon="3.20367">
        <ele>318</ele>
        <time>2018-02-13T23:15:13Z</time>
      </trkpt>
      <trkpt lat="45.83409" lon="3.20364">
        <ele>318</ele>
        <time>2018-02-13T23:15:15Z</time>
      </trkpt>
      <trkpt lat="45.83378" lon="3.20369">
        <ele>318</ele>
        <time>2018-02-13T23:15:25Z</time>
      </trkpt>
      <trkpt lat="45.83349" lon="3.20383">
        <ele>318</ele>
        <time>2018-02-13T23:15:31Z</time>
      </trkpt>
      <trkpt lat="45.83327" lon="3.20388">
        <ele>317</ele>
        <time>2018-02-13T23:15:41Z</time>
      </trkpt>
      <trkpt lat="45.83311" lon="3.20385">
        <ele>317</ele>
        <time>2018-02-13T23:15:45Z</time>
      </trkpt>
      <trkpt lat="45.83147" lon="3.20324">
        <ele>317</ele>
        <time>2018-02-13T23:15:52Z</time>
      </trkpt>
      <trkpt lat="45.83121" lon="3.20308">
        <ele>317</ele>
        <time>2018-02-13T23:15:58Z</time>
      </trkpt>
      <trkpt lat="45.82948" lon="3.20168">
        <ele>317</ele>
        <time>2018-02-13T23:16:16Z</time>
      </trkpt>
      <trkpt lat="45.82902" lon="3.20129">
        <ele>318</ele>
        <time>2018-02-13T23:16:21Z</time>
      </trkpt>
      <trkpt lat="45.82871" lon="3.20099">
        <ele>318</ele>
        <time>2018-02-13T23:16:32Z</time>
      </trkpt>
      <trkpt lat="45.82822" lon="3.20041">
        <ele>318</ele>
        <time>2018-02-13T23:16:46Z</time>
      </trkpt>
      <trkpt lat="45.82777" lon="3.19987">
        <ele>319</ele>
        <time>2018-02-13T23:16:51Z</time>
      </trkpt>
      <trkpt lat="45.8273" lon="3.19937">
        <ele>319</ele>
        <time>2018-02-13T23:17:03Z</time>
      </trkpt>
      <trkpt lat="45.82708" lon="3.19921">
        <ele>319</ele>
        <time>2018-02-13T23:17:23Z</time>
      </trkpt>
      <trkpt lat="45.82679" lon="3.19906">
        <ele>319</ele>
        <time>2018-02-13T23:17:31Z</time>
      </trkpt>
      <trkpt lat="45.82669" lon="3.19903">
        <ele>319</ele>
        <time>2018-02-13T23:17:40Z</time>
      </trkpt>
      <trkpt lat="45.82628" lon="3.19899">
        <ele>320</ele>
        <time>2018-02-13T23:17:55Z</time>
      </trkpt>
      <trkpt lat="45.82462" lon="3.19899">
        <ele>321</ele>
        <time>2018-02-13T23:18:03Z</time>
      </trkpt>
      <trkpt lat="45.82435" lon="3.19898">
        <ele>323</ele>
        <time>2018-02-13T23:18:18Z</time>
      </trkpt>
      <trkpt lat="45.82397" lon="3.19898">
        <ele>323</ele>
        <time>2018-02-13T23:18:23Z</time>
      </trkpt>
      <trkpt lat="45.82329" lon="3.19891">
        <ele>323</ele>
        <time>2018-02-13T23:18:43Z</time>
      </trkpt>
      <trkpt lat="45.82295" lon="3.19884">
        <ele>321</ele>
        <time>2018-02-13T23:19:00Z</time>
      </trkpt>
      <trkpt lat="45.82232" lon="3.19865">
        <ele>320</ele>
        <time>2018-02-13T23:19:17Z</time>
      </trkpt>
      <trkpt lat="45.82204" lon="3.19855">
        <ele>320</ele>
        <time>2018-02-13T23:19:19Z</time>
      </trkpt>
      <trkpt lat="45.8214" lon="3.19824">
        <ele>320</ele>
        <time>2018-02-13T23:19:38Z</time>
      </trkpt>
      <trkpt lat="45.82084" lon="3.19795">
        <ele>320</ele>
        <time>2018-02-13T23:19:50Z</time>
      </trkpt>
      <trkpt lat="45.82052" lon="3.19776">
        <ele>320</ele>
        <time>2018-02-13T23:19:56Z</time>
      </trkpt>
      <trkpt lat="45.8203" lon="3.19753">
        <ele>320</ele>
        <time>2018-02-13T23:20:03Z</time>
      </trkpt>
      <trkpt lat="45.82023" lon="3.19744">
        <ele>320</ele>
        <time>2018-02-13T23:20:11Z</time>
      </trkpt>
      <trkpt lat="45.82017" lon="3.19743">
        <ele>321</ele>
        <time>2018-02-13T23:20:25Z</time>
      </trkpt>
      <trkpt lat="45.82013" lon="3.19741">
        <ele>321</ele>
        <time>2018-02-13T23:20:44Z</time>
      </trkpt>
      <trkpt lat="45.81858" lon="3.19628">
        <ele>321</ele>
        <time>2018-02-13T23:21:00Z</time>
      </trkpt>
      <trkpt lat="45.81666" lon="3.1949">
        <ele>321</ele>
        <time>2018-02-13T23:21:12Z</time>
      </trkpt>
      <trkpt lat="45.81628" lon="3.19463">
        <ele>321</ele>
        <time>2018-02-13T23:21:19Z</time>
      </trkpt>
      <trkpt lat="45.81552" lon="3.19402">
        <ele>321</ele>
        <time>2018-02-13T23:21:23Z</time>
      </trkpt>
      <trkpt lat="45.81463" lon="3.1931">
        <ele>321</ele>
        <time>2018-02-13T23:21:28Z</time>
      </trkpt>
      <trkpt lat="45.81439" lon="3.19288">
        <ele>321</ele>
        <time>2018-02-13T23:21:34Z</time>
      </trkpt>
      <trkpt lat="45.81419" lon="3.19265">
        <ele>321</ele>
        <time>2018-02-13T23:21:39Z</time>
      </trkpt>
      <trkpt lat="45.81368" lon="3.1921">
        <ele>322</ele>
        <time>2018-02-13T23:21:50Z</time>
      </trkpt>
      <trkpt lat="45.81301" lon="3.19137">
        <ele>322</ele>
        <time>2018-02-13T23:21:58Z</time>
      </trkpt>
      <trkpt lat="45.81262" lon="3.19097">
        <ele>322</ele>
        <time>2018-02-13T23:22:00Z</time>
      </trkpt>
      <trkpt lat="45.8123" lon="3.19058">
        <ele>322</ele>
        <time>2018-02-13T23:22:17Z</time>
      </trkpt>
      <trkpt lat="45.81208" lon="3.19029">
        <ele>322</ele>
        <time>2018-02-13T23:22:26Z</time>
      </trkpt>
      <trkpt lat="45.81183" lon="3.19004">
        <ele>322</ele>
        <time>2018-02-13T23:22:43Z</time>
      </trkpt>
      <trkpt lat="45.81142" lon="3.18968">
        <ele>322</ele>
        <time>2018-02-13T23:23:02Z</time>
      </trkpt>
      <trkpt lat="45.8111" lon="3.18938">
        <ele>322</ele>
        <time>2018-02-13T23:23:05Z</time>
      </trkpt>
      <trkpt lat="45.81108" lon="3.18941">
        <ele>322</ele>
        <time>2018-02-13T23:23:18Z</time>
      </trkpt>
      <trkpt lat="45.81101" lon="3.18955">
        <ele>322</ele>
        <time>2018-02-13T23:23:30Z</time>
      </trkpt>
      <trkpt lat="45.81093" lon="3.18963">
        <ele>322</ele>
        <time>2018-02-13T23:23:49Z</time>
      </trkpt>
      <trkpt lat="45.81082" lon="3.18965">
        <ele>321</ele>
        <time>2018-02-13T23:24:00Z</time>
      </trkpt>
      <trkpt lat="45.81079" lon="3.18962">
        <ele>321</ele>
        <time>2018-02-13T23:24:20Z</time>
      </trkpt>
      <trkpt lat="45.81074" lon="3.18958">
        <ele>321</ele>
        <time>2018-02-13T23:24:35Z</time>
      </trkpt>
      <trkpt lat="45.81064" lon="3.18955">
        <ele>321</ele>
        <time>2018-02-13T23:24:50Z</time>
      </trkpt>
      <trkpt lat="45.81054" lon="3.18961">
        <ele>322</ele>
        <time>2018-02-13T23:24:55Z</time>
      </trkpt>
      <trkpt lat="45.81043" lon="3.18979">
        <ele>322</ele>
        <time>2018-02-13T23:25:10Z</time>
      </trkpt>
      <trkpt lat="45.81035" lon="3.18987">
        <ele>322</ele>
        <time>2018-02-13T23:25:12Z</time>
      </trkpt>
      <trkpt lat="45.81024" lon="3.18992">
        <ele>322</ele>
        <time>2018-02-13T23:25:32Z</time>
      </trkpt>
      <trkpt lat="45.81011" lon="3.18991">
        <ele>322</ele>
        <time>2018-02-13T23:25:51Z</time>
      </trkpt>
      <trkpt lat="45.80996" lon="3.18988">
        <ele>322</ele>
        <time>2018-02-13T23:26:06Z</time>
      </trkpt>
      <trkpt lat="45.80985" lon="3.18988">
        <ele>322</ele>
        <time>2018-02-13T23:26:26Z</time>
      </trkpt>
      <trkpt lat="45.80904" lon="3.18949">
        <ele>322</ele>
        <time>2018-02-13T23:26:34Z</time>
      </trkpt>
      <trkpt lat="45.80813" lon="3.18903">
        <ele>322</ele>
        <time>2018-02-13T23:26:42Z</time>
      </trkpt>
      <trkpt lat="45.80793" lon="3.18891">
        <ele>322</ele>
        <time>2018-02-13T23:26:50Z</time>
      </trkpt>
      <trkpt lat="45.80776" lon="3.18877">
        <ele>322</ele>
        <time>2018-02-13T23:27:10Z</time>
      </trkpt>
      <trkpt lat="45.80698" lon="3.18795">
        <ele>323</ele>
        <time>2018-02-13T23:27:15Z</time>
      </trkpt>
      <trkpt lat="45.80618" lon="3.18707">
        <ele>323</ele>
        <time>2018-02-13T23:27:22Z</time>
      </trkpt>
      <trkpt lat="45.80494" lon="3.18572">
        <ele>324</ele>
        <time>2018-02-13T23:27:41Z</time>
      </trkpt>
      <trkpt lat="45.8047" lon="3.18543">
        <ele>324</ele>
        <time>2018-02-13T23:27:49Z</time>
      </trkpt>
      <trkpt lat="45.8045" lon="3.18507">
        <ele>324</ele>
        <time>2018-02-13T23:27:57Z</time>
      </trkpt>
      <trkpt lat="45.80428" lon="3.18455">
        <ele>323</ele>
        <time>2018-02-13T23:28:05Z</time>
      </trkpt>
      <trkpt lat="45.80391" lon="3.18349">
        <ele>323</ele>
        <time>2018-02-13T23:28:13Z</time>
      </trkpt>
      <trkpt lat="45.80362" lon="3.18235">
        <ele>323</ele>
        <time>2018-02-13T23:28:21Z</time>
      </trkpt>
      <trkpt lat="45.80305" lon="3.18054">
        <ele>323</ele>
        <time>2018-02-13T23:28:31Z</time>
      </trkpt>
      <trkpt lat="45.80264" lon="3.17926">
        <ele>323</ele>
        <time>2018-02-13T23:28:43Z</time>
      </trkpt>
      <trkpt lat="45.80211" lon="3.17751">
        <ele>323</ele>
        <time>2018-02-13T23:28:45Z</time>
      </trkpt>
      <trkpt lat="45.80198" lon="3.17714">
        <ele>323</ele>
        <time>2018-02-13T23:28:56Z</time>
      </trkpt>
      <trkpt lat="45.80164" lon="3.1762">
        <ele>323</ele>
        <time>2018-02-13T23:29:10Z</time>
      </trkpt>
      <trkpt lat="45.8015" lon="3.17591">
        <ele>324</ele>
        <time>2018-02-13T23:29:21Z</time>
      </trkpt>
      <trkpt lat="45.80128" lon="3.17547">
        <ele>324</ele>
        <time>2018-02-13T23:29:36Z</time>
      </trkpt>
      <trkpt lat="45.8012" lon="3.17534">
        <ele>324</ele>
        <time>2018-02-13T23:29:50Z</time>
      </trkpt>
      <trkpt lat="45.80114" lon="3.17515">
        <ele>324</ele>
        <time>2018-02-13T23:30:05Z</time>
      </trkpt>
      <trkpt lat="45.80108" lon="3.17489">
        <ele>324</ele>
        <time>2018-02-13T23:30:07Z</time>
      </trkpt>
      <trkpt lat="45.80105" lon="3.1746">
        <ele>324</ele>
        <time>2018-02-13T23:30:21Z</time>
      </trkpt>
      <trkpt lat="45.80086" lon="3.1746">
        <ele>324</ele>
        <time>2018-02-13T23:30:40Z</time>
      </trkpt>
      <trkpt lat="45.80085" lon="3.17458">
        <ele>324</ele>
        <time>2018-02-13T23:30:57Z</time>
      </trkpt>
      <trkpt lat="45.79964" lon="3.17197">
        <ele>325</ele>
        <time>2018-02-13T23:31:06Z</time>
      </trkpt>
      <trkpt lat="45.79934" lon="3.17139">
        <ele>325</ele>
        <time>2018-02-13T23:31:22Z</time>
      </trkpt>
      <trkpt lat="45.7993" lon="3.17124">
        <ele>325</ele>
        <time>2018-02-13T23:31:34Z</time>
      </trkpt>
      <trkpt lat="45.79927" lon="3.17108">
        <ele>325</ele>
        <time>2018-02-13T23:31:54Z</time>
      </trkpt>
      <trkpt lat="45.79927" lon="3.171">
        <ele>325</ele>
        <time>2018-02-13T23:32:02Z</time>
      </trkpt>
      <trkpt lat="45.79922" lon="3.17094">
        <ele>325</ele>
        <time>2018-02-13T23:32:07Z</time>
      </trkpt>
      <trkpt lat="45.79918" lon="3.17094">
        <ele>325</ele>
        <time>2018-02-13T23:32:16Z</time>
      </trkpt>
      <trkpt lat="45.79912" lon="3.17089">
        <ele>325</ele>
        <time>2018-02-13T23:32:21Z</time>
      </trkpt>
      <trkpt lat="45.799" lon="3.17073">
        <ele>325</ele>
        <time>2018-02-13T23:32:37Z</time>
      </trkpt>
      <trkpt lat="45.79805" lon="3.16886">
        <ele>325</ele>
        <time>2018-02-13T23:32:50Z</time>
      </trkpt>
      <trkpt lat="45.79766" lon="3.16809">
        <ele>325</ele>
        <time>2018-02-13T23:32:55Z</time>
      </trkpt>
      <trkpt lat="45.79757" lon="3.16788">
        <ele>325</ele>
        <time>2018-02-13T23:33:00Z</time>
      </trkpt>
      <trkpt lat="45.79717" lon="3.16678">
        <ele>325</ele>
        <time>2018-02-13T23:33:07Z</time>
      </trkpt>
      <trkpt lat="45.79699" lon="3.16631">
        <ele>325</ele>
        <time>2018-02-13T23:33:12Z</time>
      </trkpt>
      <trkpt lat="45.79685" lon="3.16591">
        <ele>325</ele>
        <time>2018-02-13T23:33:17Z</time>
      </trkpt>
      <trkpt lat="45.79678" lon="3.16564">
        <ele>325</ele>
        <time>2018-02-13T23:33:26Z</time>
      </trkpt>
      <trkpt lat="45.79672" lon="3.16529">
        <ele>325</ele>
        <time>2018-02-13T23:33:46Z</time>
      </trkpt>
      <trkpt lat="45.79665" lon="3.16448">
        <ele>326</ele>
        <time>2018-02-13T23:33:59Z</time>
      </trkpt>
      <trkpt lat="45.79656" lon="3.16431">
        <ele>326</ele>
        <time>2018-02-13T23:34:02Z</time>
      </trkpt>
      <trkpt lat="45.79647" lon="3.16422">
        <ele>327</ele>
        <time>2018-02-13T23:34:06Z</time>
      </trkpt>
      <trkpt lat="45.79627" lon="3.16406">
        <ele>327</ele>
        <time>2018-02-13T23:34:15Z</time>
      </trkpt>
      <trkpt lat="45.79628" lon="3.16389">
        <ele>327</ele>
        <time>2018-02-13T23:34:28Z</time>
      </trkpt>
      <trkpt lat="45.79624" lon="3.1635">
        <ele>327</ele>
        <time>2018-02-13T23:34:47Z</time>
      </trkpt>
      <trkpt lat="45.7962" lon="3.16323">
        <ele>326</ele>
        <time>2018-02-13T23:34:52Z</time>
      </trkpt>
      <trkpt lat="45.79612" lon="3.16321">
        <ele>326</ele>
        <time>2018-02-13T23:34:58Z</time>
      </trkpt>
      <trkpt lat="45.79592" lon="3.16318">
        <ele>326</ele>
        <time>2018-02-13T23:35:17Z</time>
      </trkpt>
      <trkpt lat="45.79548" lon="3.16321">
        <ele>327</ele>
        <time>2018-02-13T23:35:29Z</time>
      </trkpt>
      <trkpt lat="45.79532" lon="3.16312">
        <ele>327</ele>
        <time>2018-02-13T23:35:39Z</time>
      </trkpt>
      <trkpt lat="45.79523" lon="3.16302">
        <ele>328</ele>
        <time>2018-02-13T23:35:44Z</time>
      </trkpt>
      <trkpt lat="45.79518" lon="3.16294">
        <ele>328</ele>
        <time>2018-02-13T23:35:50Z</time>
      </trkpt>
      <trkpt lat="45.79511" lon="3.1629">
        <ele>328</ele>
        <time>2018-02-13T23:36:02Z</time>
      </trkpt>
      <trkpt lat="45.79485" lon="3.16285">
        <ele>327</ele>
        <time>2018-02-13T23:36:16Z</time>
      </trkpt>
      <trkpt lat="45.79463" lon="3.16284">
        <ele>326</ele>
        <time>2018-02-13T23:36:36Z</time>
      </trkpt>
      <trkpt lat="45.79448" lon="3.16285">
        <ele>326</ele>
        <time>2018-02-13T23:36:50Z</time>
      </trkpt>
      <trkpt lat="45.79436" lon="3.16289">
        <ele>326</ele>
        <time>2018-02-13T23:36:53Z</time>
      </trkpt>
      <trkpt lat="45.79427" lon="3.1625">
        <ele>327</ele>
        <time>2018-02-13T23:37:07Z</time>
      </trkpt>
      <trkpt lat="45.79402" lon="3.16122">
        <ele>327</ele>
        <time>2018-02-13T23:37:09Z</time>
      </trkpt>
      <trkpt lat="45.79396" lon="3.16048">
        <ele>328</ele>
        <time>2018-02-13T23:37:17Z</time>
      </trkpt>
      <trkpt lat="45.7939" lon="3.15937">
        <ele>328</ele>
        <time>2018-02-13T23:37:29Z</time>
      </trkpt>
      <trkpt lat="45.79387" lon="3.15923">
        <ele>328</ele>
        <time>2018-02-13T23:37:33Z</time>
      </trkpt>
      <trkpt lat="45.79387" lon="3.15904">
        <ele>328</ele>
        <time>2018-02-13T23:37:47Z</time>
      </trkpt>
      <trkpt lat="45.79378" lon="3.15763">
        <ele>328</ele>
        <time>2018-02-13T23:38:06Z</time>
      </trkpt>
      <trkpt lat="45.79372" lon="3.15691">
        <ele>328</ele>
        <time>2018-02-13T23:38:19Z</time>
      </trkpt>
      <trkpt lat="45.79364" lon="3.15657">
        <ele>329</ele>
        <time>2018-02-13T23:38:26Z</time>
      </trkpt>
      <trkpt lat="45.79338" lon="3.15526">
        <ele>329</ele>
        <time>2018-02-13T23:38:33Z</time>
      </trkpt>
      <trkpt lat="45.79311" lon="3.15395">
        <ele>329</ele>
        <time>2018-02-13T23:38:53Z</time>
      </trkpt>
      <trkpt lat="45.79304" lon="3.1537">
        <ele>329</ele>
        <time>2018-02-13T23:38:58Z</time>
      </trkpt>
      <trkpt lat="45.79299" lon="3.15357">
        <ele>329</ele>
        <time>2018-02-13T23:39:15Z</time>
      </trkpt>
      <trkpt lat="45.79287" lon="3.15337">
        <ele>329</ele>
        <time>2018-02-13T23:39:20Z</time>
      </trkpt>
      <trkpt lat="45.79278" lon="3.15329">
        <ele>329</ele>
        <time>2018-02-13T23:39:35Z</time>
      </trkpt>
      <trkpt lat="45.79268" lon="3.15324">
        <ele>329</ele>
        <time>2018-02-13T23:39:48Z</time>
      </trkpt>
      <trkpt lat="45.79244" lon="3.15321">
        <ele>329</ele>
        <time>2018-02-13T23:40:08Z</time>
      </trkpt>
      <trkpt lat="45.79243" lon="3.15321">
        <ele>329</ele>
        <time>2018-02-13T23:40:11Z</time>
      </trkpt>
      <trkpt lat="45.7923" lon="3.15321">
        <ele>329</ele>
        <time>2018-02-13T23:40:20Z</time>
      </trkpt>
      <trkpt lat="45.79225" lon="3.15314">
        <ele>329</ele>
        <time>2018-02-13T23:40:38Z</time>
      </trkpt>
      <trkpt lat="45.79221" lon="3.15302">
        <ele>329</ele>
        <time>2018-02-13T23:40:49Z</time>
      </trkpt>
      <trkpt lat="45.79229" lon="3.15162">
        <ele>329</ele>
        <time>2018-02-13T23:40:55Z</time>
      </trkpt>
      <trkpt lat="45.79242" lon="3.14901">
        <ele>329</ele>
        <time>2018-02-13T23:41:03Z</time>
      </trkpt>
      <trkpt lat="45.79235" lon="3.14902">
        <ele>329</ele>
        <time>2018-02-13T23:41:20Z</time>
      </trkpt>
      <trkpt lat="45.79234" lon="3.14914">
        <ele>329</ele>
        <time>2018-02-13T23:41:25Z</time>
      </trkpt>
      <trkpt lat="45.79232" lon="3.14946">
        <ele>329</ele>
        <time>2018-02-13T23:41:36Z</time>
      </trkpt>
      <trkpt lat="45.7923" lon="3.1498">
        <ele>329</ele>
        <time>2018-02-13T23:41:56Z</time>
      </trkpt>
      <trkpt lat="45.79219" lon="3.14973">
        <ele>329</ele>
        <time>2018-02-13T23:42:04Z</time>
      </trkpt>
      <trkpt lat="45.79208" lon="3.14967">
        <ele>329</ele>
        <time>2018-02-13T23:42:06Z</time>
      </trkpt>
      <trkpt lat="45.79189" lon="3.14963">
        <ele>329</ele>
        <time>2018-02-13T23:42:20Z</time>
      </trkpt>
      <trkpt lat="45.79208" lon="3.14967">
        <ele>329</ele>
        <time>2018-02-13T23:42:29Z</time>
      </trkpt>
      <trkpt lat="45.79219" lon="3.14973">
        <ele>329</ele>
        <time>2018-02-13T23:42:33Z</time>
      </trkpt>
      <trkpt lat="45.7923" lon="3.1498">
        <ele>329</ele>
        <time>2018-02-13T23:42:49Z</time>
      </trkpt>
      <trkpt lat="45.79232" lon="3.14946">
        <ele>329</ele>
        <time>2018-02-13T23:43:01Z</time>
      </trkpt>
      <trkpt lat="45.79234" lon="3.14914">
        <ele>329</ele>
        <time>2018-02-13T23:43:13Z</time>
      </trkpt>
      <trkpt lat="45.79235" lon="3.14902">
        <ele>329</ele>
        <time>2018-02-13T23:43:32Z</time>
      </trkpt>
      <trkpt lat="45.79242" lon="3.14901">
        <ele>330</ele>
        <time>2018-02-13T23:43:41Z</time>
      </trkpt>
      <trkpt lat="45.79244" lon="3.14844">
        <ele>330</ele>
        <time>2018-02-13T23:43:46Z</time>
      </trkpt>
      <trkpt lat="45.79248" lon="3.14767">
        <ele>330</ele>
        <time>2018-02-13T23:43:54Z</time>
      </trkpt>
      <trkpt lat="45.79254" lon="3.14663">
        <ele>331</ele>
        <time>2018-02-13T23:44:02Z</time>
      </trkpt>
      <trkpt lat="45.79256" lon="3.14637">
        <ele>331</ele>
        <time>2018-02-13T23:44:06Z</time>
      </trkpt>
      <trkpt lat="45.79261" lon="3.14581">
        <ele>331</ele>
        <time>2018-02-13T23:44:22Z</time>
      </trkpt>
      <trkpt lat="45.7926" lon="3.14558">
        <ele>331</ele>
        <time>2018-02-13T23:44:32Z</time>
      </trkpt>
      <trkpt lat="45.79257" lon="3.14544">
        <ele>331</ele>
        <time>2018-02-13T23:44:38Z</time>
      </trkpt>
      <trkpt lat="45.79262" lon="3.14551">
        <ele>331</ele>
        <time>2018-02-13T23:44:47Z</time>
      </trkpt>
      <trkpt lat="45.79264" lon="3.1456">
        <ele>331</ele>
        <time>2018-02-13T23:45:07Z</time>
      </trkpt>
      <trkpt lat="45.79266" lon="3.14589">
        <ele>331</ele>
        <time>2018-02-13T23:45:12Z</time>
      </trkpt>
      <trkpt lat="45.79265" lon="3.14612">
        <ele>332</ele>
        <time>2018-02-13T23:45:18Z</time>
      </trkpt>
      <trkpt lat="45.79159" lon="3.14477">
        <ele>332</ele>
        <time>2018-02-13T23:45:21Z</time>
      </trkpt>
      <trkpt lat="45.79143" lon="3.14459">
        <ele>332</ele>
        <time>2018-02-13T23:45:33Z</time>
      </trkpt>
      <trkpt lat="45.7911" lon="3.1441">
        <ele>331</ele>
        <time>2018-02-13T23:45:40Z</time>
      </trkpt>
      <trkpt lat="45.79078" lon="3.14358">
        <ele>331</ele>
        <time>2018-02-13T23:45:57Z</time>
      </trkpt>
      <trkpt lat="45.79036" lon="3.14281">
        <ele>331</ele>
        <time>2018-02-13T23:46:04Z</time>
      </trkpt>
      <trkpt lat="45.78983" lon="3.14183">
        <ele>332</ele>
        <time>2018-02-13T23:46:16Z</time>
      </trkpt>
      <trkpt lat="45.78957" lon="3.14141">
        <ele>332</ele>
        <time>2018-02-13T23:46:20Z</time>
      </trkpt>
      <trkpt lat="45.78921" lon="3.14088">
        <ele>333</ele>
        <time>2018-02-13T23:46:37Z</time>
      </trkpt>
      <trkpt lat="45.78872" lon="3.14029">
        <ele>333</ele>
        <time>2018-02-13T23:46:50Z</time>
      </trkpt>
      <trkpt lat="45.78821" lon="3.13979">
        <ele>332</ele>
        <time>2018-02-13T23:47:04Z</time>
      </trkpt>
      <trkpt lat="45.78818" lon="3.13975">
        <ele>332</ele>
        <time>2018-02-13T23:47:21Z</time>
      </trkpt>
      <trkpt lat="45.78813" lon="3.13968">
        <ele>332</ele>
        <time>2018-02-13T23:47:25Z</time>
      </trkpt>
      <trkpt lat="45.78804" lon="3.13965">
        <ele>332</ele>
        <time>2018-02-13T23:47:36Z</time>
      </trkpt>
      <trkpt lat="45.78796" lon="3.13956">
        <ele>332</ele>
        <time>2018-02-13T23:47:47Z</time>
      </trkpt>
      <trkpt lat="45.78794" lon="3.13948">
        <ele>332</ele>
        <time>2018-02-13T23:48:02Z</time>
      </trkpt>
      <trkpt lat="45.78779" lon="3.13962">
        <ele>332</ele>
        <time>2018-02-13T23:48:04Z</time>
      </trkpt>
      <trkpt lat="45.78755" lon="3.13984">
        <ele>332</ele>
        <time>2018-02-13T23:48:12Z</time>
      </trkpt>
      <trkpt lat="45.78744" lon="3.13984">
        <ele>332</ele>
        <time>2018-02-13T23:48:24Z</time>
      </trkpt>
      <trkpt lat="45.78724" lon="3.13994">
        <ele>332</ele>
        <time>2018-02-13T23:48:42Z</time>
      </trkpt>
      <trkpt lat="45.78709" lon="3.13998">
        <ele>332</ele>
        <time>2018-02-13T23:48:46Z</time>
      </trkpt>
      <trkpt lat="45.78692" lon="3.14">
        <ele>332</ele>
        <time>2018-02-13T23:48:48Z</time>
      </trkpt>
      <trkpt lat="45.78624" lon="3.13997">
        <ele>331</ele>
        <time>2018-02-13T23:49:04Z</time>
      </trkpt>
      <trkpt lat="45.78597" lon="3.13998">
        <ele>331</ele>
        <time>2018-02-13T23:49:13Z</time>
      </trkpt>
      <trkpt lat="45.7858" lon="3.14003">
        <ele>331</ele>
        <time>2018-02-13T23:49:33Z</time>
      </trkpt>
      <trkpt lat="45.78563" lon="3.14011">
        <ele>331</ele>
        <time>2018-02-13T23:49:48Z</time>
      </trkpt>
      <trkpt lat="45.78555" lon="3.14012">
        <ele>332</ele>
        <time>2018-02-13T23:49:50Z</time>
      </trkpt>
      <trkpt lat="45.78538" lon="3.14013">
        <ele>332</ele>
        <time>2018-02-13T23:49:52Z</time>
      </trkpt>
      <trkpt lat="45.78533" lon="3.14012">
        <ele>333</ele>
        <time>2018-02-13T23:49:59Z</time>
      </trkpt>
      <trkpt lat="45.78527" lon="3.14013">
        <ele>333</ele>
        <time>2018-02-13T23:50:15Z</time>
      </trkpt>
      <trkpt lat="45.78523" lon="3.14016">
        <ele>332</ele>
        <time>2018-02-13T23:50:21Z</time>
      </trkpt>
      <trkpt lat="45.78516" lon="3.14027">
        <ele>332</ele>
        <time>2018-02-13T23:50:35Z</time>
      </trkpt>
      <trkpt lat="45.78515" lon="3.14034">
        <ele>332</ele>
        <time>2018-02-13T23:50:46Z</time>
      </trkpt>
      <trkpt lat="45.78509" lon="3.14019">
        <ele>332</ele>
        <time>2018-02-13T23:50:57Z</time>
      </trkpt>
      <trkpt lat="45.78496" lon="3.13998">
        <ele>332</ele>
        <time>2018-02-13T23:51:12Z</time>
      </trkpt>
      <trkpt lat="45.78483" lon="3.13982">
        <ele>333</ele>
        <time>2018-02-13T23:51:20Z</time>
      </trkpt>
      <trkpt lat="45.78212" lon="3.1369">
        <ele>333</ele>
        <time>2018-02-13T23:51:23Z</time>
      </trkpt>
      <trkpt lat="45.78193" lon="3.13673">
        <ele>333</ele>
        <time>2018-02-13T23:51:35Z</time>
      </trkpt>
      <trkpt lat="45.78171" lon="3.13656">
        <ele>333</ele>
        <time>2018-02-13T23:51:41Z</time>
      </trkpt>
      <trkpt lat="45.78152" lon="3.13645">
        <ele>333</ele>
        <time>2018-02-13T23:51:48Z</time>
      </trkpt>
      <trkpt lat="45.78124" lon="3.13635">
        <ele>333</ele>
        <time>2018-02-13T23:52:01Z</time>
      </trkpt>
      <trkpt lat="45.78098" lon="3.13628">
        <ele>333</ele>
        <time>2018-02-13T23:52:08Z</time>
      </trkpt>
      <trkpt lat="45.78074" lon="3.13628">
        <ele>333</ele>
        <time>2018-02-13T23:52:17Z</time>
      </trkpt>
      <trkpt lat="45.78054" lon="3.1363">
        <ele>333</ele>
        <time>2018-02-13T23:52:34Z</time>
      </trkpt>
      <trkpt lat="45.78013" lon="3.13642">
        <ele>333</ele>
        <time>2018-02-13T23:52:50Z</time>
      </trkpt>
      <trkpt lat="45.77993" lon="3.13651">
        <ele>333</ele>
        <time>2018-02-13T23:53:07Z</time>
      </trkpt>
      <trkpt lat="45.77977" lon="3.1367">
        <ele>334</ele>
        <time>2018-02-13T23:53:25Z</time>
      </trkpt>
      <trkpt lat="45.77972" lon="3.13678">
        <ele>334</ele>
        <time>2018-02-13T23:53:32Z</time>
      </trkpt>
      <trkpt lat="45.77972" lon="3.13671">
        <ele>334</ele>
        <time>2018-02-13T23:53:42Z</time>
      </trkpt>
      <trkpt lat="45.7797" lon="3.13656">
        <ele>334</ele>
        <time>2018-02-13T23:53:46Z</time>
      </trkpt>
      <trkpt lat="45.77962" lon="3.13642">
        <ele>334</ele>
        <time>2018-02-13T23:54:04Z</time>
      </trkpt>
      <trkpt lat="45.77955" lon="3.13637">
        <ele>334</ele>
        <time>2018-02-13T23:54:09Z</time>
      </trkpt>
      <trkpt lat="45.77945" lon="3.13635">
        <ele>335</ele>
        <time>2018-02-13T23:54:17Z</time>
      </trkpt>
      <trkpt lat="45.77936" lon="3.13639">
        <ele>335</ele>
        <time>2018-02-13T23:54:36Z</time>
      </trkpt>
      <trkpt lat="45.77931" lon="3.13644">
        <ele>335</ele>
        <time>2018-02-13T23:54:41Z</time>
      </trkpt>
      <trkpt lat="45.77928" lon="3.13647">
        <ele>334</ele>
        <time>2018-02-13T23:54:53Z</time>
      </trkpt>
      <trkpt lat="45.77922" lon="3.13649">
        <ele>334</ele>
        <time>2018-02-13T23:55:10Z</time>
      </trkpt>
      <trkpt lat="45.77912" lon="3.13647">
        <ele>334</ele>
        <time>2018-02-13T23:55:13Z</time>
      </trkpt>
      <trkpt lat="45.77902" lon="3.13643">
        <ele>334</ele>
        <time>2018-02-13T23:55:31Z</time>
      </trkpt>
      <trkpt lat="45.77857" lon="3.13614">
        <ele>334</ele>
        <time>2018-02-13T23:55:51Z</time>
      </trkpt>
      <trkpt lat="45.77817" lon="3.13587">
        <ele>334</ele>
        <time>2018-02-13T23:55:59Z</time>
      </trkpt>
      <trkpt lat="45.77798" lon="3.13577">
        <ele>334</ele>
        <time>2018-02-13T23:56:02Z</time>
      </trkpt>
      <trkpt lat="45.77784" lon="3.13574">
        <ele>334</ele>
        <time>2018-02-13T23:56:07Z</time>
      </trkpt>
      <trkpt lat="45.77782" lon="3.13576">
        <ele>334</ele>
        <time>2018-02-13T23:56:20Z</time>
      </trkpt>
      <trkpt lat="45.77778" lon="3.13578">
        <ele>334</ele>
        <time>2018-02-13T23:56:36Z</time>
      </trkpt>
      <trkpt lat="45.77773" lon="3.13579">
        <ele>334</ele>
        <time>2018-02-13T23:56:39Z</time>
      </trkpt>
      <trkpt lat="45.77766" lon="3.13575">
        <ele>334</ele>
        <time>2018-02-13T23:56:53Z</time>
      </trkpt>
      <trkpt lat="45.7776" lon="3.13566">
        <ele>334</ele>
        <time>2018-02-13T23:57:02Z</time>
      </trkpt>
      <trkpt lat="45.77756" lon="3.13557">
        <ele>334</ele>
        <time>2018-02-13T23:57:21Z</time>
      </trkpt>
      <trkpt lat="45.77749" lon="3.1355">
        <ele>334</ele>
        <time>2018-02-13T23:57:33Z</time>
      </trkpt>
      <trkpt lat="45.77732" lon="3.13537">
        <ele>334</ele>
        <time>2018-02-13T23:57:39Z</time>
      </trkpt>
      <trkpt lat="45.77705" lon="3.13525">
        <ele>334</ele>
        <time>2018-02-13T23:57:55Z</time>
      </trkpt>
      <trkpt lat="45.77645" lon="3.13499">
        <ele>334</ele>
        <time>2018-02-13T23:58:12Z</time>
      </trkpt>
      <trkpt lat="45.7764" lon="3.13497">
        <ele>335</ele>
        <time>2018-02-13T23:58:25Z</time>
      </trkpt>
      <trkpt lat="45.77639" lon="3.13496">
        <ele>334</ele>
        <time>2018-02-13T23:58:44Z</time>
      </trkpt>
      <trkpt lat="45.77658" lon="3.13505">
        <ele>334</ele>
        <time>2018-02-13T23:59:00Z</time>
      </trkpt>
      <trkpt lat="45.77665" lon="3.13468">
        <ele>333</ele>
        <time>2018-02-13T23:59:20Z</time>
      </trkpt>
      <trkpt lat="45.77673" lon="3.13413">
        <ele>334</ele>
        <time>2018-02-13T23:59:34Z</time>
      </trkpt>
      <trkpt lat="45.77693" lon="3.1331">
        <ele>336</ele>
        <time>2018-02-13T23:59:46Z</time>
      </trkpt>
      <trkpt lat="45.77709" lon="3.13252">
        <ele>338</ele>
        <time>2018-02-14T00:00:02Z</time>
      </trkpt>
      <trkpt lat="45.77718" lon="3.13232">
        <ele>339</ele>
        <time>2018-02-14T00:00:17Z</time>
      </trkpt>
      <trkpt lat="45.77722" lon="3.13228">
        <ele>339</ele>
        <time>2018-02-14T00:00:21Z</time>
      </trkpt>
      <trkpt lat="45.77721" lon="3.13093">
        <ele>338</ele>
        <time>2018-02-14T00:00:27Z</time>
      </trkpt>
      <trkpt lat="45.77574" lon="3.12962">
        <ele>336</ele>
        <time>2018-02-14T00:00:34Z</time>
      </trkpt>
      <trkpt lat="45.77578" lon="3.12943">
        <ele>335</ele>
        <time>2018-02-14T00:00:44Z</time>
      </trkpt>
      <trkpt lat="45.77579" lon="3.12926">
        <ele>335</ele>
        <time>2018-02-14T00:01:01Z</time>
      </trkpt>
      <trkpt lat="45.77577" lon="3.12909">
        <ele>335</ele>
        <time>2018-02-14T00:01:12Z</time>
      </trkpt>
      <trkpt lat="45.77567" lon="3.12871">
        <ele>336</ele>
        <time>2018-02-14T00:01:26Z</time>
      </trkpt>
      <trkpt lat="45.77523" lon="3.12778">
        <ele>338</ele>
        <time>2018-02-14T00:01:43Z</time>
      </trkpt>
      <trkpt lat="45.77481" lon="3.12694">
        <ele>340</ele>
        <time>2018-02-14T00:02:00Z</time>
      </trkpt>
      <trkpt lat="45.77449" lon="3.12629">
        <ele>343</ele>
        <time>2018-02-14T00:02:20Z</time>
      </trkpt>
      <trkpt lat="45.77408" lon="3.12519">
        <ele>348</ele>
        <time>2018-02-14T00:02:28Z</time>
      </trkpt>
      <trkpt lat="45.77375" lon="3.12429">
        <ele>352</ele>
        <time>2018-02-14T00:02:41Z</time>
      </trkpt>
      <trkpt lat="45.77362" lon="3.12388">
        <ele>355</ele>
        <time>2018-02-14T00:02:44Z</time>
      </trkpt>
      <trkpt lat="45.77356" lon="3.12356">
        <ele>357</ele>
        <time>2018-02-14T00:03:00Z</time>
      </trkpt>
      <trkpt lat="45.77349" lon="3.12306">
        <ele>358</ele>
        <time>2018-02-14T00:03:19Z</time>
      </trkpt>
      <trkpt lat="45.77342" lon="3.12268">
        <ele>359</ele>
        <time>2018-02-14T00:03:29Z</time>
      </trkpt>
      <trkpt lat="45.77317" lon="3.12168">
        <ele>360</ele>
        <time>2018-02-14T00:03:48Z</time>
      </trkpt>
      <trkpt lat="45.77316" lon="3.12151">
        <ele>360</ele>
        <time>2018-02-14T00:03:57Z</time>
      </trkpt>
      <trkpt lat="45.77316" lon="3.12143">
        <ele>360</ele>
        <time>2018-02-14T00:04:01Z</time>
      </trkpt>
      <trkpt lat="45.77317" lon="3.1214">
        <ele>360</ele>
        <time>2018-02-14T00:04:19Z</time>
      </trkpt>
      <trkpt lat="45.77317" lon="3.12136">
        <ele>360</ele>
        <time>2018-02-14T00:04:38Z</time>
      </trkpt>
      <trkpt lat="45.77315" lon="3.1213">
        <ele>360</ele>
        <time>2018-02-14T00:04:57Z</time>
      </trkpt>
      <trkpt lat="45.77312" lon="3.12124">
        <ele>360</ele>
        <time>2018-02-14T00:05:00Z</time>
      </trkpt>
      <trkpt lat="45.77307" lon="3.12122">
        <ele>360</ele>
        <time>2018-02-14T00:05:06Z</time>
      </trkpt>
      <trkpt lat="45.77302" lon="3.12122">
        <ele>360</ele>
        <time>2018-02-14T00:05:11Z</time>
      </trkpt>
      <trkpt lat="45.77297" lon="3.12125">
        <ele>360</ele>
        <time>2018-02-14T00:05:25Z</time>
      </trkpt>
      <trkpt lat="45.77295" lon="3.12129">
        <ele>360</ele>
        <time>2018-02-14T00:05:32Z</time>
      </trkpt>
      <trkpt lat="45.77294" lon="3.12132">
        <ele>360</ele>
        <time>2018-02-14T00:05:41Z</time>
      </trkpt>
      <trkpt lat="45.77293" lon="3.12134">
        <ele>360</ele>
        <time>2018-02-14T00:05:46Z</time>
      </trkpt>
      <trkpt lat="45.7729" lon="3.12128">
        <ele>360</ele>
        <time>2018-02-14T00:06:01Z</time>
      </trkpt>
      <trkpt lat="45.77286" lon="3.12122">
        <ele>360</ele>
        <time>2018-02-14T00:06:20Z</time>
      </trkpt>
      <trkpt lat="45.77278" lon="3.12117">
        <ele>360</ele>
        <time>2018-02-14T00:06:26Z</time>
      </trkpt>
      <trkpt lat="45.77267" lon="3.12114">
        <ele>360</ele>
        <time>2018-02-14T00:06:39Z</time>
      </trkpt>
      <trkpt lat="45.77243" lon="3.12133">
        <ele>360</ele>
        <time>2018-02-14T00:06:53Z</time>
      </trkpt>
      <trkpt lat="45.77123" lon="3.1223">
        <ele>360</ele>
        <time>2018-02-14T00:07:01Z</time>
      </trkpt>
      <trkpt lat="45.77003" lon="3.12324">
        <ele>359</ele>
        <time>2018-02-14T00:07:12Z</time>
      </trkpt>
      <trkpt lat="45.76874" lon="3.12425">
        <ele>358</ele>
        <time>2018-02-14T00:07:22Z</time>
      </trkpt>
      <trkpt lat="45.76875" lon="3.1241">
        <ele>358</ele>
        <time>2018-02-14T00:07:24Z</time>
      </trkpt>
      <trkpt lat="45.76845" lon="3.12432">
        <ele>357</ele>
        <time>2018-02-14T00:07:38Z</time>
      </trkpt>
      <trkpt lat="45.76812" lon="3.12453">
        <ele>355</ele>
        <time>2018-02-14T00:07:43Z</time>
      </trkpt>
      <trkpt lat="45.76771" lon="3.12474">
        <ele>352</ele>
        <time>2018-02-14T00:07:53Z</time>
      </trkpt>
      <trkpt lat="45.76735" lon="3.12489">
        <ele>350</ele>
        <time>2018-02-14T00:08:11Z</time>
      </trkpt>
      <trkpt lat="45.76704" lon="3.12498">
        <ele>348</ele>
        <time>2018-02-14T00:08:24Z</time>
      </trkpt>
      <trkpt lat="45.76528" lon="3.12543">
        <ele>348</ele>
        <time>2018-02-14T00:08:33Z</time>
      </trkpt>
      <trkpt lat="45.76485" lon="3.1255">
        <ele>348</ele>
        <time>2018-02-14T00:08:37Z</time>
      </trkpt>
      <trkpt lat="45.76452" lon="3.1255">
        <ele>348</ele>
        <time>2018-02-14T00:08:46Z</time>
      </trkpt>
      <trkpt lat="45.76437" lon="3.12547">
        <ele>348</ele>
        <time>2018-02-14T00:08:58Z</time>
      </trkpt>
      <trkpt lat="45.76427" lon="3.1255">
        <ele>349</ele>
        <time>2018-02-14T00:09:08Z</time>
      </trkpt>
      <trkpt lat="45.76424" lon="3.12552">
        <ele>349</ele>
        <time>2018-02-14T00:09:22Z</time>
      </trkpt>
      <trkpt lat="45.76428" lon="3.12538">
        <ele>349</ele>
        <time>2018-02-14T00:09:32Z</time>
      </trkpt>
      <trkpt lat="45.76447" lon="3.12506">
        <ele>349</ele>
        <time>2018-02-14T00:09:52Z</time>
      </trkpt>
      <trkpt lat="45.76458" lon="3.12488">
        <ele>349</ele>
        <time>2018-02-14T00:09:56Z</time>
      </trkpt>
      <trkpt lat="45.76463" lon="3.12471">
        <ele>349</ele>
        <time>2018-02-14T00:10:07Z</time>
      </trkpt>
      <trkpt lat="45.76494" lon="3.12353">
        <ele>350</ele>
        <time>2018-02-14T00:10:11Z</time>
      </trkpt>
      <trkpt lat="45.76509" lon="3.12299">
        <ele>351</ele>
        <time>2018-02-14T00:10:22Z</time>
      </trkpt>
      <trkpt lat="45.76502" lon="3.12299">
        <ele>351</ele>
        <time>2018-02-14T00:10:29Z</time>
      </trkpt>
      <trkpt lat="45.76489" lon="3.12299">
        <ele>352</ele>
        <time>2018-02-14T00:10:33Z</time>
      </trkpt>
      <trkpt lat="45.76477" lon="3.12303">
        <ele>352</ele>
        <time>2018-02-14T00:10:47Z</time>
      </trkpt>
      <trkpt lat="45.76466" lon="3.1231">
        <ele>352</ele>
        <time>2018-02-14T00:10:58Z</time>
      </trkpt>
      <trkpt lat="45.76429" lon="3.12329">
        <ele>353</ele>
        <time>2018-02-14T00:11:12Z</time>
      </trkpt>
      <trkpt lat="45.76388" lon="3.1234">
        <ele>354</ele>
        <time>2018-02-14T00:11:28Z</time>
      </trkpt>
      <trkpt lat="45.76352" lon="3.12342">
        <ele>356</ele>
        <time>2018-02-14T00:11:30Z</time>
      </trkpt>
      <trkpt lat="45.76285" lon="3.12336">
        <ele>359</ele>
        <time>2018-02-14T00:11:48Z</time>
      </trkpt>
      <trkpt lat="45.76246" lon="3.12333">
        <ele>361</ele>
        <time>2018-02-14T00:11:59Z</time>
      </trkpt>
      <trkpt lat="45.76235" lon="3.12332">
        <ele>362</ele>
        <time>2018-02-14T00:12:04Z</time>
      </trkpt>
      <trkpt lat="45.76229" lon="3.12329">
        <ele>362</ele>
        <time>2018-02-14T00:12:07Z</time>
      </trkpt>
      <trkpt lat="45.76214" lon="3.12325">
        <ele>363</ele>
        <time>2018-02-14T00:12:17Z</time>
      </trkpt>
      <trkpt lat="45.76201" lon="3.12321">
        <ele>363</ele>
        <time>2018-02-14T00:12:31Z</time>
      </trkpt>
      <trkpt lat="45.76177" lon="3.12307">
        <ele>364</ele>
        <time>2018-02-14T00:12:46Z</time>
      </trkpt>
      <trkpt lat="45.76133" lon="3.12284">
        <ele>365</ele>
        <time>2018-02-14T00:13:00Z</time>
      </trkpt>
      <trkpt lat="45.76119" lon="3.12279">
        <ele>366</ele>
        <time>2018-02-14T00:13:05Z</time>
      </trkpt>
      <trkpt lat="45.7603" lon="3.12249">
        <ele>366</ele>
        <time>2018-02-14T00:13:09Z</time>
      </trkpt>
      <trkpt lat="45.76006" lon="3.12258">
        <ele>366</ele>
        <time>2018-02-14T00:13:17Z</time>
      </trkpt>
      <trkpt lat="45.75998" lon="3.12264">
        <ele>366</ele>
        <time>2018-02-14T00:13:33Z</time>
      </trkpt>
      <trkpt lat="45.75988" lon="3.12263">
        <ele>366</ele>
        <time>2018-02-14T00:13:46Z</time>
      </trkpt>
      <trkpt lat="45.75979" lon="3.12251">
        <ele>366</ele>
        <time>2018-02-14T00:13:51Z</time>
      </trkpt>
      <trkpt lat="45.75977" lon="3.12246">
        <ele>366</ele>
        <time>2018-02-14T00:14:02Z</time>
      </trkpt>
      <trkpt lat="45.75967" lon="3.12232">
        <ele>367</ele>
        <time>2018-02-14T00:14:07Z</time>
      </trkpt>
      <trkpt lat="45.75953" lon="3.1222">
        <ele>367</ele>
        <time>2018-02-14T00:14:12Z</time>
      </trkpt>
      <trkpt lat="45.75951" lon="3.12216">
        <ele>367</ele>
        <time>2018-02-14T00:14:21Z</time>
      </trkpt>
      <trkpt lat="45.75909" lon="3.12187">
        <ele>367</ele>
        <time>2018-02-14T00:14:39Z</time>
      </trkpt>
      <trkpt lat="45.75882" lon="3.12164">
        <ele>367</ele>
        <time>2018-02-14T00:14:44Z</time>
      </trkpt>
      <trkpt lat="45.75856" lon="3.12137">
        <ele>367</ele>
        <time>2018-02-14T00:14:58Z</time>
      </trkpt>
      <trkpt lat="45.75812" lon="3.12081">
        <ele>367</ele>
        <time>2018-02-14T00:15:18Z</time>
      </trkpt>
      <trkpt lat="45.75774" lon="3.12027">
        <ele>367</ele>
        <time>2018-02-14T00:15:25Z</time>
      </trkpt>
      <trkpt lat="45.75712" lon="3.11944">
        <ele>367</ele>
        <time>2018-02-14T00:15:30Z</time>
      </trkpt>
      <trkpt lat="45.75618" lon="3.11797">
        <ele>368</ele>
        <time>2018-02-14T00:15:43Z</time>
      </trkpt>
      <trkpt lat="45.75554" lon="3.11693">
        <ele>369</ele>
        <time>2018-02-14T00:15:46Z</time>
      </trkpt>
      <trkpt lat="45.7553" lon="3.11652">
        <ele>370</ele>
        <time>2018-02-14T00:15:56Z</time>
      </trkpt>
      <trkpt lat="45.75494" lon="3.11589">
        <ele>371</ele>
        <time>2018-02-14T00:16:14Z</time>
      </trkpt>
      <trkpt lat="45.75431" lon="3.11455">
        <ele>373</ele>
        <time>2018-02-14T00:16:25Z</time>
      </trkpt>
      <trkpt lat="45.75397" lon="3.11381">
        <ele>374</ele>
        <time>2018-02-14T00:16:31Z</time>
      </trkpt>
      <trkpt lat="45.75381" lon="3.11352">
        <ele>374</ele>
        <time>2018-02-14T00:16:40Z</time>
      </trkpt>
      <trkpt lat="45.75325" lon="3.11264">
        <ele>374</ele>
        <time>2018-02-14T00:16:47Z</time>
      </trkpt>
      <trkpt lat="45.753" lon="3.11223">
        <ele>375</ele>
        <time>2018-02-14T00:16:59Z</time>
      </trkpt>
      <trkpt lat="45.7529" lon="3.11194">
        <ele>375</ele>
        <time>2018-02-14T00:17:14Z</time>
      </trkpt>
      <trkpt lat="45.75285" lon="3.11173">
        <ele>376</ele>
        <time>2018-02-14T00:17:28Z</time>
      </trkpt>
      <trkpt lat="45.7527" lon="3.11108">
        <ele>377</ele>
        <time>2018-02-14T00:17:42Z</time>
      </trkpt>
      <trkpt lat="45.75262" lon="3.11077">
        <ele>377</ele>
        <time>2018-02-14T00:17:53Z</time>
      </trkpt>
      <trkpt lat="45.75239" lon="3.11034">
        <ele>378</ele>
        <time>2018-02-14T00:18:07Z</time>
      </trkpt>
      <trkpt lat="45.75217" lon="3.10996">
        <ele>379</ele>
        <time>2018-02-14T00:18:19Z</time>
      </trkpt>
      <trkpt lat="45.75195" lon="3.10951">
        <ele>381</ele>
        <time>2018-02-14T00:18:37Z</time>
      </trkpt>
      <trkpt lat="45.75167" lon="3.10901">
        <ele>381</ele>
        <time>2018-02-14T00:18:53Z</time>
      </trkpt>
      <trkpt lat="45.75165" lon="3.10901">
        <ele>382</ele>
        <time>2018-02-14T00:19:00Z</time>
      </trkpt>
      <trkpt lat="45.75162" lon="3.10899">
        <ele>382</ele>
        <time>2018-02-14T00:19:13Z</time>
      </trkpt>
      <trkpt lat="45.75157" lon="3.10892">
        <ele>382</ele>
        <time>2018-02-14T00:19:18Z</time>
      </trkpt>
      <trkpt lat="45.75156" lon="3.10887">
        <ele>382</ele>
        <time>2018-02-14T00:19:22Z</time>
      </trkpt>
      <trkpt lat="45.75156" lon="3.10884">
        <ele>383</ele>
        <time>2018-02-14T00:19:37Z</time>
      </trkpt>
      <trkpt lat="45.75138" lon="3.10853">
        <ele>383</ele>
        <time>2018-02-14T00:19:39Z</time>
      </trkpt>
      <trkpt lat="45.75116" lon="3.10815">
        <ele>384</ele>
        <time>2018-02-14T00:19:57Z</time>
      </trkpt>
      <trkpt lat="45.75099" lon="3.10779">
        <ele>385</ele>
        <time>2018-02-14T00:20:04Z</time>
      </trkpt>
      <trkpt lat="45.75085" lon="3.10739">
        <ele>386</ele>
        <time>2018-02-14T00:20:13Z</time>
      </trkpt>
      <trkpt lat="45.75072" lon="3.10692">
        <ele>386</ele>
        <time>2018-02-14T00:20:19Z</time>
      </trkpt>
      <trkpt lat="45.75054" lon="3.10657">
        <ele>387</ele>
        <time>2018-02-14T00:20:32Z</time>
      </trkpt>
      <trkpt lat="45.75055" lon="3.10655">
        <ele>387</ele>
        <time>2018-02-14T00:20:42Z</time>
      </trkpt>
      <trkpt lat="45.75056" lon="3.10651">
        <ele>388</ele>
        <time>2018-02-14T00:20:44Z</time>
      </trkpt>
      <trkpt lat="45.75055" lon="3.10646">
        <ele>388</ele>
        <time>2018-02-14T00:20:52Z</time>
      </trkpt>
      <trkpt lat="45.75053" lon="3.10638">
        <ele>388</ele>
        <time>2018-02-14T00:21:09Z</time>
      </trkpt>
      <trkpt lat="45.75048" lon="3.10633">
        <ele>388</ele>
        <time>2018-02-14T00:21:29Z</time>
      </trkpt>
      <trkpt lat="45.75043" lon="3.10631">
        <ele>388</ele>
        <time>2018-02-14T00:21:45Z</time>
      </trkpt>
      <trkpt lat="45.75037" lon="3.10633">
        <ele>388</ele>
        <time>2018-02-14T00:21:59Z</time>
      </trkpt>
      <trkpt lat="45.75035" lon="3.10636">
        <ele>388</ele>
        <time>2018-02-14T00:22:02Z</time>
      </trkpt>
      <trkpt lat="45.75018" lon="3.10625">
        <ele>388</ele>
        <time>2018-02-14T00:22:13Z</time>
      </trkpt>
      <trkpt lat="45.75011" lon="3.10617">
        <ele>388</ele>
        <time>2018-02-14T00:22:19Z</time>
      </trkpt>
      <trkpt lat="45.74986" lon="3.10592">
        <ele>389</ele>
        <time>2018-02-14T00:22:30Z</time>
      </trkpt>
      <trkpt lat="45.7497" lon="3.10569">
        <ele>389</ele>
        <time>2018-02-14T00:22:34Z</time>
      </trkpt>
      <trkpt lat="45.74945" lon="3.1053">
        <ele>389</ele>
        <time>2018-02-14T00:22:42Z</time>
      </trkpt>
      <trkpt lat="45.74931" lon="3.10501">
        <ele>390</ele>
        <time>2018-02-14T00:22:58Z</time>
      </trkpt>
      <trkpt lat="45.74865" lon="3.10338">
        <ele>390</ele>
        <time>2018-02-14T00:23:04Z</time>
      </trkpt>
      <trkpt lat="45.74852" lon="3.10305">
        <ele>391</ele>
        <time>2018-02-14T00:23:08Z</time>
      </trkpt>
      <trkpt lat="45.74846" lon="3.10298">
        <ele>391</ele>
        <time>2018-02-14T00:23:21Z</time>
      </trkpt>
      <trkpt lat="45.74836" lon="3.10268">
        <ele>392</ele>
        <time>2018-02-14T00:23:25Z</time>
      </trkpt>
      <trkpt lat="45.7483" lon="3.10256">
        <ele>392</ele>
        <time>2018-02-14T00:23:28Z</time>
      </trkpt>
    </trkseg>
  </trk>
</gpx>